<?xml version="1.0" encoding="UTF-8" standalone="no" ?>
<gpx xmlns="http://www.topografix.com/GPX/1/1" xmlns:xsi="http://www.w3.org/2001/XMLSchema-instance" xsi:schemaLocation="http://www.topografix.com/GPX/1/1 http://www.topografix.com/GPX/1/1/gpx.xsd" version="1.1" creator="VisuGPX - https://www.visugpx.com">
  <metadata>
    <name>83-D-la Croix Valmer</name>
    <desc><![CDATA[83-D-la Croix Valmer : les balcons de Cavalaire
2024-05-26]]></desc>
  </metadata>
  <trk>
    <name><![CDATA[2024-05-26-D-MPL-croix valmer]]></name>
    <extensions>
      <line xmlns="http://www.topografix.com/GPX/gpx_style/0/2">
        <width>4</width>
      </line>
    </extensions>
    <trkseg>
      <trkpt lat="43.20967" lon="6.54861">
        <ele>206.9</ele>
        <time>2024-05-26T07:18:08.000Z</time>
      </trkpt>
      <trkpt lat="43.20967" lon="6.54861">
        <ele>206.9</ele>
        <time>2024-05-26T07:18:09.000Z</time>
      </trkpt>
      <trkpt lat="43.20967" lon="6.54861">
        <ele>206.9</ele>
        <time>2024-05-26T07:18:10.000Z</time>
      </trkpt>
      <trkpt lat="43.20967" lon="6.54861">
        <ele>206.9</ele>
        <time>2024-05-26T07:18:11.000Z</time>
      </trkpt>
      <trkpt lat="43.20967" lon="6.54861">
        <ele>206.8</ele>
        <time>2024-05-26T07:18:15.000Z</time>
      </trkpt>
      <trkpt lat="43.20967" lon="6.54861">
        <ele>206.8</ele>
        <time>2024-05-26T07:18:15.000Z</time>
      </trkpt>
      <trkpt lat="43.20967" lon="6.54861">
        <ele>206.8</ele>
        <time>2024-05-26T07:18:16.000Z</time>
      </trkpt>
      <trkpt lat="43.20966" lon="6.54862">
        <ele>206.8</ele>
        <time>2024-05-26T07:18:22.000Z</time>
      </trkpt>
      <trkpt lat="43.20966" lon="6.54862">
        <ele>206.8</ele>
        <time>2024-05-26T07:18:23.000Z</time>
      </trkpt>
      <trkpt lat="43.20966" lon="6.54862">
        <ele>206.8</ele>
        <time>2024-05-26T07:18:24.000Z</time>
      </trkpt>
      <trkpt lat="43.20965" lon="6.54862">
        <ele>206.7</ele>
        <time>2024-05-26T07:18:27.000Z</time>
      </trkpt>
      <trkpt lat="43.20965" lon="6.54862">
        <ele>206.7</ele>
        <time>2024-05-26T07:18:28.000Z</time>
      </trkpt>
      <trkpt lat="43.20965" lon="6.54862">
        <ele>206.7</ele>
        <time>2024-05-26T07:18:29.000Z</time>
      </trkpt>
      <trkpt lat="43.20965" lon="6.54862">
        <ele>206.7</ele>
        <time>2024-05-26T07:18:30.000Z</time>
      </trkpt>
      <trkpt lat="43.20965" lon="6.54862">
        <ele>206.6</ele>
        <time>2024-05-26T07:18:31.000Z</time>
      </trkpt>
      <trkpt lat="43.20966" lon="6.54861">
        <ele>205.5</ele>
        <time>2024-05-26T07:19:42.000Z</time>
      </trkpt>
      <trkpt lat="43.20966" lon="6.54861">
        <ele>205.5</ele>
        <time>2024-05-26T07:19:43.000Z</time>
      </trkpt>
      <trkpt lat="43.20966" lon="6.54861">
        <ele>205.5</ele>
        <time>2024-05-26T07:19:44.000Z</time>
      </trkpt>
      <trkpt lat="43.20966" lon="6.54861">
        <ele>205.5</ele>
        <time>2024-05-26T07:19:45.000Z</time>
      </trkpt>
      <trkpt lat="43.20966" lon="6.54861">
        <ele>205.2</ele>
        <time>2024-05-26T07:20:20.000Z</time>
      </trkpt>
      <trkpt lat="43.20966" lon="6.54861">
        <ele>205.2</ele>
        <time>2024-05-26T07:20:21.000Z</time>
      </trkpt>
      <trkpt lat="43.20966" lon="6.54861">
        <ele>205.2</ele>
        <time>2024-05-26T07:20:22.000Z</time>
      </trkpt>
      <trkpt lat="43.20966" lon="6.54861">
        <ele>205.2</ele>
        <time>2024-05-26T07:20:23.000Z</time>
      </trkpt>
      <trkpt lat="43.20967" lon="6.54861">
        <ele>204.9</ele>
        <time>2024-05-26T07:20:49.000Z</time>
      </trkpt>
      <trkpt lat="43.20967" lon="6.54861">
        <ele>204.9</ele>
        <time>2024-05-26T07:20:50.000Z</time>
      </trkpt>
      <trkpt lat="43.20967" lon="6.54861">
        <ele>204.9</ele>
        <time>2024-05-26T07:20:51.000Z</time>
      </trkpt>
      <trkpt lat="43.20967" lon="6.54861">
        <ele>204.9</ele>
        <time>2024-05-26T07:20:52.000Z</time>
      </trkpt>
      <trkpt lat="43.20967" lon="6.54861">
        <ele>204.9</ele>
        <time>2024-05-26T07:20:53.000Z</time>
      </trkpt>
      <trkpt lat="43.20967" lon="6.54861">
        <ele>204.8</ele>
        <time>2024-05-26T07:21:06.000Z</time>
      </trkpt>
      <trkpt lat="43.20967" lon="6.54861">
        <ele>204.8</ele>
        <time>2024-05-26T07:21:07.000Z</time>
      </trkpt>
      <trkpt lat="43.20967" lon="6.54861">
        <ele>204.8</ele>
        <time>2024-05-26T07:21:08.000Z</time>
      </trkpt>
      <trkpt lat="43.20967" lon="6.54861">
        <ele>204.8</ele>
        <time>2024-05-26T07:21:09.000Z</time>
      </trkpt>
      <trkpt lat="43.20967" lon="6.54861">
        <ele>204.8</ele>
        <time>2024-05-26T07:21:10.000Z</time>
      </trkpt>
      <trkpt lat="43.20965" lon="6.54862">
        <ele>204.7</ele>
        <time>2024-05-26T07:21:17.000Z</time>
      </trkpt>
      <trkpt lat="43.20965" lon="6.54864">
        <ele>204.7</ele>
        <time>2024-05-26T07:21:18.000Z</time>
      </trkpt>
      <trkpt lat="43.20965" lon="6.54864">
        <ele>204.6</ele>
        <time>2024-05-26T07:21:27.000Z</time>
      </trkpt>
      <trkpt lat="43.20965" lon="6.54864">
        <ele>204.6</ele>
        <time>2024-05-26T07:21:28.000Z</time>
      </trkpt>
      <trkpt lat="43.20966" lon="6.54862">
        <ele>204.6</ele>
        <time>2024-05-26T07:21:32.000Z</time>
      </trkpt>
      <trkpt lat="43.20966" lon="6.54861">
        <ele>204.6</ele>
        <time>2024-05-26T07:21:33.000Z</time>
      </trkpt>
      <trkpt lat="43.20968" lon="6.54858">
        <ele>204.5</ele>
        <time>2024-05-26T07:21:42.000Z</time>
      </trkpt>
      <trkpt lat="43.20968" lon="6.54858">
        <ele>204.5</ele>
        <time>2024-05-26T07:21:43.000Z</time>
      </trkpt>
      <trkpt lat="43.20968" lon="6.54858">
        <ele>204.5</ele>
        <time>2024-05-26T07:21:44.000Z</time>
      </trkpt>
      <trkpt lat="43.20969" lon="6.54858">
        <ele>204.3</ele>
        <time>2024-05-26T07:21:59.000Z</time>
      </trkpt>
      <trkpt lat="43.20969" lon="6.54858">
        <ele>204.3</ele>
        <time>2024-05-26T07:22:00.000Z</time>
      </trkpt>
      <trkpt lat="43.20969" lon="6.54858">
        <ele>204.3</ele>
        <time>2024-05-26T07:22:01.000Z</time>
      </trkpt>
      <trkpt lat="43.20969" lon="6.54858">
        <ele>204.3</ele>
        <time>2024-05-26T07:22:02.000Z</time>
      </trkpt>
      <trkpt lat="43.20969" lon="6.54858">
        <ele>204.3</ele>
        <time>2024-05-26T07:22:03.000Z</time>
      </trkpt>
      <trkpt lat="43.20968" lon="6.54857">
        <ele>204.3</ele>
        <time>2024-05-26T07:22:07.000Z</time>
      </trkpt>
      <trkpt lat="43.20968" lon="6.54857">
        <ele>204.3</ele>
        <time>2024-05-26T07:22:08.000Z</time>
      </trkpt>
      <trkpt lat="43.20968" lon="6.54857">
        <ele>204.2</ele>
        <time>2024-05-26T07:22:11.000Z</time>
      </trkpt>
      <trkpt lat="43.20968" lon="6.54857">
        <ele>204.2</ele>
        <time>2024-05-26T07:22:12.000Z</time>
      </trkpt>
      <trkpt lat="43.20968" lon="6.54857">
        <ele>204.2</ele>
        <time>2024-05-26T07:22:13.000Z</time>
      </trkpt>
      <trkpt lat="43.20968" lon="6.54857">
        <ele>204</ele>
        <time>2024-05-26T07:22:39.000Z</time>
      </trkpt>
      <trkpt lat="43.20968" lon="6.54857">
        <ele>204</ele>
        <time>2024-05-26T07:22:40.000Z</time>
      </trkpt>
      <trkpt lat="43.20967" lon="6.54856">
        <ele>203.9</ele>
        <time>2024-05-26T07:22:47.000Z</time>
      </trkpt>
      <trkpt lat="43.20967" lon="6.54856">
        <ele>203.9</ele>
        <time>2024-05-26T07:22:48.000Z</time>
      </trkpt>
      <trkpt lat="43.20967" lon="6.54857">
        <ele>203.8</ele>
        <time>2024-05-26T07:22:49.000Z</time>
      </trkpt>
      <trkpt lat="43.20967" lon="6.54858">
        <ele>203.8</ele>
        <time>2024-05-26T07:22:50.000Z</time>
      </trkpt>
      <trkpt lat="43.20967" lon="6.54858">
        <ele>203.8</ele>
        <time>2024-05-26T07:22:51.000Z</time>
      </trkpt>
      <trkpt lat="43.20968" lon="6.5486">
        <ele>203.8</ele>
        <time>2024-05-26T07:23:02.000Z</time>
      </trkpt>
      <trkpt lat="43.20968" lon="6.54861">
        <ele>203.8</ele>
        <time>2024-05-26T07:23:03.000Z</time>
      </trkpt>
      <trkpt lat="43.20967" lon="6.54861">
        <ele>203.8</ele>
        <time>2024-05-26T07:23:06.000Z</time>
      </trkpt>
      <trkpt lat="43.20967" lon="6.54861">
        <ele>203.7</ele>
        <time>2024-05-26T07:23:07.000Z</time>
      </trkpt>
      <trkpt lat="43.20967" lon="6.54861">
        <ele>203.7</ele>
        <time>2024-05-26T07:23:08.000Z</time>
      </trkpt>
      <trkpt lat="43.20967" lon="6.54861">
        <ele>203.7</ele>
        <time>2024-05-26T07:23:09.000Z</time>
      </trkpt>
      <trkpt lat="43.20967" lon="6.54861">
        <ele>203.7</ele>
        <time>2024-05-26T07:23:10.000Z</time>
      </trkpt>
      <trkpt lat="43.20967" lon="6.54862">
        <ele>203.7</ele>
        <time>2024-05-26T07:23:14.000Z</time>
      </trkpt>
      <trkpt lat="43.20967" lon="6.54862">
        <ele>203.7</ele>
        <time>2024-05-26T07:23:15.000Z</time>
      </trkpt>
      <trkpt lat="43.20967" lon="6.54862">
        <ele>203.7</ele>
        <time>2024-05-26T07:23:16.000Z</time>
      </trkpt>
      <trkpt lat="43.20967" lon="6.54862">
        <ele>203.7</ele>
        <time>2024-05-26T07:23:17.000Z</time>
      </trkpt>
      <trkpt lat="43.20967" lon="6.54862">
        <ele>203.7</ele>
        <time>2024-05-26T07:23:18.000Z</time>
      </trkpt>
      <trkpt lat="43.20967" lon="6.54862">
        <ele>203.7</ele>
        <time>2024-05-26T07:23:19.000Z</time>
      </trkpt>
      <trkpt lat="43.20967" lon="6.54862">
        <ele>203.7</ele>
        <time>2024-05-26T07:23:20.000Z</time>
      </trkpt>
      <trkpt lat="43.20967" lon="6.54862">
        <ele>203.7</ele>
        <time>2024-05-26T07:23:21.000Z</time>
      </trkpt>
      <trkpt lat="43.20967" lon="6.54862">
        <ele>203.7</ele>
        <time>2024-05-26T07:23:22.000Z</time>
      </trkpt>
      <trkpt lat="43.20967" lon="6.54862">
        <ele>203.7</ele>
        <time>2024-05-26T07:23:23.000Z</time>
      </trkpt>
      <trkpt lat="43.20967" lon="6.54862">
        <ele>203.7</ele>
        <time>2024-05-26T07:23:27.000Z</time>
      </trkpt>
      <trkpt lat="43.20967" lon="6.54862">
        <ele>203.7</ele>
        <time>2024-05-26T07:23:28.000Z</time>
      </trkpt>
      <trkpt lat="43.20967" lon="6.54862">
        <ele>203.7</ele>
        <time>2024-05-26T07:23:29.000Z</time>
      </trkpt>
      <trkpt lat="43.20976" lon="6.54859">
        <ele>203.6</ele>
        <time>2024-05-26T07:23:46.000Z</time>
      </trkpt>
      <trkpt lat="43.20986" lon="6.54857">
        <ele>203.5</ele>
        <time>2024-05-26T07:24:00.000Z</time>
      </trkpt>
      <trkpt lat="43.20995" lon="6.54857">
        <ele>203.5</ele>
        <time>2024-05-26T07:24:09.000Z</time>
      </trkpt>
      <trkpt lat="43.21004" lon="6.54854">
        <ele>203.6</ele>
        <time>2024-05-26T07:24:18.000Z</time>
      </trkpt>
      <trkpt lat="43.21013" lon="6.54853">
        <ele>203.8</ele>
        <time>2024-05-26T07:24:27.000Z</time>
      </trkpt>
      <trkpt lat="43.21022" lon="6.54855">
        <ele>204.3</ele>
        <time>2024-05-26T07:24:35.000Z</time>
      </trkpt>
      <trkpt lat="43.21031" lon="6.54855">
        <ele>205.4</ele>
        <time>2024-05-26T07:24:46.000Z</time>
      </trkpt>
      <trkpt lat="43.2104" lon="6.54852">
        <ele>206.2</ele>
        <time>2024-05-26T07:24:54.000Z</time>
      </trkpt>
      <trkpt lat="43.21049" lon="6.54849">
        <ele>207.1</ele>
        <time>2024-05-26T07:25:03.000Z</time>
      </trkpt>
      <trkpt lat="43.21058" lon="6.54846">
        <ele>207.8</ele>
        <time>2024-05-26T07:25:12.000Z</time>
      </trkpt>
      <trkpt lat="43.21067" lon="6.54843">
        <ele>208.4</ele>
        <time>2024-05-26T07:25:21.000Z</time>
      </trkpt>
      <trkpt lat="43.21076" lon="6.54838">
        <ele>209</ele>
        <time>2024-05-26T07:25:29.000Z</time>
      </trkpt>
      <trkpt lat="43.21084" lon="6.54832">
        <ele>209.6</ele>
        <time>2024-05-26T07:25:37.000Z</time>
      </trkpt>
      <trkpt lat="43.21092" lon="6.54824">
        <ele>210.1</ele>
        <time>2024-05-26T07:25:45.000Z</time>
      </trkpt>
      <trkpt lat="43.211" lon="6.54817">
        <ele>210.6</ele>
        <time>2024-05-26T07:25:53.000Z</time>
      </trkpt>
      <trkpt lat="43.21108" lon="6.54811">
        <ele>211.1</ele>
        <time>2024-05-26T07:26:04.000Z</time>
      </trkpt>
      <trkpt lat="43.21116" lon="6.54803">
        <ele>211.5</ele>
        <time>2024-05-26T07:26:14.000Z</time>
      </trkpt>
      <trkpt lat="43.21123" lon="6.54794">
        <ele>212</ele>
        <time>2024-05-26T07:26:24.000Z</time>
      </trkpt>
      <trkpt lat="43.2113" lon="6.54784">
        <ele>212.3</ele>
        <time>2024-05-26T07:26:33.000Z</time>
      </trkpt>
      <trkpt lat="43.21137" lon="6.54775">
        <ele>212.5</ele>
        <time>2024-05-26T07:26:41.000Z</time>
      </trkpt>
      <trkpt lat="43.2114" lon="6.54764">
        <ele>213</ele>
        <time>2024-05-26T07:26:49.000Z</time>
      </trkpt>
      <trkpt lat="43.21143" lon="6.54751">
        <ele>213.6</ele>
        <time>2024-05-26T07:26:58.000Z</time>
      </trkpt>
      <trkpt lat="43.21141" lon="6.54738">
        <ele>214.4</ele>
        <time>2024-05-26T07:27:08.000Z</time>
      </trkpt>
      <trkpt lat="43.21143" lon="6.54726">
        <ele>215.2</ele>
        <time>2024-05-26T07:27:17.000Z</time>
      </trkpt>
      <trkpt lat="43.21146" lon="6.54713">
        <ele>216</ele>
        <time>2024-05-26T07:27:26.000Z</time>
      </trkpt>
      <trkpt lat="43.21147" lon="6.547">
        <ele>216.9</ele>
        <time>2024-05-26T07:27:37.000Z</time>
      </trkpt>
      <trkpt lat="43.21147" lon="6.54696">
        <ele>217.5</ele>
        <time>2024-05-26T07:27:46.000Z</time>
      </trkpt>
      <trkpt lat="43.21147" lon="6.54696">
        <ele>217.6</ele>
        <time>2024-05-26T07:27:47.000Z</time>
      </trkpt>
      <trkpt lat="43.21147" lon="6.54696">
        <ele>217.6</ele>
        <time>2024-05-26T07:27:48.000Z</time>
      </trkpt>
      <trkpt lat="43.21148" lon="6.54697">
        <ele>217.7</ele>
        <time>2024-05-26T07:27:52.000Z</time>
      </trkpt>
      <trkpt lat="43.21149" lon="6.54697">
        <ele>217.7</ele>
        <time>2024-05-26T07:27:53.000Z</time>
      </trkpt>
      <trkpt lat="43.21149" lon="6.54696">
        <ele>217.7</ele>
        <time>2024-05-26T07:27:54.000Z</time>
      </trkpt>
      <trkpt lat="43.2115" lon="6.54696">
        <ele>217.8</ele>
        <time>2024-05-26T07:27:59.000Z</time>
      </trkpt>
      <trkpt lat="43.2115" lon="6.54696">
        <ele>217.8</ele>
        <time>2024-05-26T07:28:00.000Z</time>
      </trkpt>
      <trkpt lat="43.2115" lon="6.54695">
        <ele>217.9</ele>
        <time>2024-05-26T07:28:01.000Z</time>
      </trkpt>
      <trkpt lat="43.2115" lon="6.54695">
        <ele>217.9</ele>
        <time>2024-05-26T07:28:02.000Z</time>
      </trkpt>
      <trkpt lat="43.2115" lon="6.54694">
        <ele>217.9</ele>
        <time>2024-05-26T07:28:03.000Z</time>
      </trkpt>
      <trkpt lat="43.2115" lon="6.54694">
        <ele>218</ele>
        <time>2024-05-26T07:28:06.000Z</time>
      </trkpt>
      <trkpt lat="43.2115" lon="6.54694">
        <ele>218</ele>
        <time>2024-05-26T07:28:07.000Z</time>
      </trkpt>
      <trkpt lat="43.2115" lon="6.54694">
        <ele>218</ele>
        <time>2024-05-26T07:28:08.000Z</time>
      </trkpt>
      <trkpt lat="43.2115" lon="6.54694">
        <ele>218.1</ele>
        <time>2024-05-26T07:28:14.000Z</time>
      </trkpt>
      <trkpt lat="43.21151" lon="6.54694">
        <ele>218.1</ele>
        <time>2024-05-26T07:28:15.000Z</time>
      </trkpt>
      <trkpt lat="43.21151" lon="6.54694">
        <ele>218.1</ele>
        <time>2024-05-26T07:28:16.000Z</time>
      </trkpt>
      <trkpt lat="43.21151" lon="6.54694">
        <ele>218.1</ele>
        <time>2024-05-26T07:28:17.000Z</time>
      </trkpt>
      <trkpt lat="43.21151" lon="6.54694">
        <ele>218.1</ele>
        <time>2024-05-26T07:28:18.000Z</time>
      </trkpt>
      <trkpt lat="43.21151" lon="6.54694">
        <ele>218.1</ele>
        <time>2024-05-26T07:28:19.000Z</time>
      </trkpt>
      <trkpt lat="43.21151" lon="6.54694">
        <ele>218.1</ele>
        <time>2024-05-26T07:28:22.000Z</time>
      </trkpt>
      <trkpt lat="43.2115" lon="6.54694">
        <ele>218.1</ele>
        <time>2024-05-26T07:28:23.000Z</time>
      </trkpt>
      <trkpt lat="43.2115" lon="6.54693">
        <ele>218.1</ele>
        <time>2024-05-26T07:28:42.000Z</time>
      </trkpt>
      <trkpt lat="43.2115" lon="6.54693">
        <ele>218.1</ele>
        <time>2024-05-26T07:28:43.000Z</time>
      </trkpt>
      <trkpt lat="43.2115" lon="6.54693">
        <ele>218.1</ele>
        <time>2024-05-26T07:28:44.000Z</time>
      </trkpt>
      <trkpt lat="43.2115" lon="6.54693">
        <ele>218.1</ele>
        <time>2024-05-26T07:28:45.000Z</time>
      </trkpt>
      <trkpt lat="43.21151" lon="6.54693">
        <ele>218.1</ele>
        <time>2024-05-26T07:28:46.000Z</time>
      </trkpt>
      <trkpt lat="43.21152" lon="6.54691">
        <ele>218</ele>
        <time>2024-05-26T07:28:50.000Z</time>
      </trkpt>
      <trkpt lat="43.21153" lon="6.54691">
        <ele>218</ele>
        <time>2024-05-26T07:28:51.000Z</time>
      </trkpt>
      <trkpt lat="43.21155" lon="6.54691">
        <ele>218</ele>
        <time>2024-05-26T07:28:57.000Z</time>
      </trkpt>
      <trkpt lat="43.21155" lon="6.54691">
        <ele>218</ele>
        <time>2024-05-26T07:28:58.000Z</time>
      </trkpt>
      <trkpt lat="43.21162" lon="6.54682">
        <ele>218.1</ele>
        <time>2024-05-26T07:29:06.000Z</time>
      </trkpt>
      <trkpt lat="43.21164" lon="6.5467">
        <ele>218.2</ele>
        <time>2024-05-26T07:29:13.000Z</time>
      </trkpt>
      <trkpt lat="43.21163" lon="6.54656">
        <ele>218.7</ele>
        <time>2024-05-26T07:29:28.000Z</time>
      </trkpt>
      <trkpt lat="43.21159" lon="6.54645">
        <ele>219.5</ele>
        <time>2024-05-26T07:29:36.000Z</time>
      </trkpt>
      <trkpt lat="43.21156" lon="6.54631">
        <ele>220.6</ele>
        <time>2024-05-26T07:29:43.000Z</time>
      </trkpt>
      <trkpt lat="43.21154" lon="6.54619">
        <ele>221.4</ele>
        <time>2024-05-26T07:29:49.000Z</time>
      </trkpt>
      <trkpt lat="43.21153" lon="6.54606">
        <ele>222.7</ele>
        <time>2024-05-26T07:29:58.000Z</time>
      </trkpt>
      <trkpt lat="43.21151" lon="6.54593">
        <ele>223.5</ele>
        <time>2024-05-26T07:30:05.000Z</time>
      </trkpt>
      <trkpt lat="43.21151" lon="6.5458">
        <ele>224.2</ele>
        <time>2024-05-26T07:30:13.000Z</time>
      </trkpt>
      <trkpt lat="43.2115" lon="6.54567">
        <ele>224.9</ele>
        <time>2024-05-26T07:30:21.000Z</time>
      </trkpt>
      <trkpt lat="43.21148" lon="6.54554">
        <ele>225.4</ele>
        <time>2024-05-26T07:30:28.000Z</time>
      </trkpt>
      <trkpt lat="43.21146" lon="6.54542">
        <ele>225.6</ele>
        <time>2024-05-26T07:30:35.000Z</time>
      </trkpt>
      <trkpt lat="43.2115" lon="6.5453">
        <ele>225.9</ele>
        <time>2024-05-26T07:30:43.000Z</time>
      </trkpt>
      <trkpt lat="43.21149" lon="6.54517">
        <ele>226.4</ele>
        <time>2024-05-26T07:30:53.000Z</time>
      </trkpt>
      <trkpt lat="43.21147" lon="6.54517">
        <ele>226.7</ele>
        <time>2024-05-26T07:30:59.000Z</time>
      </trkpt>
      <trkpt lat="43.21147" lon="6.54517">
        <ele>226.8</ele>
        <time>2024-05-26T07:31:00.000Z</time>
      </trkpt>
      <trkpt lat="43.21147" lon="6.54517">
        <ele>226.8</ele>
        <time>2024-05-26T07:31:01.000Z</time>
      </trkpt>
      <trkpt lat="43.21147" lon="6.54517">
        <ele>226.9</ele>
        <time>2024-05-26T07:31:24.000Z</time>
      </trkpt>
      <trkpt lat="43.21147" lon="6.54517">
        <ele>226.9</ele>
        <time>2024-05-26T07:31:25.000Z</time>
      </trkpt>
      <trkpt lat="43.21147" lon="6.54517">
        <ele>226.9</ele>
        <time>2024-05-26T07:31:26.000Z</time>
      </trkpt>
      <trkpt lat="43.21147" lon="6.54517">
        <ele>226.9</ele>
        <time>2024-05-26T07:31:27.000Z</time>
      </trkpt>
      <trkpt lat="43.21147" lon="6.54517">
        <ele>226.9</ele>
        <time>2024-05-26T07:31:28.000Z</time>
      </trkpt>
      <trkpt lat="43.21147" lon="6.54517">
        <ele>226.9</ele>
        <time>2024-05-26T07:31:32.000Z</time>
      </trkpt>
      <trkpt lat="43.21146" lon="6.54516">
        <ele>226.9</ele>
        <time>2024-05-26T07:31:33.000Z</time>
      </trkpt>
      <trkpt lat="43.21147" lon="6.54516">
        <ele>226.9</ele>
        <time>2024-05-26T07:31:36.000Z</time>
      </trkpt>
      <trkpt lat="43.21147" lon="6.54515">
        <ele>226.8</ele>
        <time>2024-05-26T07:31:37.000Z</time>
      </trkpt>
      <trkpt lat="43.21147" lon="6.54515">
        <ele>226.8</ele>
        <time>2024-05-26T07:31:38.000Z</time>
      </trkpt>
      <trkpt lat="43.21146" lon="6.54512">
        <ele>226.5</ele>
        <time>2024-05-26T07:32:51.000Z</time>
      </trkpt>
      <trkpt lat="43.21146" lon="6.54513">
        <ele>226.5</ele>
        <time>2024-05-26T07:32:52.000Z</time>
      </trkpt>
      <trkpt lat="43.21146" lon="6.54513">
        <ele>226.5</ele>
        <time>2024-05-26T07:32:53.000Z</time>
      </trkpt>
      <trkpt lat="43.21146" lon="6.54513">
        <ele>226.5</ele>
        <time>2024-05-26T07:32:54.000Z</time>
      </trkpt>
      <trkpt lat="43.21146" lon="6.54512">
        <ele>226.5</ele>
        <time>2024-05-26T07:32:55.000Z</time>
      </trkpt>
      <trkpt lat="43.21146" lon="6.54512">
        <ele>226.5</ele>
        <time>2024-05-26T07:32:56.000Z</time>
      </trkpt>
      <trkpt lat="43.21146" lon="6.54511">
        <ele>226.5</ele>
        <time>2024-05-26T07:32:57.000Z</time>
      </trkpt>
      <trkpt lat="43.21146" lon="6.5451">
        <ele>226.5</ele>
        <time>2024-05-26T07:32:58.000Z</time>
      </trkpt>
      <trkpt lat="43.21146" lon="6.54509">
        <ele>226.5</ele>
        <time>2024-05-26T07:32:59.000Z</time>
      </trkpt>
      <trkpt lat="43.21147" lon="6.54497">
        <ele>226.5</ele>
        <time>2024-05-26T07:33:13.000Z</time>
      </trkpt>
      <trkpt lat="43.21146" lon="6.54495">
        <ele>226.6</ele>
        <time>2024-05-26T07:33:17.000Z</time>
      </trkpt>
      <trkpt lat="43.21146" lon="6.54495">
        <ele>226.6</ele>
        <time>2024-05-26T07:33:18.000Z</time>
      </trkpt>
      <trkpt lat="43.21146" lon="6.54493">
        <ele>226.6</ele>
        <time>2024-05-26T07:33:19.000Z</time>
      </trkpt>
      <trkpt lat="43.21146" lon="6.54492">
        <ele>226.6</ele>
        <time>2024-05-26T07:33:20.000Z</time>
      </trkpt>
      <trkpt lat="43.21146" lon="6.54491">
        <ele>226.7</ele>
        <time>2024-05-26T07:33:21.000Z</time>
      </trkpt>
      <trkpt lat="43.21145" lon="6.54479">
        <ele>227</ele>
        <time>2024-05-26T07:33:30.000Z</time>
      </trkpt>
      <trkpt lat="43.21144" lon="6.54466">
        <ele>227.6</ele>
        <time>2024-05-26T07:33:40.000Z</time>
      </trkpt>
      <trkpt lat="43.21143" lon="6.54453">
        <ele>228.4</ele>
        <time>2024-05-26T07:33:49.000Z</time>
      </trkpt>
      <trkpt lat="43.21146" lon="6.54441">
        <ele>229.4</ele>
        <time>2024-05-26T07:33:58.000Z</time>
      </trkpt>
      <trkpt lat="43.21145" lon="6.54429">
        <ele>230.4</ele>
        <time>2024-05-26T07:34:06.000Z</time>
      </trkpt>
      <trkpt lat="43.21139" lon="6.5442">
        <ele>231.3</ele>
        <time>2024-05-26T07:34:14.000Z</time>
      </trkpt>
      <trkpt lat="43.2113" lon="6.54415">
        <ele>231.9</ele>
        <time>2024-05-26T07:34:21.000Z</time>
      </trkpt>
      <trkpt lat="43.21121" lon="6.54411">
        <ele>232.5</ele>
        <time>2024-05-26T07:34:28.000Z</time>
      </trkpt>
      <trkpt lat="43.21113" lon="6.54403">
        <ele>233.1</ele>
        <time>2024-05-26T07:34:37.000Z</time>
      </trkpt>
      <trkpt lat="43.21105" lon="6.54396">
        <ele>233.4</ele>
        <time>2024-05-26T07:34:46.000Z</time>
      </trkpt>
      <trkpt lat="43.21098" lon="6.54386">
        <ele>233.8</ele>
        <time>2024-05-26T07:34:57.000Z</time>
      </trkpt>
      <trkpt lat="43.21093" lon="6.54376">
        <ele>234.4</ele>
        <time>2024-05-26T07:35:06.000Z</time>
      </trkpt>
      <trkpt lat="43.21094" lon="6.54363">
        <ele>235.4</ele>
        <time>2024-05-26T07:35:18.000Z</time>
      </trkpt>
      <trkpt lat="43.21096" lon="6.54353">
        <ele>236.6</ele>
        <time>2024-05-26T07:35:31.000Z</time>
      </trkpt>
      <trkpt lat="43.21097" lon="6.54353">
        <ele>236.7</ele>
        <time>2024-05-26T07:35:32.000Z</time>
      </trkpt>
      <trkpt lat="43.21096" lon="6.54353">
        <ele>236.8</ele>
        <time>2024-05-26T07:35:33.000Z</time>
      </trkpt>
      <trkpt lat="43.21096" lon="6.54352">
        <ele>236.8</ele>
        <time>2024-05-26T07:35:34.000Z</time>
      </trkpt>
      <trkpt lat="43.21097" lon="6.5435">
        <ele>236.9</ele>
        <time>2024-05-26T07:35:35.000Z</time>
      </trkpt>
      <trkpt lat="43.21097" lon="6.54349">
        <ele>237</ele>
        <time>2024-05-26T07:35:36.000Z</time>
      </trkpt>
      <trkpt lat="43.21095" lon="6.54336">
        <ele>238.1</ele>
        <time>2024-05-26T07:35:48.000Z</time>
      </trkpt>
      <trkpt lat="43.21092" lon="6.54324">
        <ele>239</ele>
        <time>2024-05-26T07:35:59.000Z</time>
      </trkpt>
      <trkpt lat="43.21086" lon="6.54314">
        <ele>240.1</ele>
        <time>2024-05-26T07:36:08.000Z</time>
      </trkpt>
      <trkpt lat="43.21083" lon="6.54302">
        <ele>241.6</ele>
        <time>2024-05-26T07:36:19.000Z</time>
      </trkpt>
      <trkpt lat="43.21082" lon="6.54289">
        <ele>243.1</ele>
        <time>2024-05-26T07:36:30.000Z</time>
      </trkpt>
      <trkpt lat="43.21079" lon="6.54277">
        <ele>244.1</ele>
        <time>2024-05-26T07:36:42.000Z</time>
      </trkpt>
      <trkpt lat="43.21072" lon="6.54268">
        <ele>244.8</ele>
        <time>2024-05-26T07:36:51.000Z</time>
      </trkpt>
      <trkpt lat="43.21065" lon="6.5426">
        <ele>245.3</ele>
        <time>2024-05-26T07:36:59.000Z</time>
      </trkpt>
      <trkpt lat="43.21059" lon="6.5425">
        <ele>245.6</ele>
        <time>2024-05-26T07:37:08.000Z</time>
      </trkpt>
      <trkpt lat="43.21055" lon="6.54238">
        <ele>245.9</ele>
        <time>2024-05-26T07:37:17.000Z</time>
      </trkpt>
      <trkpt lat="43.21052" lon="6.54226">
        <ele>246.5</ele>
        <time>2024-05-26T07:37:26.000Z</time>
      </trkpt>
      <trkpt lat="43.21045" lon="6.54216">
        <ele>247.2</ele>
        <time>2024-05-26T07:37:36.000Z</time>
      </trkpt>
      <trkpt lat="43.21039" lon="6.54206">
        <ele>248</ele>
        <time>2024-05-26T07:37:46.000Z</time>
      </trkpt>
      <trkpt lat="43.21031" lon="6.54199">
        <ele>248.6</ele>
        <time>2024-05-26T07:37:53.000Z</time>
      </trkpt>
      <trkpt lat="43.21021" lon="6.54195">
        <ele>249.1</ele>
        <time>2024-05-26T07:38:01.000Z</time>
      </trkpt>
      <trkpt lat="43.21012" lon="6.54192">
        <ele>249.6</ele>
        <time>2024-05-26T07:38:09.000Z</time>
      </trkpt>
      <trkpt lat="43.21003" lon="6.54188">
        <ele>250.1</ele>
        <time>2024-05-26T07:38:18.000Z</time>
      </trkpt>
      <trkpt lat="43.20993" lon="6.54183">
        <ele>250.7</ele>
        <time>2024-05-26T07:38:27.000Z</time>
      </trkpt>
      <trkpt lat="43.20985" lon="6.54179">
        <ele>251.8</ele>
        <time>2024-05-26T07:38:37.000Z</time>
      </trkpt>
      <trkpt lat="43.20976" lon="6.54177">
        <ele>252.9</ele>
        <time>2024-05-26T07:38:46.000Z</time>
      </trkpt>
      <trkpt lat="43.20966" lon="6.54175">
        <ele>254.1</ele>
        <time>2024-05-26T07:38:56.000Z</time>
      </trkpt>
      <trkpt lat="43.20965" lon="6.54173">
        <ele>255.1</ele>
        <time>2024-05-26T07:39:07.000Z</time>
      </trkpt>
      <trkpt lat="43.20965" lon="6.54173">
        <ele>255.1</ele>
        <time>2024-05-26T07:39:08.000Z</time>
      </trkpt>
      <trkpt lat="43.20965" lon="6.54173">
        <ele>255.1</ele>
        <time>2024-05-26T07:39:09.000Z</time>
      </trkpt>
      <trkpt lat="43.20965" lon="6.54174">
        <ele>255.2</ele>
        <time>2024-05-26T07:39:10.000Z</time>
      </trkpt>
      <trkpt lat="43.20965" lon="6.54173">
        <ele>255.2</ele>
        <time>2024-05-26T07:39:11.000Z</time>
      </trkpt>
      <trkpt lat="43.20965" lon="6.54173">
        <ele>255.2</ele>
        <time>2024-05-26T07:39:12.000Z</time>
      </trkpt>
      <trkpt lat="43.20965" lon="6.54173">
        <ele>255.2</ele>
        <time>2024-05-26T07:39:13.000Z</time>
      </trkpt>
      <trkpt lat="43.20966" lon="6.54173">
        <ele>255.2</ele>
        <time>2024-05-26T07:39:14.000Z</time>
      </trkpt>
      <trkpt lat="43.20966" lon="6.54173">
        <ele>255.1</ele>
        <time>2024-05-26T07:39:15.000Z</time>
      </trkpt>
      <trkpt lat="43.20966" lon="6.54173">
        <ele>255.1</ele>
        <time>2024-05-26T07:39:19.000Z</time>
      </trkpt>
      <trkpt lat="43.20966" lon="6.54173">
        <ele>255.1</ele>
        <time>2024-05-26T07:39:20.000Z</time>
      </trkpt>
      <trkpt lat="43.20966" lon="6.54173">
        <ele>255.2</ele>
        <time>2024-05-26T07:39:26.000Z</time>
      </trkpt>
      <trkpt lat="43.20966" lon="6.54173">
        <ele>255.2</ele>
        <time>2024-05-26T07:39:27.000Z</time>
      </trkpt>
      <trkpt lat="43.20966" lon="6.54173">
        <ele>255.2</ele>
        <time>2024-05-26T07:39:28.000Z</time>
      </trkpt>
      <trkpt lat="43.20966" lon="6.54173">
        <ele>255.2</ele>
        <time>2024-05-26T07:39:29.000Z</time>
      </trkpt>
      <trkpt lat="43.20966" lon="6.54174">
        <ele>255.2</ele>
        <time>2024-05-26T07:39:30.000Z</time>
      </trkpt>
      <trkpt lat="43.20966" lon="6.54175">
        <ele>255.1</ele>
        <time>2024-05-26T07:39:34.000Z</time>
      </trkpt>
      <trkpt lat="43.20966" lon="6.54175">
        <ele>255</ele>
        <time>2024-05-26T07:39:35.000Z</time>
      </trkpt>
      <trkpt lat="43.20966" lon="6.54175">
        <ele>254.9</ele>
        <time>2024-05-26T07:39:41.000Z</time>
      </trkpt>
      <trkpt lat="43.20966" lon="6.54175">
        <ele>254.9</ele>
        <time>2024-05-26T07:39:42.000Z</time>
      </trkpt>
      <trkpt lat="43.20966" lon="6.54175">
        <ele>255</ele>
        <time>2024-05-26T07:39:43.000Z</time>
      </trkpt>
      <trkpt lat="43.20966" lon="6.54177">
        <ele>255.1</ele>
        <time>2024-05-26T07:39:46.000Z</time>
      </trkpt>
      <trkpt lat="43.20966" lon="6.54177">
        <ele>255.1</ele>
        <time>2024-05-26T07:39:47.000Z</time>
      </trkpt>
      <trkpt lat="43.20967" lon="6.54177">
        <ele>255.1</ele>
        <time>2024-05-26T07:39:48.000Z</time>
      </trkpt>
      <trkpt lat="43.20961" lon="6.54174">
        <ele>254.9</ele>
        <time>2024-05-26T07:40:02.000Z</time>
      </trkpt>
      <trkpt lat="43.20961" lon="6.54174">
        <ele>254.8</ele>
        <time>2024-05-26T07:40:03.000Z</time>
      </trkpt>
      <trkpt lat="43.20961" lon="6.54174">
        <ele>254.8</ele>
        <time>2024-05-26T07:40:04.000Z</time>
      </trkpt>
      <trkpt lat="43.20961" lon="6.54174">
        <ele>254.8</ele>
        <time>2024-05-26T07:40:07.000Z</time>
      </trkpt>
      <trkpt lat="43.20961" lon="6.54174">
        <ele>254.8</ele>
        <time>2024-05-26T07:40:08.000Z</time>
      </trkpt>
      <trkpt lat="43.20961" lon="6.54174">
        <ele>254.7</ele>
        <time>2024-05-26T07:40:09.000Z</time>
      </trkpt>
      <trkpt lat="43.2096" lon="6.54174">
        <ele>254.7</ele>
        <time>2024-05-26T07:40:10.000Z</time>
      </trkpt>
      <trkpt lat="43.20959" lon="6.54174">
        <ele>254.7</ele>
        <time>2024-05-26T07:40:11.000Z</time>
      </trkpt>
      <trkpt lat="43.20958" lon="6.54174">
        <ele>254.7</ele>
        <time>2024-05-26T07:40:12.000Z</time>
      </trkpt>
      <trkpt lat="43.20957" lon="6.54173">
        <ele>254.7</ele>
        <time>2024-05-26T07:40:13.000Z</time>
      </trkpt>
      <trkpt lat="43.20949" lon="6.54166">
        <ele>254.8</ele>
        <time>2024-05-26T07:40:20.000Z</time>
      </trkpt>
      <trkpt lat="43.2094" lon="6.54159">
        <ele>255</ele>
        <time>2024-05-26T07:40:28.000Z</time>
      </trkpt>
      <trkpt lat="43.20932" lon="6.54153">
        <ele>255.3</ele>
        <time>2024-05-26T07:40:35.000Z</time>
      </trkpt>
      <trkpt lat="43.2093" lon="6.54152">
        <ele>255.8</ele>
        <time>2024-05-26T07:40:41.000Z</time>
      </trkpt>
      <trkpt lat="43.2093" lon="6.54152">
        <ele>255.8</ele>
        <time>2024-05-26T07:40:42.000Z</time>
      </trkpt>
      <trkpt lat="43.2093" lon="6.54152">
        <ele>255.9</ele>
        <time>2024-05-26T07:40:43.000Z</time>
      </trkpt>
      <trkpt lat="43.2093" lon="6.54151">
        <ele>256</ele>
        <time>2024-05-26T07:40:46.000Z</time>
      </trkpt>
      <trkpt lat="43.2093" lon="6.5415">
        <ele>256</ele>
        <time>2024-05-26T07:40:47.000Z</time>
      </trkpt>
      <trkpt lat="43.2093" lon="6.5415">
        <ele>256.1</ele>
        <time>2024-05-26T07:40:48.000Z</time>
      </trkpt>
      <trkpt lat="43.20921" lon="6.54144">
        <ele>256.7</ele>
        <time>2024-05-26T07:41:02.000Z</time>
      </trkpt>
      <trkpt lat="43.20913" lon="6.54137">
        <ele>257.5</ele>
        <time>2024-05-26T07:41:11.000Z</time>
      </trkpt>
      <trkpt lat="43.20906" lon="6.5413">
        <ele>258.4</ele>
        <time>2024-05-26T07:41:19.000Z</time>
      </trkpt>
      <trkpt lat="43.20897" lon="6.54123">
        <ele>258.9</ele>
        <time>2024-05-26T07:41:26.000Z</time>
      </trkpt>
      <trkpt lat="43.2089" lon="6.54114">
        <ele>259.5</ele>
        <time>2024-05-26T07:41:34.000Z</time>
      </trkpt>
      <trkpt lat="43.20882" lon="6.54105">
        <ele>260.5</ele>
        <time>2024-05-26T07:41:44.000Z</time>
      </trkpt>
      <trkpt lat="43.20873" lon="6.54099">
        <ele>261.5</ele>
        <time>2024-05-26T07:41:53.000Z</time>
      </trkpt>
      <trkpt lat="43.20864" lon="6.54093">
        <ele>262.6</ele>
        <time>2024-05-26T07:42:01.000Z</time>
      </trkpt>
      <trkpt lat="43.20857" lon="6.54085">
        <ele>263.7</ele>
        <time>2024-05-26T07:42:11.000Z</time>
      </trkpt>
      <trkpt lat="43.20853" lon="6.54073">
        <ele>264.4</ele>
        <time>2024-05-26T07:42:19.000Z</time>
      </trkpt>
      <trkpt lat="43.20846" lon="6.54066">
        <ele>265</ele>
        <time>2024-05-26T07:42:26.000Z</time>
      </trkpt>
      <trkpt lat="43.2084" lon="6.54056">
        <ele>265.8</ele>
        <time>2024-05-26T07:42:34.000Z</time>
      </trkpt>
      <trkpt lat="43.20836" lon="6.54044">
        <ele>266.7</ele>
        <time>2024-05-26T07:42:43.000Z</time>
      </trkpt>
      <trkpt lat="43.20832" lon="6.54031">
        <ele>267.6</ele>
        <time>2024-05-26T07:42:51.000Z</time>
      </trkpt>
      <trkpt lat="43.2083" lon="6.54018">
        <ele>268.3</ele>
        <time>2024-05-26T07:42:59.000Z</time>
      </trkpt>
      <trkpt lat="43.20829" lon="6.54005">
        <ele>269.3</ele>
        <time>2024-05-26T07:43:08.000Z</time>
      </trkpt>
      <trkpt lat="43.20828" lon="6.53991">
        <ele>270.6</ele>
        <time>2024-05-26T07:43:17.000Z</time>
      </trkpt>
      <trkpt lat="43.20828" lon="6.53977">
        <ele>271.7</ele>
        <time>2024-05-26T07:43:25.000Z</time>
      </trkpt>
      <trkpt lat="43.20829" lon="6.53964">
        <ele>273.1</ele>
        <time>2024-05-26T07:43:34.000Z</time>
      </trkpt>
      <trkpt lat="43.2083" lon="6.53951">
        <ele>273.9</ele>
        <time>2024-05-26T07:43:43.000Z</time>
      </trkpt>
      <trkpt lat="43.20831" lon="6.53938">
        <ele>274.8</ele>
        <time>2024-05-26T07:43:52.000Z</time>
      </trkpt>
      <trkpt lat="43.20833" lon="6.53928">
        <ele>276.1</ele>
        <time>2024-05-26T07:44:05.000Z</time>
      </trkpt>
      <trkpt lat="43.20834" lon="6.53928">
        <ele>276.1</ele>
        <time>2024-05-26T07:44:06.000Z</time>
      </trkpt>
      <trkpt lat="43.20834" lon="6.53929">
        <ele>276.2</ele>
        <time>2024-05-26T07:44:07.000Z</time>
      </trkpt>
      <trkpt lat="43.20834" lon="6.53929">
        <ele>276.2</ele>
        <time>2024-05-26T07:44:08.000Z</time>
      </trkpt>
      <trkpt lat="43.20834" lon="6.53929">
        <ele>276.2</ele>
        <time>2024-05-26T07:44:09.000Z</time>
      </trkpt>
      <trkpt lat="43.20834" lon="6.53929">
        <ele>276.3</ele>
        <time>2024-05-26T07:44:10.000Z</time>
      </trkpt>
      <trkpt lat="43.20834" lon="6.53929">
        <ele>276.9</ele>
        <time>2024-05-26T07:44:41.000Z</time>
      </trkpt>
      <trkpt lat="43.20834" lon="6.53929">
        <ele>276.9</ele>
        <time>2024-05-26T07:44:42.000Z</time>
      </trkpt>
      <trkpt lat="43.20834" lon="6.53929">
        <ele>276.9</ele>
        <time>2024-05-26T07:44:43.000Z</time>
      </trkpt>
      <trkpt lat="43.20834" lon="6.53929">
        <ele>276.9</ele>
        <time>2024-05-26T07:44:49.000Z</time>
      </trkpt>
      <trkpt lat="43.20834" lon="6.53929">
        <ele>276.9</ele>
        <time>2024-05-26T07:44:50.000Z</time>
      </trkpt>
      <trkpt lat="43.20834" lon="6.53929">
        <ele>276.9</ele>
        <time>2024-05-26T07:44:54.000Z</time>
      </trkpt>
      <trkpt lat="43.20834" lon="6.53929">
        <ele>276.9</ele>
        <time>2024-05-26T07:44:55.000Z</time>
      </trkpt>
      <trkpt lat="43.20834" lon="6.53929">
        <ele>277</ele>
        <time>2024-05-26T07:44:56.000Z</time>
      </trkpt>
      <trkpt lat="43.20834" lon="6.53929">
        <ele>277</ele>
        <time>2024-05-26T07:44:57.000Z</time>
      </trkpt>
      <trkpt lat="43.20834" lon="6.53929">
        <ele>277</ele>
        <time>2024-05-26T07:44:58.000Z</time>
      </trkpt>
      <trkpt lat="43.20834" lon="6.53929">
        <ele>277</ele>
        <time>2024-05-26T07:44:59.000Z</time>
      </trkpt>
      <trkpt lat="43.20836" lon="6.5393">
        <ele>277.1</ele>
        <time>2024-05-26T07:45:54.000Z</time>
      </trkpt>
      <trkpt lat="43.20836" lon="6.5393">
        <ele>277.1</ele>
        <time>2024-05-26T07:45:55.000Z</time>
      </trkpt>
      <trkpt lat="43.20836" lon="6.5393">
        <ele>277.1</ele>
        <time>2024-05-26T07:45:56.000Z</time>
      </trkpt>
      <trkpt lat="43.20836" lon="6.5393">
        <ele>277.1</ele>
        <time>2024-05-26T07:45:57.000Z</time>
      </trkpt>
      <trkpt lat="43.20836" lon="6.5393">
        <ele>277.1</ele>
        <time>2024-05-26T07:45:58.000Z</time>
      </trkpt>
      <trkpt lat="43.20836" lon="6.5393">
        <ele>277.1</ele>
        <time>2024-05-26T07:45:59.000Z</time>
      </trkpt>
      <trkpt lat="43.20836" lon="6.5393">
        <ele>277.1</ele>
        <time>2024-05-26T07:46:20.000Z</time>
      </trkpt>
      <trkpt lat="43.20836" lon="6.5393">
        <ele>277.1</ele>
        <time>2024-05-26T07:46:21.000Z</time>
      </trkpt>
      <trkpt lat="43.20836" lon="6.5393">
        <ele>277.1</ele>
        <time>2024-05-26T07:46:22.000Z</time>
      </trkpt>
      <trkpt lat="43.20836" lon="6.5393">
        <ele>277.1</ele>
        <time>2024-05-26T07:46:23.000Z</time>
      </trkpt>
      <trkpt lat="43.20838" lon="6.53928">
        <ele>277.2</ele>
        <time>2024-05-26T07:47:02.000Z</time>
      </trkpt>
      <trkpt lat="43.20838" lon="6.53927">
        <ele>277.2</ele>
        <time>2024-05-26T07:47:03.000Z</time>
      </trkpt>
      <trkpt lat="43.20843" lon="6.53917">
        <ele>277.2</ele>
        <time>2024-05-26T07:47:15.000Z</time>
      </trkpt>
      <trkpt lat="43.2085" lon="6.53907">
        <ele>277.3</ele>
        <time>2024-05-26T07:47:27.000Z</time>
      </trkpt>
      <trkpt lat="43.20855" lon="6.53897">
        <ele>277.6</ele>
        <time>2024-05-26T07:47:37.000Z</time>
      </trkpt>
      <trkpt lat="43.20856" lon="6.53883">
        <ele>278.2</ele>
        <time>2024-05-26T07:47:47.000Z</time>
      </trkpt>
      <trkpt lat="43.20851" lon="6.53872">
        <ele>278.8</ele>
        <time>2024-05-26T07:47:55.000Z</time>
      </trkpt>
      <trkpt lat="43.20843" lon="6.53865">
        <ele>279.9</ele>
        <time>2024-05-26T07:48:04.000Z</time>
      </trkpt>
      <trkpt lat="43.20835" lon="6.53857">
        <ele>281.2</ele>
        <time>2024-05-26T07:48:14.000Z</time>
      </trkpt>
      <trkpt lat="43.20831" lon="6.53845">
        <ele>282.3</ele>
        <time>2024-05-26T07:48:25.000Z</time>
      </trkpt>
      <trkpt lat="43.20833" lon="6.53832">
        <ele>283</ele>
        <time>2024-05-26T07:48:35.000Z</time>
      </trkpt>
      <trkpt lat="43.20835" lon="6.5382">
        <ele>283.4</ele>
        <time>2024-05-26T07:48:45.000Z</time>
      </trkpt>
      <trkpt lat="43.20837" lon="6.53808">
        <ele>284</ele>
        <time>2024-05-26T07:48:55.000Z</time>
      </trkpt>
      <trkpt lat="43.2084" lon="6.53796">
        <ele>284.7</ele>
        <time>2024-05-26T07:49:04.000Z</time>
      </trkpt>
      <trkpt lat="43.20845" lon="6.53785">
        <ele>286.3</ele>
        <time>2024-05-26T07:49:16.000Z</time>
      </trkpt>
      <trkpt lat="43.20854" lon="6.53783">
        <ele>287.6</ele>
        <time>2024-05-26T07:49:26.000Z</time>
      </trkpt>
      <trkpt lat="43.20862" lon="6.53776">
        <ele>288.4</ele>
        <time>2024-05-26T07:49:37.000Z</time>
      </trkpt>
      <trkpt lat="43.20871" lon="6.5377">
        <ele>288.8</ele>
        <time>2024-05-26T07:49:45.000Z</time>
      </trkpt>
      <trkpt lat="43.20879" lon="6.53764">
        <ele>289.2</ele>
        <time>2024-05-26T07:49:53.000Z</time>
      </trkpt>
      <trkpt lat="43.20886" lon="6.53754">
        <ele>289.7</ele>
        <time>2024-05-26T07:50:03.000Z</time>
      </trkpt>
      <trkpt lat="43.20893" lon="6.53746">
        <ele>290.2</ele>
        <time>2024-05-26T07:50:12.000Z</time>
      </trkpt>
      <trkpt lat="43.20902" lon="6.53742">
        <ele>290.6</ele>
        <time>2024-05-26T07:50:21.000Z</time>
      </trkpt>
      <trkpt lat="43.20906" lon="6.53744">
        <ele>291.4</ele>
        <time>2024-05-26T07:50:34.000Z</time>
      </trkpt>
      <trkpt lat="43.20906" lon="6.53744">
        <ele>291.4</ele>
        <time>2024-05-26T07:50:35.000Z</time>
      </trkpt>
      <trkpt lat="43.20906" lon="6.53744">
        <ele>291.5</ele>
        <time>2024-05-26T07:50:36.000Z</time>
      </trkpt>
      <trkpt lat="43.20907" lon="6.53742">
        <ele>291.8</ele>
        <time>2024-05-26T07:51:06.000Z</time>
      </trkpt>
      <trkpt lat="43.20907" lon="6.53742">
        <ele>291.8</ele>
        <time>2024-05-26T07:51:07.000Z</time>
      </trkpt>
      <trkpt lat="43.20907" lon="6.53742">
        <ele>291.8</ele>
        <time>2024-05-26T07:51:08.000Z</time>
      </trkpt>
      <trkpt lat="43.20907" lon="6.53742">
        <ele>291.8</ele>
        <time>2024-05-26T07:51:09.000Z</time>
      </trkpt>
      <trkpt lat="43.20907" lon="6.53742">
        <ele>291.8</ele>
        <time>2024-05-26T07:51:10.000Z</time>
      </trkpt>
      <trkpt lat="43.20907" lon="6.53741">
        <ele>291.9</ele>
        <time>2024-05-26T07:51:31.000Z</time>
      </trkpt>
      <trkpt lat="43.20908" lon="6.5374">
        <ele>291.9</ele>
        <time>2024-05-26T07:51:32.000Z</time>
      </trkpt>
      <trkpt lat="43.20908" lon="6.5374">
        <ele>291.9</ele>
        <time>2024-05-26T07:51:33.000Z</time>
      </trkpt>
      <trkpt lat="43.20917" lon="6.53738">
        <ele>291.9</ele>
        <time>2024-05-26T07:51:44.000Z</time>
      </trkpt>
      <trkpt lat="43.20926" lon="6.53742">
        <ele>292</ele>
        <time>2024-05-26T07:51:53.000Z</time>
      </trkpt>
      <trkpt lat="43.20936" lon="6.53741">
        <ele>292.1</ele>
        <time>2024-05-26T07:52:01.000Z</time>
      </trkpt>
      <trkpt lat="43.20945" lon="6.53744">
        <ele>292.1</ele>
        <time>2024-05-26T07:52:10.000Z</time>
      </trkpt>
      <trkpt lat="43.20954" lon="6.53744">
        <ele>292.1</ele>
        <time>2024-05-26T07:52:19.000Z</time>
      </trkpt>
      <trkpt lat="43.20964" lon="6.53747">
        <ele>291.9</ele>
        <time>2024-05-26T07:52:28.000Z</time>
      </trkpt>
      <trkpt lat="43.20973" lon="6.53743">
        <ele>291.7</ele>
        <time>2024-05-26T07:52:36.000Z</time>
      </trkpt>
      <trkpt lat="43.20982" lon="6.53738">
        <ele>291.1</ele>
        <time>2024-05-26T07:52:45.000Z</time>
      </trkpt>
      <trkpt lat="43.20991" lon="6.53734">
        <ele>290.2</ele>
        <time>2024-05-26T07:52:54.000Z</time>
      </trkpt>
      <trkpt lat="43.21" lon="6.53729">
        <ele>289.6</ele>
        <time>2024-05-26T07:53:03.000Z</time>
      </trkpt>
      <trkpt lat="43.21009" lon="6.53724">
        <ele>289.1</ele>
        <time>2024-05-26T07:53:11.000Z</time>
      </trkpt>
      <trkpt lat="43.21018" lon="6.53721">
        <ele>288.9</ele>
        <time>2024-05-26T07:53:19.000Z</time>
      </trkpt>
      <trkpt lat="43.21026" lon="6.53717">
        <ele>288.9</ele>
        <time>2024-05-26T07:53:27.000Z</time>
      </trkpt>
      <trkpt lat="43.21034" lon="6.53708">
        <ele>288.7</ele>
        <time>2024-05-26T07:53:35.000Z</time>
      </trkpt>
      <trkpt lat="43.21039" lon="6.53697">
        <ele>288.6</ele>
        <time>2024-05-26T07:53:44.000Z</time>
      </trkpt>
      <trkpt lat="43.21042" lon="6.53685">
        <ele>288.8</ele>
        <time>2024-05-26T07:53:53.000Z</time>
      </trkpt>
      <trkpt lat="43.21048" lon="6.53674">
        <ele>289.1</ele>
        <time>2024-05-26T07:54:02.000Z</time>
      </trkpt>
      <trkpt lat="43.21054" lon="6.53665">
        <ele>289.8</ele>
        <time>2024-05-26T07:54:12.000Z</time>
      </trkpt>
      <trkpt lat="43.21059" lon="6.53653">
        <ele>290.9</ele>
        <time>2024-05-26T07:54:23.000Z</time>
      </trkpt>
      <trkpt lat="43.21065" lon="6.53643">
        <ele>292.1</ele>
        <time>2024-05-26T07:54:34.000Z</time>
      </trkpt>
      <trkpt lat="43.2107" lon="6.5363">
        <ele>292.7</ele>
        <time>2024-05-26T07:54:43.000Z</time>
      </trkpt>
      <trkpt lat="43.21075" lon="6.53619">
        <ele>293.3</ele>
        <time>2024-05-26T07:54:53.000Z</time>
      </trkpt>
      <trkpt lat="43.21079" lon="6.53607">
        <ele>294.1</ele>
        <time>2024-05-26T07:55:04.000Z</time>
      </trkpt>
      <trkpt lat="43.21085" lon="6.53598">
        <ele>294.9</ele>
        <time>2024-05-26T07:55:14.000Z</time>
      </trkpt>
      <trkpt lat="43.21091" lon="6.53587">
        <ele>295.8</ele>
        <time>2024-05-26T07:55:23.000Z</time>
      </trkpt>
      <trkpt lat="43.21093" lon="6.53574">
        <ele>297.2</ele>
        <time>2024-05-26T07:55:34.000Z</time>
      </trkpt>
      <trkpt lat="43.2109" lon="6.53562">
        <ele>298.6</ele>
        <time>2024-05-26T07:55:44.000Z</time>
      </trkpt>
      <trkpt lat="43.21088" lon="6.5355">
        <ele>299.7</ele>
        <time>2024-05-26T07:55:54.000Z</time>
      </trkpt>
      <trkpt lat="43.21082" lon="6.53541">
        <ele>300.6</ele>
        <time>2024-05-26T07:56:04.000Z</time>
      </trkpt>
      <trkpt lat="43.21081" lon="6.53541">
        <ele>300.6</ele>
        <time>2024-05-26T07:56:05.000Z</time>
      </trkpt>
      <trkpt lat="43.21081" lon="6.53541">
        <ele>300.7</ele>
        <time>2024-05-26T07:56:06.000Z</time>
      </trkpt>
      <trkpt lat="43.21081" lon="6.5354">
        <ele>300.7</ele>
        <time>2024-05-26T07:56:07.000Z</time>
      </trkpt>
      <trkpt lat="43.2108" lon="6.5354">
        <ele>300.8</ele>
        <time>2024-05-26T07:56:08.000Z</time>
      </trkpt>
      <trkpt lat="43.21081" lon="6.53539">
        <ele>300.8</ele>
        <time>2024-05-26T07:56:09.000Z</time>
      </trkpt>
      <trkpt lat="43.21077" lon="6.53527">
        <ele>301.8</ele>
        <time>2024-05-26T07:56:21.000Z</time>
      </trkpt>
      <trkpt lat="43.21072" lon="6.53519">
        <ele>302.7</ele>
        <time>2024-05-26T07:56:31.000Z</time>
      </trkpt>
      <trkpt lat="43.21071" lon="6.53519">
        <ele>302.8</ele>
        <time>2024-05-26T07:56:32.000Z</time>
      </trkpt>
      <trkpt lat="43.21071" lon="6.53519">
        <ele>302.8</ele>
        <time>2024-05-26T07:56:33.000Z</time>
      </trkpt>
      <trkpt lat="43.21071" lon="6.53519">
        <ele>302.7</ele>
        <time>2024-05-26T07:56:34.000Z</time>
      </trkpt>
      <trkpt lat="43.21071" lon="6.5352">
        <ele>302.7</ele>
        <time>2024-05-26T07:56:35.000Z</time>
      </trkpt>
      <trkpt lat="43.21071" lon="6.5352">
        <ele>302.8</ele>
        <time>2024-05-26T07:56:36.000Z</time>
      </trkpt>
      <trkpt lat="43.21071" lon="6.53519">
        <ele>302.8</ele>
        <time>2024-05-26T07:56:37.000Z</time>
      </trkpt>
      <trkpt lat="43.21071" lon="6.53519">
        <ele>302.9</ele>
        <time>2024-05-26T07:56:38.000Z</time>
      </trkpt>
      <trkpt lat="43.21071" lon="6.53519">
        <ele>302.9</ele>
        <time>2024-05-26T07:56:39.000Z</time>
      </trkpt>
      <trkpt lat="43.21072" lon="6.53516">
        <ele>303.3</ele>
        <time>2024-05-26T07:56:49.000Z</time>
      </trkpt>
      <trkpt lat="43.21072" lon="6.53516">
        <ele>303.3</ele>
        <time>2024-05-26T07:56:50.000Z</time>
      </trkpt>
      <trkpt lat="43.21069" lon="6.53502">
        <ele>303.6</ele>
        <time>2024-05-26T07:57:01.000Z</time>
      </trkpt>
      <trkpt lat="43.21063" lon="6.53493">
        <ele>304.3</ele>
        <time>2024-05-26T07:57:09.000Z</time>
      </trkpt>
      <trkpt lat="43.21058" lon="6.53482">
        <ele>305.2</ele>
        <time>2024-05-26T07:57:18.000Z</time>
      </trkpt>
      <trkpt lat="43.21051" lon="6.53472">
        <ele>306.2</ele>
        <time>2024-05-26T07:57:26.000Z</time>
      </trkpt>
      <trkpt lat="43.21046" lon="6.53462">
        <ele>307.2</ele>
        <time>2024-05-26T07:57:34.000Z</time>
      </trkpt>
      <trkpt lat="43.21043" lon="6.5345">
        <ele>308.2</ele>
        <time>2024-05-26T07:57:43.000Z</time>
      </trkpt>
      <trkpt lat="43.21043" lon="6.53436">
        <ele>309.3</ele>
        <time>2024-05-26T07:57:52.000Z</time>
      </trkpt>
      <trkpt lat="43.21041" lon="6.53423">
        <ele>310.5</ele>
        <time>2024-05-26T07:58:00.000Z</time>
      </trkpt>
      <trkpt lat="43.2104" lon="6.53409">
        <ele>311.5</ele>
        <time>2024-05-26T07:58:08.000Z</time>
      </trkpt>
      <trkpt lat="43.21039" lon="6.53396">
        <ele>312.5</ele>
        <time>2024-05-26T07:58:17.000Z</time>
      </trkpt>
      <trkpt lat="43.21039" lon="6.53391">
        <ele>313.4</ele>
        <time>2024-05-26T07:58:24.000Z</time>
      </trkpt>
      <trkpt lat="43.21039" lon="6.53391">
        <ele>313.5</ele>
        <time>2024-05-26T07:58:25.000Z</time>
      </trkpt>
      <trkpt lat="43.21039" lon="6.53391">
        <ele>313.6</ele>
        <time>2024-05-26T07:58:26.000Z</time>
      </trkpt>
      <trkpt lat="43.21039" lon="6.5339">
        <ele>313.9</ele>
        <time>2024-05-26T07:58:36.000Z</time>
      </trkpt>
      <trkpt lat="43.2104" lon="6.53388">
        <ele>314</ele>
        <time>2024-05-26T07:58:37.000Z</time>
      </trkpt>
      <trkpt lat="43.21041" lon="6.53387">
        <ele>314</ele>
        <time>2024-05-26T07:58:38.000Z</time>
      </trkpt>
      <trkpt lat="43.2104" lon="6.53374">
        <ele>314.5</ele>
        <time>2024-05-26T07:58:46.000Z</time>
      </trkpt>
      <trkpt lat="43.2104" lon="6.53361">
        <ele>315.1</ele>
        <time>2024-05-26T07:58:54.000Z</time>
      </trkpt>
      <trkpt lat="43.21038" lon="6.53348">
        <ele>315.7</ele>
        <time>2024-05-26T07:59:02.000Z</time>
      </trkpt>
      <trkpt lat="43.21036" lon="6.53335">
        <ele>316.4</ele>
        <time>2024-05-26T07:59:10.000Z</time>
      </trkpt>
      <trkpt lat="43.21031" lon="6.53326">
        <ele>317.7</ele>
        <time>2024-05-26T07:59:22.000Z</time>
      </trkpt>
      <trkpt lat="43.21031" lon="6.53326">
        <ele>317.8</ele>
        <time>2024-05-26T07:59:23.000Z</time>
      </trkpt>
      <trkpt lat="43.21031" lon="6.53326">
        <ele>317.8</ele>
        <time>2024-05-26T07:59:24.000Z</time>
      </trkpt>
      <trkpt lat="43.21031" lon="6.53326">
        <ele>317.9</ele>
        <time>2024-05-26T07:59:25.000Z</time>
      </trkpt>
      <trkpt lat="43.21031" lon="6.53325">
        <ele>317.9</ele>
        <time>2024-05-26T07:59:26.000Z</time>
      </trkpt>
      <trkpt lat="43.2103" lon="6.53326">
        <ele>318</ele>
        <time>2024-05-26T07:59:30.000Z</time>
      </trkpt>
      <trkpt lat="43.2103" lon="6.53325">
        <ele>318</ele>
        <time>2024-05-26T07:59:31.000Z</time>
      </trkpt>
      <trkpt lat="43.21031" lon="6.53325">
        <ele>318.1</ele>
        <time>2024-05-26T07:59:32.000Z</time>
      </trkpt>
      <trkpt lat="43.21031" lon="6.53324">
        <ele>318.1</ele>
        <time>2024-05-26T07:59:33.000Z</time>
      </trkpt>
      <trkpt lat="43.21026" lon="6.53313">
        <ele>318.6</ele>
        <time>2024-05-26T07:59:41.000Z</time>
      </trkpt>
      <trkpt lat="43.21021" lon="6.53301">
        <ele>319</ele>
        <time>2024-05-26T07:59:49.000Z</time>
      </trkpt>
      <trkpt lat="43.21016" lon="6.53291">
        <ele>319.6</ele>
        <time>2024-05-26T07:59:57.000Z</time>
      </trkpt>
      <trkpt lat="43.2101" lon="6.5328">
        <ele>320.4</ele>
        <time>2024-05-26T08:00:03.000Z</time>
      </trkpt>
      <trkpt lat="43.21005" lon="6.53269">
        <ele>321.4</ele>
        <time>2024-05-26T08:00:11.000Z</time>
      </trkpt>
      <trkpt lat="43.21001" lon="6.53257">
        <ele>322.2</ele>
        <time>2024-05-26T08:00:18.000Z</time>
      </trkpt>
      <trkpt lat="43.20995" lon="6.53246">
        <ele>323.1</ele>
        <time>2024-05-26T08:00:27.000Z</time>
      </trkpt>
      <trkpt lat="43.2099" lon="6.53236">
        <ele>324</ele>
        <time>2024-05-26T08:00:36.000Z</time>
      </trkpt>
      <trkpt lat="43.20986" lon="6.53224">
        <ele>324.8</ele>
        <time>2024-05-26T08:00:43.000Z</time>
      </trkpt>
      <trkpt lat="43.20979" lon="6.53216">
        <ele>325.5</ele>
        <time>2024-05-26T08:00:50.000Z</time>
      </trkpt>
      <trkpt lat="43.20975" lon="6.53204">
        <ele>326.3</ele>
        <time>2024-05-26T08:00:59.000Z</time>
      </trkpt>
      <trkpt lat="43.20971" lon="6.53192">
        <ele>327.2</ele>
        <time>2024-05-26T08:01:07.000Z</time>
      </trkpt>
      <trkpt lat="43.2097" lon="6.53179">
        <ele>328.1</ele>
        <time>2024-05-26T08:01:16.000Z</time>
      </trkpt>
      <trkpt lat="43.20966" lon="6.53166">
        <ele>328.3</ele>
        <time>2024-05-26T08:01:23.000Z</time>
      </trkpt>
      <trkpt lat="43.20963" lon="6.53154">
        <ele>328.8</ele>
        <time>2024-05-26T08:01:31.000Z</time>
      </trkpt>
      <trkpt lat="43.20959" lon="6.53142">
        <ele>329.5</ele>
        <time>2024-05-26T08:01:42.000Z</time>
      </trkpt>
      <trkpt lat="43.20956" lon="6.5313">
        <ele>330</ele>
        <time>2024-05-26T08:01:50.000Z</time>
      </trkpt>
      <trkpt lat="43.20953" lon="6.53117">
        <ele>330.5</ele>
        <time>2024-05-26T08:02:00.000Z</time>
      </trkpt>
      <trkpt lat="43.20949" lon="6.53106">
        <ele>331</ele>
        <time>2024-05-26T08:02:10.000Z</time>
      </trkpt>
      <trkpt lat="43.20944" lon="6.53095">
        <ele>331.3</ele>
        <time>2024-05-26T08:02:18.000Z</time>
      </trkpt>
      <trkpt lat="43.20941" lon="6.53087">
        <ele>331.5</ele>
        <time>2024-05-26T08:02:27.000Z</time>
      </trkpt>
      <trkpt lat="43.20941" lon="6.53087">
        <ele>331.5</ele>
        <time>2024-05-26T08:02:28.000Z</time>
      </trkpt>
      <trkpt lat="43.20941" lon="6.53087">
        <ele>331.5</ele>
        <time>2024-05-26T08:02:29.000Z</time>
      </trkpt>
      <trkpt lat="43.2094" lon="6.53084">
        <ele>331.7</ele>
        <time>2024-05-26T08:02:39.000Z</time>
      </trkpt>
      <trkpt lat="43.2094" lon="6.53084">
        <ele>331.7</ele>
        <time>2024-05-26T08:02:40.000Z</time>
      </trkpt>
      <trkpt lat="43.2094" lon="6.53084">
        <ele>331.7</ele>
        <time>2024-05-26T08:02:41.000Z</time>
      </trkpt>
      <trkpt lat="43.2094" lon="6.53084">
        <ele>331.7</ele>
        <time>2024-05-26T08:02:42.000Z</time>
      </trkpt>
      <trkpt lat="43.2094" lon="6.53084">
        <ele>331.8</ele>
        <time>2024-05-26T08:02:43.000Z</time>
      </trkpt>
      <trkpt lat="43.20939" lon="6.53084">
        <ele>331.8</ele>
        <time>2024-05-26T08:02:56.000Z</time>
      </trkpt>
      <trkpt lat="43.20939" lon="6.53084">
        <ele>331.8</ele>
        <time>2024-05-26T08:02:57.000Z</time>
      </trkpt>
      <trkpt lat="43.20939" lon="6.53084">
        <ele>331.8</ele>
        <time>2024-05-26T08:02:58.000Z</time>
      </trkpt>
      <trkpt lat="43.20939" lon="6.53084">
        <ele>331.8</ele>
        <time>2024-05-26T08:02:59.000Z</time>
      </trkpt>
      <trkpt lat="43.20939" lon="6.53084">
        <ele>331.8</ele>
        <time>2024-05-26T08:03:00.000Z</time>
      </trkpt>
      <trkpt lat="43.20939" lon="6.53084">
        <ele>331.8</ele>
        <time>2024-05-26T08:03:01.000Z</time>
      </trkpt>
      <trkpt lat="43.20939" lon="6.53084">
        <ele>331.8</ele>
        <time>2024-05-26T08:03:02.000Z</time>
      </trkpt>
      <trkpt lat="43.20939" lon="6.53084">
        <ele>331.8</ele>
        <time>2024-05-26T08:03:03.000Z</time>
      </trkpt>
      <trkpt lat="43.20939" lon="6.53084">
        <ele>331.8</ele>
        <time>2024-05-26T08:03:04.000Z</time>
      </trkpt>
      <trkpt lat="43.20939" lon="6.53084">
        <ele>331.8</ele>
        <time>2024-05-26T08:03:05.000Z</time>
      </trkpt>
      <trkpt lat="43.20939" lon="6.53084">
        <ele>331.8</ele>
        <time>2024-05-26T08:03:06.000Z</time>
      </trkpt>
      <trkpt lat="43.20939" lon="6.53083">
        <ele>331.7</ele>
        <time>2024-05-26T08:03:34.000Z</time>
      </trkpt>
      <trkpt lat="43.20939" lon="6.53083">
        <ele>331.7</ele>
        <time>2024-05-26T08:03:35.000Z</time>
      </trkpt>
      <trkpt lat="43.20935" lon="6.53072">
        <ele>331.6</ele>
        <time>2024-05-26T08:03:52.000Z</time>
      </trkpt>
      <trkpt lat="43.20934" lon="6.53068">
        <ele>331.7</ele>
        <time>2024-05-26T08:04:02.000Z</time>
      </trkpt>
      <trkpt lat="43.20933" lon="6.53068">
        <ele>331.7</ele>
        <time>2024-05-26T08:04:03.000Z</time>
      </trkpt>
      <trkpt lat="43.20933" lon="6.53069">
        <ele>331.7</ele>
        <time>2024-05-26T08:04:04.000Z</time>
      </trkpt>
      <trkpt lat="43.20932" lon="6.53069">
        <ele>331.7</ele>
        <time>2024-05-26T08:04:05.000Z</time>
      </trkpt>
      <trkpt lat="43.20933" lon="6.53069">
        <ele>331.7</ele>
        <time>2024-05-26T08:04:09.000Z</time>
      </trkpt>
      <trkpt lat="43.20934" lon="6.53069">
        <ele>331.7</ele>
        <time>2024-05-26T08:04:10.000Z</time>
      </trkpt>
      <trkpt lat="43.20934" lon="6.53068">
        <ele>331.7</ele>
        <time>2024-05-26T08:04:11.000Z</time>
      </trkpt>
      <trkpt lat="43.20935" lon="6.53067">
        <ele>331.7</ele>
        <time>2024-05-26T08:04:12.000Z</time>
      </trkpt>
      <trkpt lat="43.20934" lon="6.53067">
        <ele>331.7</ele>
        <time>2024-05-26T08:04:13.000Z</time>
      </trkpt>
      <trkpt lat="43.20931" lon="6.53054">
        <ele>331.8</ele>
        <time>2024-05-26T08:04:23.000Z</time>
      </trkpt>
      <trkpt lat="43.20927" lon="6.53041">
        <ele>331.9</ele>
        <time>2024-05-26T08:04:32.000Z</time>
      </trkpt>
      <trkpt lat="43.20923" lon="6.53029">
        <ele>332.1</ele>
        <time>2024-05-26T08:04:41.000Z</time>
      </trkpt>
      <trkpt lat="43.20921" lon="6.53016">
        <ele>332.4</ele>
        <time>2024-05-26T08:04:50.000Z</time>
      </trkpt>
      <trkpt lat="43.20922" lon="6.53012">
        <ele>332.7</ele>
        <time>2024-05-26T08:04:59.000Z</time>
      </trkpt>
      <trkpt lat="43.20922" lon="6.53012">
        <ele>332.7</ele>
        <time>2024-05-26T08:05:00.000Z</time>
      </trkpt>
      <trkpt lat="43.20922" lon="6.53012">
        <ele>332.7</ele>
        <time>2024-05-26T08:05:01.000Z</time>
      </trkpt>
      <trkpt lat="43.20921" lon="6.53013">
        <ele>332.8</ele>
        <time>2024-05-26T08:05:04.000Z</time>
      </trkpt>
      <trkpt lat="43.20921" lon="6.53013">
        <ele>332.8</ele>
        <time>2024-05-26T08:05:05.000Z</time>
      </trkpt>
      <trkpt lat="43.20921" lon="6.53013">
        <ele>332.8</ele>
        <time>2024-05-26T08:05:06.000Z</time>
      </trkpt>
      <trkpt lat="43.20921" lon="6.53013">
        <ele>332.8</ele>
        <time>2024-05-26T08:05:07.000Z</time>
      </trkpt>
      <trkpt lat="43.20921" lon="6.53013">
        <ele>332.8</ele>
        <time>2024-05-26T08:05:08.000Z</time>
      </trkpt>
      <trkpt lat="43.20921" lon="6.53012">
        <ele>332.9</ele>
        <time>2024-05-26T08:05:16.000Z</time>
      </trkpt>
      <trkpt lat="43.20921" lon="6.5301">
        <ele>332.9</ele>
        <time>2024-05-26T08:05:17.000Z</time>
      </trkpt>
      <trkpt lat="43.20921" lon="6.53009">
        <ele>332.9</ele>
        <time>2024-05-26T08:05:18.000Z</time>
      </trkpt>
      <trkpt lat="43.20922" lon="6.53005">
        <ele>332.9</ele>
        <time>2024-05-26T08:05:27.000Z</time>
      </trkpt>
      <trkpt lat="43.20922" lon="6.53005">
        <ele>332.9</ele>
        <time>2024-05-26T08:05:28.000Z</time>
      </trkpt>
      <trkpt lat="43.20923" lon="6.53005">
        <ele>332.9</ele>
        <time>2024-05-26T08:05:40.000Z</time>
      </trkpt>
      <trkpt lat="43.20923" lon="6.53005">
        <ele>332.9</ele>
        <time>2024-05-26T08:05:41.000Z</time>
      </trkpt>
      <trkpt lat="43.20923" lon="6.53005">
        <ele>332.9</ele>
        <time>2024-05-26T08:05:44.000Z</time>
      </trkpt>
      <trkpt lat="43.20923" lon="6.53005">
        <ele>332.9</ele>
        <time>2024-05-26T08:05:45.000Z</time>
      </trkpt>
      <trkpt lat="43.20923" lon="6.53004">
        <ele>332.9</ele>
        <time>2024-05-26T08:05:46.000Z</time>
      </trkpt>
      <trkpt lat="43.20923" lon="6.53003">
        <ele>332.9</ele>
        <time>2024-05-26T08:05:47.000Z</time>
      </trkpt>
      <trkpt lat="43.20922" lon="6.53002">
        <ele>332.9</ele>
        <time>2024-05-26T08:05:48.000Z</time>
      </trkpt>
      <trkpt lat="43.20921" lon="6.52999">
        <ele>332.9</ele>
        <time>2024-05-26T08:05:59.000Z</time>
      </trkpt>
      <trkpt lat="43.20921" lon="6.52999">
        <ele>332.9</ele>
        <time>2024-05-26T08:06:00.000Z</time>
      </trkpt>
      <trkpt lat="43.20921" lon="6.52999">
        <ele>332.9</ele>
        <time>2024-05-26T08:06:04.000Z</time>
      </trkpt>
      <trkpt lat="43.20921" lon="6.52999">
        <ele>332.9</ele>
        <time>2024-05-26T08:06:05.000Z</time>
      </trkpt>
      <trkpt lat="43.20921" lon="6.52999">
        <ele>332.9</ele>
        <time>2024-05-26T08:06:06.000Z</time>
      </trkpt>
      <trkpt lat="43.20921" lon="6.52999">
        <ele>332.9</ele>
        <time>2024-05-26T08:06:07.000Z</time>
      </trkpt>
      <trkpt lat="43.20921" lon="6.52999">
        <ele>332.9</ele>
        <time>2024-05-26T08:06:08.000Z</time>
      </trkpt>
      <trkpt lat="43.20921" lon="6.52999">
        <ele>332.9</ele>
        <time>2024-05-26T08:06:09.000Z</time>
      </trkpt>
      <trkpt lat="43.20921" lon="6.52999">
        <ele>332.9</ele>
        <time>2024-05-26T08:06:10.000Z</time>
      </trkpt>
      <trkpt lat="43.20921" lon="6.52999">
        <ele>332.9</ele>
        <time>2024-05-26T08:06:11.000Z</time>
      </trkpt>
      <trkpt lat="43.20921" lon="6.52998">
        <ele>332.9</ele>
        <time>2024-05-26T08:06:12.000Z</time>
      </trkpt>
      <trkpt lat="43.20921" lon="6.52998">
        <ele>332.9</ele>
        <time>2024-05-26T08:06:13.000Z</time>
      </trkpt>
      <trkpt lat="43.20921" lon="6.52998">
        <ele>332.9</ele>
        <time>2024-05-26T08:06:14.000Z</time>
      </trkpt>
      <trkpt lat="43.20921" lon="6.52997">
        <ele>332.9</ele>
        <time>2024-05-26T08:06:15.000Z</time>
      </trkpt>
      <trkpt lat="43.20919" lon="6.52993">
        <ele>333</ele>
        <time>2024-05-26T08:06:29.000Z</time>
      </trkpt>
      <trkpt lat="43.20919" lon="6.52993">
        <ele>333</ele>
        <time>2024-05-26T08:06:30.000Z</time>
      </trkpt>
      <trkpt lat="43.20919" lon="6.52993">
        <ele>333</ele>
        <time>2024-05-26T08:06:41.000Z</time>
      </trkpt>
      <trkpt lat="43.20919" lon="6.52993">
        <ele>333</ele>
        <time>2024-05-26T08:06:42.000Z</time>
      </trkpt>
      <trkpt lat="43.20919" lon="6.52993">
        <ele>333</ele>
        <time>2024-05-26T08:06:43.000Z</time>
      </trkpt>
      <trkpt lat="43.20919" lon="6.52993">
        <ele>333</ele>
        <time>2024-05-26T08:06:44.000Z</time>
      </trkpt>
      <trkpt lat="43.20919" lon="6.52993">
        <ele>333</ele>
        <time>2024-05-26T08:06:45.000Z</time>
      </trkpt>
      <trkpt lat="43.20918" lon="6.5299">
        <ele>333.1</ele>
        <time>2024-05-26T08:06:51.000Z</time>
      </trkpt>
      <trkpt lat="43.20917" lon="6.52989">
        <ele>333.1</ele>
        <time>2024-05-26T08:06:52.000Z</time>
      </trkpt>
      <trkpt lat="43.20916" lon="6.52988">
        <ele>333.1</ele>
        <time>2024-05-26T08:06:53.000Z</time>
      </trkpt>
      <trkpt lat="43.2091" lon="6.52978">
        <ele>333.2</ele>
        <time>2024-05-26T08:07:00.000Z</time>
      </trkpt>
      <trkpt lat="43.20906" lon="6.52967">
        <ele>333.4</ele>
        <time>2024-05-26T08:07:08.000Z</time>
      </trkpt>
      <trkpt lat="43.209" lon="6.52955">
        <ele>333.6</ele>
        <time>2024-05-26T08:07:15.000Z</time>
      </trkpt>
      <trkpt lat="43.20896" lon="6.52944">
        <ele>333.9</ele>
        <time>2024-05-26T08:07:22.000Z</time>
      </trkpt>
      <trkpt lat="43.2089" lon="6.52932">
        <ele>334.1</ele>
        <time>2024-05-26T08:07:29.000Z</time>
      </trkpt>
      <trkpt lat="43.20888" lon="6.5292">
        <ele>334.2</ele>
        <time>2024-05-26T08:07:36.000Z</time>
      </trkpt>
      <trkpt lat="43.20887" lon="6.52907">
        <ele>334.1</ele>
        <time>2024-05-26T08:07:43.000Z</time>
      </trkpt>
      <trkpt lat="43.20888" lon="6.52894">
        <ele>334.1</ele>
        <time>2024-05-26T08:07:50.000Z</time>
      </trkpt>
      <trkpt lat="43.20888" lon="6.52881">
        <ele>334.1</ele>
        <time>2024-05-26T08:07:57.000Z</time>
      </trkpt>
      <trkpt lat="43.2089" lon="6.52868">
        <ele>333.9</ele>
        <time>2024-05-26T08:08:04.000Z</time>
      </trkpt>
      <trkpt lat="43.2089" lon="6.52854">
        <ele>333.7</ele>
        <time>2024-05-26T08:08:11.000Z</time>
      </trkpt>
      <trkpt lat="43.2089" lon="6.52841">
        <ele>333.4</ele>
        <time>2024-05-26T08:08:18.000Z</time>
      </trkpt>
      <trkpt lat="43.2089" lon="6.52828">
        <ele>333</ele>
        <time>2024-05-26T08:08:25.000Z</time>
      </trkpt>
      <trkpt lat="43.20891" lon="6.52815">
        <ele>332.6</ele>
        <time>2024-05-26T08:08:32.000Z</time>
      </trkpt>
      <trkpt lat="43.20892" lon="6.52808">
        <ele>332.2</ele>
        <time>2024-05-26T08:08:39.000Z</time>
      </trkpt>
      <trkpt lat="43.20892" lon="6.52808">
        <ele>332.1</ele>
        <time>2024-05-26T08:08:40.000Z</time>
      </trkpt>
      <trkpt lat="43.20892" lon="6.52808">
        <ele>332.1</ele>
        <time>2024-05-26T08:08:41.000Z</time>
      </trkpt>
      <trkpt lat="43.20893" lon="6.52808">
        <ele>331.9</ele>
        <time>2024-05-26T08:08:45.000Z</time>
      </trkpt>
      <trkpt lat="43.20894" lon="6.52808">
        <ele>331.8</ele>
        <time>2024-05-26T08:08:46.000Z</time>
      </trkpt>
      <trkpt lat="43.20893" lon="6.52808">
        <ele>331.7</ele>
        <time>2024-05-26T08:08:49.000Z</time>
      </trkpt>
      <trkpt lat="43.20893" lon="6.52808">
        <ele>331.6</ele>
        <time>2024-05-26T08:08:50.000Z</time>
      </trkpt>
      <trkpt lat="43.20893" lon="6.52808">
        <ele>331.5</ele>
        <time>2024-05-26T08:08:56.000Z</time>
      </trkpt>
      <trkpt lat="43.20893" lon="6.52807">
        <ele>331.4</ele>
        <time>2024-05-26T08:08:57.000Z</time>
      </trkpt>
      <trkpt lat="43.20893" lon="6.52807">
        <ele>331.4</ele>
        <time>2024-05-26T08:08:58.000Z</time>
      </trkpt>
      <trkpt lat="43.20893" lon="6.52807">
        <ele>331.4</ele>
        <time>2024-05-26T08:09:01.000Z</time>
      </trkpt>
      <trkpt lat="43.20893" lon="6.52808">
        <ele>331.3</ele>
        <time>2024-05-26T08:09:02.000Z</time>
      </trkpt>
      <trkpt lat="43.20893" lon="6.52808">
        <ele>331.3</ele>
        <time>2024-05-26T08:09:03.000Z</time>
      </trkpt>
      <trkpt lat="43.20893" lon="6.52808">
        <ele>331.2</ele>
        <time>2024-05-26T08:09:07.000Z</time>
      </trkpt>
      <trkpt lat="43.20893" lon="6.52808">
        <ele>331.2</ele>
        <time>2024-05-26T08:09:08.000Z</time>
      </trkpt>
      <trkpt lat="43.20893" lon="6.52808">
        <ele>331.2</ele>
        <time>2024-05-26T08:09:09.000Z</time>
      </trkpt>
      <trkpt lat="43.20893" lon="6.52808">
        <ele>331.2</ele>
        <time>2024-05-26T08:09:10.000Z</time>
      </trkpt>
      <trkpt lat="43.20894" lon="6.52808">
        <ele>331.2</ele>
        <time>2024-05-26T08:09:14.000Z</time>
      </trkpt>
      <trkpt lat="43.20894" lon="6.52808">
        <ele>331.2</ele>
        <time>2024-05-26T08:09:15.000Z</time>
      </trkpt>
      <trkpt lat="43.20894" lon="6.52809">
        <ele>331.2</ele>
        <time>2024-05-26T08:09:16.000Z</time>
      </trkpt>
      <trkpt lat="43.20895" lon="6.52811">
        <ele>331.1</ele>
        <time>2024-05-26T08:09:22.000Z</time>
      </trkpt>
      <trkpt lat="43.20895" lon="6.52811">
        <ele>331.1</ele>
        <time>2024-05-26T08:09:23.000Z</time>
      </trkpt>
      <trkpt lat="43.20895" lon="6.52811">
        <ele>331.1</ele>
        <time>2024-05-26T08:09:26.000Z</time>
      </trkpt>
      <trkpt lat="43.20895" lon="6.52811">
        <ele>331.1</ele>
        <time>2024-05-26T08:09:27.000Z</time>
      </trkpt>
      <trkpt lat="43.20895" lon="6.52811">
        <ele>331.1</ele>
        <time>2024-05-26T08:09:28.000Z</time>
      </trkpt>
      <trkpt lat="43.20895" lon="6.52811">
        <ele>331.1</ele>
        <time>2024-05-26T08:09:31.000Z</time>
      </trkpt>
      <trkpt lat="43.20895" lon="6.52811">
        <ele>331.1</ele>
        <time>2024-05-26T08:09:32.000Z</time>
      </trkpt>
      <trkpt lat="43.20895" lon="6.52811">
        <ele>331.1</ele>
        <time>2024-05-26T08:09:33.000Z</time>
      </trkpt>
      <trkpt lat="43.20895" lon="6.52811">
        <ele>331.1</ele>
        <time>2024-05-26T08:09:39.000Z</time>
      </trkpt>
      <trkpt lat="43.20895" lon="6.5281">
        <ele>331.1</ele>
        <time>2024-05-26T08:09:40.000Z</time>
      </trkpt>
      <trkpt lat="43.20895" lon="6.52808">
        <ele>331.1</ele>
        <time>2024-05-26T08:09:41.000Z</time>
      </trkpt>
      <trkpt lat="43.20894" lon="6.52795">
        <ele>331.1</ele>
        <time>2024-05-26T08:09:47.000Z</time>
      </trkpt>
      <trkpt lat="43.20895" lon="6.52782">
        <ele>331</ele>
        <time>2024-05-26T08:09:53.000Z</time>
      </trkpt>
      <trkpt lat="43.20895" lon="6.52769">
        <ele>330.9</ele>
        <time>2024-05-26T08:10:01.000Z</time>
      </trkpt>
      <trkpt lat="43.20897" lon="6.52757">
        <ele>330.7</ele>
        <time>2024-05-26T08:10:08.000Z</time>
      </trkpt>
      <trkpt lat="43.209" lon="6.52744">
        <ele>330.6</ele>
        <time>2024-05-26T08:10:15.000Z</time>
      </trkpt>
      <trkpt lat="43.20902" lon="6.52731">
        <ele>330.5</ele>
        <time>2024-05-26T08:10:22.000Z</time>
      </trkpt>
      <trkpt lat="43.20901" lon="6.52718">
        <ele>330.2</ele>
        <time>2024-05-26T08:10:30.000Z</time>
      </trkpt>
      <trkpt lat="43.20901" lon="6.52713">
        <ele>329.9</ele>
        <time>2024-05-26T08:10:39.000Z</time>
      </trkpt>
      <trkpt lat="43.20901" lon="6.52713">
        <ele>329.9</ele>
        <time>2024-05-26T08:10:40.000Z</time>
      </trkpt>
      <trkpt lat="43.20901" lon="6.52711">
        <ele>329.6</ele>
        <time>2024-05-26T08:11:15.000Z</time>
      </trkpt>
      <trkpt lat="43.20901" lon="6.52709">
        <ele>329.6</ele>
        <time>2024-05-26T08:11:16.000Z</time>
      </trkpt>
      <trkpt lat="43.209" lon="6.52696">
        <ele>329.6</ele>
        <time>2024-05-26T08:11:24.000Z</time>
      </trkpt>
      <trkpt lat="43.20899" lon="6.52682">
        <ele>329.5</ele>
        <time>2024-05-26T08:11:32.000Z</time>
      </trkpt>
      <trkpt lat="43.20898" lon="6.52669">
        <ele>329.4</ele>
        <time>2024-05-26T08:11:40.000Z</time>
      </trkpt>
      <trkpt lat="43.20899" lon="6.52656">
        <ele>329.2</ele>
        <time>2024-05-26T08:11:48.000Z</time>
      </trkpt>
      <trkpt lat="43.209" lon="6.52643">
        <ele>328.9</ele>
        <time>2024-05-26T08:11:56.000Z</time>
      </trkpt>
      <trkpt lat="43.209" lon="6.5263">
        <ele>328.7</ele>
        <time>2024-05-26T08:12:03.000Z</time>
      </trkpt>
      <trkpt lat="43.20901" lon="6.52619">
        <ele>328.3</ele>
        <time>2024-05-26T08:12:14.000Z</time>
      </trkpt>
      <trkpt lat="43.20901" lon="6.52619">
        <ele>328.3</ele>
        <time>2024-05-26T08:12:15.000Z</time>
      </trkpt>
      <trkpt lat="43.20902" lon="6.52617">
        <ele>328.2</ele>
        <time>2024-05-26T08:12:19.000Z</time>
      </trkpt>
      <trkpt lat="43.20902" lon="6.52615">
        <ele>328.2</ele>
        <time>2024-05-26T08:12:20.000Z</time>
      </trkpt>
      <trkpt lat="43.20901" lon="6.52603">
        <ele>327.9</ele>
        <time>2024-05-26T08:12:27.000Z</time>
      </trkpt>
      <trkpt lat="43.20903" lon="6.5259">
        <ele>327.7</ele>
        <time>2024-05-26T08:12:34.000Z</time>
      </trkpt>
      <trkpt lat="43.20905" lon="6.52577">
        <ele>327.5</ele>
        <time>2024-05-26T08:12:40.000Z</time>
      </trkpt>
      <trkpt lat="43.20904" lon="6.52564">
        <ele>327.2</ele>
        <time>2024-05-26T08:12:47.000Z</time>
      </trkpt>
      <trkpt lat="43.20905" lon="6.52551">
        <ele>327.1</ele>
        <time>2024-05-26T08:12:54.000Z</time>
      </trkpt>
      <trkpt lat="43.20906" lon="6.52538">
        <ele>326.8</ele>
        <time>2024-05-26T08:13:01.000Z</time>
      </trkpt>
      <trkpt lat="43.20908" lon="6.52524">
        <ele>326.3</ele>
        <time>2024-05-26T08:13:08.000Z</time>
      </trkpt>
      <trkpt lat="43.2091" lon="6.52512">
        <ele>325.6</ele>
        <time>2024-05-26T08:13:16.000Z</time>
      </trkpt>
      <trkpt lat="43.20914" lon="6.52501">
        <ele>325.3</ele>
        <time>2024-05-26T08:13:23.000Z</time>
      </trkpt>
      <trkpt lat="43.20917" lon="6.52489">
        <ele>325</ele>
        <time>2024-05-26T08:13:30.000Z</time>
      </trkpt>
      <trkpt lat="43.2092" lon="6.52476">
        <ele>324.7</ele>
        <time>2024-05-26T08:13:39.000Z</time>
      </trkpt>
      <trkpt lat="43.20924" lon="6.52464">
        <ele>324.3</ele>
        <time>2024-05-26T08:13:47.000Z</time>
      </trkpt>
      <trkpt lat="43.20929" lon="6.52454">
        <ele>323.8</ele>
        <time>2024-05-26T08:13:57.000Z</time>
      </trkpt>
      <trkpt lat="43.20931" lon="6.52453">
        <ele>323.4</ele>
        <time>2024-05-26T08:14:06.000Z</time>
      </trkpt>
      <trkpt lat="43.20931" lon="6.52452">
        <ele>323.4</ele>
        <time>2024-05-26T08:14:07.000Z</time>
      </trkpt>
      <trkpt lat="43.20931" lon="6.52452">
        <ele>323.3</ele>
        <time>2024-05-26T08:14:08.000Z</time>
      </trkpt>
      <trkpt lat="43.20932" lon="6.52451">
        <ele>323.3</ele>
        <time>2024-05-26T08:14:09.000Z</time>
      </trkpt>
      <trkpt lat="43.20933" lon="6.5245">
        <ele>323.2</ele>
        <time>2024-05-26T08:14:10.000Z</time>
      </trkpt>
      <trkpt lat="43.20942" lon="6.52444">
        <ele>323</ele>
        <time>2024-05-26T08:14:18.000Z</time>
      </trkpt>
      <trkpt lat="43.2095" lon="6.52439">
        <ele>322.7</ele>
        <time>2024-05-26T08:14:27.000Z</time>
      </trkpt>
      <trkpt lat="43.2096" lon="6.52434">
        <ele>322.3</ele>
        <time>2024-05-26T08:14:36.000Z</time>
      </trkpt>
      <trkpt lat="43.20968" lon="6.52427">
        <ele>322.1</ele>
        <time>2024-05-26T08:14:44.000Z</time>
      </trkpt>
      <trkpt lat="43.20973" lon="6.52417">
        <ele>321.7</ele>
        <time>2024-05-26T08:14:55.000Z</time>
      </trkpt>
      <trkpt lat="43.20973" lon="6.52417">
        <ele>321.7</ele>
        <time>2024-05-26T08:14:56.000Z</time>
      </trkpt>
      <trkpt lat="43.20974" lon="6.52417">
        <ele>321.7</ele>
        <time>2024-05-26T08:14:57.000Z</time>
      </trkpt>
      <trkpt lat="43.20975" lon="6.52416">
        <ele>321.7</ele>
        <time>2024-05-26T08:14:58.000Z</time>
      </trkpt>
      <trkpt lat="43.20976" lon="6.52413">
        <ele>321.6</ele>
        <time>2024-05-26T08:15:04.000Z</time>
      </trkpt>
      <trkpt lat="43.20976" lon="6.52413">
        <ele>321.6</ele>
        <time>2024-05-26T08:15:05.000Z</time>
      </trkpt>
      <trkpt lat="43.20976" lon="6.52413">
        <ele>321.6</ele>
        <time>2024-05-26T08:15:06.000Z</time>
      </trkpt>
      <trkpt lat="43.20975" lon="6.52413">
        <ele>321.6</ele>
        <time>2024-05-26T08:15:07.000Z</time>
      </trkpt>
      <trkpt lat="43.20975" lon="6.52413">
        <ele>321.6</ele>
        <time>2024-05-26T08:15:08.000Z</time>
      </trkpt>
      <trkpt lat="43.20975" lon="6.52413">
        <ele>321.6</ele>
        <time>2024-05-26T08:15:09.000Z</time>
      </trkpt>
      <trkpt lat="43.20975" lon="6.52413">
        <ele>321.6</ele>
        <time>2024-05-26T08:15:10.000Z</time>
      </trkpt>
      <trkpt lat="43.20974" lon="6.52412">
        <ele>321.6</ele>
        <time>2024-05-26T08:15:11.000Z</time>
      </trkpt>
      <trkpt lat="43.20974" lon="6.52411">
        <ele>321.6</ele>
        <time>2024-05-26T08:15:12.000Z</time>
      </trkpt>
      <trkpt lat="43.20974" lon="6.52411">
        <ele>321.6</ele>
        <time>2024-05-26T08:15:13.000Z</time>
      </trkpt>
      <trkpt lat="43.20973" lon="6.52411">
        <ele>321.5</ele>
        <time>2024-05-26T08:15:16.000Z</time>
      </trkpt>
      <trkpt lat="43.20973" lon="6.52411">
        <ele>321.5</ele>
        <time>2024-05-26T08:15:17.000Z</time>
      </trkpt>
      <trkpt lat="43.20973" lon="6.52411">
        <ele>321.5</ele>
        <time>2024-05-26T08:15:18.000Z</time>
      </trkpt>
      <trkpt lat="43.20974" lon="6.5241">
        <ele>321.5</ele>
        <time>2024-05-26T08:15:21.000Z</time>
      </trkpt>
      <trkpt lat="43.20974" lon="6.5241">
        <ele>321.5</ele>
        <time>2024-05-26T08:15:22.000Z</time>
      </trkpt>
      <trkpt lat="43.20974" lon="6.5241">
        <ele>321.5</ele>
        <time>2024-05-26T08:15:23.000Z</time>
      </trkpt>
      <trkpt lat="43.20974" lon="6.5241">
        <ele>321.5</ele>
        <time>2024-05-26T08:15:24.000Z</time>
      </trkpt>
      <trkpt lat="43.20974" lon="6.5241">
        <ele>321.5</ele>
        <time>2024-05-26T08:15:25.000Z</time>
      </trkpt>
      <trkpt lat="43.20974" lon="6.52408">
        <ele>321.5</ele>
        <time>2024-05-26T08:15:29.000Z</time>
      </trkpt>
      <trkpt lat="43.20975" lon="6.52407">
        <ele>321.5</ele>
        <time>2024-05-26T08:15:30.000Z</time>
      </trkpt>
      <trkpt lat="43.20976" lon="6.524">
        <ele>321.4</ele>
        <time>2024-05-26T08:15:39.000Z</time>
      </trkpt>
      <trkpt lat="43.20976" lon="6.524">
        <ele>321.4</ele>
        <time>2024-05-26T08:15:40.000Z</time>
      </trkpt>
      <trkpt lat="43.20976" lon="6.524">
        <ele>321.4</ele>
        <time>2024-05-26T08:15:41.000Z</time>
      </trkpt>
      <trkpt lat="43.20975" lon="6.524">
        <ele>321.2</ele>
        <time>2024-05-26T08:16:06.000Z</time>
      </trkpt>
      <trkpt lat="43.20975" lon="6.524">
        <ele>321.2</ele>
        <time>2024-05-26T08:16:07.000Z</time>
      </trkpt>
      <trkpt lat="43.20976" lon="6.524">
        <ele>321.2</ele>
        <time>2024-05-26T08:16:08.000Z</time>
      </trkpt>
      <trkpt lat="43.20976" lon="6.524">
        <ele>321.2</ele>
        <time>2024-05-26T08:16:12.000Z</time>
      </trkpt>
      <trkpt lat="43.20976" lon="6.524">
        <ele>321.2</ele>
        <time>2024-05-26T08:16:13.000Z</time>
      </trkpt>
      <trkpt lat="43.20974" lon="6.52399">
        <ele>321.1</ele>
        <time>2024-05-26T08:16:34.000Z</time>
      </trkpt>
      <trkpt lat="43.20973" lon="6.524">
        <ele>321.1</ele>
        <time>2024-05-26T08:16:35.000Z</time>
      </trkpt>
      <trkpt lat="43.20974" lon="6.524">
        <ele>321</ele>
        <time>2024-05-26T08:16:41.000Z</time>
      </trkpt>
      <trkpt lat="43.20974" lon="6.524">
        <ele>321</ele>
        <time>2024-05-26T08:16:42.000Z</time>
      </trkpt>
      <trkpt lat="43.20974" lon="6.524">
        <ele>321</ele>
        <time>2024-05-26T08:16:43.000Z</time>
      </trkpt>
      <trkpt lat="43.20974" lon="6.524">
        <ele>321.1</ele>
        <time>2024-05-26T08:16:59.000Z</time>
      </trkpt>
      <trkpt lat="43.20974" lon="6.524">
        <ele>321.1</ele>
        <time>2024-05-26T08:17:00.000Z</time>
      </trkpt>
      <trkpt lat="43.20974" lon="6.524">
        <ele>321.1</ele>
        <time>2024-05-26T08:17:01.000Z</time>
      </trkpt>
      <trkpt lat="43.20974" lon="6.524">
        <ele>321.1</ele>
        <time>2024-05-26T08:17:02.000Z</time>
      </trkpt>
      <trkpt lat="43.20974" lon="6.524">
        <ele>321.1</ele>
        <time>2024-05-26T08:17:03.000Z</time>
      </trkpt>
      <trkpt lat="43.20973" lon="6.524">
        <ele>321.2</ele>
        <time>2024-05-26T08:17:29.000Z</time>
      </trkpt>
      <trkpt lat="43.20972" lon="6.52399">
        <ele>321.2</ele>
        <time>2024-05-26T08:17:30.000Z</time>
      </trkpt>
      <trkpt lat="43.2097" lon="6.52398">
        <ele>321.2</ele>
        <time>2024-05-26T08:17:31.000Z</time>
      </trkpt>
      <trkpt lat="43.20962" lon="6.5239">
        <ele>321.3</ele>
        <time>2024-05-26T08:17:39.000Z</time>
      </trkpt>
      <trkpt lat="43.20955" lon="6.52382">
        <ele>321.3</ele>
        <time>2024-05-26T08:17:47.000Z</time>
      </trkpt>
      <trkpt lat="43.20947" lon="6.52374">
        <ele>321.3</ele>
        <time>2024-05-26T08:17:54.000Z</time>
      </trkpt>
      <trkpt lat="43.2094" lon="6.52367">
        <ele>321.3</ele>
        <time>2024-05-26T08:18:02.000Z</time>
      </trkpt>
      <trkpt lat="43.20931" lon="6.52363">
        <ele>321.3</ele>
        <time>2024-05-26T08:18:09.000Z</time>
      </trkpt>
      <trkpt lat="43.20922" lon="6.52358">
        <ele>321.2</ele>
        <time>2024-05-26T08:18:17.000Z</time>
      </trkpt>
      <trkpt lat="43.20912" lon="6.52355">
        <ele>321.1</ele>
        <time>2024-05-26T08:18:26.000Z</time>
      </trkpt>
      <trkpt lat="43.20902" lon="6.52353">
        <ele>320.8</ele>
        <time>2024-05-26T08:18:34.000Z</time>
      </trkpt>
      <trkpt lat="43.20893" lon="6.52355">
        <ele>320.4</ele>
        <time>2024-05-26T08:18:42.000Z</time>
      </trkpt>
      <trkpt lat="43.20883" lon="6.52356">
        <ele>319.6</ele>
        <time>2024-05-26T08:18:49.000Z</time>
      </trkpt>
      <trkpt lat="43.20873" lon="6.52356">
        <ele>319.1</ele>
        <time>2024-05-26T08:18:58.000Z</time>
      </trkpt>
      <trkpt lat="43.20864" lon="6.52349">
        <ele>318.4</ele>
        <time>2024-05-26T08:19:10.000Z</time>
      </trkpt>
      <trkpt lat="43.20857" lon="6.5234">
        <ele>318.1</ele>
        <time>2024-05-26T08:19:17.000Z</time>
      </trkpt>
      <trkpt lat="43.20851" lon="6.5233">
        <ele>317.8</ele>
        <time>2024-05-26T08:19:23.000Z</time>
      </trkpt>
      <trkpt lat="43.20844" lon="6.52322">
        <ele>317.4</ele>
        <time>2024-05-26T08:19:32.000Z</time>
      </trkpt>
      <trkpt lat="43.20835" lon="6.52315">
        <ele>317</ele>
        <time>2024-05-26T08:19:42.000Z</time>
      </trkpt>
      <trkpt lat="43.20836" lon="6.52313">
        <ele>316.8</ele>
        <time>2024-05-26T08:19:52.000Z</time>
      </trkpt>
      <trkpt lat="43.20836" lon="6.52313">
        <ele>316.8</ele>
        <time>2024-05-26T08:19:53.000Z</time>
      </trkpt>
      <trkpt lat="43.20836" lon="6.52313">
        <ele>316.6</ele>
        <time>2024-05-26T08:20:22.000Z</time>
      </trkpt>
      <trkpt lat="43.20836" lon="6.52313">
        <ele>316.6</ele>
        <time>2024-05-26T08:20:23.000Z</time>
      </trkpt>
      <trkpt lat="43.20834" lon="6.52313">
        <ele>316.6</ele>
        <time>2024-05-26T08:20:24.000Z</time>
      </trkpt>
      <trkpt lat="43.20826" lon="6.52308">
        <ele>316.5</ele>
        <time>2024-05-26T08:20:31.000Z</time>
      </trkpt>
      <trkpt lat="43.20817" lon="6.52303">
        <ele>316.4</ele>
        <time>2024-05-26T08:20:38.000Z</time>
      </trkpt>
      <trkpt lat="43.20815" lon="6.52299">
        <ele>316.2</ele>
        <time>2024-05-26T08:20:46.000Z</time>
      </trkpt>
      <trkpt lat="43.20814" lon="6.52299">
        <ele>316.2</ele>
        <time>2024-05-26T08:20:47.000Z</time>
      </trkpt>
      <trkpt lat="43.20813" lon="6.52298">
        <ele>316.1</ele>
        <time>2024-05-26T08:20:48.000Z</time>
      </trkpt>
      <trkpt lat="43.20811" lon="6.52298">
        <ele>316.1</ele>
        <time>2024-05-26T08:20:49.000Z</time>
      </trkpt>
      <trkpt lat="43.2081" lon="6.52298">
        <ele>316.1</ele>
        <time>2024-05-26T08:20:50.000Z</time>
      </trkpt>
      <trkpt lat="43.20801" lon="6.52293">
        <ele>315.9</ele>
        <time>2024-05-26T08:20:57.000Z</time>
      </trkpt>
      <trkpt lat="43.20791" lon="6.5229">
        <ele>315.8</ele>
        <time>2024-05-26T08:21:04.000Z</time>
      </trkpt>
      <trkpt lat="43.20781" lon="6.52285">
        <ele>315.4</ele>
        <time>2024-05-26T08:21:12.000Z</time>
      </trkpt>
      <trkpt lat="43.20772" lon="6.52279">
        <ele>315.2</ele>
        <time>2024-05-26T08:21:19.000Z</time>
      </trkpt>
      <trkpt lat="43.20763" lon="6.52276">
        <ele>315</ele>
        <time>2024-05-26T08:21:26.000Z</time>
      </trkpt>
      <trkpt lat="43.20754" lon="6.52273">
        <ele>314.8</ele>
        <time>2024-05-26T08:21:34.000Z</time>
      </trkpt>
      <trkpt lat="43.20745" lon="6.52268">
        <ele>314.5</ele>
        <time>2024-05-26T08:21:42.000Z</time>
      </trkpt>
      <trkpt lat="43.20737" lon="6.52261">
        <ele>314.3</ele>
        <time>2024-05-26T08:21:49.000Z</time>
      </trkpt>
      <trkpt lat="43.20727" lon="6.52257">
        <ele>314</ele>
        <time>2024-05-26T08:21:56.000Z</time>
      </trkpt>
      <trkpt lat="43.20718" lon="6.52252">
        <ele>313.7</ele>
        <time>2024-05-26T08:22:04.000Z</time>
      </trkpt>
      <trkpt lat="43.20709" lon="6.52247">
        <ele>313.3</ele>
        <time>2024-05-26T08:22:14.000Z</time>
      </trkpt>
      <trkpt lat="43.20703" lon="6.52243">
        <ele>313</ele>
        <time>2024-05-26T08:22:27.000Z</time>
      </trkpt>
      <trkpt lat="43.20703" lon="6.52243">
        <ele>313</ele>
        <time>2024-05-26T08:22:28.000Z</time>
      </trkpt>
      <trkpt lat="43.20702" lon="6.52243">
        <ele>312.9</ele>
        <time>2024-05-26T08:22:31.000Z</time>
      </trkpt>
      <trkpt lat="43.20701" lon="6.52242">
        <ele>312.9</ele>
        <time>2024-05-26T08:22:32.000Z</time>
      </trkpt>
      <trkpt lat="43.20701" lon="6.52241">
        <ele>312.9</ele>
        <time>2024-05-26T08:22:33.000Z</time>
      </trkpt>
      <trkpt lat="43.20694" lon="6.52232">
        <ele>312.7</ele>
        <time>2024-05-26T08:22:42.000Z</time>
      </trkpt>
      <trkpt lat="43.20688" lon="6.5222">
        <ele>312.6</ele>
        <time>2024-05-26T08:22:55.000Z</time>
      </trkpt>
      <trkpt lat="43.20683" lon="6.52209">
        <ele>312.7</ele>
        <time>2024-05-26T08:23:05.000Z</time>
      </trkpt>
      <trkpt lat="43.20679" lon="6.52198">
        <ele>313.6</ele>
        <time>2024-05-26T08:23:19.000Z</time>
      </trkpt>
      <trkpt lat="43.20675" lon="6.52186">
        <ele>315.2</ele>
        <time>2024-05-26T08:23:32.000Z</time>
      </trkpt>
      <trkpt lat="43.2067" lon="6.52176">
        <ele>317.1</ele>
        <time>2024-05-26T08:23:43.000Z</time>
      </trkpt>
      <trkpt lat="43.20671" lon="6.52171">
        <ele>318.3</ele>
        <time>2024-05-26T08:23:52.000Z</time>
      </trkpt>
      <trkpt lat="43.20671" lon="6.52171">
        <ele>318.4</ele>
        <time>2024-05-26T08:23:53.000Z</time>
      </trkpt>
      <trkpt lat="43.20671" lon="6.52171">
        <ele>318.5</ele>
        <time>2024-05-26T08:23:54.000Z</time>
      </trkpt>
      <trkpt lat="43.20672" lon="6.5217">
        <ele>318.9</ele>
        <time>2024-05-26T08:24:04.000Z</time>
      </trkpt>
      <trkpt lat="43.20673" lon="6.5217">
        <ele>318.9</ele>
        <time>2024-05-26T08:24:05.000Z</time>
      </trkpt>
      <trkpt lat="43.20667" lon="6.5216">
        <ele>319.2</ele>
        <time>2024-05-26T08:24:17.000Z</time>
      </trkpt>
      <trkpt lat="43.20663" lon="6.52149">
        <ele>320</ele>
        <time>2024-05-26T08:24:26.000Z</time>
      </trkpt>
      <trkpt lat="43.20657" lon="6.52137">
        <ele>321.1</ele>
        <time>2024-05-26T08:24:35.000Z</time>
      </trkpt>
      <trkpt lat="43.20648" lon="6.52132">
        <ele>321.5</ele>
        <time>2024-05-26T08:24:42.000Z</time>
      </trkpt>
      <trkpt lat="43.20641" lon="6.52123">
        <ele>321.8</ele>
        <time>2024-05-26T08:24:51.000Z</time>
      </trkpt>
      <trkpt lat="43.20633" lon="6.52114">
        <ele>322.5</ele>
        <time>2024-05-26T08:25:01.000Z</time>
      </trkpt>
      <trkpt lat="43.20628" lon="6.52104">
        <ele>323.7</ele>
        <time>2024-05-26T08:25:13.000Z</time>
      </trkpt>
      <trkpt lat="43.20623" lon="6.52093">
        <ele>326.3</ele>
        <time>2024-05-26T08:25:29.000Z</time>
      </trkpt>
      <trkpt lat="43.20621" lon="6.52081">
        <ele>329.3</ele>
        <time>2024-05-26T08:25:51.000Z</time>
      </trkpt>
      <trkpt lat="43.2062" lon="6.52068">
        <ele>331.6</ele>
        <time>2024-05-26T08:26:09.000Z</time>
      </trkpt>
      <trkpt lat="43.20619" lon="6.52055">
        <ele>333.5</ele>
        <time>2024-05-26T08:26:23.000Z</time>
      </trkpt>
      <trkpt lat="43.20618" lon="6.52042">
        <ele>337.4</ele>
        <time>2024-05-26T08:26:49.000Z</time>
      </trkpt>
      <trkpt lat="43.20619" lon="6.5203">
        <ele>340.3</ele>
        <time>2024-05-26T08:27:05.000Z</time>
      </trkpt>
      <trkpt lat="43.20617" lon="6.52017">
        <ele>340.9</ele>
        <time>2024-05-26T08:27:16.000Z</time>
      </trkpt>
      <trkpt lat="43.20616" lon="6.52017">
        <ele>340.8</ele>
        <time>2024-05-26T08:27:24.000Z</time>
      </trkpt>
      <trkpt lat="43.20616" lon="6.52017">
        <ele>340.8</ele>
        <time>2024-05-26T08:27:25.000Z</time>
      </trkpt>
      <trkpt lat="43.20615" lon="6.52017">
        <ele>340.8</ele>
        <time>2024-05-26T08:27:32.000Z</time>
      </trkpt>
      <trkpt lat="43.20615" lon="6.52017">
        <ele>340.8</ele>
        <time>2024-05-26T08:27:33.000Z</time>
      </trkpt>
      <trkpt lat="43.20615" lon="6.52017">
        <ele>340.8</ele>
        <time>2024-05-26T08:27:34.000Z</time>
      </trkpt>
      <trkpt lat="43.20615" lon="6.52017">
        <ele>340.8</ele>
        <time>2024-05-26T08:27:35.000Z</time>
      </trkpt>
      <trkpt lat="43.20615" lon="6.52017">
        <ele>340.8</ele>
        <time>2024-05-26T08:27:42.000Z</time>
      </trkpt>
      <trkpt lat="43.20615" lon="6.52017">
        <ele>340.8</ele>
        <time>2024-05-26T08:27:43.000Z</time>
      </trkpt>
      <trkpt lat="43.20616" lon="6.52017">
        <ele>340.8</ele>
        <time>2024-05-26T08:27:44.000Z</time>
      </trkpt>
      <trkpt lat="43.20616" lon="6.52017">
        <ele>340.8</ele>
        <time>2024-05-26T08:27:47.000Z</time>
      </trkpt>
      <trkpt lat="43.20616" lon="6.52017">
        <ele>340.9</ele>
        <time>2024-05-26T08:27:48.000Z</time>
      </trkpt>
      <trkpt lat="43.20615" lon="6.52016">
        <ele>340.8</ele>
        <time>2024-05-26T08:28:02.000Z</time>
      </trkpt>
      <trkpt lat="43.20616" lon="6.52016">
        <ele>340.8</ele>
        <time>2024-05-26T08:28:03.000Z</time>
      </trkpt>
      <trkpt lat="43.20616" lon="6.52017">
        <ele>340.9</ele>
        <time>2024-05-26T08:28:11.000Z</time>
      </trkpt>
      <trkpt lat="43.20616" lon="6.52017">
        <ele>340.9</ele>
        <time>2024-05-26T08:28:12.000Z</time>
      </trkpt>
      <trkpt lat="43.20615" lon="6.52017">
        <ele>340.9</ele>
        <time>2024-05-26T08:28:13.000Z</time>
      </trkpt>
      <trkpt lat="43.20615" lon="6.52016">
        <ele>340.9</ele>
        <time>2024-05-26T08:28:21.000Z</time>
      </trkpt>
      <trkpt lat="43.20615" lon="6.52016">
        <ele>340.9</ele>
        <time>2024-05-26T08:28:22.000Z</time>
      </trkpt>
      <trkpt lat="43.20615" lon="6.52016">
        <ele>340.9</ele>
        <time>2024-05-26T08:28:23.000Z</time>
      </trkpt>
      <trkpt lat="43.20615" lon="6.52016">
        <ele>340.9</ele>
        <time>2024-05-26T08:28:26.000Z</time>
      </trkpt>
      <trkpt lat="43.20615" lon="6.52016">
        <ele>340.9</ele>
        <time>2024-05-26T08:28:27.000Z</time>
      </trkpt>
      <trkpt lat="43.20615" lon="6.52016">
        <ele>340.9</ele>
        <time>2024-05-26T08:28:28.000Z</time>
      </trkpt>
      <trkpt lat="43.20615" lon="6.52016">
        <ele>341</ele>
        <time>2024-05-26T08:28:36.000Z</time>
      </trkpt>
      <trkpt lat="43.20615" lon="6.52016">
        <ele>341</ele>
        <time>2024-05-26T08:28:37.000Z</time>
      </trkpt>
      <trkpt lat="43.20615" lon="6.52016">
        <ele>341</ele>
        <time>2024-05-26T08:28:38.000Z</time>
      </trkpt>
      <trkpt lat="43.20615" lon="6.52016">
        <ele>341</ele>
        <time>2024-05-26T08:28:39.000Z</time>
      </trkpt>
      <trkpt lat="43.20615" lon="6.52016">
        <ele>341</ele>
        <time>2024-05-26T08:28:40.000Z</time>
      </trkpt>
      <trkpt lat="43.20615" lon="6.52016">
        <ele>341</ele>
        <time>2024-05-26T08:28:49.000Z</time>
      </trkpt>
      <trkpt lat="43.20615" lon="6.52016">
        <ele>341</ele>
        <time>2024-05-26T08:28:50.000Z</time>
      </trkpt>
      <trkpt lat="43.20615" lon="6.52016">
        <ele>341</ele>
        <time>2024-05-26T08:28:51.000Z</time>
      </trkpt>
      <trkpt lat="43.20615" lon="6.52016">
        <ele>341</ele>
        <time>2024-05-26T08:28:52.000Z</time>
      </trkpt>
      <trkpt lat="43.20615" lon="6.52016">
        <ele>341</ele>
        <time>2024-05-26T08:28:53.000Z</time>
      </trkpt>
      <trkpt lat="43.20616" lon="6.52016">
        <ele>341</ele>
        <time>2024-05-26T08:29:00.000Z</time>
      </trkpt>
      <trkpt lat="43.20617" lon="6.52016">
        <ele>341</ele>
        <time>2024-05-26T08:29:01.000Z</time>
      </trkpt>
      <trkpt lat="43.20616" lon="6.52016">
        <ele>341</ele>
        <time>2024-05-26T08:29:02.000Z</time>
      </trkpt>
      <trkpt lat="43.20616" lon="6.52016">
        <ele>341</ele>
        <time>2024-05-26T08:29:03.000Z</time>
      </trkpt>
      <trkpt lat="43.20616" lon="6.52016">
        <ele>341</ele>
        <time>2024-05-26T08:29:04.000Z</time>
      </trkpt>
      <trkpt lat="43.20615" lon="6.52016">
        <ele>341</ele>
        <time>2024-05-26T08:29:05.000Z</time>
      </trkpt>
      <trkpt lat="43.20615" lon="6.52016">
        <ele>341.1</ele>
        <time>2024-05-26T08:29:09.000Z</time>
      </trkpt>
      <trkpt lat="43.20615" lon="6.52016">
        <ele>341.1</ele>
        <time>2024-05-26T08:29:10.000Z</time>
      </trkpt>
      <trkpt lat="43.20615" lon="6.52016">
        <ele>341</ele>
        <time>2024-05-26T08:29:11.000Z</time>
      </trkpt>
      <trkpt lat="43.20614" lon="6.52015">
        <ele>341.1</ele>
        <time>2024-05-26T08:29:32.000Z</time>
      </trkpt>
      <trkpt lat="43.20614" lon="6.52015">
        <ele>341.1</ele>
        <time>2024-05-26T08:29:33.000Z</time>
      </trkpt>
      <trkpt lat="43.20614" lon="6.52015">
        <ele>341.1</ele>
        <time>2024-05-26T08:29:34.000Z</time>
      </trkpt>
      <trkpt lat="43.20614" lon="6.52015">
        <ele>341.1</ele>
        <time>2024-05-26T08:29:35.000Z</time>
      </trkpt>
      <trkpt lat="43.20613" lon="6.52011">
        <ele>341.1</ele>
        <time>2024-05-26T08:29:39.000Z</time>
      </trkpt>
      <trkpt lat="43.20613" lon="6.5201">
        <ele>341.1</ele>
        <time>2024-05-26T08:29:40.000Z</time>
      </trkpt>
      <trkpt lat="43.20612" lon="6.52009">
        <ele>341.1</ele>
        <time>2024-05-26T08:29:41.000Z</time>
      </trkpt>
      <trkpt lat="43.20606" lon="6.51999">
        <ele>341.1</ele>
        <time>2024-05-26T08:29:50.000Z</time>
      </trkpt>
      <trkpt lat="43.206" lon="6.51989">
        <ele>341.3</ele>
        <time>2024-05-26T08:30:02.000Z</time>
      </trkpt>
      <trkpt lat="43.20596" lon="6.51978">
        <ele>342</ele>
        <time>2024-05-26T08:30:13.000Z</time>
      </trkpt>
      <trkpt lat="43.20594" lon="6.51965">
        <ele>343.7</ele>
        <time>2024-05-26T08:30:24.000Z</time>
      </trkpt>
      <trkpt lat="43.20594" lon="6.51952">
        <ele>346</ele>
        <time>2024-05-26T08:30:37.000Z</time>
      </trkpt>
      <trkpt lat="43.20593" lon="6.51939">
        <ele>347.7</ele>
        <time>2024-05-26T08:30:49.000Z</time>
      </trkpt>
      <trkpt lat="43.20593" lon="6.51935">
        <ele>348.1</ele>
        <time>2024-05-26T08:30:57.000Z</time>
      </trkpt>
      <trkpt lat="43.20593" lon="6.51935">
        <ele>348.1</ele>
        <time>2024-05-26T08:30:58.000Z</time>
      </trkpt>
      <trkpt lat="43.20593" lon="6.51935">
        <ele>348.2</ele>
        <time>2024-05-26T08:30:59.000Z</time>
      </trkpt>
      <trkpt lat="43.20593" lon="6.51934">
        <ele>348.2</ele>
        <time>2024-05-26T08:31:00.000Z</time>
      </trkpt>
      <trkpt lat="43.20593" lon="6.51933">
        <ele>348.2</ele>
        <time>2024-05-26T08:31:01.000Z</time>
      </trkpt>
      <trkpt lat="43.20589" lon="6.51921">
        <ele>348.5</ele>
        <time>2024-05-26T08:31:13.000Z</time>
      </trkpt>
      <trkpt lat="43.2059" lon="6.51909">
        <ele>349.6</ele>
        <time>2024-05-26T08:31:25.000Z</time>
      </trkpt>
      <trkpt lat="43.20593" lon="6.51897">
        <ele>351.5</ele>
        <time>2024-05-26T08:31:40.000Z</time>
      </trkpt>
      <trkpt lat="43.20591" lon="6.51884">
        <ele>354.4</ele>
        <time>2024-05-26T08:31:59.000Z</time>
      </trkpt>
      <trkpt lat="43.20588" lon="6.51873">
        <ele>356.2</ele>
        <time>2024-05-26T08:32:12.000Z</time>
      </trkpt>
      <trkpt lat="43.20585" lon="6.5186">
        <ele>358.2</ele>
        <time>2024-05-26T08:32:26.000Z</time>
      </trkpt>
      <trkpt lat="43.20581" lon="6.51848">
        <ele>360.8</ele>
        <time>2024-05-26T08:32:44.000Z</time>
      </trkpt>
      <trkpt lat="43.20578" lon="6.51837">
        <ele>363.4</ele>
        <time>2024-05-26T08:33:01.000Z</time>
      </trkpt>
      <trkpt lat="43.20573" lon="6.51826">
        <ele>365.1</ele>
        <time>2024-05-26T08:33:14.000Z</time>
      </trkpt>
      <trkpt lat="43.20568" lon="6.51814">
        <ele>366.2</ele>
        <time>2024-05-26T08:33:26.000Z</time>
      </trkpt>
      <trkpt lat="43.20562" lon="6.51803">
        <ele>366.4</ele>
        <time>2024-05-26T08:33:38.000Z</time>
      </trkpt>
      <trkpt lat="43.20556" lon="6.51793">
        <ele>366.8</ele>
        <time>2024-05-26T08:33:49.000Z</time>
      </trkpt>
      <trkpt lat="43.2055" lon="6.51784">
        <ele>367.3</ele>
        <time>2024-05-26T08:33:58.000Z</time>
      </trkpt>
      <trkpt lat="43.20544" lon="6.51778">
        <ele>368.8</ele>
        <time>2024-05-26T08:34:15.000Z</time>
      </trkpt>
      <trkpt lat="43.20544" lon="6.51778">
        <ele>368.8</ele>
        <time>2024-05-26T08:34:16.000Z</time>
      </trkpt>
      <trkpt lat="43.20543" lon="6.51777">
        <ele>369</ele>
        <time>2024-05-26T08:34:20.000Z</time>
      </trkpt>
      <trkpt lat="43.20543" lon="6.51776">
        <ele>369</ele>
        <time>2024-05-26T08:34:21.000Z</time>
      </trkpt>
      <trkpt lat="43.20535" lon="6.51769">
        <ele>370.1</ele>
        <time>2024-05-26T08:34:35.000Z</time>
      </trkpt>
      <trkpt lat="43.20525" lon="6.51766">
        <ele>371.1</ele>
        <time>2024-05-26T08:34:43.000Z</time>
      </trkpt>
      <trkpt lat="43.20519" lon="6.51757">
        <ele>373.6</ele>
        <time>2024-05-26T08:35:01.000Z</time>
      </trkpt>
      <trkpt lat="43.20512" lon="6.51748">
        <ele>377</ele>
        <time>2024-05-26T08:35:24.000Z</time>
      </trkpt>
      <trkpt lat="43.20509" lon="6.51737">
        <ele>379.6</ele>
        <time>2024-05-26T08:35:41.000Z</time>
      </trkpt>
      <trkpt lat="43.20503" lon="6.51727">
        <ele>381.8</ele>
        <time>2024-05-26T08:35:55.000Z</time>
      </trkpt>
      <trkpt lat="43.20497" lon="6.51717">
        <ele>384.9</ele>
        <time>2024-05-26T08:36:12.000Z</time>
      </trkpt>
      <trkpt lat="43.20492" lon="6.51706">
        <ele>388</ele>
        <time>2024-05-26T08:36:34.000Z</time>
      </trkpt>
      <trkpt lat="43.20484" lon="6.51699">
        <ele>390.6</ele>
        <time>2024-05-26T08:36:50.000Z</time>
      </trkpt>
      <trkpt lat="43.20478" lon="6.51689">
        <ele>393.6</ele>
        <time>2024-05-26T08:37:07.000Z</time>
      </trkpt>
      <trkpt lat="43.20471" lon="6.51681">
        <ele>396.1</ele>
        <time>2024-05-26T08:37:21.000Z</time>
      </trkpt>
      <trkpt lat="43.20467" lon="6.51678">
        <ele>398.6</ele>
        <time>2024-05-26T08:37:36.000Z</time>
      </trkpt>
      <trkpt lat="43.20467" lon="6.51678">
        <ele>398.6</ele>
        <time>2024-05-26T08:37:37.000Z</time>
      </trkpt>
      <trkpt lat="43.20467" lon="6.51678">
        <ele>398.7</ele>
        <time>2024-05-26T08:37:38.000Z</time>
      </trkpt>
      <trkpt lat="43.20467" lon="6.51678">
        <ele>399</ele>
        <time>2024-05-26T08:37:44.000Z</time>
      </trkpt>
      <trkpt lat="43.20467" lon="6.51678">
        <ele>399</ele>
        <time>2024-05-26T08:37:45.000Z</time>
      </trkpt>
      <trkpt lat="43.20467" lon="6.51678">
        <ele>399.2</ele>
        <time>2024-05-26T08:37:49.000Z</time>
      </trkpt>
      <trkpt lat="43.20467" lon="6.51678">
        <ele>399.2</ele>
        <time>2024-05-26T08:37:50.000Z</time>
      </trkpt>
      <trkpt lat="43.20467" lon="6.51678">
        <ele>399.3</ele>
        <time>2024-05-26T08:37:51.000Z</time>
      </trkpt>
      <trkpt lat="43.20467" lon="6.51678">
        <ele>399.3</ele>
        <time>2024-05-26T08:37:52.000Z</time>
      </trkpt>
      <trkpt lat="43.20467" lon="6.51678">
        <ele>399.3</ele>
        <time>2024-05-26T08:37:53.000Z</time>
      </trkpt>
      <trkpt lat="43.20467" lon="6.51678">
        <ele>399.3</ele>
        <time>2024-05-26T08:37:54.000Z</time>
      </trkpt>
      <trkpt lat="43.20467" lon="6.51678">
        <ele>399.3</ele>
        <time>2024-05-26T08:37:55.000Z</time>
      </trkpt>
      <trkpt lat="43.20467" lon="6.51678">
        <ele>399.4</ele>
        <time>2024-05-26T08:37:56.000Z</time>
      </trkpt>
      <trkpt lat="43.20467" lon="6.51678">
        <ele>399.3</ele>
        <time>2024-05-26T08:37:57.000Z</time>
      </trkpt>
      <trkpt lat="43.20467" lon="6.51678">
        <ele>399.3</ele>
        <time>2024-05-26T08:37:58.000Z</time>
      </trkpt>
      <trkpt lat="43.20465" lon="6.5168">
        <ele>399.7</ele>
        <time>2024-05-26T08:38:04.000Z</time>
      </trkpt>
      <trkpt lat="43.20465" lon="6.5168">
        <ele>399.7</ele>
        <time>2024-05-26T08:38:05.000Z</time>
      </trkpt>
      <trkpt lat="43.20465" lon="6.5168">
        <ele>399.7</ele>
        <time>2024-05-26T08:38:06.000Z</time>
      </trkpt>
      <trkpt lat="43.20465" lon="6.5168">
        <ele>399.7</ele>
        <time>2024-05-26T08:38:10.000Z</time>
      </trkpt>
      <trkpt lat="43.20465" lon="6.5168">
        <ele>399.7</ele>
        <time>2024-05-26T08:38:11.000Z</time>
      </trkpt>
      <trkpt lat="43.20465" lon="6.5168">
        <ele>399.7</ele>
        <time>2024-05-26T08:38:12.000Z</time>
      </trkpt>
      <trkpt lat="43.20465" lon="6.5168">
        <ele>399.7</ele>
        <time>2024-05-26T08:38:13.000Z</time>
      </trkpt>
      <trkpt lat="43.20465" lon="6.5168">
        <ele>399.7</ele>
        <time>2024-05-26T08:38:14.000Z</time>
      </trkpt>
      <trkpt lat="43.20465" lon="6.5168">
        <ele>399.8</ele>
        <time>2024-05-26T08:38:22.000Z</time>
      </trkpt>
      <trkpt lat="43.20465" lon="6.5168">
        <ele>399.8</ele>
        <time>2024-05-26T08:38:23.000Z</time>
      </trkpt>
      <trkpt lat="43.20465" lon="6.5168">
        <ele>399.8</ele>
        <time>2024-05-26T08:38:24.000Z</time>
      </trkpt>
      <trkpt lat="43.20465" lon="6.5168">
        <ele>399.8</ele>
        <time>2024-05-26T08:38:36.000Z</time>
      </trkpt>
      <trkpt lat="43.20465" lon="6.5168">
        <ele>399.7</ele>
        <time>2024-05-26T08:38:37.000Z</time>
      </trkpt>
      <trkpt lat="43.20465" lon="6.5168">
        <ele>399.7</ele>
        <time>2024-05-26T08:38:38.000Z</time>
      </trkpt>
      <trkpt lat="43.20465" lon="6.51679">
        <ele>399.5</ele>
        <time>2024-05-26T08:39:06.000Z</time>
      </trkpt>
      <trkpt lat="43.20465" lon="6.51679">
        <ele>399.5</ele>
        <time>2024-05-26T08:39:07.000Z</time>
      </trkpt>
      <trkpt lat="43.20465" lon="6.51679">
        <ele>399.5</ele>
        <time>2024-05-26T08:39:08.000Z</time>
      </trkpt>
      <trkpt lat="43.20465" lon="6.51679">
        <ele>399.5</ele>
        <time>2024-05-26T08:39:09.000Z</time>
      </trkpt>
      <trkpt lat="43.20465" lon="6.51678">
        <ele>399.5</ele>
        <time>2024-05-26T08:39:10.000Z</time>
      </trkpt>
      <trkpt lat="43.20465" lon="6.51679">
        <ele>399.6</ele>
        <time>2024-05-26T08:39:11.000Z</time>
      </trkpt>
      <trkpt lat="43.20465" lon="6.51679">
        <ele>399.7</ele>
        <time>2024-05-26T08:39:12.000Z</time>
      </trkpt>
      <trkpt lat="43.20465" lon="6.51679">
        <ele>399.7</ele>
        <time>2024-05-26T08:39:13.000Z</time>
      </trkpt>
      <trkpt lat="43.20465" lon="6.51678">
        <ele>399.8</ele>
        <time>2024-05-26T08:39:22.000Z</time>
      </trkpt>
      <trkpt lat="43.20465" lon="6.51678">
        <ele>399.8</ele>
        <time>2024-05-26T08:39:23.000Z</time>
      </trkpt>
      <trkpt lat="43.20465" lon="6.51678">
        <ele>399.9</ele>
        <time>2024-05-26T08:39:26.000Z</time>
      </trkpt>
      <trkpt lat="43.20465" lon="6.51678">
        <ele>399.9</ele>
        <time>2024-05-26T08:39:27.000Z</time>
      </trkpt>
      <trkpt lat="43.20465" lon="6.51678">
        <ele>399.8</ele>
        <time>2024-05-26T08:39:28.000Z</time>
      </trkpt>
      <trkpt lat="43.20464" lon="6.51679">
        <ele>399.7</ele>
        <time>2024-05-26T08:39:36.000Z</time>
      </trkpt>
      <trkpt lat="43.20464" lon="6.51679">
        <ele>399.7</ele>
        <time>2024-05-26T08:39:37.000Z</time>
      </trkpt>
      <trkpt lat="43.20464" lon="6.51679">
        <ele>399.7</ele>
        <time>2024-05-26T08:39:38.000Z</time>
      </trkpt>
      <trkpt lat="43.20462" lon="6.51678">
        <ele>399.7</ele>
        <time>2024-05-26T08:39:41.000Z</time>
      </trkpt>
      <trkpt lat="43.20461" lon="6.51677">
        <ele>399.7</ele>
        <time>2024-05-26T08:39:42.000Z</time>
      </trkpt>
      <trkpt lat="43.20461" lon="6.51677">
        <ele>399.6</ele>
        <time>2024-05-26T08:39:43.000Z</time>
      </trkpt>
      <trkpt lat="43.20455" lon="6.51667">
        <ele>400</ele>
        <time>2024-05-26T08:40:00.000Z</time>
      </trkpt>
      <trkpt lat="43.20448" lon="6.51659">
        <ele>402.1</ele>
        <time>2024-05-26T08:40:16.000Z</time>
      </trkpt>
      <trkpt lat="43.20439" lon="6.51653">
        <ele>405.3</ele>
        <time>2024-05-26T08:40:34.000Z</time>
      </trkpt>
      <trkpt lat="43.2043" lon="6.51654">
        <ele>407.7</ele>
        <time>2024-05-26T08:40:49.000Z</time>
      </trkpt>
      <trkpt lat="43.20429" lon="6.51654">
        <ele>408.3</ele>
        <time>2024-05-26T08:40:55.000Z</time>
      </trkpt>
      <trkpt lat="43.20429" lon="6.51654">
        <ele>408.3</ele>
        <time>2024-05-26T08:40:56.000Z</time>
      </trkpt>
      <trkpt lat="43.20429" lon="6.51654">
        <ele>408.5</ele>
        <time>2024-05-26T08:41:01.000Z</time>
      </trkpt>
      <trkpt lat="43.20429" lon="6.51654">
        <ele>408.5</ele>
        <time>2024-05-26T08:41:02.000Z</time>
      </trkpt>
      <trkpt lat="43.20429" lon="6.51654">
        <ele>408.6</ele>
        <time>2024-05-26T08:41:03.000Z</time>
      </trkpt>
      <trkpt lat="43.2042" lon="6.51654">
        <ele>410.5</ele>
        <time>2024-05-26T08:41:21.000Z</time>
      </trkpt>
      <trkpt lat="43.2041" lon="6.51654">
        <ele>412.5</ele>
        <time>2024-05-26T08:41:33.000Z</time>
      </trkpt>
      <trkpt lat="43.20401" lon="6.51652">
        <ele>414.1</ele>
        <time>2024-05-26T08:41:45.000Z</time>
      </trkpt>
      <trkpt lat="43.20392" lon="6.51649">
        <ele>414.9</ele>
        <time>2024-05-26T08:41:55.000Z</time>
      </trkpt>
      <trkpt lat="43.20383" lon="6.51646">
        <ele>415.1</ele>
        <time>2024-05-26T08:42:04.000Z</time>
      </trkpt>
      <trkpt lat="43.20373" lon="6.5164">
        <ele>415.4</ele>
        <time>2024-05-26T08:42:14.000Z</time>
      </trkpt>
      <trkpt lat="43.20365" lon="6.51637">
        <ele>416.3</ele>
        <time>2024-05-26T08:42:27.000Z</time>
      </trkpt>
      <trkpt lat="43.20355" lon="6.51634">
        <ele>418.1</ele>
        <time>2024-05-26T08:42:40.000Z</time>
      </trkpt>
      <trkpt lat="43.20346" lon="6.51631">
        <ele>420.4</ele>
        <time>2024-05-26T08:42:54.000Z</time>
      </trkpt>
      <trkpt lat="43.20338" lon="6.51627">
        <ele>422.1</ele>
        <time>2024-05-26T08:43:07.000Z</time>
      </trkpt>
      <trkpt lat="43.20336" lon="6.51624">
        <ele>422.9</ele>
        <time>2024-05-26T08:43:16.000Z</time>
      </trkpt>
      <trkpt lat="43.20336" lon="6.51624">
        <ele>422.9</ele>
        <time>2024-05-26T08:43:17.000Z</time>
      </trkpt>
      <trkpt lat="43.20336" lon="6.51624">
        <ele>423</ele>
        <time>2024-05-26T08:43:18.000Z</time>
      </trkpt>
      <trkpt lat="43.20335" lon="6.51623">
        <ele>423</ele>
        <time>2024-05-26T08:43:21.000Z</time>
      </trkpt>
      <trkpt lat="43.20334" lon="6.51622">
        <ele>423</ele>
        <time>2024-05-26T08:43:22.000Z</time>
      </trkpt>
      <trkpt lat="43.20333" lon="6.51621">
        <ele>423.1</ele>
        <time>2024-05-26T08:43:23.000Z</time>
      </trkpt>
      <trkpt lat="43.20332" lon="6.51619">
        <ele>423.1</ele>
        <time>2024-05-26T08:43:31.000Z</time>
      </trkpt>
      <trkpt lat="43.20332" lon="6.51619">
        <ele>423.1</ele>
        <time>2024-05-26T08:43:32.000Z</time>
      </trkpt>
      <trkpt lat="43.20332" lon="6.51619">
        <ele>423.2</ele>
        <time>2024-05-26T08:43:33.000Z</time>
      </trkpt>
      <trkpt lat="43.20331" lon="6.51619">
        <ele>423.2</ele>
        <time>2024-05-26T08:43:41.000Z</time>
      </trkpt>
      <trkpt lat="43.20331" lon="6.51618">
        <ele>423.2</ele>
        <time>2024-05-26T08:43:42.000Z</time>
      </trkpt>
      <trkpt lat="43.2033" lon="6.51618">
        <ele>423.2</ele>
        <time>2024-05-26T08:43:43.000Z</time>
      </trkpt>
      <trkpt lat="43.20321" lon="6.51611">
        <ele>423.2</ele>
        <time>2024-05-26T08:43:52.000Z</time>
      </trkpt>
      <trkpt lat="43.20312" lon="6.51607">
        <ele>423.3</ele>
        <time>2024-05-26T08:44:00.000Z</time>
      </trkpt>
      <trkpt lat="43.20308" lon="6.51603">
        <ele>423.4</ele>
        <time>2024-05-26T08:44:09.000Z</time>
      </trkpt>
      <trkpt lat="43.20308" lon="6.51603">
        <ele>423.5</ele>
        <time>2024-05-26T08:44:10.000Z</time>
      </trkpt>
      <trkpt lat="43.20306" lon="6.51601">
        <ele>423.6</ele>
        <time>2024-05-26T08:44:19.000Z</time>
      </trkpt>
      <trkpt lat="43.20305" lon="6.51601">
        <ele>423.7</ele>
        <time>2024-05-26T08:44:20.000Z</time>
      </trkpt>
      <trkpt lat="43.20296" lon="6.51599">
        <ele>424.1</ele>
        <time>2024-05-26T08:44:30.000Z</time>
      </trkpt>
      <trkpt lat="43.20287" lon="6.51602">
        <ele>425</ele>
        <time>2024-05-26T08:44:39.000Z</time>
      </trkpt>
      <trkpt lat="43.20277" lon="6.51603">
        <ele>426.6</ele>
        <time>2024-05-26T08:44:49.000Z</time>
      </trkpt>
      <trkpt lat="43.20268" lon="6.51603">
        <ele>428</ele>
        <time>2024-05-26T08:44:59.000Z</time>
      </trkpt>
      <trkpt lat="43.20258" lon="6.516">
        <ele>429.7</ele>
        <time>2024-05-26T08:45:11.000Z</time>
      </trkpt>
      <trkpt lat="43.20264" lon="6.5159">
        <ele>430.8</ele>
        <time>2024-05-26T08:45:28.000Z</time>
      </trkpt>
      <trkpt lat="43.20268" lon="6.51587">
        <ele>430.6</ele>
        <time>2024-05-26T08:45:51.000Z</time>
      </trkpt>
      <trkpt lat="43.20268" lon="6.51587">
        <ele>430.6</ele>
        <time>2024-05-26T08:45:52.000Z</time>
      </trkpt>
      <trkpt lat="43.20268" lon="6.51587">
        <ele>430.6</ele>
        <time>2024-05-26T08:45:53.000Z</time>
      </trkpt>
      <trkpt lat="43.20268" lon="6.51588">
        <ele>430.6</ele>
        <time>2024-05-26T08:45:54.000Z</time>
      </trkpt>
      <trkpt lat="43.20267" lon="6.51588">
        <ele>430.6</ele>
        <time>2024-05-26T08:45:55.000Z</time>
      </trkpt>
      <trkpt lat="43.20264" lon="6.51589">
        <ele>430.6</ele>
        <time>2024-05-26T08:46:11.000Z</time>
      </trkpt>
      <trkpt lat="43.20263" lon="6.51589">
        <ele>430.6</ele>
        <time>2024-05-26T08:46:12.000Z</time>
      </trkpt>
      <trkpt lat="43.20263" lon="6.51589">
        <ele>430.6</ele>
        <time>2024-05-26T08:46:13.000Z</time>
      </trkpt>
      <trkpt lat="43.20263" lon="6.51589">
        <ele>430.6</ele>
        <time>2024-05-26T08:46:14.000Z</time>
      </trkpt>
      <trkpt lat="43.20263" lon="6.51589">
        <ele>430.6</ele>
        <time>2024-05-26T08:46:15.000Z</time>
      </trkpt>
      <trkpt lat="43.20263" lon="6.51589">
        <ele>430.6</ele>
        <time>2024-05-26T08:46:19.000Z</time>
      </trkpt>
      <trkpt lat="43.20263" lon="6.51589">
        <ele>430.6</ele>
        <time>2024-05-26T08:46:20.000Z</time>
      </trkpt>
      <trkpt lat="43.20263" lon="6.51589">
        <ele>430.4</ele>
        <time>2024-05-26T08:47:34.000Z</time>
      </trkpt>
      <trkpt lat="43.20263" lon="6.51589">
        <ele>430.4</ele>
        <time>2024-05-26T08:47:35.000Z</time>
      </trkpt>
      <trkpt lat="43.20263" lon="6.51589">
        <ele>430.4</ele>
        <time>2024-05-26T08:47:36.000Z</time>
      </trkpt>
      <trkpt lat="43.20262" lon="6.5159">
        <ele>430.5</ele>
        <time>2024-05-26T08:47:50.000Z</time>
      </trkpt>
      <trkpt lat="43.20262" lon="6.5159">
        <ele>430.5</ele>
        <time>2024-05-26T08:47:51.000Z</time>
      </trkpt>
      <trkpt lat="43.20263" lon="6.5159">
        <ele>430.4</ele>
        <time>2024-05-26T08:48:06.000Z</time>
      </trkpt>
      <trkpt lat="43.20264" lon="6.5159">
        <ele>430.4</ele>
        <time>2024-05-26T08:48:07.000Z</time>
      </trkpt>
      <trkpt lat="43.20265" lon="6.51589">
        <ele>430.4</ele>
        <time>2024-05-26T08:48:08.000Z</time>
      </trkpt>
      <trkpt lat="43.20265" lon="6.51588">
        <ele>430.4</ele>
        <time>2024-05-26T08:48:12.000Z</time>
      </trkpt>
      <trkpt lat="43.20265" lon="6.51588">
        <ele>430.4</ele>
        <time>2024-05-26T08:48:13.000Z</time>
      </trkpt>
      <trkpt lat="43.20265" lon="6.51589">
        <ele>430.4</ele>
        <time>2024-05-26T08:48:14.000Z</time>
      </trkpt>
      <trkpt lat="43.20265" lon="6.51589">
        <ele>430.3</ele>
        <time>2024-05-26T08:48:15.000Z</time>
      </trkpt>
      <trkpt lat="43.20268" lon="6.51589">
        <ele>430.3</ele>
        <time>2024-05-26T08:48:26.000Z</time>
      </trkpt>
      <trkpt lat="43.20268" lon="6.51589">
        <ele>430.2</ele>
        <time>2024-05-26T08:48:27.000Z</time>
      </trkpt>
      <trkpt lat="43.20268" lon="6.51589">
        <ele>430.2</ele>
        <time>2024-05-26T08:48:28.000Z</time>
      </trkpt>
      <trkpt lat="43.20268" lon="6.51588">
        <ele>430.3</ele>
        <time>2024-05-26T08:48:34.000Z</time>
      </trkpt>
      <trkpt lat="43.20267" lon="6.51588">
        <ele>430.3</ele>
        <time>2024-05-26T08:48:35.000Z</time>
      </trkpt>
      <trkpt lat="43.20258" lon="6.51592">
        <ele>430.2</ele>
        <time>2024-05-26T08:48:47.000Z</time>
      </trkpt>
      <trkpt lat="43.2025" lon="6.51596">
        <ele>430.3</ele>
        <time>2024-05-26T08:48:55.000Z</time>
      </trkpt>
      <trkpt lat="43.20241" lon="6.51601">
        <ele>430.9</ele>
        <time>2024-05-26T08:49:05.000Z</time>
      </trkpt>
      <trkpt lat="43.20234" lon="6.51608">
        <ele>431.6</ele>
        <time>2024-05-26T08:49:15.000Z</time>
      </trkpt>
      <trkpt lat="43.20228" lon="6.51618">
        <ele>432</ele>
        <time>2024-05-26T08:49:26.000Z</time>
      </trkpt>
      <trkpt lat="43.20228" lon="6.51618">
        <ele>432</ele>
        <time>2024-05-26T08:49:34.000Z</time>
      </trkpt>
      <trkpt lat="43.20228" lon="6.51618">
        <ele>432</ele>
        <time>2024-05-26T08:49:35.000Z</time>
      </trkpt>
      <trkpt lat="43.20229" lon="6.51618">
        <ele>432</ele>
        <time>2024-05-26T08:49:36.000Z</time>
      </trkpt>
      <trkpt lat="43.20229" lon="6.51619">
        <ele>432</ele>
        <time>2024-05-26T08:49:37.000Z</time>
      </trkpt>
      <trkpt lat="43.20229" lon="6.51619">
        <ele>432</ele>
        <time>2024-05-26T08:49:38.000Z</time>
      </trkpt>
      <trkpt lat="43.20228" lon="6.51622">
        <ele>432</ele>
        <time>2024-05-26T08:49:44.000Z</time>
      </trkpt>
      <trkpt lat="43.20228" lon="6.51622">
        <ele>432</ele>
        <time>2024-05-26T08:49:45.000Z</time>
      </trkpt>
      <trkpt lat="43.20227" lon="6.51622">
        <ele>432</ele>
        <time>2024-05-26T08:49:49.000Z</time>
      </trkpt>
      <trkpt lat="43.20227" lon="6.51623">
        <ele>432</ele>
        <time>2024-05-26T08:49:50.000Z</time>
      </trkpt>
      <trkpt lat="43.20222" lon="6.51633">
        <ele>432.2</ele>
        <time>2024-05-26T08:50:07.000Z</time>
      </trkpt>
      <trkpt lat="43.20222" lon="6.51636">
        <ele>432.6</ele>
        <time>2024-05-26T08:50:22.000Z</time>
      </trkpt>
      <trkpt lat="43.20222" lon="6.51636">
        <ele>432.6</ele>
        <time>2024-05-26T08:50:23.000Z</time>
      </trkpt>
      <trkpt lat="43.20222" lon="6.51636">
        <ele>432.6</ele>
        <time>2024-05-26T08:50:24.000Z</time>
      </trkpt>
      <trkpt lat="43.20222" lon="6.51636">
        <ele>432.7</ele>
        <time>2024-05-26T08:50:29.000Z</time>
      </trkpt>
      <trkpt lat="43.20222" lon="6.51636">
        <ele>432.7</ele>
        <time>2024-05-26T08:50:30.000Z</time>
      </trkpt>
      <trkpt lat="43.20222" lon="6.51636">
        <ele>432.7</ele>
        <time>2024-05-26T08:50:31.000Z</time>
      </trkpt>
      <trkpt lat="43.20222" lon="6.51636">
        <ele>432.7</ele>
        <time>2024-05-26T08:50:32.000Z</time>
      </trkpt>
      <trkpt lat="43.20222" lon="6.51636">
        <ele>432.7</ele>
        <time>2024-05-26T08:50:33.000Z</time>
      </trkpt>
      <trkpt lat="43.20222" lon="6.51636">
        <ele>432.8</ele>
        <time>2024-05-26T08:50:39.000Z</time>
      </trkpt>
      <trkpt lat="43.20222" lon="6.51636">
        <ele>432.8</ele>
        <time>2024-05-26T08:50:40.000Z</time>
      </trkpt>
      <trkpt lat="43.20222" lon="6.51636">
        <ele>432.8</ele>
        <time>2024-05-26T08:50:41.000Z</time>
      </trkpt>
      <trkpt lat="43.20222" lon="6.51636">
        <ele>432.8</ele>
        <time>2024-05-26T08:50:42.000Z</time>
      </trkpt>
      <trkpt lat="43.20222" lon="6.51636">
        <ele>432.8</ele>
        <time>2024-05-26T08:50:43.000Z</time>
      </trkpt>
      <trkpt lat="43.20222" lon="6.51635">
        <ele>432.8</ele>
        <time>2024-05-26T08:50:49.000Z</time>
      </trkpt>
      <trkpt lat="43.20222" lon="6.51635">
        <ele>432.8</ele>
        <time>2024-05-26T08:50:50.000Z</time>
      </trkpt>
      <trkpt lat="43.20223" lon="6.51636">
        <ele>432.8</ele>
        <time>2024-05-26T08:50:56.000Z</time>
      </trkpt>
      <trkpt lat="43.20223" lon="6.51636">
        <ele>432.8</ele>
        <time>2024-05-26T08:50:57.000Z</time>
      </trkpt>
      <trkpt lat="43.20223" lon="6.51636">
        <ele>432.8</ele>
        <time>2024-05-26T08:50:58.000Z</time>
      </trkpt>
      <trkpt lat="43.20223" lon="6.51636">
        <ele>432.8</ele>
        <time>2024-05-26T08:51:45.000Z</time>
      </trkpt>
      <trkpt lat="43.20223" lon="6.51636">
        <ele>432.8</ele>
        <time>2024-05-26T08:51:46.000Z</time>
      </trkpt>
      <trkpt lat="43.20223" lon="6.51636">
        <ele>432.8</ele>
        <time>2024-05-26T08:51:47.000Z</time>
      </trkpt>
      <trkpt lat="43.20223" lon="6.51636">
        <ele>432.8</ele>
        <time>2024-05-26T08:51:48.000Z</time>
      </trkpt>
      <trkpt lat="43.20223" lon="6.51636">
        <ele>432.8</ele>
        <time>2024-05-26T08:51:49.000Z</time>
      </trkpt>
      <trkpt lat="43.20223" lon="6.51637">
        <ele>432.9</ele>
        <time>2024-05-26T08:52:46.000Z</time>
      </trkpt>
      <trkpt lat="43.20223" lon="6.51637">
        <ele>432.9</ele>
        <time>2024-05-26T08:52:47.000Z</time>
      </trkpt>
      <trkpt lat="43.20223" lon="6.51637">
        <ele>432.9</ele>
        <time>2024-05-26T08:52:48.000Z</time>
      </trkpt>
      <trkpt lat="43.20223" lon="6.51637">
        <ele>432.9</ele>
        <time>2024-05-26T08:52:49.000Z</time>
      </trkpt>
      <trkpt lat="43.20223" lon="6.51637">
        <ele>432.9</ele>
        <time>2024-05-26T08:52:50.000Z</time>
      </trkpt>
      <trkpt lat="43.20223" lon="6.51637">
        <ele>432.9</ele>
        <time>2024-05-26T08:52:56.000Z</time>
      </trkpt>
      <trkpt lat="43.20223" lon="6.51637">
        <ele>432.9</ele>
        <time>2024-05-26T08:52:57.000Z</time>
      </trkpt>
      <trkpt lat="43.20223" lon="6.51637">
        <ele>432.9</ele>
        <time>2024-05-26T08:52:58.000Z</time>
      </trkpt>
      <trkpt lat="43.20223" lon="6.51637">
        <ele>432.9</ele>
        <time>2024-05-26T08:52:59.000Z</time>
      </trkpt>
      <trkpt lat="43.20223" lon="6.51637">
        <ele>432.9</ele>
        <time>2024-05-26T08:53:00.000Z</time>
      </trkpt>
      <trkpt lat="43.20223" lon="6.51637">
        <ele>432.9</ele>
        <time>2024-05-26T08:53:01.000Z</time>
      </trkpt>
      <trkpt lat="43.20224" lon="6.51636">
        <ele>432.9</ele>
        <time>2024-05-26T08:53:17.000Z</time>
      </trkpt>
      <trkpt lat="43.20224" lon="6.51636">
        <ele>432.9</ele>
        <time>2024-05-26T08:53:18.000Z</time>
      </trkpt>
      <trkpt lat="43.20224" lon="6.51636">
        <ele>432.9</ele>
        <time>2024-05-26T08:53:19.000Z</time>
      </trkpt>
      <trkpt lat="43.20224" lon="6.51636">
        <ele>432.9</ele>
        <time>2024-05-26T08:53:20.000Z</time>
      </trkpt>
      <trkpt lat="43.20223" lon="6.51636">
        <ele>432.9</ele>
        <time>2024-05-26T08:53:24.000Z</time>
      </trkpt>
      <trkpt lat="43.20223" lon="6.51636">
        <ele>432.9</ele>
        <time>2024-05-26T08:53:25.000Z</time>
      </trkpt>
      <trkpt lat="43.20223" lon="6.51636">
        <ele>432.9</ele>
        <time>2024-05-26T08:53:26.000Z</time>
      </trkpt>
      <trkpt lat="43.20223" lon="6.51636">
        <ele>432.9</ele>
        <time>2024-05-26T08:53:29.000Z</time>
      </trkpt>
      <trkpt lat="43.20223" lon="6.51636">
        <ele>432.9</ele>
        <time>2024-05-26T08:53:30.000Z</time>
      </trkpt>
      <trkpt lat="43.20223" lon="6.51636">
        <ele>432.9</ele>
        <time>2024-05-26T08:53:39.000Z</time>
      </trkpt>
      <trkpt lat="43.20223" lon="6.51636">
        <ele>432.9</ele>
        <time>2024-05-26T08:53:40.000Z</time>
      </trkpt>
      <trkpt lat="43.20224" lon="6.51636">
        <ele>432.9</ele>
        <time>2024-05-26T08:53:46.000Z</time>
      </trkpt>
      <trkpt lat="43.20224" lon="6.51636">
        <ele>432.9</ele>
        <time>2024-05-26T08:53:47.000Z</time>
      </trkpt>
      <trkpt lat="43.20224" lon="6.51636">
        <ele>432.9</ele>
        <time>2024-05-26T08:53:48.000Z</time>
      </trkpt>
      <trkpt lat="43.20224" lon="6.51636">
        <ele>433</ele>
        <time>2024-05-26T08:54:06.000Z</time>
      </trkpt>
      <trkpt lat="43.20223" lon="6.51636">
        <ele>433</ele>
        <time>2024-05-26T08:54:07.000Z</time>
      </trkpt>
      <trkpt lat="43.20223" lon="6.51635">
        <ele>433</ele>
        <time>2024-05-26T08:54:08.000Z</time>
      </trkpt>
      <trkpt lat="43.20223" lon="6.51636">
        <ele>433</ele>
        <time>2024-05-26T08:54:11.000Z</time>
      </trkpt>
      <trkpt lat="43.20223" lon="6.51636">
        <ele>433</ele>
        <time>2024-05-26T08:54:12.000Z</time>
      </trkpt>
      <trkpt lat="43.20223" lon="6.51636">
        <ele>433</ele>
        <time>2024-05-26T08:54:13.000Z</time>
      </trkpt>
      <trkpt lat="43.20223" lon="6.51635">
        <ele>433</ele>
        <time>2024-05-26T08:54:19.000Z</time>
      </trkpt>
      <trkpt lat="43.20223" lon="6.51634">
        <ele>433</ele>
        <time>2024-05-26T08:54:20.000Z</time>
      </trkpt>
      <trkpt lat="43.20223" lon="6.51634">
        <ele>433</ele>
        <time>2024-05-26T08:54:21.000Z</time>
      </trkpt>
      <trkpt lat="43.20224" lon="6.51634">
        <ele>433</ele>
        <time>2024-05-26T08:54:25.000Z</time>
      </trkpt>
      <trkpt lat="43.20224" lon="6.51634">
        <ele>433</ele>
        <time>2024-05-26T08:54:26.000Z</time>
      </trkpt>
      <trkpt lat="43.20225" lon="6.51634">
        <ele>433</ele>
        <time>2024-05-26T08:54:27.000Z</time>
      </trkpt>
      <trkpt lat="43.20225" lon="6.51634">
        <ele>433</ele>
        <time>2024-05-26T08:54:28.000Z</time>
      </trkpt>
      <trkpt lat="43.20225" lon="6.51626">
        <ele>432.8</ele>
        <time>2024-05-26T08:54:42.000Z</time>
      </trkpt>
      <trkpt lat="43.20225" lon="6.51626">
        <ele>432.8</ele>
        <time>2024-05-26T08:54:43.000Z</time>
      </trkpt>
      <trkpt lat="43.20224" lon="6.51625">
        <ele>432.8</ele>
        <time>2024-05-26T08:54:46.000Z</time>
      </trkpt>
      <trkpt lat="43.20224" lon="6.51624">
        <ele>432.8</ele>
        <time>2024-05-26T08:54:47.000Z</time>
      </trkpt>
      <trkpt lat="43.20223" lon="6.51624">
        <ele>432.8</ele>
        <time>2024-05-26T08:54:48.000Z</time>
      </trkpt>
      <trkpt lat="43.20222" lon="6.51623">
        <ele>432.7</ele>
        <time>2024-05-26T08:54:54.000Z</time>
      </trkpt>
      <trkpt lat="43.20222" lon="6.51623">
        <ele>432.7</ele>
        <time>2024-05-26T08:54:55.000Z</time>
      </trkpt>
      <trkpt lat="43.20222" lon="6.51622">
        <ele>432.7</ele>
        <time>2024-05-26T08:55:02.000Z</time>
      </trkpt>
      <trkpt lat="43.20222" lon="6.51622">
        <ele>432.7</ele>
        <time>2024-05-26T08:55:03.000Z</time>
      </trkpt>
      <trkpt lat="43.20222" lon="6.51622">
        <ele>432.7</ele>
        <time>2024-05-26T08:55:04.000Z</time>
      </trkpt>
      <trkpt lat="43.20222" lon="6.51622">
        <ele>432.7</ele>
        <time>2024-05-26T08:55:05.000Z</time>
      </trkpt>
      <trkpt lat="43.20221" lon="6.51623">
        <ele>432.7</ele>
        <time>2024-05-26T08:55:17.000Z</time>
      </trkpt>
      <trkpt lat="43.20221" lon="6.51623">
        <ele>432.7</ele>
        <time>2024-05-26T08:55:18.000Z</time>
      </trkpt>
      <trkpt lat="43.20221" lon="6.51623">
        <ele>432.7</ele>
        <time>2024-05-26T08:55:19.000Z</time>
      </trkpt>
      <trkpt lat="43.20221" lon="6.51623">
        <ele>432.7</ele>
        <time>2024-05-26T08:55:20.000Z</time>
      </trkpt>
      <trkpt lat="43.20221" lon="6.51623">
        <ele>432.7</ele>
        <time>2024-05-26T08:55:21.000Z</time>
      </trkpt>
      <trkpt lat="43.20221" lon="6.51624">
        <ele>432.7</ele>
        <time>2024-05-26T08:55:26.000Z</time>
      </trkpt>
      <trkpt lat="43.20221" lon="6.51624">
        <ele>432.7</ele>
        <time>2024-05-26T08:55:27.000Z</time>
      </trkpt>
      <trkpt lat="43.20221" lon="6.51624">
        <ele>432.7</ele>
        <time>2024-05-26T08:55:28.000Z</time>
      </trkpt>
      <trkpt lat="43.20221" lon="6.51624">
        <ele>432.7</ele>
        <time>2024-05-26T08:55:29.000Z</time>
      </trkpt>
      <trkpt lat="43.20221" lon="6.51624">
        <ele>432.7</ele>
        <time>2024-05-26T08:55:30.000Z</time>
      </trkpt>
      <trkpt lat="43.20221" lon="6.51623">
        <ele>432.7</ele>
        <time>2024-05-26T08:55:31.000Z</time>
      </trkpt>
      <trkpt lat="43.2022" lon="6.51623">
        <ele>432.7</ele>
        <time>2024-05-26T08:55:32.000Z</time>
      </trkpt>
      <trkpt lat="43.2022" lon="6.51623">
        <ele>432.7</ele>
        <time>2024-05-26T08:55:33.000Z</time>
      </trkpt>
      <trkpt lat="43.20219" lon="6.51623">
        <ele>432.7</ele>
        <time>2024-05-26T08:55:34.000Z</time>
      </trkpt>
      <trkpt lat="43.2021" lon="6.51621">
        <ele>432.6</ele>
        <time>2024-05-26T08:55:45.000Z</time>
      </trkpt>
      <trkpt lat="43.20201" lon="6.5162">
        <ele>432.7</ele>
        <time>2024-05-26T08:55:57.000Z</time>
      </trkpt>
      <trkpt lat="43.20191" lon="6.51619">
        <ele>433.1</ele>
        <time>2024-05-26T08:56:09.000Z</time>
      </trkpt>
      <trkpt lat="43.20182" lon="6.5162">
        <ele>433.7</ele>
        <time>2024-05-26T08:56:22.000Z</time>
      </trkpt>
      <trkpt lat="43.20173" lon="6.51615">
        <ele>434.6</ele>
        <time>2024-05-26T08:56:33.000Z</time>
      </trkpt>
      <trkpt lat="43.20167" lon="6.51605">
        <ele>436.7</ele>
        <time>2024-05-26T08:56:49.000Z</time>
      </trkpt>
      <trkpt lat="43.2017" lon="6.51593">
        <ele>439.8</ele>
        <time>2024-05-26T08:57:13.000Z</time>
      </trkpt>
      <trkpt lat="43.20173" lon="6.51592">
        <ele>440.4</ele>
        <time>2024-05-26T08:57:22.000Z</time>
      </trkpt>
      <trkpt lat="43.20173" lon="6.51592">
        <ele>440.5</ele>
        <time>2024-05-26T08:57:23.000Z</time>
      </trkpt>
      <trkpt lat="43.20173" lon="6.51592">
        <ele>440.6</ele>
        <time>2024-05-26T08:57:30.000Z</time>
      </trkpt>
      <trkpt lat="43.20172" lon="6.51592">
        <ele>440.6</ele>
        <time>2024-05-26T08:57:31.000Z</time>
      </trkpt>
      <trkpt lat="43.20172" lon="6.5159">
        <ele>440.6</ele>
        <time>2024-05-26T08:57:41.000Z</time>
      </trkpt>
      <trkpt lat="43.20172" lon="6.5159">
        <ele>440.6</ele>
        <time>2024-05-26T08:57:42.000Z</time>
      </trkpt>
      <trkpt lat="43.20172" lon="6.5159">
        <ele>440.6</ele>
        <time>2024-05-26T08:57:43.000Z</time>
      </trkpt>
      <trkpt lat="43.20172" lon="6.51588">
        <ele>440.6</ele>
        <time>2024-05-26T08:57:57.000Z</time>
      </trkpt>
      <trkpt lat="43.20172" lon="6.51587">
        <ele>440.6</ele>
        <time>2024-05-26T08:57:58.000Z</time>
      </trkpt>
      <trkpt lat="43.20172" lon="6.51575">
        <ele>440.3</ele>
        <time>2024-05-26T08:58:08.000Z</time>
      </trkpt>
      <trkpt lat="43.20171" lon="6.51568">
        <ele>439.4</ele>
        <time>2024-05-26T08:58:21.000Z</time>
      </trkpt>
      <trkpt lat="43.20171" lon="6.51568">
        <ele>439.3</ele>
        <time>2024-05-26T08:58:22.000Z</time>
      </trkpt>
      <trkpt lat="43.20171" lon="6.51567">
        <ele>439.2</ele>
        <time>2024-05-26T08:58:23.000Z</time>
      </trkpt>
      <trkpt lat="43.2017" lon="6.51567">
        <ele>439.2</ele>
        <time>2024-05-26T08:58:24.000Z</time>
      </trkpt>
      <trkpt lat="43.2017" lon="6.51567">
        <ele>439.1</ele>
        <time>2024-05-26T08:58:25.000Z</time>
      </trkpt>
      <trkpt lat="43.2017" lon="6.51568">
        <ele>439</ele>
        <time>2024-05-26T08:58:29.000Z</time>
      </trkpt>
      <trkpt lat="43.2017" lon="6.51568">
        <ele>439</ele>
        <time>2024-05-26T08:58:30.000Z</time>
      </trkpt>
      <trkpt lat="43.2017" lon="6.51568">
        <ele>439</ele>
        <time>2024-05-26T08:58:31.000Z</time>
      </trkpt>
      <trkpt lat="43.2017" lon="6.51568">
        <ele>438.9</ele>
        <time>2024-05-26T08:58:35.000Z</time>
      </trkpt>
      <trkpt lat="43.2017" lon="6.51568">
        <ele>438.9</ele>
        <time>2024-05-26T08:58:36.000Z</time>
      </trkpt>
      <trkpt lat="43.2017" lon="6.51568">
        <ele>438.9</ele>
        <time>2024-05-26T08:58:37.000Z</time>
      </trkpt>
      <trkpt lat="43.2017" lon="6.51568">
        <ele>438.8</ele>
        <time>2024-05-26T08:58:38.000Z</time>
      </trkpt>
      <trkpt lat="43.2017" lon="6.51568">
        <ele>438.8</ele>
        <time>2024-05-26T08:58:50.000Z</time>
      </trkpt>
      <trkpt lat="43.2017" lon="6.51568">
        <ele>438.8</ele>
        <time>2024-05-26T08:58:51.000Z</time>
      </trkpt>
      <trkpt lat="43.2017" lon="6.51568">
        <ele>438.7</ele>
        <time>2024-05-26T08:58:54.000Z</time>
      </trkpt>
      <trkpt lat="43.2017" lon="6.51568">
        <ele>438.8</ele>
        <time>2024-05-26T08:58:55.000Z</time>
      </trkpt>
      <trkpt lat="43.2017" lon="6.51568">
        <ele>438.7</ele>
        <time>2024-05-26T08:59:24.000Z</time>
      </trkpt>
      <trkpt lat="43.2017" lon="6.51568">
        <ele>438.7</ele>
        <time>2024-05-26T08:59:25.000Z</time>
      </trkpt>
      <trkpt lat="43.2017" lon="6.51568">
        <ele>438.7</ele>
        <time>2024-05-26T08:59:29.000Z</time>
      </trkpt>
      <trkpt lat="43.2017" lon="6.51568">
        <ele>438.7</ele>
        <time>2024-05-26T08:59:30.000Z</time>
      </trkpt>
      <trkpt lat="43.2017" lon="6.51568">
        <ele>438.7</ele>
        <time>2024-05-26T08:59:31.000Z</time>
      </trkpt>
      <trkpt lat="43.2017" lon="6.51567">
        <ele>438.6</ele>
        <time>2024-05-26T09:00:14.000Z</time>
      </trkpt>
      <trkpt lat="43.2017" lon="6.51567">
        <ele>438.6</ele>
        <time>2024-05-26T09:00:15.000Z</time>
      </trkpt>
      <trkpt lat="43.20169" lon="6.51564">
        <ele>438.6</ele>
        <time>2024-05-26T09:00:27.000Z</time>
      </trkpt>
      <trkpt lat="43.20169" lon="6.51564">
        <ele>438.6</ele>
        <time>2024-05-26T09:00:28.000Z</time>
      </trkpt>
      <trkpt lat="43.20169" lon="6.51564">
        <ele>438.6</ele>
        <time>2024-05-26T09:00:29.000Z</time>
      </trkpt>
      <trkpt lat="43.20169" lon="6.51564">
        <ele>438.6</ele>
        <time>2024-05-26T09:00:39.000Z</time>
      </trkpt>
      <trkpt lat="43.20169" lon="6.51564">
        <ele>438.6</ele>
        <time>2024-05-26T09:00:40.000Z</time>
      </trkpt>
      <trkpt lat="43.20169" lon="6.51564">
        <ele>438.6</ele>
        <time>2024-05-26T09:00:41.000Z</time>
      </trkpt>
      <trkpt lat="43.20169" lon="6.51564">
        <ele>438.6</ele>
        <time>2024-05-26T09:00:42.000Z</time>
      </trkpt>
      <trkpt lat="43.20169" lon="6.51564">
        <ele>438.6</ele>
        <time>2024-05-26T09:00:43.000Z</time>
      </trkpt>
      <trkpt lat="43.20169" lon="6.51563">
        <ele>438.5</ele>
        <time>2024-05-26T09:00:52.000Z</time>
      </trkpt>
      <trkpt lat="43.20169" lon="6.51562">
        <ele>438.5</ele>
        <time>2024-05-26T09:00:53.000Z</time>
      </trkpt>
      <trkpt lat="43.20168" lon="6.51561">
        <ele>438.5</ele>
        <time>2024-05-26T09:00:54.000Z</time>
      </trkpt>
      <trkpt lat="43.20168" lon="6.51561">
        <ele>438.4</ele>
        <time>2024-05-26T09:01:00.000Z</time>
      </trkpt>
      <trkpt lat="43.20168" lon="6.51561">
        <ele>438.4</ele>
        <time>2024-05-26T09:01:01.000Z</time>
      </trkpt>
      <trkpt lat="43.20168" lon="6.51561">
        <ele>438.3</ele>
        <time>2024-05-26T09:01:06.000Z</time>
      </trkpt>
      <trkpt lat="43.20168" lon="6.5156">
        <ele>438.2</ele>
        <time>2024-05-26T09:01:07.000Z</time>
      </trkpt>
      <trkpt lat="43.20168" lon="6.51561">
        <ele>438.2</ele>
        <time>2024-05-26T09:01:08.000Z</time>
      </trkpt>
      <trkpt lat="43.20168" lon="6.51561">
        <ele>438.2</ele>
        <time>2024-05-26T09:01:09.000Z</time>
      </trkpt>
      <trkpt lat="43.20168" lon="6.51561">
        <ele>438.2</ele>
        <time>2024-05-26T09:01:10.000Z</time>
      </trkpt>
      <trkpt lat="43.2017" lon="6.5156">
        <ele>438</ele>
        <time>2024-05-26T09:01:21.000Z</time>
      </trkpt>
      <trkpt lat="43.2017" lon="6.51561">
        <ele>438</ele>
        <time>2024-05-26T09:01:22.000Z</time>
      </trkpt>
      <trkpt lat="43.20171" lon="6.51562">
        <ele>438</ele>
        <time>2024-05-26T09:01:23.000Z</time>
      </trkpt>
      <trkpt lat="43.20172" lon="6.51575">
        <ele>438.2</ele>
        <time>2024-05-26T09:01:35.000Z</time>
      </trkpt>
      <trkpt lat="43.20171" lon="6.51588">
        <ele>439.2</ele>
        <time>2024-05-26T09:01:47.000Z</time>
      </trkpt>
      <trkpt lat="43.20166" lon="6.516">
        <ele>440.2</ele>
        <time>2024-05-26T09:01:59.000Z</time>
      </trkpt>
      <trkpt lat="43.20168" lon="6.51606">
        <ele>439</ele>
        <time>2024-05-26T09:02:19.000Z</time>
      </trkpt>
      <trkpt lat="43.20168" lon="6.51606">
        <ele>438.9</ele>
        <time>2024-05-26T09:02:20.000Z</time>
      </trkpt>
      <trkpt lat="43.20167" lon="6.51606">
        <ele>438.8</ele>
        <time>2024-05-26T09:02:21.000Z</time>
      </trkpt>
      <trkpt lat="43.20167" lon="6.51606">
        <ele>438.8</ele>
        <time>2024-05-26T09:02:22.000Z</time>
      </trkpt>
      <trkpt lat="43.20166" lon="6.51607">
        <ele>438.7</ele>
        <time>2024-05-26T09:02:23.000Z</time>
      </trkpt>
      <trkpt lat="43.20157" lon="6.51606">
        <ele>438.2</ele>
        <time>2024-05-26T09:02:34.000Z</time>
      </trkpt>
      <trkpt lat="43.20149" lon="6.51601">
        <ele>438.5</ele>
        <time>2024-05-26T09:02:50.000Z</time>
      </trkpt>
      <trkpt lat="43.20149" lon="6.51601">
        <ele>438.5</ele>
        <time>2024-05-26T09:02:51.000Z</time>
      </trkpt>
      <trkpt lat="43.20149" lon="6.51601">
        <ele>438.5</ele>
        <time>2024-05-26T09:02:54.000Z</time>
      </trkpt>
      <trkpt lat="43.20149" lon="6.51602">
        <ele>438.5</ele>
        <time>2024-05-26T09:02:55.000Z</time>
      </trkpt>
      <trkpt lat="43.20146" lon="6.51601">
        <ele>438.5</ele>
        <time>2024-05-26T09:03:02.000Z</time>
      </trkpt>
      <trkpt lat="43.20146" lon="6.516">
        <ele>438.5</ele>
        <time>2024-05-26T09:03:03.000Z</time>
      </trkpt>
      <trkpt lat="43.20146" lon="6.516">
        <ele>438.5</ele>
        <time>2024-05-26T09:03:04.000Z</time>
      </trkpt>
      <trkpt lat="43.20145" lon="6.51599">
        <ele>438.5</ele>
        <time>2024-05-26T09:03:05.000Z</time>
      </trkpt>
      <trkpt lat="43.20145" lon="6.51598">
        <ele>438.5</ele>
        <time>2024-05-26T09:03:06.000Z</time>
      </trkpt>
      <trkpt lat="43.20139" lon="6.51588">
        <ele>438.3</ele>
        <time>2024-05-26T09:03:19.000Z</time>
      </trkpt>
      <trkpt lat="43.20132" lon="6.51581">
        <ele>438.4</ele>
        <time>2024-05-26T09:03:36.000Z</time>
      </trkpt>
      <trkpt lat="43.20123" lon="6.51573">
        <ele>438.2</ele>
        <time>2024-05-26T09:03:47.000Z</time>
      </trkpt>
      <trkpt lat="43.20116" lon="6.51565">
        <ele>437.8</ele>
        <time>2024-05-26T09:03:57.000Z</time>
      </trkpt>
      <trkpt lat="43.20106" lon="6.51564">
        <ele>437.2</ele>
        <time>2024-05-26T09:04:11.000Z</time>
      </trkpt>
      <trkpt lat="43.20097" lon="6.51563">
        <ele>437.1</ele>
        <time>2024-05-26T09:04:23.000Z</time>
      </trkpt>
      <trkpt lat="43.20089" lon="6.51557">
        <ele>437.4</ele>
        <time>2024-05-26T09:04:36.000Z</time>
      </trkpt>
      <trkpt lat="43.20081" lon="6.5155">
        <ele>438.1</ele>
        <time>2024-05-26T09:04:49.000Z</time>
      </trkpt>
      <trkpt lat="43.20072" lon="6.51546">
        <ele>437.7</ele>
        <time>2024-05-26T09:05:13.000Z</time>
      </trkpt>
      <trkpt lat="43.20072" lon="6.51548">
        <ele>437.2</ele>
        <time>2024-05-26T09:05:20.000Z</time>
      </trkpt>
      <trkpt lat="43.20072" lon="6.51549">
        <ele>437.2</ele>
        <time>2024-05-26T09:05:21.000Z</time>
      </trkpt>
      <trkpt lat="43.20073" lon="6.51549">
        <ele>436.8</ele>
        <time>2024-05-26T09:05:29.000Z</time>
      </trkpt>
      <trkpt lat="43.20073" lon="6.51549">
        <ele>436.8</ele>
        <time>2024-05-26T09:05:30.000Z</time>
      </trkpt>
      <trkpt lat="43.20073" lon="6.51549">
        <ele>436.8</ele>
        <time>2024-05-26T09:05:31.000Z</time>
      </trkpt>
      <trkpt lat="43.20073" lon="6.51549">
        <ele>436.7</ele>
        <time>2024-05-26T09:05:37.000Z</time>
      </trkpt>
      <trkpt lat="43.20073" lon="6.51549">
        <ele>436.7</ele>
        <time>2024-05-26T09:05:38.000Z</time>
      </trkpt>
      <trkpt lat="43.20073" lon="6.51549">
        <ele>436.7</ele>
        <time>2024-05-26T09:05:39.000Z</time>
      </trkpt>
      <trkpt lat="43.20073" lon="6.51549">
        <ele>436.7</ele>
        <time>2024-05-26T09:05:44.000Z</time>
      </trkpt>
      <trkpt lat="43.20073" lon="6.51549">
        <ele>436.7</ele>
        <time>2024-05-26T09:05:45.000Z</time>
      </trkpt>
      <trkpt lat="43.20063" lon="6.51549">
        <ele>436.3</ele>
        <time>2024-05-26T09:05:57.000Z</time>
      </trkpt>
      <trkpt lat="43.20057" lon="6.51538">
        <ele>435.3</ele>
        <time>2024-05-26T09:06:07.000Z</time>
      </trkpt>
      <trkpt lat="43.20051" lon="6.51529">
        <ele>434.5</ele>
        <time>2024-05-26T09:06:15.000Z</time>
      </trkpt>
      <trkpt lat="43.20046" lon="6.51519">
        <ele>433.9</ele>
        <time>2024-05-26T09:06:23.000Z</time>
      </trkpt>
      <trkpt lat="43.20043" lon="6.51507">
        <ele>433.2</ele>
        <time>2024-05-26T09:06:35.000Z</time>
      </trkpt>
      <trkpt lat="43.20039" lon="6.51494">
        <ele>433</ele>
        <time>2024-05-26T09:06:43.000Z</time>
      </trkpt>
      <trkpt lat="43.20035" lon="6.51482">
        <ele>432.6</ele>
        <time>2024-05-26T09:06:52.000Z</time>
      </trkpt>
      <trkpt lat="43.20027" lon="6.51474">
        <ele>432.4</ele>
        <time>2024-05-26T09:07:00.000Z</time>
      </trkpt>
      <trkpt lat="43.20018" lon="6.5147">
        <ele>432.4</ele>
        <time>2024-05-26T09:07:09.000Z</time>
      </trkpt>
      <trkpt lat="43.20012" lon="6.51463">
        <ele>432.6</ele>
        <time>2024-05-26T09:07:27.000Z</time>
      </trkpt>
      <trkpt lat="43.20012" lon="6.51463">
        <ele>432.6</ele>
        <time>2024-05-26T09:07:28.000Z</time>
      </trkpt>
      <trkpt lat="43.20012" lon="6.51462">
        <ele>432.6</ele>
        <time>2024-05-26T09:07:31.000Z</time>
      </trkpt>
      <trkpt lat="43.20012" lon="6.51461">
        <ele>432.6</ele>
        <time>2024-05-26T09:07:32.000Z</time>
      </trkpt>
      <trkpt lat="43.20012" lon="6.51461">
        <ele>432.6</ele>
        <time>2024-05-26T09:07:33.000Z</time>
      </trkpt>
      <trkpt lat="43.20006" lon="6.5145">
        <ele>432</ele>
        <time>2024-05-26T09:07:47.000Z</time>
      </trkpt>
      <trkpt lat="43.19998" lon="6.51446">
        <ele>429.8</ele>
        <time>2024-05-26T09:08:00.000Z</time>
      </trkpt>
      <trkpt lat="43.19989" lon="6.51442">
        <ele>427.6</ele>
        <time>2024-05-26T09:08:12.000Z</time>
      </trkpt>
      <trkpt lat="43.19984" lon="6.51432">
        <ele>426</ele>
        <time>2024-05-26T09:08:23.000Z</time>
      </trkpt>
      <trkpt lat="43.19977" lon="6.51425">
        <ele>422.9</ele>
        <time>2024-05-26T09:08:49.000Z</time>
      </trkpt>
      <trkpt lat="43.19977" lon="6.51425">
        <ele>422.8</ele>
        <time>2024-05-26T09:08:50.000Z</time>
      </trkpt>
      <trkpt lat="43.19977" lon="6.51425">
        <ele>422.4</ele>
        <time>2024-05-26T09:09:06.000Z</time>
      </trkpt>
      <trkpt lat="43.19977" lon="6.51425">
        <ele>422.4</ele>
        <time>2024-05-26T09:09:07.000Z</time>
      </trkpt>
      <trkpt lat="43.19977" lon="6.51425">
        <ele>422.4</ele>
        <time>2024-05-26T09:09:08.000Z</time>
      </trkpt>
      <trkpt lat="43.1997" lon="6.51416">
        <ele>421.1</ele>
        <time>2024-05-26T09:09:25.000Z</time>
      </trkpt>
      <trkpt lat="43.19969" lon="6.51414">
        <ele>419</ele>
        <time>2024-05-26T09:09:40.000Z</time>
      </trkpt>
      <trkpt lat="43.19969" lon="6.51414">
        <ele>419</ele>
        <time>2024-05-26T09:09:41.000Z</time>
      </trkpt>
      <trkpt lat="43.19969" lon="6.51415">
        <ele>418.9</ele>
        <time>2024-05-26T09:09:49.000Z</time>
      </trkpt>
      <trkpt lat="43.19969" lon="6.51415">
        <ele>418.9</ele>
        <time>2024-05-26T09:09:50.000Z</time>
      </trkpt>
      <trkpt lat="43.19969" lon="6.51415">
        <ele>418.9</ele>
        <time>2024-05-26T09:09:51.000Z</time>
      </trkpt>
      <trkpt lat="43.1996" lon="6.51412">
        <ele>418.2</ele>
        <time>2024-05-26T09:10:09.000Z</time>
      </trkpt>
      <trkpt lat="43.19951" lon="6.51406">
        <ele>415.6</ele>
        <time>2024-05-26T09:10:21.000Z</time>
      </trkpt>
      <trkpt lat="43.19947" lon="6.51395">
        <ele>412.7</ele>
        <time>2024-05-26T09:10:36.000Z</time>
      </trkpt>
      <trkpt lat="43.19939" lon="6.51386">
        <ele>410.6</ele>
        <time>2024-05-26T09:10:49.000Z</time>
      </trkpt>
      <trkpt lat="43.19931" lon="6.51381">
        <ele>409.1</ele>
        <time>2024-05-26T09:10:58.000Z</time>
      </trkpt>
      <trkpt lat="43.19921" lon="6.51378">
        <ele>407.6</ele>
        <time>2024-05-26T09:11:08.000Z</time>
      </trkpt>
      <trkpt lat="43.19913" lon="6.51372">
        <ele>406.1</ele>
        <time>2024-05-26T09:11:20.000Z</time>
      </trkpt>
      <trkpt lat="43.19911" lon="6.51373">
        <ele>404.5</ele>
        <time>2024-05-26T09:11:34.000Z</time>
      </trkpt>
      <trkpt lat="43.19911" lon="6.51373">
        <ele>404.4</ele>
        <time>2024-05-26T09:11:35.000Z</time>
      </trkpt>
      <trkpt lat="43.19911" lon="6.51373">
        <ele>404.3</ele>
        <time>2024-05-26T09:11:39.000Z</time>
      </trkpt>
      <trkpt lat="43.19911" lon="6.51373">
        <ele>404.2</ele>
        <time>2024-05-26T09:11:40.000Z</time>
      </trkpt>
      <trkpt lat="43.19911" lon="6.51373">
        <ele>404.2</ele>
        <time>2024-05-26T09:11:41.000Z</time>
      </trkpt>
      <trkpt lat="43.19911" lon="6.51373">
        <ele>404.2</ele>
        <time>2024-05-26T09:11:42.000Z</time>
      </trkpt>
      <trkpt lat="43.19911" lon="6.51373">
        <ele>404.2</ele>
        <time>2024-05-26T09:11:43.000Z</time>
      </trkpt>
      <trkpt lat="43.19911" lon="6.51373">
        <ele>404.2</ele>
        <time>2024-05-26T09:11:44.000Z</time>
      </trkpt>
      <trkpt lat="43.19911" lon="6.51372">
        <ele>404.2</ele>
        <time>2024-05-26T09:11:45.000Z</time>
      </trkpt>
      <trkpt lat="43.19905" lon="6.51361">
        <ele>403.3</ele>
        <time>2024-05-26T09:11:55.000Z</time>
      </trkpt>
      <trkpt lat="43.199" lon="6.5135">
        <ele>401.7</ele>
        <time>2024-05-26T09:12:05.000Z</time>
      </trkpt>
      <trkpt lat="43.19893" lon="6.5134">
        <ele>399.1</ele>
        <time>2024-05-26T09:12:21.000Z</time>
      </trkpt>
      <trkpt lat="43.19892" lon="6.5133">
        <ele>394.4</ele>
        <time>2024-05-26T09:12:51.000Z</time>
      </trkpt>
      <trkpt lat="43.19892" lon="6.51331">
        <ele>394.3</ele>
        <time>2024-05-26T09:12:52.000Z</time>
      </trkpt>
      <trkpt lat="43.19892" lon="6.51331">
        <ele>394.3</ele>
        <time>2024-05-26T09:12:53.000Z</time>
      </trkpt>
      <trkpt lat="43.19892" lon="6.51331">
        <ele>394.2</ele>
        <time>2024-05-26T09:12:56.000Z</time>
      </trkpt>
      <trkpt lat="43.19892" lon="6.51331">
        <ele>394.1</ele>
        <time>2024-05-26T09:12:57.000Z</time>
      </trkpt>
      <trkpt lat="43.19892" lon="6.51331">
        <ele>394.1</ele>
        <time>2024-05-26T09:12:58.000Z</time>
      </trkpt>
      <trkpt lat="43.19891" lon="6.51331">
        <ele>394</ele>
        <time>2024-05-26T09:13:02.000Z</time>
      </trkpt>
      <trkpt lat="43.19891" lon="6.51331">
        <ele>394</ele>
        <time>2024-05-26T09:13:03.000Z</time>
      </trkpt>
      <trkpt lat="43.1989" lon="6.51329">
        <ele>393.9</ele>
        <time>2024-05-26T09:13:17.000Z</time>
      </trkpt>
      <trkpt lat="43.1989" lon="6.51327">
        <ele>393.9</ele>
        <time>2024-05-26T09:13:18.000Z</time>
      </trkpt>
      <trkpt lat="43.19889" lon="6.51326">
        <ele>394</ele>
        <time>2024-05-26T09:13:24.000Z</time>
      </trkpt>
      <trkpt lat="43.19889" lon="6.51326">
        <ele>394</ele>
        <time>2024-05-26T09:13:25.000Z</time>
      </trkpt>
      <trkpt lat="43.19889" lon="6.51328">
        <ele>394</ele>
        <time>2024-05-26T09:13:46.000Z</time>
      </trkpt>
      <trkpt lat="43.19888" lon="6.51329">
        <ele>394</ele>
        <time>2024-05-26T09:13:47.000Z</time>
      </trkpt>
      <trkpt lat="43.19888" lon="6.51329">
        <ele>394</ele>
        <time>2024-05-26T09:13:48.000Z</time>
      </trkpt>
      <trkpt lat="43.19886" lon="6.5133">
        <ele>394</ele>
        <time>2024-05-26T09:13:54.000Z</time>
      </trkpt>
      <trkpt lat="43.19886" lon="6.5133">
        <ele>394</ele>
        <time>2024-05-26T09:13:55.000Z</time>
      </trkpt>
      <trkpt lat="43.19885" lon="6.5133">
        <ele>394</ele>
        <time>2024-05-26T09:13:56.000Z</time>
      </trkpt>
      <trkpt lat="43.19884" lon="6.51331">
        <ele>393.9</ele>
        <time>2024-05-26T09:13:57.000Z</time>
      </trkpt>
      <trkpt lat="43.19883" lon="6.51331">
        <ele>393.9</ele>
        <time>2024-05-26T09:13:58.000Z</time>
      </trkpt>
      <trkpt lat="43.19874" lon="6.51334">
        <ele>393.4</ele>
        <time>2024-05-26T09:14:08.000Z</time>
      </trkpt>
      <trkpt lat="43.19865" lon="6.51338">
        <ele>391.6</ele>
        <time>2024-05-26T09:14:17.000Z</time>
      </trkpt>
      <trkpt lat="43.19858" lon="6.51345">
        <ele>389.4</ele>
        <time>2024-05-26T09:14:27.000Z</time>
      </trkpt>
      <trkpt lat="43.19849" lon="6.51352">
        <ele>387.4</ele>
        <time>2024-05-26T09:14:39.000Z</time>
      </trkpt>
      <trkpt lat="43.1984" lon="6.51356">
        <ele>385.9</ele>
        <time>2024-05-26T09:14:51.000Z</time>
      </trkpt>
      <trkpt lat="43.19831" lon="6.51351">
        <ele>383.8</ele>
        <time>2024-05-26T09:15:05.000Z</time>
      </trkpt>
      <trkpt lat="43.19827" lon="6.5134">
        <ele>380.4</ele>
        <time>2024-05-26T09:15:24.000Z</time>
      </trkpt>
      <trkpt lat="43.19827" lon="6.51327">
        <ele>377.9</ele>
        <time>2024-05-26T09:15:41.000Z</time>
      </trkpt>
      <trkpt lat="43.19823" lon="6.51316">
        <ele>376.1</ele>
        <time>2024-05-26T09:15:59.000Z</time>
      </trkpt>
      <trkpt lat="43.19815" lon="6.5131">
        <ele>374</ele>
        <time>2024-05-26T09:16:22.000Z</time>
      </trkpt>
      <trkpt lat="43.19805" lon="6.51311">
        <ele>370.3</ele>
        <time>2024-05-26T09:16:43.000Z</time>
      </trkpt>
      <trkpt lat="43.19796" lon="6.51312">
        <ele>368.2</ele>
        <time>2024-05-26T09:16:57.000Z</time>
      </trkpt>
      <trkpt lat="43.19787" lon="6.51315">
        <ele>365</ele>
        <time>2024-05-26T09:17:18.000Z</time>
      </trkpt>
      <trkpt lat="43.19778" lon="6.51313">
        <ele>362.3</ele>
        <time>2024-05-26T09:17:41.000Z</time>
      </trkpt>
      <trkpt lat="43.19773" lon="6.51308">
        <ele>360.3</ele>
        <time>2024-05-26T09:17:57.000Z</time>
      </trkpt>
      <trkpt lat="43.19773" lon="6.51308">
        <ele>360.2</ele>
        <time>2024-05-26T09:17:58.000Z</time>
      </trkpt>
      <trkpt lat="43.19772" lon="6.51307">
        <ele>359.8</ele>
        <time>2024-05-26T09:18:24.000Z</time>
      </trkpt>
      <trkpt lat="43.19772" lon="6.51306">
        <ele>359.8</ele>
        <time>2024-05-26T09:18:25.000Z</time>
      </trkpt>
      <trkpt lat="43.19767" lon="6.51294">
        <ele>359</ele>
        <time>2024-05-26T09:18:36.000Z</time>
      </trkpt>
      <trkpt lat="43.19763" lon="6.51283">
        <ele>356.1</ele>
        <time>2024-05-26T09:18:46.000Z</time>
      </trkpt>
      <trkpt lat="43.1976" lon="6.5127">
        <ele>353</ele>
        <time>2024-05-26T09:18:56.000Z</time>
      </trkpt>
      <trkpt lat="43.19758" lon="6.51266">
        <ele>351.4</ele>
        <time>2024-05-26T09:19:12.000Z</time>
      </trkpt>
      <trkpt lat="43.19758" lon="6.51266">
        <ele>351.4</ele>
        <time>2024-05-26T09:19:13.000Z</time>
      </trkpt>
      <trkpt lat="43.19758" lon="6.51267">
        <ele>351.5</ele>
        <time>2024-05-26T09:19:29.000Z</time>
      </trkpt>
      <trkpt lat="43.19758" lon="6.51267">
        <ele>351.5</ele>
        <time>2024-05-26T09:19:30.000Z</time>
      </trkpt>
      <trkpt lat="43.19758" lon="6.51267">
        <ele>351.5</ele>
        <time>2024-05-26T09:19:34.000Z</time>
      </trkpt>
      <trkpt lat="43.19758" lon="6.51267">
        <ele>351.5</ele>
        <time>2024-05-26T09:19:35.000Z</time>
      </trkpt>
      <trkpt lat="43.19758" lon="6.51267">
        <ele>351.5</ele>
        <time>2024-05-26T09:19:36.000Z</time>
      </trkpt>
      <trkpt lat="43.19758" lon="6.51267">
        <ele>351.5</ele>
        <time>2024-05-26T09:19:37.000Z</time>
      </trkpt>
      <trkpt lat="43.19758" lon="6.51266">
        <ele>351.5</ele>
        <time>2024-05-26T09:19:38.000Z</time>
      </trkpt>
      <trkpt lat="43.19758" lon="6.51265">
        <ele>351.5</ele>
        <time>2024-05-26T09:19:39.000Z</time>
      </trkpt>
      <trkpt lat="43.19755" lon="6.51254">
        <ele>351.4</ele>
        <time>2024-05-26T09:19:44.000Z</time>
      </trkpt>
      <trkpt lat="43.19746" lon="6.51253">
        <ele>350.5</ele>
        <time>2024-05-26T09:19:52.000Z</time>
      </trkpt>
      <trkpt lat="43.19737" lon="6.5125">
        <ele>347.8</ele>
        <time>2024-05-26T09:20:03.000Z</time>
      </trkpt>
      <trkpt lat="43.19728" lon="6.51244">
        <ele>345.2</ele>
        <time>2024-05-26T09:20:16.000Z</time>
      </trkpt>
      <trkpt lat="43.19722" lon="6.51234">
        <ele>342.3</ele>
        <time>2024-05-26T09:20:29.000Z</time>
      </trkpt>
      <trkpt lat="43.19716" lon="6.51225">
        <ele>340.2</ele>
        <time>2024-05-26T09:20:41.000Z</time>
      </trkpt>
      <trkpt lat="43.19708" lon="6.51217">
        <ele>338</ele>
        <time>2024-05-26T09:20:52.000Z</time>
      </trkpt>
      <trkpt lat="43.197" lon="6.51211">
        <ele>335.9</ele>
        <time>2024-05-26T09:21:03.000Z</time>
      </trkpt>
      <trkpt lat="43.19694" lon="6.51204">
        <ele>334</ele>
        <time>2024-05-26T09:21:16.000Z</time>
      </trkpt>
      <trkpt lat="43.19694" lon="6.51205">
        <ele>333.9</ele>
        <time>2024-05-26T09:21:17.000Z</time>
      </trkpt>
      <trkpt lat="43.19693" lon="6.51204">
        <ele>333.8</ele>
        <time>2024-05-26T09:21:18.000Z</time>
      </trkpt>
      <trkpt lat="43.19693" lon="6.51204">
        <ele>333.7</ele>
        <time>2024-05-26T09:21:19.000Z</time>
      </trkpt>
      <trkpt lat="43.19692" lon="6.51203">
        <ele>333.6</ele>
        <time>2024-05-26T09:21:20.000Z</time>
      </trkpt>
      <trkpt lat="43.19691" lon="6.51203">
        <ele>333.6</ele>
        <time>2024-05-26T09:21:21.000Z</time>
      </trkpt>
      <trkpt lat="43.19689" lon="6.51202">
        <ele>332.9</ele>
        <time>2024-05-26T09:21:29.000Z</time>
      </trkpt>
      <trkpt lat="43.19689" lon="6.51202">
        <ele>332.8</ele>
        <time>2024-05-26T09:21:30.000Z</time>
      </trkpt>
      <trkpt lat="43.19689" lon="6.51203">
        <ele>332.8</ele>
        <time>2024-05-26T09:21:31.000Z</time>
      </trkpt>
      <trkpt lat="43.19689" lon="6.51203">
        <ele>332.6</ele>
        <time>2024-05-26T09:21:35.000Z</time>
      </trkpt>
      <trkpt lat="43.19689" lon="6.51203">
        <ele>332.5</ele>
        <time>2024-05-26T09:21:36.000Z</time>
      </trkpt>
      <trkpt lat="43.19689" lon="6.51203">
        <ele>332.5</ele>
        <time>2024-05-26T09:21:37.000Z</time>
      </trkpt>
      <trkpt lat="43.19689" lon="6.51203">
        <ele>332.5</ele>
        <time>2024-05-26T09:21:38.000Z</time>
      </trkpt>
      <trkpt lat="43.19689" lon="6.512">
        <ele>332.4</ele>
        <time>2024-05-26T09:21:50.000Z</time>
      </trkpt>
      <trkpt lat="43.19689" lon="6.512">
        <ele>332.4</ele>
        <time>2024-05-26T09:21:51.000Z</time>
      </trkpt>
      <trkpt lat="43.1969" lon="6.51203">
        <ele>332.4</ele>
        <time>2024-05-26T09:21:54.000Z</time>
      </trkpt>
      <trkpt lat="43.1969" lon="6.51203">
        <ele>332.4</ele>
        <time>2024-05-26T09:21:55.000Z</time>
      </trkpt>
      <trkpt lat="43.1969" lon="6.51203">
        <ele>332.4</ele>
        <time>2024-05-26T09:21:56.000Z</time>
      </trkpt>
      <trkpt lat="43.1969" lon="6.51202">
        <ele>332.5</ele>
        <time>2024-05-26T09:22:20.000Z</time>
      </trkpt>
      <trkpt lat="43.1969" lon="6.51202">
        <ele>332.5</ele>
        <time>2024-05-26T09:22:21.000Z</time>
      </trkpt>
      <trkpt lat="43.1969" lon="6.51202">
        <ele>332.5</ele>
        <time>2024-05-26T09:22:22.000Z</time>
      </trkpt>
      <trkpt lat="43.1969" lon="6.51202">
        <ele>332.5</ele>
        <time>2024-05-26T09:22:23.000Z</time>
      </trkpt>
      <trkpt lat="43.19689" lon="6.51201">
        <ele>332.5</ele>
        <time>2024-05-26T09:22:31.000Z</time>
      </trkpt>
      <trkpt lat="43.19688" lon="6.512">
        <ele>332.5</ele>
        <time>2024-05-26T09:22:32.000Z</time>
      </trkpt>
      <trkpt lat="43.19688" lon="6.512">
        <ele>332.5</ele>
        <time>2024-05-26T09:22:33.000Z</time>
      </trkpt>
      <trkpt lat="43.19684" lon="6.51196">
        <ele>332.5</ele>
        <time>2024-05-26T09:22:45.000Z</time>
      </trkpt>
      <trkpt lat="43.19684" lon="6.51196">
        <ele>332.5</ele>
        <time>2024-05-26T09:22:46.000Z</time>
      </trkpt>
      <trkpt lat="43.19684" lon="6.51196">
        <ele>332.4</ele>
        <time>2024-05-26T09:22:59.000Z</time>
      </trkpt>
      <trkpt lat="43.19684" lon="6.51196">
        <ele>332.4</ele>
        <time>2024-05-26T09:23:00.000Z</time>
      </trkpt>
      <trkpt lat="43.19684" lon="6.51196">
        <ele>332.4</ele>
        <time>2024-05-26T09:23:01.000Z</time>
      </trkpt>
      <trkpt lat="43.19684" lon="6.51196">
        <ele>332.3</ele>
        <time>2024-05-26T09:23:02.000Z</time>
      </trkpt>
      <trkpt lat="43.19684" lon="6.51196">
        <ele>332.3</ele>
        <time>2024-05-26T09:23:03.000Z</time>
      </trkpt>
      <trkpt lat="43.19684" lon="6.51197">
        <ele>332.3</ele>
        <time>2024-05-26T09:23:31.000Z</time>
      </trkpt>
      <trkpt lat="43.19684" lon="6.51197">
        <ele>332.3</ele>
        <time>2024-05-26T09:23:32.000Z</time>
      </trkpt>
      <trkpt lat="43.19684" lon="6.51197">
        <ele>332.3</ele>
        <time>2024-05-26T09:23:33.000Z</time>
      </trkpt>
      <trkpt lat="43.19683" lon="6.51196">
        <ele>332.4</ele>
        <time>2024-05-26T09:23:44.000Z</time>
      </trkpt>
      <trkpt lat="43.19683" lon="6.51196">
        <ele>332.4</ele>
        <time>2024-05-26T09:23:45.000Z</time>
      </trkpt>
      <trkpt lat="43.19683" lon="6.51196">
        <ele>332.5</ele>
        <time>2024-05-26T09:23:55.000Z</time>
      </trkpt>
      <trkpt lat="43.19683" lon="6.51196">
        <ele>332.5</ele>
        <time>2024-05-26T09:23:56.000Z</time>
      </trkpt>
      <trkpt lat="43.19683" lon="6.51196">
        <ele>332.5</ele>
        <time>2024-05-26T09:23:59.000Z</time>
      </trkpt>
      <trkpt lat="43.19683" lon="6.51196">
        <ele>332.5</ele>
        <time>2024-05-26T09:24:00.000Z</time>
      </trkpt>
      <trkpt lat="43.19683" lon="6.51196">
        <ele>332.5</ele>
        <time>2024-05-26T09:24:01.000Z</time>
      </trkpt>
      <trkpt lat="43.19683" lon="6.51196">
        <ele>332.5</ele>
        <time>2024-05-26T09:24:02.000Z</time>
      </trkpt>
      <trkpt lat="43.19683" lon="6.51196">
        <ele>332.5</ele>
        <time>2024-05-26T09:24:03.000Z</time>
      </trkpt>
      <trkpt lat="43.19683" lon="6.51196">
        <ele>332.5</ele>
        <time>2024-05-26T09:24:04.000Z</time>
      </trkpt>
      <trkpt lat="43.19683" lon="6.51197">
        <ele>332.5</ele>
        <time>2024-05-26T09:24:05.000Z</time>
      </trkpt>
      <trkpt lat="43.19683" lon="6.51197">
        <ele>332.5</ele>
        <time>2024-05-26T09:24:06.000Z</time>
      </trkpt>
      <trkpt lat="43.19682" lon="6.51198">
        <ele>332.5</ele>
        <time>2024-05-26T09:24:07.000Z</time>
      </trkpt>
      <trkpt lat="43.19682" lon="6.51198">
        <ele>332.5</ele>
        <time>2024-05-26T09:24:08.000Z</time>
      </trkpt>
      <trkpt lat="43.19682" lon="6.51198">
        <ele>332.5</ele>
        <time>2024-05-26T09:24:11.000Z</time>
      </trkpt>
      <trkpt lat="43.19682" lon="6.51198">
        <ele>332.5</ele>
        <time>2024-05-26T09:24:12.000Z</time>
      </trkpt>
      <trkpt lat="43.19682" lon="6.51198">
        <ele>332.5</ele>
        <time>2024-05-26T09:24:13.000Z</time>
      </trkpt>
      <trkpt lat="43.19682" lon="6.51198">
        <ele>332.5</ele>
        <time>2024-05-26T09:24:14.000Z</time>
      </trkpt>
      <trkpt lat="43.19682" lon="6.51198">
        <ele>332.5</ele>
        <time>2024-05-26T09:24:15.000Z</time>
      </trkpt>
      <trkpt lat="43.19682" lon="6.51198">
        <ele>332.5</ele>
        <time>2024-05-26T09:24:16.000Z</time>
      </trkpt>
      <trkpt lat="43.19682" lon="6.51198">
        <ele>332.5</ele>
        <time>2024-05-26T09:24:17.000Z</time>
      </trkpt>
      <trkpt lat="43.19682" lon="6.51198">
        <ele>332.5</ele>
        <time>2024-05-26T09:24:18.000Z</time>
      </trkpt>
      <trkpt lat="43.19682" lon="6.51198">
        <ele>332.5</ele>
        <time>2024-05-26T09:24:19.000Z</time>
      </trkpt>
      <trkpt lat="43.19683" lon="6.51198">
        <ele>332.6</ele>
        <time>2024-05-26T09:24:20.000Z</time>
      </trkpt>
      <trkpt lat="43.19683" lon="6.51198">
        <ele>332.6</ele>
        <time>2024-05-26T09:24:21.000Z</time>
      </trkpt>
      <trkpt lat="43.19683" lon="6.51198">
        <ele>332.6</ele>
        <time>2024-05-26T09:24:27.000Z</time>
      </trkpt>
      <trkpt lat="43.19683" lon="6.51198">
        <ele>332.6</ele>
        <time>2024-05-26T09:24:28.000Z</time>
      </trkpt>
      <trkpt lat="43.19683" lon="6.51197">
        <ele>332.7</ele>
        <time>2024-05-26T09:24:46.000Z</time>
      </trkpt>
      <trkpt lat="43.19683" lon="6.51197">
        <ele>332.7</ele>
        <time>2024-05-26T09:24:47.000Z</time>
      </trkpt>
      <trkpt lat="43.19683" lon="6.51197">
        <ele>332.7</ele>
        <time>2024-05-26T09:24:48.000Z</time>
      </trkpt>
      <trkpt lat="43.19683" lon="6.51197">
        <ele>332.8</ele>
        <time>2024-05-26T09:24:51.000Z</time>
      </trkpt>
      <trkpt lat="43.19683" lon="6.51197">
        <ele>332.8</ele>
        <time>2024-05-26T09:24:52.000Z</time>
      </trkpt>
      <trkpt lat="43.19683" lon="6.51197">
        <ele>332.8</ele>
        <time>2024-05-26T09:24:53.000Z</time>
      </trkpt>
      <trkpt lat="43.19684" lon="6.51198">
        <ele>333.2</ele>
        <time>2024-05-26T09:25:27.000Z</time>
      </trkpt>
      <trkpt lat="43.19684" lon="6.51198">
        <ele>333.2</ele>
        <time>2024-05-26T09:25:28.000Z</time>
      </trkpt>
      <trkpt lat="43.19684" lon="6.51198">
        <ele>333.2</ele>
        <time>2024-05-26T09:25:29.000Z</time>
      </trkpt>
      <trkpt lat="43.19684" lon="6.51198">
        <ele>333.3</ele>
        <time>2024-05-26T09:25:30.000Z</time>
      </trkpt>
      <trkpt lat="43.19684" lon="6.51198">
        <ele>333.4</ele>
        <time>2024-05-26T09:25:46.000Z</time>
      </trkpt>
      <trkpt lat="43.19684" lon="6.51198">
        <ele>333.4</ele>
        <time>2024-05-26T09:25:47.000Z</time>
      </trkpt>
      <trkpt lat="43.19684" lon="6.51198">
        <ele>333.5</ele>
        <time>2024-05-26T09:25:48.000Z</time>
      </trkpt>
      <trkpt lat="43.19684" lon="6.51198">
        <ele>333.5</ele>
        <time>2024-05-26T09:25:54.000Z</time>
      </trkpt>
      <trkpt lat="43.19684" lon="6.51198">
        <ele>333.5</ele>
        <time>2024-05-26T09:25:55.000Z</time>
      </trkpt>
      <trkpt lat="43.19683" lon="6.51197">
        <ele>333.6</ele>
        <time>2024-05-26T09:26:01.000Z</time>
      </trkpt>
      <trkpt lat="43.19682" lon="6.51197">
        <ele>333.6</ele>
        <time>2024-05-26T09:26:02.000Z</time>
      </trkpt>
      <trkpt lat="43.19681" lon="6.51197">
        <ele>333.6</ele>
        <time>2024-05-26T09:26:03.000Z</time>
      </trkpt>
      <trkpt lat="43.19681" lon="6.51197">
        <ele>333.6</ele>
        <time>2024-05-26T09:26:06.000Z</time>
      </trkpt>
      <trkpt lat="43.19681" lon="6.51197">
        <ele>333.6</ele>
        <time>2024-05-26T09:26:07.000Z</time>
      </trkpt>
      <trkpt lat="43.19681" lon="6.51196">
        <ele>333.6</ele>
        <time>2024-05-26T09:26:08.000Z</time>
      </trkpt>
      <trkpt lat="43.1968" lon="6.51195">
        <ele>333.6</ele>
        <time>2024-05-26T09:26:09.000Z</time>
      </trkpt>
      <trkpt lat="43.19679" lon="6.51194">
        <ele>333.6</ele>
        <time>2024-05-26T09:26:10.000Z</time>
      </trkpt>
      <trkpt lat="43.19676" lon="6.51183">
        <ele>333.7</ele>
        <time>2024-05-26T09:26:21.000Z</time>
      </trkpt>
      <trkpt lat="43.19671" lon="6.51172">
        <ele>334.7</ele>
        <time>2024-05-26T09:26:38.000Z</time>
      </trkpt>
      <trkpt lat="43.19663" lon="6.51165">
        <ele>337.2</ele>
        <time>2024-05-26T09:26:54.000Z</time>
      </trkpt>
      <trkpt lat="43.19656" lon="6.51156">
        <ele>339.3</ele>
        <time>2024-05-26T09:27:08.000Z</time>
      </trkpt>
      <trkpt lat="43.19647" lon="6.5115">
        <ele>341.7</ele>
        <time>2024-05-26T09:27:23.000Z</time>
      </trkpt>
      <trkpt lat="43.19647" lon="6.5115">
        <ele>342.3</ele>
        <time>2024-05-26T09:27:27.000Z</time>
      </trkpt>
      <trkpt lat="43.19647" lon="6.5115">
        <ele>342.4</ele>
        <time>2024-05-26T09:27:28.000Z</time>
      </trkpt>
      <trkpt lat="43.19647" lon="6.51148">
        <ele>342.6</ele>
        <time>2024-05-26T09:27:31.000Z</time>
      </trkpt>
      <trkpt lat="43.19647" lon="6.51148">
        <ele>342.7</ele>
        <time>2024-05-26T09:27:32.000Z</time>
      </trkpt>
      <trkpt lat="43.19646" lon="6.51148">
        <ele>342.8</ele>
        <time>2024-05-26T09:27:33.000Z</time>
      </trkpt>
      <trkpt lat="43.19639" lon="6.5114">
        <ele>343.9</ele>
        <time>2024-05-26T09:27:45.000Z</time>
      </trkpt>
      <trkpt lat="43.19631" lon="6.51133">
        <ele>345.6</ele>
        <time>2024-05-26T09:28:06.000Z</time>
      </trkpt>
      <trkpt lat="43.19627" lon="6.51128">
        <ele>347.8</ele>
        <time>2024-05-26T09:28:22.000Z</time>
      </trkpt>
      <trkpt lat="43.19627" lon="6.51128">
        <ele>347.9</ele>
        <time>2024-05-26T09:28:23.000Z</time>
      </trkpt>
      <trkpt lat="43.19626" lon="6.51127">
        <ele>348.3</ele>
        <time>2024-05-26T09:28:29.000Z</time>
      </trkpt>
      <trkpt lat="43.19626" lon="6.51127">
        <ele>348.3</ele>
        <time>2024-05-26T09:28:30.000Z</time>
      </trkpt>
      <trkpt lat="43.19626" lon="6.51126">
        <ele>348.4</ele>
        <time>2024-05-26T09:28:31.000Z</time>
      </trkpt>
      <trkpt lat="43.19625" lon="6.51125">
        <ele>348.8</ele>
        <time>2024-05-26T09:28:37.000Z</time>
      </trkpt>
      <trkpt lat="43.19625" lon="6.51125">
        <ele>348.8</ele>
        <time>2024-05-26T09:28:38.000Z</time>
      </trkpt>
      <trkpt lat="43.19624" lon="6.51124">
        <ele>348.9</ele>
        <time>2024-05-26T09:28:41.000Z</time>
      </trkpt>
      <trkpt lat="43.19624" lon="6.51123">
        <ele>349</ele>
        <time>2024-05-26T09:28:42.000Z</time>
      </trkpt>
      <trkpt lat="43.19624" lon="6.51123">
        <ele>349</ele>
        <time>2024-05-26T09:28:43.000Z</time>
      </trkpt>
      <trkpt lat="43.19619" lon="6.51121">
        <ele>350.6</ele>
        <time>2024-05-26T09:28:57.000Z</time>
      </trkpt>
      <trkpt lat="43.19619" lon="6.51121">
        <ele>350.8</ele>
        <time>2024-05-26T09:28:58.000Z</time>
      </trkpt>
      <trkpt lat="43.19619" lon="6.51121">
        <ele>350.9</ele>
        <time>2024-05-26T09:28:59.000Z</time>
      </trkpt>
      <trkpt lat="43.19619" lon="6.51121">
        <ele>351.6</ele>
        <time>2024-05-26T09:29:06.000Z</time>
      </trkpt>
      <trkpt lat="43.19618" lon="6.5112">
        <ele>351.7</ele>
        <time>2024-05-26T09:29:07.000Z</time>
      </trkpt>
      <trkpt lat="43.19617" lon="6.51119">
        <ele>351.7</ele>
        <time>2024-05-26T09:29:08.000Z</time>
      </trkpt>
      <trkpt lat="43.19609" lon="6.51112">
        <ele>353.4</ele>
        <time>2024-05-26T09:29:22.000Z</time>
      </trkpt>
      <trkpt lat="43.19601" lon="6.51106">
        <ele>357.5</ele>
        <time>2024-05-26T09:29:45.000Z</time>
      </trkpt>
      <trkpt lat="43.19593" lon="6.51099">
        <ele>359.8</ele>
        <time>2024-05-26T09:29:58.000Z</time>
      </trkpt>
      <trkpt lat="43.19585" lon="6.51092">
        <ele>362.2</ele>
        <time>2024-05-26T09:30:11.000Z</time>
      </trkpt>
      <trkpt lat="43.19576" lon="6.51091">
        <ele>365.7</ele>
        <time>2024-05-26T09:30:31.000Z</time>
      </trkpt>
      <trkpt lat="43.19567" lon="6.51089">
        <ele>366.4</ele>
        <time>2024-05-26T09:30:43.000Z</time>
      </trkpt>
      <trkpt lat="43.19557" lon="6.51088">
        <ele>368.6</ele>
        <time>2024-05-26T09:30:58.000Z</time>
      </trkpt>
      <trkpt lat="43.19548" lon="6.51089">
        <ele>370.5</ele>
        <time>2024-05-26T09:31:09.000Z</time>
      </trkpt>
      <trkpt lat="43.19539" lon="6.51088">
        <ele>372</ele>
        <time>2024-05-26T09:31:20.000Z</time>
      </trkpt>
      <trkpt lat="43.19529" lon="6.51088">
        <ele>373.5</ele>
        <time>2024-05-26T09:31:32.000Z</time>
      </trkpt>
      <trkpt lat="43.1952" lon="6.51086">
        <ele>375.4</ele>
        <time>2024-05-26T09:31:47.000Z</time>
      </trkpt>
      <trkpt lat="43.19511" lon="6.51087">
        <ele>375.7</ele>
        <time>2024-05-26T09:31:58.000Z</time>
      </trkpt>
      <trkpt lat="43.19501" lon="6.51087">
        <ele>377.3</ele>
        <time>2024-05-26T09:32:14.000Z</time>
      </trkpt>
      <trkpt lat="43.19492" lon="6.51086">
        <ele>379.1</ele>
        <time>2024-05-26T09:32:27.000Z</time>
      </trkpt>
      <trkpt lat="43.19482" lon="6.51082">
        <ele>380.6</ele>
        <time>2024-05-26T09:32:40.000Z</time>
      </trkpt>
      <trkpt lat="43.19473" lon="6.51077">
        <ele>382</ele>
        <time>2024-05-26T09:32:50.000Z</time>
      </trkpt>
      <trkpt lat="43.19464" lon="6.51075">
        <ele>384.4</ele>
        <time>2024-05-26T09:33:06.000Z</time>
      </trkpt>
      <trkpt lat="43.19456" lon="6.51071">
        <ele>386</ele>
        <time>2024-05-26T09:33:17.000Z</time>
      </trkpt>
      <trkpt lat="43.1945" lon="6.51068">
        <ele>387.5</ele>
        <time>2024-05-26T09:33:26.000Z</time>
      </trkpt>
      <trkpt lat="43.1945" lon="6.51068">
        <ele>387.6</ele>
        <time>2024-05-26T09:33:27.000Z</time>
      </trkpt>
      <trkpt lat="43.1945" lon="6.51068">
        <ele>387.7</ele>
        <time>2024-05-26T09:33:28.000Z</time>
      </trkpt>
      <trkpt lat="43.1945" lon="6.51068">
        <ele>388.2</ele>
        <time>2024-05-26T09:33:46.000Z</time>
      </trkpt>
      <trkpt lat="43.19449" lon="6.51067">
        <ele>388.3</ele>
        <time>2024-05-26T09:33:47.000Z</time>
      </trkpt>
      <trkpt lat="43.19449" lon="6.51066">
        <ele>388.3</ele>
        <time>2024-05-26T09:33:48.000Z</time>
      </trkpt>
      <trkpt lat="43.1944" lon="6.51062">
        <ele>388.6</ele>
        <time>2024-05-26T09:33:58.000Z</time>
      </trkpt>
      <trkpt lat="43.19432" lon="6.51057">
        <ele>389.9</ele>
        <time>2024-05-26T09:34:10.000Z</time>
      </trkpt>
      <trkpt lat="43.19423" lon="6.51053">
        <ele>392.1</ele>
        <time>2024-05-26T09:34:22.000Z</time>
      </trkpt>
      <trkpt lat="43.19415" lon="6.51048">
        <ele>393.9</ele>
        <time>2024-05-26T09:34:33.000Z</time>
      </trkpt>
      <trkpt lat="43.19406" lon="6.51044">
        <ele>395.6</ele>
        <time>2024-05-26T09:34:46.000Z</time>
      </trkpt>
      <trkpt lat="43.19397" lon="6.51039">
        <ele>396.6</ele>
        <time>2024-05-26T09:34:56.000Z</time>
      </trkpt>
      <trkpt lat="43.19389" lon="6.51035">
        <ele>397.3</ele>
        <time>2024-05-26T09:35:06.000Z</time>
      </trkpt>
      <trkpt lat="43.1938" lon="6.5103">
        <ele>397.5</ele>
        <time>2024-05-26T09:35:15.000Z</time>
      </trkpt>
      <trkpt lat="43.19377" lon="6.51028">
        <ele>397.6</ele>
        <time>2024-05-26T09:35:29.000Z</time>
      </trkpt>
      <trkpt lat="43.19377" lon="6.51028">
        <ele>397.6</ele>
        <time>2024-05-26T09:35:30.000Z</time>
      </trkpt>
      <trkpt lat="43.19377" lon="6.51028">
        <ele>397.7</ele>
        <time>2024-05-26T09:35:40.000Z</time>
      </trkpt>
      <trkpt lat="43.19377" lon="6.51028">
        <ele>397.7</ele>
        <time>2024-05-26T09:35:41.000Z</time>
      </trkpt>
      <trkpt lat="43.19376" lon="6.51028">
        <ele>397.7</ele>
        <time>2024-05-26T09:35:44.000Z</time>
      </trkpt>
      <trkpt lat="43.19376" lon="6.51028">
        <ele>397.8</ele>
        <time>2024-05-26T09:35:45.000Z</time>
      </trkpt>
      <trkpt lat="43.19377" lon="6.51029">
        <ele>398.2</ele>
        <time>2024-05-26T09:36:41.000Z</time>
      </trkpt>
      <trkpt lat="43.19376" lon="6.51029">
        <ele>398.2</ele>
        <time>2024-05-26T09:36:42.000Z</time>
      </trkpt>
      <trkpt lat="43.19374" lon="6.51029">
        <ele>398.2</ele>
        <time>2024-05-26T09:36:43.000Z</time>
      </trkpt>
      <trkpt lat="43.19365" lon="6.51026">
        <ele>398.3</ele>
        <time>2024-05-26T09:36:51.000Z</time>
      </trkpt>
      <trkpt lat="43.19355" lon="6.51024">
        <ele>398.6</ele>
        <time>2024-05-26T09:37:01.000Z</time>
      </trkpt>
      <trkpt lat="43.19346" lon="6.51022">
        <ele>399.2</ele>
        <time>2024-05-26T09:37:10.000Z</time>
      </trkpt>
      <trkpt lat="43.19336" lon="6.51019">
        <ele>400.3</ele>
        <time>2024-05-26T09:37:19.000Z</time>
      </trkpt>
      <trkpt lat="43.19327" lon="6.51014">
        <ele>401.6</ele>
        <time>2024-05-26T09:37:28.000Z</time>
      </trkpt>
      <trkpt lat="43.19319" lon="6.5101">
        <ele>402.9</ele>
        <time>2024-05-26T09:37:37.000Z</time>
      </trkpt>
      <trkpt lat="43.1931" lon="6.51004">
        <ele>404</ele>
        <time>2024-05-26T09:37:47.000Z</time>
      </trkpt>
      <trkpt lat="43.19301" lon="6.51">
        <ele>404.9</ele>
        <time>2024-05-26T09:37:57.000Z</time>
      </trkpt>
      <trkpt lat="43.19292" lon="6.50998">
        <ele>406.5</ele>
        <time>2024-05-26T09:38:09.000Z</time>
      </trkpt>
      <trkpt lat="43.19291" lon="6.50997">
        <ele>408</ele>
        <time>2024-05-26T09:38:20.000Z</time>
      </trkpt>
      <trkpt lat="43.19291" lon="6.50996">
        <ele>408.1</ele>
        <time>2024-05-26T09:38:21.000Z</time>
      </trkpt>
      <trkpt lat="43.19289" lon="6.50995">
        <ele>408.3</ele>
        <time>2024-05-26T09:38:24.000Z</time>
      </trkpt>
      <trkpt lat="43.19289" lon="6.50995">
        <ele>408.3</ele>
        <time>2024-05-26T09:38:25.000Z</time>
      </trkpt>
      <trkpt lat="43.19289" lon="6.50995">
        <ele>408.4</ele>
        <time>2024-05-26T09:38:26.000Z</time>
      </trkpt>
      <trkpt lat="43.19289" lon="6.50995">
        <ele>408.4</ele>
        <time>2024-05-26T09:38:27.000Z</time>
      </trkpt>
      <trkpt lat="43.19289" lon="6.50995">
        <ele>408.4</ele>
        <time>2024-05-26T09:38:28.000Z</time>
      </trkpt>
      <trkpt lat="43.19289" lon="6.50995">
        <ele>408.5</ele>
        <time>2024-05-26T09:38:29.000Z</time>
      </trkpt>
      <trkpt lat="43.19288" lon="6.50995">
        <ele>408.5</ele>
        <time>2024-05-26T09:38:32.000Z</time>
      </trkpt>
      <trkpt lat="43.19288" lon="6.50995">
        <ele>408.5</ele>
        <time>2024-05-26T09:38:33.000Z</time>
      </trkpt>
      <trkpt lat="43.19288" lon="6.50995">
        <ele>408.6</ele>
        <time>2024-05-26T09:38:34.000Z</time>
      </trkpt>
      <trkpt lat="43.19288" lon="6.50995">
        <ele>408.6</ele>
        <time>2024-05-26T09:38:35.000Z</time>
      </trkpt>
      <trkpt lat="43.19288" lon="6.50995">
        <ele>408.6</ele>
        <time>2024-05-26T09:38:36.000Z</time>
      </trkpt>
      <trkpt lat="43.19288" lon="6.50995">
        <ele>408.6</ele>
        <time>2024-05-26T09:38:37.000Z</time>
      </trkpt>
      <trkpt lat="43.19288" lon="6.50995">
        <ele>408.6</ele>
        <time>2024-05-26T09:38:38.000Z</time>
      </trkpt>
      <trkpt lat="43.19288" lon="6.50995">
        <ele>408.6</ele>
        <time>2024-05-26T09:38:39.000Z</time>
      </trkpt>
      <trkpt lat="43.19288" lon="6.50995">
        <ele>408.7</ele>
        <time>2024-05-26T09:38:40.000Z</time>
      </trkpt>
      <trkpt lat="43.19288" lon="6.50995">
        <ele>408.7</ele>
        <time>2024-05-26T09:38:41.000Z</time>
      </trkpt>
      <trkpt lat="43.19288" lon="6.50995">
        <ele>408.7</ele>
        <time>2024-05-26T09:38:47.000Z</time>
      </trkpt>
      <trkpt lat="43.19288" lon="6.50995">
        <ele>408.7</ele>
        <time>2024-05-26T09:38:48.000Z</time>
      </trkpt>
      <trkpt lat="43.19288" lon="6.50996">
        <ele>408.8</ele>
        <time>2024-05-26T09:38:54.000Z</time>
      </trkpt>
      <trkpt lat="43.19288" lon="6.50996">
        <ele>408.8</ele>
        <time>2024-05-26T09:38:55.000Z</time>
      </trkpt>
      <trkpt lat="43.19288" lon="6.50996">
        <ele>408.8</ele>
        <time>2024-05-26T09:38:56.000Z</time>
      </trkpt>
      <trkpt lat="43.19288" lon="6.50996">
        <ele>408.9</ele>
        <time>2024-05-26T09:39:09.000Z</time>
      </trkpt>
      <trkpt lat="43.19288" lon="6.50996">
        <ele>408.9</ele>
        <time>2024-05-26T09:39:10.000Z</time>
      </trkpt>
      <trkpt lat="43.19288" lon="6.50996">
        <ele>408.9</ele>
        <time>2024-05-26T09:39:11.000Z</time>
      </trkpt>
      <trkpt lat="43.19288" lon="6.50996">
        <ele>408.9</ele>
        <time>2024-05-26T09:39:12.000Z</time>
      </trkpt>
      <trkpt lat="43.19287" lon="6.50996">
        <ele>408.9</ele>
        <time>2024-05-26T09:39:13.000Z</time>
      </trkpt>
      <trkpt lat="43.19287" lon="6.50996">
        <ele>408.9</ele>
        <time>2024-05-26T09:39:14.000Z</time>
      </trkpt>
      <trkpt lat="43.19287" lon="6.50996">
        <ele>409</ele>
        <time>2024-05-26T09:39:15.000Z</time>
      </trkpt>
      <trkpt lat="43.19287" lon="6.50996">
        <ele>409</ele>
        <time>2024-05-26T09:39:16.000Z</time>
      </trkpt>
      <trkpt lat="43.19287" lon="6.50996">
        <ele>409</ele>
        <time>2024-05-26T09:39:17.000Z</time>
      </trkpt>
      <trkpt lat="43.19287" lon="6.50996">
        <ele>409</ele>
        <time>2024-05-26T09:39:18.000Z</time>
      </trkpt>
      <trkpt lat="43.19286" lon="6.50996">
        <ele>409</ele>
        <time>2024-05-26T09:39:24.000Z</time>
      </trkpt>
      <trkpt lat="43.19285" lon="6.50996">
        <ele>409</ele>
        <time>2024-05-26T09:39:25.000Z</time>
      </trkpt>
      <trkpt lat="43.1928" lon="6.50992">
        <ele>409.1</ele>
        <time>2024-05-26T09:39:34.000Z</time>
      </trkpt>
      <trkpt lat="43.1928" lon="6.50992">
        <ele>409.1</ele>
        <time>2024-05-26T09:39:35.000Z</time>
      </trkpt>
      <trkpt lat="43.1928" lon="6.50992">
        <ele>409.1</ele>
        <time>2024-05-26T09:39:36.000Z</time>
      </trkpt>
      <trkpt lat="43.1928" lon="6.50992">
        <ele>409.3</ele>
        <time>2024-05-26T09:39:57.000Z</time>
      </trkpt>
      <trkpt lat="43.19279" lon="6.50992">
        <ele>409.3</ele>
        <time>2024-05-26T09:39:58.000Z</time>
      </trkpt>
      <trkpt lat="43.19271" lon="6.50987">
        <ele>410.1</ele>
        <time>2024-05-26T09:40:10.000Z</time>
      </trkpt>
      <trkpt lat="43.19263" lon="6.5098">
        <ele>413</ele>
        <time>2024-05-26T09:40:27.000Z</time>
      </trkpt>
      <trkpt lat="43.19258" lon="6.5097">
        <ele>416.1</ele>
        <time>2024-05-26T09:40:45.000Z</time>
      </trkpt>
      <trkpt lat="43.19253" lon="6.50959">
        <ele>418.9</ele>
        <time>2024-05-26T09:41:02.000Z</time>
      </trkpt>
      <trkpt lat="43.1925" lon="6.50952">
        <ele>420.7</ele>
        <time>2024-05-26T09:41:20.000Z</time>
      </trkpt>
      <trkpt lat="43.1925" lon="6.50952">
        <ele>420.8</ele>
        <time>2024-05-26T09:41:21.000Z</time>
      </trkpt>
      <trkpt lat="43.1925" lon="6.50952">
        <ele>420.8</ele>
        <time>2024-05-26T09:41:24.000Z</time>
      </trkpt>
      <trkpt lat="43.19249" lon="6.50952">
        <ele>420.8</ele>
        <time>2024-05-26T09:41:25.000Z</time>
      </trkpt>
      <trkpt lat="43.19249" lon="6.50952">
        <ele>420.8</ele>
        <time>2024-05-26T09:41:26.000Z</time>
      </trkpt>
      <trkpt lat="43.19249" lon="6.50952">
        <ele>420.8</ele>
        <time>2024-05-26T09:41:27.000Z</time>
      </trkpt>
      <trkpt lat="43.19249" lon="6.50952">
        <ele>420.9</ele>
        <time>2024-05-26T09:41:28.000Z</time>
      </trkpt>
      <trkpt lat="43.19249" lon="6.50952">
        <ele>420.9</ele>
        <time>2024-05-26T09:41:35.000Z</time>
      </trkpt>
      <trkpt lat="43.19249" lon="6.50951">
        <ele>421</ele>
        <time>2024-05-26T09:41:36.000Z</time>
      </trkpt>
      <trkpt lat="43.19245" lon="6.50938">
        <ele>421.6</ele>
        <time>2024-05-26T09:41:48.000Z</time>
      </trkpt>
      <trkpt lat="43.19246" lon="6.50926">
        <ele>424.7</ele>
        <time>2024-05-26T09:42:05.000Z</time>
      </trkpt>
      <trkpt lat="43.19238" lon="6.50918">
        <ele>427.6</ele>
        <time>2024-05-26T09:42:21.000Z</time>
      </trkpt>
      <trkpt lat="43.19229" lon="6.50922">
        <ele>429.3</ele>
        <time>2024-05-26T09:42:32.000Z</time>
      </trkpt>
      <trkpt lat="43.19221" lon="6.5093">
        <ele>430.8</ele>
        <time>2024-05-26T09:42:43.000Z</time>
      </trkpt>
      <trkpt lat="43.19212" lon="6.50933">
        <ele>432.8</ele>
        <time>2024-05-26T09:42:56.000Z</time>
      </trkpt>
      <trkpt lat="43.19205" lon="6.50943">
        <ele>435.2</ele>
        <time>2024-05-26T09:43:11.000Z</time>
      </trkpt>
      <trkpt lat="43.192" lon="6.50953">
        <ele>436.3</ele>
        <time>2024-05-26T09:43:25.000Z</time>
      </trkpt>
      <trkpt lat="43.19192" lon="6.50961">
        <ele>437.8</ele>
        <time>2024-05-26T09:43:40.000Z</time>
      </trkpt>
      <trkpt lat="43.19183" lon="6.50964">
        <ele>439.3</ele>
        <time>2024-05-26T09:43:53.000Z</time>
      </trkpt>
      <trkpt lat="43.19174" lon="6.50968">
        <ele>441.2</ele>
        <time>2024-05-26T09:44:07.000Z</time>
      </trkpt>
      <trkpt lat="43.1917" lon="6.50956">
        <ele>442.6</ele>
        <time>2024-05-26T09:44:17.000Z</time>
      </trkpt>
      <trkpt lat="43.19173" lon="6.50947">
        <ele>444.7</ele>
        <time>2024-05-26T09:44:32.000Z</time>
      </trkpt>
      <trkpt lat="43.19173" lon="6.50947">
        <ele>444.8</ele>
        <time>2024-05-26T09:44:33.000Z</time>
      </trkpt>
      <trkpt lat="43.19173" lon="6.50947">
        <ele>444.9</ele>
        <time>2024-05-26T09:44:34.000Z</time>
      </trkpt>
      <trkpt lat="43.19174" lon="6.50946">
        <ele>445.1</ele>
        <time>2024-05-26T09:44:37.000Z</time>
      </trkpt>
      <trkpt lat="43.19174" lon="6.50945">
        <ele>445.1</ele>
        <time>2024-05-26T09:44:38.000Z</time>
      </trkpt>
      <trkpt lat="43.19175" lon="6.50933">
        <ele>446.6</ele>
        <time>2024-05-26T09:44:51.000Z</time>
      </trkpt>
      <trkpt lat="43.19176" lon="6.5092">
        <ele>448.9</ele>
        <time>2024-05-26T09:45:05.000Z</time>
      </trkpt>
      <trkpt lat="43.19175" lon="6.50919">
        <ele>449.6</ele>
        <time>2024-05-26T09:45:10.000Z</time>
      </trkpt>
      <trkpt lat="43.19175" lon="6.50919">
        <ele>449.6</ele>
        <time>2024-05-26T09:45:11.000Z</time>
      </trkpt>
      <trkpt lat="43.19175" lon="6.50919">
        <ele>449.7</ele>
        <time>2024-05-26T09:45:12.000Z</time>
      </trkpt>
      <trkpt lat="43.19175" lon="6.50918">
        <ele>449.7</ele>
        <time>2024-05-26T09:45:13.000Z</time>
      </trkpt>
      <trkpt lat="43.19175" lon="6.50915">
        <ele>450</ele>
        <time>2024-05-26T09:45:19.000Z</time>
      </trkpt>
      <trkpt lat="43.19175" lon="6.50915">
        <ele>450</ele>
        <time>2024-05-26T09:45:20.000Z</time>
      </trkpt>
      <trkpt lat="43.19175" lon="6.50915">
        <ele>450</ele>
        <time>2024-05-26T09:45:21.000Z</time>
      </trkpt>
      <trkpt lat="43.19175" lon="6.50915">
        <ele>450.2</ele>
        <time>2024-05-26T09:45:27.000Z</time>
      </trkpt>
      <trkpt lat="43.19175" lon="6.50915">
        <ele>450.2</ele>
        <time>2024-05-26T09:45:28.000Z</time>
      </trkpt>
      <trkpt lat="43.19175" lon="6.50915">
        <ele>450.2</ele>
        <time>2024-05-26T09:45:29.000Z</time>
      </trkpt>
      <trkpt lat="43.19175" lon="6.50915">
        <ele>450.2</ele>
        <time>2024-05-26T09:45:30.000Z</time>
      </trkpt>
      <trkpt lat="43.19175" lon="6.50912">
        <ele>450.2</ele>
        <time>2024-05-26T09:45:47.000Z</time>
      </trkpt>
      <trkpt lat="43.19175" lon="6.50911">
        <ele>450.2</ele>
        <time>2024-05-26T09:45:48.000Z</time>
      </trkpt>
      <trkpt lat="43.19175" lon="6.50909">
        <ele>450.3</ele>
        <time>2024-05-26T09:45:49.000Z</time>
      </trkpt>
      <trkpt lat="43.19175" lon="6.50908">
        <ele>450.3</ele>
        <time>2024-05-26T09:45:55.000Z</time>
      </trkpt>
      <trkpt lat="43.19175" lon="6.50908">
        <ele>450.3</ele>
        <time>2024-05-26T09:45:56.000Z</time>
      </trkpt>
      <trkpt lat="43.19175" lon="6.50908">
        <ele>450.3</ele>
        <time>2024-05-26T09:45:59.000Z</time>
      </trkpt>
      <trkpt lat="43.19175" lon="6.50907">
        <ele>450.3</ele>
        <time>2024-05-26T09:46:00.000Z</time>
      </trkpt>
      <trkpt lat="43.19174" lon="6.50894">
        <ele>450.5</ele>
        <time>2024-05-26T09:46:09.000Z</time>
      </trkpt>
      <trkpt lat="43.1917" lon="6.50882">
        <ele>451.3</ele>
        <time>2024-05-26T09:46:18.000Z</time>
      </trkpt>
      <trkpt lat="43.19162" lon="6.50876">
        <ele>452.5</ele>
        <time>2024-05-26T09:46:26.000Z</time>
      </trkpt>
      <trkpt lat="43.19153" lon="6.50872">
        <ele>454.8</ele>
        <time>2024-05-26T09:46:39.000Z</time>
      </trkpt>
      <trkpt lat="43.19144" lon="6.50868">
        <ele>456.4</ele>
        <time>2024-05-26T09:46:48.000Z</time>
      </trkpt>
      <trkpt lat="43.19135" lon="6.50864">
        <ele>457.7</ele>
        <time>2024-05-26T09:46:57.000Z</time>
      </trkpt>
      <trkpt lat="43.19126" lon="6.50863">
        <ele>459.4</ele>
        <time>2024-05-26T09:47:08.000Z</time>
      </trkpt>
      <trkpt lat="43.19116" lon="6.50863">
        <ele>461.2</ele>
        <time>2024-05-26T09:47:18.000Z</time>
      </trkpt>
      <trkpt lat="43.19107" lon="6.50867">
        <ele>463.3</ele>
        <time>2024-05-26T09:47:31.000Z</time>
      </trkpt>
      <trkpt lat="43.19098" lon="6.50868">
        <ele>464.8</ele>
        <time>2024-05-26T09:47:41.000Z</time>
      </trkpt>
      <trkpt lat="43.19089" lon="6.50872">
        <ele>466.3</ele>
        <time>2024-05-26T09:47:52.000Z</time>
      </trkpt>
      <trkpt lat="43.19082" lon="6.5088">
        <ele>467.5</ele>
        <time>2024-05-26T09:48:02.000Z</time>
      </trkpt>
      <trkpt lat="43.19074" lon="6.50887">
        <ele>468.4</ele>
        <time>2024-05-26T09:48:12.000Z</time>
      </trkpt>
      <trkpt lat="43.19073" lon="6.50888">
        <ele>468.9</ele>
        <time>2024-05-26T09:48:20.000Z</time>
      </trkpt>
      <trkpt lat="43.19073" lon="6.50888">
        <ele>468.9</ele>
        <time>2024-05-26T09:48:21.000Z</time>
      </trkpt>
      <trkpt lat="43.19073" lon="6.5089">
        <ele>469.1</ele>
        <time>2024-05-26T09:48:30.000Z</time>
      </trkpt>
      <trkpt lat="43.19073" lon="6.50889">
        <ele>469.1</ele>
        <time>2024-05-26T09:48:31.000Z</time>
      </trkpt>
      <trkpt lat="43.19073" lon="6.50889">
        <ele>469.1</ele>
        <time>2024-05-26T09:48:34.000Z</time>
      </trkpt>
      <trkpt lat="43.19073" lon="6.50889">
        <ele>469.1</ele>
        <time>2024-05-26T09:48:35.000Z</time>
      </trkpt>
      <trkpt lat="43.19073" lon="6.5089">
        <ele>469.2</ele>
        <time>2024-05-26T09:48:44.000Z</time>
      </trkpt>
      <trkpt lat="43.19073" lon="6.5089">
        <ele>469.2</ele>
        <time>2024-05-26T09:48:45.000Z</time>
      </trkpt>
      <trkpt lat="43.19064" lon="6.50889">
        <ele>469.2</ele>
        <time>2024-05-26T09:48:58.000Z</time>
      </trkpt>
      <trkpt lat="43.19055" lon="6.50886">
        <ele>469.3</ele>
        <time>2024-05-26T09:49:09.000Z</time>
      </trkpt>
      <trkpt lat="43.19045" lon="6.5088">
        <ele>469.9</ele>
        <time>2024-05-26T09:49:21.000Z</time>
      </trkpt>
      <trkpt lat="43.19036" lon="6.50876">
        <ele>471</ele>
        <time>2024-05-26T09:49:31.000Z</time>
      </trkpt>
      <trkpt lat="43.19027" lon="6.50873">
        <ele>472</ele>
        <time>2024-05-26T09:49:40.000Z</time>
      </trkpt>
      <trkpt lat="43.19018" lon="6.50872">
        <ele>473.6</ele>
        <time>2024-05-26T09:49:53.000Z</time>
      </trkpt>
      <trkpt lat="43.19008" lon="6.50868">
        <ele>474.7</ele>
        <time>2024-05-26T09:50:03.000Z</time>
      </trkpt>
      <trkpt lat="43.18999" lon="6.50862">
        <ele>475.8</ele>
        <time>2024-05-26T09:50:13.000Z</time>
      </trkpt>
      <trkpt lat="43.1899" lon="6.50857">
        <ele>477</ele>
        <time>2024-05-26T09:50:22.000Z</time>
      </trkpt>
      <trkpt lat="43.18989" lon="6.50855">
        <ele>477.9</ele>
        <time>2024-05-26T09:50:31.000Z</time>
      </trkpt>
      <trkpt lat="43.18989" lon="6.50855">
        <ele>478</ele>
        <time>2024-05-26T09:50:32.000Z</time>
      </trkpt>
      <trkpt lat="43.18989" lon="6.50855">
        <ele>478.1</ele>
        <time>2024-05-26T09:50:33.000Z</time>
      </trkpt>
      <trkpt lat="43.18989" lon="6.50854">
        <ele>478.3</ele>
        <time>2024-05-26T09:50:44.000Z</time>
      </trkpt>
      <trkpt lat="43.18988" lon="6.50853">
        <ele>478.3</ele>
        <time>2024-05-26T09:50:45.000Z</time>
      </trkpt>
      <trkpt lat="43.18979" lon="6.50853">
        <ele>478.6</ele>
        <time>2024-05-26T09:50:54.000Z</time>
      </trkpt>
      <trkpt lat="43.18977" lon="6.50866">
        <ele>479</ele>
        <time>2024-05-26T09:51:03.000Z</time>
      </trkpt>
      <trkpt lat="43.18973" lon="6.50875">
        <ele>479.7</ele>
        <time>2024-05-26T09:51:19.000Z</time>
      </trkpt>
      <trkpt lat="43.18973" lon="6.50875">
        <ele>479.7</ele>
        <time>2024-05-26T09:51:20.000Z</time>
      </trkpt>
      <trkpt lat="43.18973" lon="6.50875">
        <ele>479.9</ele>
        <time>2024-05-26T09:51:24.000Z</time>
      </trkpt>
      <trkpt lat="43.18973" lon="6.50875">
        <ele>480</ele>
        <time>2024-05-26T09:51:25.000Z</time>
      </trkpt>
      <trkpt lat="43.18973" lon="6.50875">
        <ele>480.1</ele>
        <time>2024-05-26T09:51:32.000Z</time>
      </trkpt>
      <trkpt lat="43.18973" lon="6.50875">
        <ele>480.1</ele>
        <time>2024-05-26T09:51:33.000Z</time>
      </trkpt>
      <trkpt lat="43.18973" lon="6.50876">
        <ele>480.4</ele>
        <time>2024-05-26T09:51:40.000Z</time>
      </trkpt>
      <trkpt lat="43.18973" lon="6.50876">
        <ele>480.4</ele>
        <time>2024-05-26T09:51:41.000Z</time>
      </trkpt>
      <trkpt lat="43.18974" lon="6.5088">
        <ele>480.3</ele>
        <time>2024-05-26T09:51:56.000Z</time>
      </trkpt>
      <trkpt lat="43.18974" lon="6.5088">
        <ele>480.3</ele>
        <time>2024-05-26T09:51:57.000Z</time>
      </trkpt>
      <trkpt lat="43.18974" lon="6.5088">
        <ele>480.3</ele>
        <time>2024-05-26T09:51:58.000Z</time>
      </trkpt>
      <trkpt lat="43.18974" lon="6.5088">
        <ele>480.1</ele>
        <time>2024-05-26T09:52:26.000Z</time>
      </trkpt>
      <trkpt lat="43.18974" lon="6.5088">
        <ele>480.1</ele>
        <time>2024-05-26T09:52:27.000Z</time>
      </trkpt>
      <trkpt lat="43.18974" lon="6.5088">
        <ele>480.1</ele>
        <time>2024-05-26T09:52:28.000Z</time>
      </trkpt>
      <trkpt lat="43.18976" lon="6.50877">
        <ele>480.1</ele>
        <time>2024-05-26T09:52:34.000Z</time>
      </trkpt>
      <trkpt lat="43.18976" lon="6.50877">
        <ele>480.1</ele>
        <time>2024-05-26T09:52:35.000Z</time>
      </trkpt>
      <trkpt lat="43.18976" lon="6.50877">
        <ele>480.1</ele>
        <time>2024-05-26T09:52:41.000Z</time>
      </trkpt>
      <trkpt lat="43.18976" lon="6.50877">
        <ele>480.1</ele>
        <time>2024-05-26T09:52:42.000Z</time>
      </trkpt>
      <trkpt lat="43.18976" lon="6.50877">
        <ele>480.1</ele>
        <time>2024-05-26T09:52:43.000Z</time>
      </trkpt>
      <trkpt lat="43.18975" lon="6.50878">
        <ele>480.1</ele>
        <time>2024-05-26T09:52:57.000Z</time>
      </trkpt>
      <trkpt lat="43.18975" lon="6.50878">
        <ele>480.1</ele>
        <time>2024-05-26T09:52:58.000Z</time>
      </trkpt>
      <trkpt lat="43.18975" lon="6.50877">
        <ele>480.1</ele>
        <time>2024-05-26T09:53:24.000Z</time>
      </trkpt>
      <trkpt lat="43.18975" lon="6.50877">
        <ele>480.1</ele>
        <time>2024-05-26T09:53:25.000Z</time>
      </trkpt>
      <trkpt lat="43.18975" lon="6.50877">
        <ele>480.1</ele>
        <time>2024-05-26T09:53:26.000Z</time>
      </trkpt>
      <trkpt lat="43.18975" lon="6.50877">
        <ele>480.1</ele>
        <time>2024-05-26T09:53:27.000Z</time>
      </trkpt>
      <trkpt lat="43.18975" lon="6.50877">
        <ele>480.1</ele>
        <time>2024-05-26T09:53:28.000Z</time>
      </trkpt>
      <trkpt lat="43.18974" lon="6.50878">
        <ele>480.1</ele>
        <time>2024-05-26T09:53:34.000Z</time>
      </trkpt>
      <trkpt lat="43.18975" lon="6.50879">
        <ele>480.1</ele>
        <time>2024-05-26T09:53:35.000Z</time>
      </trkpt>
      <trkpt lat="43.18975" lon="6.5088">
        <ele>480.2</ele>
        <time>2024-05-26T09:53:52.000Z</time>
      </trkpt>
      <trkpt lat="43.18975" lon="6.5088">
        <ele>480.2</ele>
        <time>2024-05-26T09:53:53.000Z</time>
      </trkpt>
      <trkpt lat="43.18975" lon="6.5088">
        <ele>480.3</ele>
        <time>2024-05-26T09:53:54.000Z</time>
      </trkpt>
      <trkpt lat="43.18975" lon="6.5088">
        <ele>480.2</ele>
        <time>2024-05-26T09:54:02.000Z</time>
      </trkpt>
      <trkpt lat="43.18975" lon="6.5088">
        <ele>480.2</ele>
        <time>2024-05-26T09:54:03.000Z</time>
      </trkpt>
      <trkpt lat="43.18975" lon="6.5088">
        <ele>480.2</ele>
        <time>2024-05-26T09:54:04.000Z</time>
      </trkpt>
      <trkpt lat="43.18975" lon="6.5088">
        <ele>480.2</ele>
        <time>2024-05-26T09:54:05.000Z</time>
      </trkpt>
      <trkpt lat="43.18975" lon="6.5088">
        <ele>480.2</ele>
        <time>2024-05-26T09:54:22.000Z</time>
      </trkpt>
      <trkpt lat="43.18975" lon="6.5088">
        <ele>480.2</ele>
        <time>2024-05-26T09:54:23.000Z</time>
      </trkpt>
      <trkpt lat="43.18975" lon="6.5088">
        <ele>480.3</ele>
        <time>2024-05-26T09:54:27.000Z</time>
      </trkpt>
      <trkpt lat="43.18974" lon="6.5088">
        <ele>480.3</ele>
        <time>2024-05-26T09:54:28.000Z</time>
      </trkpt>
      <trkpt lat="43.18974" lon="6.5088">
        <ele>480.3</ele>
        <time>2024-05-26T09:54:29.000Z</time>
      </trkpt>
      <trkpt lat="43.18974" lon="6.5088">
        <ele>480.3</ele>
        <time>2024-05-26T09:54:30.000Z</time>
      </trkpt>
      <trkpt lat="43.18974" lon="6.5088">
        <ele>480.3</ele>
        <time>2024-05-26T09:54:31.000Z</time>
      </trkpt>
      <trkpt lat="43.18976" lon="6.50877">
        <ele>480.3</ele>
        <time>2024-05-26T09:54:46.000Z</time>
      </trkpt>
      <trkpt lat="43.18976" lon="6.50877">
        <ele>480.3</ele>
        <time>2024-05-26T09:54:47.000Z</time>
      </trkpt>
      <trkpt lat="43.18976" lon="6.50877">
        <ele>480.3</ele>
        <time>2024-05-26T09:54:48.000Z</time>
      </trkpt>
      <trkpt lat="43.18976" lon="6.50877">
        <ele>480.2</ele>
        <time>2024-05-26T09:54:49.000Z</time>
      </trkpt>
      <trkpt lat="43.18976" lon="6.50877">
        <ele>480.2</ele>
        <time>2024-05-26T09:54:50.000Z</time>
      </trkpt>
      <trkpt lat="43.18976" lon="6.50877">
        <ele>480.2</ele>
        <time>2024-05-26T09:54:51.000Z</time>
      </trkpt>
      <trkpt lat="43.18975" lon="6.50875">
        <ele>480.2</ele>
        <time>2024-05-26T09:55:04.000Z</time>
      </trkpt>
      <trkpt lat="43.18975" lon="6.50875">
        <ele>480.2</ele>
        <time>2024-05-26T09:55:05.000Z</time>
      </trkpt>
      <trkpt lat="43.18976" lon="6.50872">
        <ele>480.1</ele>
        <time>2024-05-26T09:55:09.000Z</time>
      </trkpt>
      <trkpt lat="43.18976" lon="6.50871">
        <ele>480.1</ele>
        <time>2024-05-26T09:55:10.000Z</time>
      </trkpt>
      <trkpt lat="43.18976" lon="6.5087">
        <ele>480.1</ele>
        <time>2024-05-26T09:55:11.000Z</time>
      </trkpt>
      <trkpt lat="43.18978" lon="6.50868">
        <ele>480</ele>
        <time>2024-05-26T09:55:15.000Z</time>
      </trkpt>
      <trkpt lat="43.18978" lon="6.50868">
        <ele>480</ele>
        <time>2024-05-26T09:55:16.000Z</time>
      </trkpt>
      <trkpt lat="43.18978" lon="6.50865">
        <ele>479.8</ele>
        <time>2024-05-26T09:55:30.000Z</time>
      </trkpt>
      <trkpt lat="43.18978" lon="6.50864">
        <ele>479.8</ele>
        <time>2024-05-26T09:55:31.000Z</time>
      </trkpt>
      <trkpt lat="43.18981" lon="6.50852">
        <ele>479.5</ele>
        <time>2024-05-26T09:55:41.000Z</time>
      </trkpt>
      <trkpt lat="43.18983" lon="6.50838">
        <ele>479.1</ele>
        <time>2024-05-26T09:55:51.000Z</time>
      </trkpt>
      <trkpt lat="43.18981" lon="6.50825">
        <ele>478.3</ele>
        <time>2024-05-26T09:56:01.000Z</time>
      </trkpt>
      <trkpt lat="43.18983" lon="6.50812">
        <ele>477.6</ele>
        <time>2024-05-26T09:56:10.000Z</time>
      </trkpt>
      <trkpt lat="43.18985" lon="6.50799">
        <ele>477.2</ele>
        <time>2024-05-26T09:56:19.000Z</time>
      </trkpt>
      <trkpt lat="43.18988" lon="6.50786">
        <ele>477.1</ele>
        <time>2024-05-26T09:56:28.000Z</time>
      </trkpt>
      <trkpt lat="43.1899" lon="6.50774">
        <ele>477.3</ele>
        <time>2024-05-26T09:56:39.000Z</time>
      </trkpt>
      <trkpt lat="43.18988" lon="6.50762">
        <ele>477.8</ele>
        <time>2024-05-26T09:56:50.000Z</time>
      </trkpt>
      <trkpt lat="43.18985" lon="6.50749">
        <ele>478.6</ele>
        <time>2024-05-26T09:57:00.000Z</time>
      </trkpt>
      <trkpt lat="43.1898" lon="6.50739">
        <ele>479.9</ele>
        <time>2024-05-26T09:57:14.000Z</time>
      </trkpt>
      <trkpt lat="43.18979" lon="6.50735">
        <ele>480.7</ele>
        <time>2024-05-26T09:57:22.000Z</time>
      </trkpt>
      <trkpt lat="43.18979" lon="6.50735">
        <ele>480.8</ele>
        <time>2024-05-26T09:57:23.000Z</time>
      </trkpt>
      <trkpt lat="43.18979" lon="6.50735">
        <ele>480.8</ele>
        <time>2024-05-26T09:57:24.000Z</time>
      </trkpt>
      <trkpt lat="43.18978" lon="6.50735">
        <ele>481</ele>
        <time>2024-05-26T09:57:27.000Z</time>
      </trkpt>
      <trkpt lat="43.18978" lon="6.50735">
        <ele>481</ele>
        <time>2024-05-26T09:57:28.000Z</time>
      </trkpt>
      <trkpt lat="43.18978" lon="6.50735">
        <ele>481.1</ele>
        <time>2024-05-26T09:57:29.000Z</time>
      </trkpt>
      <trkpt lat="43.18978" lon="6.50735">
        <ele>481.1</ele>
        <time>2024-05-26T09:57:30.000Z</time>
      </trkpt>
      <trkpt lat="43.18977" lon="6.50733">
        <ele>481.2</ele>
        <time>2024-05-26T09:57:34.000Z</time>
      </trkpt>
      <trkpt lat="43.18977" lon="6.50733">
        <ele>481.3</ele>
        <time>2024-05-26T09:57:35.000Z</time>
      </trkpt>
      <trkpt lat="43.1897" lon="6.50723">
        <ele>482.3</ele>
        <time>2024-05-26T09:57:48.000Z</time>
      </trkpt>
      <trkpt lat="43.18966" lon="6.50712">
        <ele>484.5</ele>
        <time>2024-05-26T09:58:02.000Z</time>
      </trkpt>
      <trkpt lat="43.18962" lon="6.50701">
        <ele>486.8</ele>
        <time>2024-05-26T09:58:15.000Z</time>
      </trkpt>
      <trkpt lat="43.18963" lon="6.50691">
        <ele>488.6</ele>
        <time>2024-05-26T09:58:27.000Z</time>
      </trkpt>
      <trkpt lat="43.18962" lon="6.50691">
        <ele>488.7</ele>
        <time>2024-05-26T09:58:28.000Z</time>
      </trkpt>
      <trkpt lat="43.18962" lon="6.5069">
        <ele>488.8</ele>
        <time>2024-05-26T09:58:29.000Z</time>
      </trkpt>
      <trkpt lat="43.18962" lon="6.5069">
        <ele>488.9</ele>
        <time>2024-05-26T09:58:30.000Z</time>
      </trkpt>
      <trkpt lat="43.18963" lon="6.5069">
        <ele>489.2</ele>
        <time>2024-05-26T09:58:34.000Z</time>
      </trkpt>
      <trkpt lat="43.18963" lon="6.5069">
        <ele>489.2</ele>
        <time>2024-05-26T09:58:35.000Z</time>
      </trkpt>
      <trkpt lat="43.18963" lon="6.5069">
        <ele>489.3</ele>
        <time>2024-05-26T09:58:36.000Z</time>
      </trkpt>
      <trkpt lat="43.18963" lon="6.5069">
        <ele>489.3</ele>
        <time>2024-05-26T09:58:37.000Z</time>
      </trkpt>
      <trkpt lat="43.18962" lon="6.50689">
        <ele>489.4</ele>
        <time>2024-05-26T09:58:38.000Z</time>
      </trkpt>
      <trkpt lat="43.1896" lon="6.50685">
        <ele>490</ele>
        <time>2024-05-26T09:58:47.000Z</time>
      </trkpt>
      <trkpt lat="43.1896" lon="6.50685">
        <ele>490.1</ele>
        <time>2024-05-26T09:58:48.000Z</time>
      </trkpt>
      <trkpt lat="43.1896" lon="6.50685">
        <ele>490.6</ele>
        <time>2024-05-26T09:59:12.000Z</time>
      </trkpt>
      <trkpt lat="43.18959" lon="6.50684">
        <ele>490.6</ele>
        <time>2024-05-26T09:59:13.000Z</time>
      </trkpt>
      <trkpt lat="43.18958" lon="6.50672">
        <ele>491.1</ele>
        <time>2024-05-26T09:59:24.000Z</time>
      </trkpt>
      <trkpt lat="43.1896" lon="6.5066">
        <ele>493.3</ele>
        <time>2024-05-26T09:59:36.000Z</time>
      </trkpt>
      <trkpt lat="43.18965" lon="6.50649">
        <ele>496.1</ele>
        <time>2024-05-26T09:59:50.000Z</time>
      </trkpt>
      <trkpt lat="43.18971" lon="6.50638">
        <ele>497.2</ele>
        <time>2024-05-26T10:00:01.000Z</time>
      </trkpt>
      <trkpt lat="43.18973" lon="6.50625">
        <ele>498.5</ele>
        <time>2024-05-26T10:00:13.000Z</time>
      </trkpt>
      <trkpt lat="43.18977" lon="6.50613">
        <ele>499.6</ele>
        <time>2024-05-26T10:00:21.000Z</time>
      </trkpt>
      <trkpt lat="43.1898" lon="6.50601">
        <ele>500.9</ele>
        <time>2024-05-26T10:00:32.000Z</time>
      </trkpt>
      <trkpt lat="43.18981" lon="6.50588">
        <ele>502</ele>
        <time>2024-05-26T10:00:42.000Z</time>
      </trkpt>
      <trkpt lat="43.18985" lon="6.50576">
        <ele>502.9</ele>
        <time>2024-05-26T10:00:51.000Z</time>
      </trkpt>
      <trkpt lat="43.18986" lon="6.50563">
        <ele>504.1</ele>
        <time>2024-05-26T10:01:02.000Z</time>
      </trkpt>
      <trkpt lat="43.18989" lon="6.50551">
        <ele>505.2</ele>
        <time>2024-05-26T10:01:12.000Z</time>
      </trkpt>
      <trkpt lat="43.18992" lon="6.50543">
        <ele>506.3</ele>
        <time>2024-05-26T10:01:20.000Z</time>
      </trkpt>
      <trkpt lat="43.18992" lon="6.50543">
        <ele>506.4</ele>
        <time>2024-05-26T10:01:21.000Z</time>
      </trkpt>
      <trkpt lat="43.18992" lon="6.50542">
        <ele>506.5</ele>
        <time>2024-05-26T10:01:22.000Z</time>
      </trkpt>
      <trkpt lat="43.18992" lon="6.50541">
        <ele>506.6</ele>
        <time>2024-05-26T10:01:23.000Z</time>
      </trkpt>
      <trkpt lat="43.18995" lon="6.50529">
        <ele>506.8</ele>
        <time>2024-05-26T10:01:33.000Z</time>
      </trkpt>
      <trkpt lat="43.18999" lon="6.50517">
        <ele>507.2</ele>
        <time>2024-05-26T10:01:42.000Z</time>
      </trkpt>
      <trkpt lat="43.19001" lon="6.50504">
        <ele>508.3</ele>
        <time>2024-05-26T10:01:56.000Z</time>
      </trkpt>
      <trkpt lat="43.19001" lon="6.50491">
        <ele>509.5</ele>
        <time>2024-05-26T10:02:05.000Z</time>
      </trkpt>
      <trkpt lat="43.18997" lon="6.5048">
        <ele>511.1</ele>
        <time>2024-05-26T10:02:17.000Z</time>
      </trkpt>
      <trkpt lat="43.18995" lon="6.50468">
        <ele>512</ele>
        <time>2024-05-26T10:02:26.000Z</time>
      </trkpt>
      <trkpt lat="43.18991" lon="6.50461">
        <ele>512.7</ele>
        <time>2024-05-26T10:02:37.000Z</time>
      </trkpt>
      <trkpt lat="43.18991" lon="6.50461">
        <ele>512.8</ele>
        <time>2024-05-26T10:02:38.000Z</time>
      </trkpt>
      <trkpt lat="43.18991" lon="6.50461">
        <ele>512.8</ele>
        <time>2024-05-26T10:02:39.000Z</time>
      </trkpt>
      <trkpt lat="43.18991" lon="6.5046">
        <ele>513.2</ele>
        <time>2024-05-26T10:02:51.000Z</time>
      </trkpt>
      <trkpt lat="43.18991" lon="6.50459">
        <ele>513.2</ele>
        <time>2024-05-26T10:02:52.000Z</time>
      </trkpt>
      <trkpt lat="43.18991" lon="6.50458">
        <ele>513.2</ele>
        <time>2024-05-26T10:02:53.000Z</time>
      </trkpt>
      <trkpt lat="43.18989" lon="6.50445">
        <ele>513.6</ele>
        <time>2024-05-26T10:03:02.000Z</time>
      </trkpt>
      <trkpt lat="43.18987" lon="6.50432">
        <ele>514.3</ele>
        <time>2024-05-26T10:03:12.000Z</time>
      </trkpt>
      <trkpt lat="43.18988" lon="6.50419">
        <ele>515.2</ele>
        <time>2024-05-26T10:03:21.000Z</time>
      </trkpt>
      <trkpt lat="43.18987" lon="6.50406">
        <ele>516.2</ele>
        <time>2024-05-26T10:03:30.000Z</time>
      </trkpt>
      <trkpt lat="43.18989" lon="6.50394">
        <ele>517.5</ele>
        <time>2024-05-26T10:03:42.000Z</time>
      </trkpt>
      <trkpt lat="43.18994" lon="6.50383">
        <ele>518.7</ele>
        <time>2024-05-26T10:03:52.000Z</time>
      </trkpt>
      <trkpt lat="43.18994" lon="6.50383">
        <ele>518.9</ele>
        <time>2024-05-26T10:03:54.000Z</time>
      </trkpt>
      <trkpt lat="43.18994" lon="6.50383">
        <ele>519</ele>
        <time>2024-05-26T10:03:55.000Z</time>
      </trkpt>
      <trkpt lat="43.18994" lon="6.50383">
        <ele>519</ele>
        <time>2024-05-26T10:03:56.000Z</time>
      </trkpt>
      <trkpt lat="43.18995" lon="6.50382">
        <ele>519.4</ele>
        <time>2024-05-26T10:04:09.000Z</time>
      </trkpt>
      <trkpt lat="43.18996" lon="6.50381">
        <ele>519.4</ele>
        <time>2024-05-26T10:04:10.000Z</time>
      </trkpt>
      <trkpt lat="43.19003" lon="6.50371">
        <ele>519.7</ele>
        <time>2024-05-26T10:04:21.000Z</time>
      </trkpt>
      <trkpt lat="43.19009" lon="6.5036">
        <ele>519.8</ele>
        <time>2024-05-26T10:04:30.000Z</time>
      </trkpt>
      <trkpt lat="43.19013" lon="6.50349">
        <ele>519.9</ele>
        <time>2024-05-26T10:04:37.000Z</time>
      </trkpt>
      <trkpt lat="43.19016" lon="6.50337">
        <ele>520.2</ele>
        <time>2024-05-26T10:04:46.000Z</time>
      </trkpt>
      <trkpt lat="43.19014" lon="6.50324">
        <ele>521.2</ele>
        <time>2024-05-26T10:04:57.000Z</time>
      </trkpt>
      <trkpt lat="43.19012" lon="6.50312">
        <ele>522.2</ele>
        <time>2024-05-26T10:05:06.000Z</time>
      </trkpt>
      <trkpt lat="43.19009" lon="6.503">
        <ele>522.4</ele>
        <time>2024-05-26T10:05:16.000Z</time>
      </trkpt>
      <trkpt lat="43.19014" lon="6.50288">
        <ele>522.3</ele>
        <time>2024-05-26T10:05:28.000Z</time>
      </trkpt>
      <trkpt lat="43.1902" lon="6.5028">
        <ele>522</ele>
        <time>2024-05-26T10:05:38.000Z</time>
      </trkpt>
      <trkpt lat="43.19026" lon="6.5027">
        <ele>521.9</ele>
        <time>2024-05-26T10:05:49.000Z</time>
      </trkpt>
      <trkpt lat="43.19032" lon="6.5026">
        <ele>521.7</ele>
        <time>2024-05-26T10:05:59.000Z</time>
      </trkpt>
      <trkpt lat="43.19037" lon="6.50249">
        <ele>521.5</ele>
        <time>2024-05-26T10:06:09.000Z</time>
      </trkpt>
      <trkpt lat="43.19041" lon="6.50237">
        <ele>521.3</ele>
        <time>2024-05-26T10:06:16.000Z</time>
      </trkpt>
      <trkpt lat="43.19044" lon="6.50225">
        <ele>520.9</ele>
        <time>2024-05-26T10:06:24.000Z</time>
      </trkpt>
      <trkpt lat="43.19043" lon="6.50211">
        <ele>520.3</ele>
        <time>2024-05-26T10:06:34.000Z</time>
      </trkpt>
      <trkpt lat="43.1904" lon="6.502">
        <ele>519.8</ele>
        <time>2024-05-26T10:06:41.000Z</time>
      </trkpt>
      <trkpt lat="43.19034" lon="6.50188">
        <ele>519.1</ele>
        <time>2024-05-26T10:06:49.000Z</time>
      </trkpt>
      <trkpt lat="43.19025" lon="6.50181">
        <ele>518.4</ele>
        <time>2024-05-26T10:06:56.000Z</time>
      </trkpt>
      <trkpt lat="43.19017" lon="6.50174">
        <ele>517.6</ele>
        <time>2024-05-26T10:07:05.000Z</time>
      </trkpt>
      <trkpt lat="43.19012" lon="6.50162">
        <ele>516.8</ele>
        <time>2024-05-26T10:07:13.000Z</time>
      </trkpt>
      <trkpt lat="43.1901" lon="6.5015">
        <ele>516</ele>
        <time>2024-05-26T10:07:22.000Z</time>
      </trkpt>
      <trkpt lat="43.19013" lon="6.50137">
        <ele>515.4</ele>
        <time>2024-05-26T10:07:33.000Z</time>
      </trkpt>
      <trkpt lat="43.19013" lon="6.50123">
        <ele>514.8</ele>
        <time>2024-05-26T10:07:44.000Z</time>
      </trkpt>
      <trkpt lat="43.19012" lon="6.50109">
        <ele>514.5</ele>
        <time>2024-05-26T10:07:53.000Z</time>
      </trkpt>
      <trkpt lat="43.19011" lon="6.50096">
        <ele>514.3</ele>
        <time>2024-05-26T10:08:02.000Z</time>
      </trkpt>
      <trkpt lat="43.19006" lon="6.50084">
        <ele>514.2</ele>
        <time>2024-05-26T10:08:08.000Z</time>
      </trkpt>
      <trkpt lat="43.19001" lon="6.50076">
        <ele>514.1</ele>
        <time>2024-05-26T10:08:22.000Z</time>
      </trkpt>
      <trkpt lat="43.19001" lon="6.50076">
        <ele>514.1</ele>
        <time>2024-05-26T10:08:23.000Z</time>
      </trkpt>
      <trkpt lat="43.19001" lon="6.50075">
        <ele>514.1</ele>
        <time>2024-05-26T10:08:39.000Z</time>
      </trkpt>
      <trkpt lat="43.19001" lon="6.50073">
        <ele>514.1</ele>
        <time>2024-05-26T10:08:40.000Z</time>
      </trkpt>
      <trkpt lat="43.18994" lon="6.50065">
        <ele>514.3</ele>
        <time>2024-05-26T10:08:50.000Z</time>
      </trkpt>
      <trkpt lat="43.18986" lon="6.50057">
        <ele>515.4</ele>
        <time>2024-05-26T10:09:03.000Z</time>
      </trkpt>
      <trkpt lat="43.18978" lon="6.50049">
        <ele>517.7</ele>
        <time>2024-05-26T10:09:15.000Z</time>
      </trkpt>
      <trkpt lat="43.18971" lon="6.50042">
        <ele>520.4</ele>
        <time>2024-05-26T10:09:29.000Z</time>
      </trkpt>
      <trkpt lat="43.18968" lon="6.50038">
        <ele>521.5</ele>
        <time>2024-05-26T10:09:36.000Z</time>
      </trkpt>
      <trkpt lat="43.18968" lon="6.50038">
        <ele>521.6</ele>
        <time>2024-05-26T10:09:37.000Z</time>
      </trkpt>
      <trkpt lat="43.18968" lon="6.50038">
        <ele>521.7</ele>
        <time>2024-05-26T10:09:38.000Z</time>
      </trkpt>
      <trkpt lat="43.18967" lon="6.50037">
        <ele>521.8</ele>
        <time>2024-05-26T10:09:39.000Z</time>
      </trkpt>
      <trkpt lat="43.18966" lon="6.50037">
        <ele>522</ele>
        <time>2024-05-26T10:09:40.000Z</time>
      </trkpt>
      <trkpt lat="43.18958" lon="6.50031">
        <ele>523.4</ele>
        <time>2024-05-26T10:09:51.000Z</time>
      </trkpt>
      <trkpt lat="43.18948" lon="6.50028">
        <ele>524.7</ele>
        <time>2024-05-26T10:10:02.000Z</time>
      </trkpt>
      <trkpt lat="43.18939" lon="6.50027">
        <ele>525.3</ele>
        <time>2024-05-26T10:10:10.000Z</time>
      </trkpt>
      <trkpt lat="43.18929" lon="6.50027">
        <ele>525.6</ele>
        <time>2024-05-26T10:10:19.000Z</time>
      </trkpt>
      <trkpt lat="43.1892" lon="6.50029">
        <ele>525.5</ele>
        <time>2024-05-26T10:10:28.000Z</time>
      </trkpt>
      <trkpt lat="43.1891" lon="6.5003">
        <ele>525.5</ele>
        <time>2024-05-26T10:10:37.000Z</time>
      </trkpt>
      <trkpt lat="43.189" lon="6.50032">
        <ele>525.5</ele>
        <time>2024-05-26T10:10:46.000Z</time>
      </trkpt>
      <trkpt lat="43.18891" lon="6.50034">
        <ele>525.5</ele>
        <time>2024-05-26T10:10:56.000Z</time>
      </trkpt>
      <trkpt lat="43.18883" lon="6.5004">
        <ele>525.1</ele>
        <time>2024-05-26T10:11:05.000Z</time>
      </trkpt>
      <trkpt lat="43.18876" lon="6.50045">
        <ele>524.1</ele>
        <time>2024-05-26T10:11:17.000Z</time>
      </trkpt>
      <trkpt lat="43.18876" lon="6.50045">
        <ele>524</ele>
        <time>2024-05-26T10:11:18.000Z</time>
      </trkpt>
      <trkpt lat="43.18875" lon="6.50045">
        <ele>523.4</ele>
        <time>2024-05-26T10:11:27.000Z</time>
      </trkpt>
      <trkpt lat="43.18875" lon="6.50046">
        <ele>523.3</ele>
        <time>2024-05-26T10:11:28.000Z</time>
      </trkpt>
      <trkpt lat="43.18874" lon="6.50046">
        <ele>523.3</ele>
        <time>2024-05-26T10:11:29.000Z</time>
      </trkpt>
      <trkpt lat="43.18865" lon="6.5005">
        <ele>522.3</ele>
        <time>2024-05-26T10:11:39.000Z</time>
      </trkpt>
      <trkpt lat="43.18856" lon="6.50055">
        <ele>520.9</ele>
        <time>2024-05-26T10:11:48.000Z</time>
      </trkpt>
      <trkpt lat="43.18848" lon="6.50061">
        <ele>520.2</ele>
        <time>2024-05-26T10:11:58.000Z</time>
      </trkpt>
      <trkpt lat="43.18838" lon="6.50063">
        <ele>518.3</ele>
        <time>2024-05-26T10:12:12.000Z</time>
      </trkpt>
      <trkpt lat="43.18829" lon="6.5006">
        <ele>516.6</ele>
        <time>2024-05-26T10:12:21.000Z</time>
      </trkpt>
      <trkpt lat="43.18821" lon="6.50055">
        <ele>515.7</ele>
        <time>2024-05-26T10:12:32.000Z</time>
      </trkpt>
      <trkpt lat="43.18812" lon="6.50051">
        <ele>514.8</ele>
        <time>2024-05-26T10:12:41.000Z</time>
      </trkpt>
      <trkpt lat="43.18803" lon="6.50051">
        <ele>514</ele>
        <time>2024-05-26T10:12:51.000Z</time>
      </trkpt>
      <trkpt lat="43.18794" lon="6.50052">
        <ele>513.2</ele>
        <time>2024-05-26T10:13:01.000Z</time>
      </trkpt>
      <trkpt lat="43.18785" lon="6.50051">
        <ele>512.6</ele>
        <time>2024-05-26T10:13:11.000Z</time>
      </trkpt>
      <trkpt lat="43.18779" lon="6.50051">
        <ele>511.6</ele>
        <time>2024-05-26T10:13:22.000Z</time>
      </trkpt>
      <trkpt lat="43.18779" lon="6.50051">
        <ele>511.6</ele>
        <time>2024-05-26T10:13:23.000Z</time>
      </trkpt>
      <trkpt lat="43.18779" lon="6.50051">
        <ele>511.2</ele>
        <time>2024-05-26T10:13:34.000Z</time>
      </trkpt>
      <trkpt lat="43.18778" lon="6.50051">
        <ele>511.2</ele>
        <time>2024-05-26T10:13:35.000Z</time>
      </trkpt>
      <trkpt lat="43.18777" lon="6.50054">
        <ele>511.1</ele>
        <time>2024-05-26T10:13:44.000Z</time>
      </trkpt>
      <trkpt lat="43.18776" lon="6.50054">
        <ele>511.1</ele>
        <time>2024-05-26T10:13:45.000Z</time>
      </trkpt>
      <trkpt lat="43.18776" lon="6.50053">
        <ele>511.1</ele>
        <time>2024-05-26T10:13:46.000Z</time>
      </trkpt>
      <trkpt lat="43.18775" lon="6.50053">
        <ele>511.1</ele>
        <time>2024-05-26T10:13:47.000Z</time>
      </trkpt>
      <trkpt lat="43.18774" lon="6.50053">
        <ele>511.1</ele>
        <time>2024-05-26T10:13:48.000Z</time>
      </trkpt>
      <trkpt lat="43.18765" lon="6.50052">
        <ele>511</ele>
        <time>2024-05-26T10:13:57.000Z</time>
      </trkpt>
      <trkpt lat="43.18755" lon="6.5005">
        <ele>510.6</ele>
        <time>2024-05-26T10:14:05.000Z</time>
      </trkpt>
      <trkpt lat="43.18746" lon="6.50051">
        <ele>510</ele>
        <time>2024-05-26T10:14:14.000Z</time>
      </trkpt>
      <trkpt lat="43.18746" lon="6.50051">
        <ele>509.8</ele>
        <time>2024-05-26T10:14:17.000Z</time>
      </trkpt>
      <trkpt lat="43.18745" lon="6.50051">
        <ele>509.8</ele>
        <time>2024-05-26T10:14:18.000Z</time>
      </trkpt>
      <trkpt lat="43.18745" lon="6.50051">
        <ele>509.7</ele>
        <time>2024-05-26T10:14:19.000Z</time>
      </trkpt>
      <trkpt lat="43.18744" lon="6.50051">
        <ele>509.6</ele>
        <time>2024-05-26T10:14:20.000Z</time>
      </trkpt>
      <trkpt lat="43.18735" lon="6.50054">
        <ele>509</ele>
        <time>2024-05-26T10:14:30.000Z</time>
      </trkpt>
      <trkpt lat="43.18725" lon="6.50052">
        <ele>508.4</ele>
        <time>2024-05-26T10:14:38.000Z</time>
      </trkpt>
      <trkpt lat="43.18716" lon="6.50052">
        <ele>507.8</ele>
        <time>2024-05-26T10:14:47.000Z</time>
      </trkpt>
      <trkpt lat="43.18706" lon="6.50049">
        <ele>507.2</ele>
        <time>2024-05-26T10:14:56.000Z</time>
      </trkpt>
      <trkpt lat="43.18698" lon="6.50044">
        <ele>506.8</ele>
        <time>2024-05-26T10:15:04.000Z</time>
      </trkpt>
      <trkpt lat="43.18689" lon="6.50037">
        <ele>506.2</ele>
        <time>2024-05-26T10:15:16.000Z</time>
      </trkpt>
      <trkpt lat="43.18682" lon="6.5003">
        <ele>505.5</ele>
        <time>2024-05-26T10:15:26.000Z</time>
      </trkpt>
      <trkpt lat="43.1868" lon="6.50022">
        <ele>504.8</ele>
        <time>2024-05-26T10:15:37.000Z</time>
      </trkpt>
      <trkpt lat="43.1868" lon="6.50022">
        <ele>504.7</ele>
        <time>2024-05-26T10:15:38.000Z</time>
      </trkpt>
      <trkpt lat="43.1868" lon="6.50021">
        <ele>504.4</ele>
        <time>2024-05-26T10:15:50.000Z</time>
      </trkpt>
      <trkpt lat="43.1868" lon="6.50021">
        <ele>504.4</ele>
        <time>2024-05-26T10:15:51.000Z</time>
      </trkpt>
      <trkpt lat="43.18684" lon="6.50008">
        <ele>503.8</ele>
        <time>2024-05-26T10:16:06.000Z</time>
      </trkpt>
      <trkpt lat="43.18685" lon="6.49996">
        <ele>501.6</ele>
        <time>2024-05-26T10:16:19.000Z</time>
      </trkpt>
      <trkpt lat="43.18683" lon="6.49984">
        <ele>499</ele>
        <time>2024-05-26T10:16:34.000Z</time>
      </trkpt>
      <trkpt lat="43.18677" lon="6.49974">
        <ele>497.2</ele>
        <time>2024-05-26T10:16:45.000Z</time>
      </trkpt>
      <trkpt lat="43.18675" lon="6.49972">
        <ele>496</ele>
        <time>2024-05-26T10:16:52.000Z</time>
      </trkpt>
      <trkpt lat="43.18675" lon="6.49972">
        <ele>495.9</ele>
        <time>2024-05-26T10:16:53.000Z</time>
      </trkpt>
      <trkpt lat="43.18674" lon="6.49971">
        <ele>495.5</ele>
        <time>2024-05-26T10:16:56.000Z</time>
      </trkpt>
      <trkpt lat="43.18674" lon="6.49971">
        <ele>495.4</ele>
        <time>2024-05-26T10:16:57.000Z</time>
      </trkpt>
      <trkpt lat="43.18673" lon="6.4997">
        <ele>495.3</ele>
        <time>2024-05-26T10:16:58.000Z</time>
      </trkpt>
      <trkpt lat="43.18665" lon="6.49963">
        <ele>493.5</ele>
        <time>2024-05-26T10:17:12.000Z</time>
      </trkpt>
      <trkpt lat="43.18657" lon="6.49956">
        <ele>490.6</ele>
        <time>2024-05-26T10:17:33.000Z</time>
      </trkpt>
      <trkpt lat="43.18653" lon="6.49948">
        <ele>488.3</ele>
        <time>2024-05-26T10:17:50.000Z</time>
      </trkpt>
      <trkpt lat="43.18653" lon="6.49948">
        <ele>488.2</ele>
        <time>2024-05-26T10:17:51.000Z</time>
      </trkpt>
      <trkpt lat="43.18652" lon="6.49948">
        <ele>488</ele>
        <time>2024-05-26T10:17:54.000Z</time>
      </trkpt>
      <trkpt lat="43.18652" lon="6.49947">
        <ele>488</ele>
        <time>2024-05-26T10:17:55.000Z</time>
      </trkpt>
      <trkpt lat="43.18652" lon="6.49947">
        <ele>487.9</ele>
        <time>2024-05-26T10:17:56.000Z</time>
      </trkpt>
      <trkpt lat="43.1865" lon="6.49947">
        <ele>487.5</ele>
        <time>2024-05-26T10:18:05.000Z</time>
      </trkpt>
      <trkpt lat="43.1865" lon="6.49947">
        <ele>487.5</ele>
        <time>2024-05-26T10:18:06.000Z</time>
      </trkpt>
      <trkpt lat="43.1865" lon="6.49947">
        <ele>487.4</ele>
        <time>2024-05-26T10:18:12.000Z</time>
      </trkpt>
      <trkpt lat="43.1865" lon="6.49947">
        <ele>487.3</ele>
        <time>2024-05-26T10:18:13.000Z</time>
      </trkpt>
      <trkpt lat="43.1865" lon="6.49947">
        <ele>487.3</ele>
        <time>2024-05-26T10:18:14.000Z</time>
      </trkpt>
      <trkpt lat="43.1865" lon="6.49947">
        <ele>487.3</ele>
        <time>2024-05-26T10:18:15.000Z</time>
      </trkpt>
      <trkpt lat="43.1865" lon="6.49947">
        <ele>487.3</ele>
        <time>2024-05-26T10:18:16.000Z</time>
      </trkpt>
      <trkpt lat="43.18649" lon="6.49946">
        <ele>487.2</ele>
        <time>2024-05-26T10:18:30.000Z</time>
      </trkpt>
      <trkpt lat="43.18649" lon="6.49946">
        <ele>487.2</ele>
        <time>2024-05-26T10:18:31.000Z</time>
      </trkpt>
      <trkpt lat="43.18644" lon="6.49934">
        <ele>486.5</ele>
        <time>2024-05-26T10:18:44.000Z</time>
      </trkpt>
      <trkpt lat="43.18639" lon="6.49924">
        <ele>484.3</ele>
        <time>2024-05-26T10:18:56.000Z</time>
      </trkpt>
      <trkpt lat="43.18632" lon="6.49915">
        <ele>481.6</ele>
        <time>2024-05-26T10:19:10.000Z</time>
      </trkpt>
      <trkpt lat="43.18624" lon="6.49909">
        <ele>480.6</ele>
        <time>2024-05-26T10:19:21.000Z</time>
      </trkpt>
      <trkpt lat="43.18615" lon="6.49905">
        <ele>479.2</ele>
        <time>2024-05-26T10:19:33.000Z</time>
      </trkpt>
      <trkpt lat="43.18605" lon="6.49904">
        <ele>477.1</ele>
        <time>2024-05-26T10:19:44.000Z</time>
      </trkpt>
      <trkpt lat="43.18596" lon="6.49902">
        <ele>475.4</ele>
        <time>2024-05-26T10:19:55.000Z</time>
      </trkpt>
      <trkpt lat="43.18587" lon="6.49906">
        <ele>473.7</ele>
        <time>2024-05-26T10:20:06.000Z</time>
      </trkpt>
      <trkpt lat="43.18578" lon="6.49908">
        <ele>472.6</ele>
        <time>2024-05-26T10:20:15.000Z</time>
      </trkpt>
      <trkpt lat="43.18568" lon="6.4991">
        <ele>471.5</ele>
        <time>2024-05-26T10:20:24.000Z</time>
      </trkpt>
      <trkpt lat="43.18559" lon="6.49914">
        <ele>471.3</ele>
        <time>2024-05-26T10:20:34.000Z</time>
      </trkpt>
      <trkpt lat="43.1855" lon="6.49914">
        <ele>472</ele>
        <time>2024-05-26T10:20:48.000Z</time>
      </trkpt>
      <trkpt lat="43.18541" lon="6.4991">
        <ele>473.1</ele>
        <time>2024-05-26T10:20:59.000Z</time>
      </trkpt>
      <trkpt lat="43.18535" lon="6.49901">
        <ele>474.6</ele>
        <time>2024-05-26T10:21:09.000Z</time>
      </trkpt>
      <trkpt lat="43.18531" lon="6.49889">
        <ele>474.9</ele>
        <time>2024-05-26T10:21:20.000Z</time>
      </trkpt>
      <trkpt lat="43.18524" lon="6.49881">
        <ele>474.3</ele>
        <time>2024-05-26T10:21:31.000Z</time>
      </trkpt>
      <trkpt lat="43.18515" lon="6.49877">
        <ele>473.6</ele>
        <time>2024-05-26T10:21:39.000Z</time>
      </trkpt>
      <trkpt lat="43.18506" lon="6.49872">
        <ele>473.2</ele>
        <time>2024-05-26T10:21:48.000Z</time>
      </trkpt>
      <trkpt lat="43.18497" lon="6.49868">
        <ele>472.8</ele>
        <time>2024-05-26T10:21:59.000Z</time>
      </trkpt>
      <trkpt lat="43.18488" lon="6.49864">
        <ele>472.3</ele>
        <time>2024-05-26T10:22:08.000Z</time>
      </trkpt>
      <trkpt lat="43.18479" lon="6.49859">
        <ele>471.1</ele>
        <time>2024-05-26T10:22:19.000Z</time>
      </trkpt>
      <trkpt lat="43.18479" lon="6.49859">
        <ele>470.8</ele>
        <time>2024-05-26T10:22:22.000Z</time>
      </trkpt>
      <trkpt lat="43.18479" lon="6.49859">
        <ele>470.7</ele>
        <time>2024-05-26T10:22:23.000Z</time>
      </trkpt>
      <trkpt lat="43.18479" lon="6.49859">
        <ele>470.7</ele>
        <time>2024-05-26T10:22:24.000Z</time>
      </trkpt>
      <trkpt lat="43.18478" lon="6.49859">
        <ele>470.1</ele>
        <time>2024-05-26T10:22:37.000Z</time>
      </trkpt>
      <trkpt lat="43.18477" lon="6.49859">
        <ele>470.1</ele>
        <time>2024-05-26T10:22:38.000Z</time>
      </trkpt>
      <trkpt lat="43.18476" lon="6.49859">
        <ele>470.1</ele>
        <time>2024-05-26T10:22:39.000Z</time>
      </trkpt>
      <trkpt lat="43.18467" lon="6.49854">
        <ele>469.4</ele>
        <time>2024-05-26T10:22:51.000Z</time>
      </trkpt>
      <trkpt lat="43.18458" lon="6.49851">
        <ele>468.4</ele>
        <time>2024-05-26T10:23:01.000Z</time>
      </trkpt>
      <trkpt lat="43.18449" lon="6.49847">
        <ele>467</ele>
        <time>2024-05-26T10:23:12.000Z</time>
      </trkpt>
      <trkpt lat="43.18439" lon="6.49847">
        <ele>465.9</ele>
        <time>2024-05-26T10:23:20.000Z</time>
      </trkpt>
      <trkpt lat="43.1843" lon="6.49848">
        <ele>465.2</ele>
        <time>2024-05-26T10:23:28.000Z</time>
      </trkpt>
      <trkpt lat="43.18422" lon="6.49856">
        <ele>465</ele>
        <time>2024-05-26T10:23:36.000Z</time>
      </trkpt>
      <trkpt lat="43.18416" lon="6.49866">
        <ele>464.9</ele>
        <time>2024-05-26T10:23:46.000Z</time>
      </trkpt>
      <trkpt lat="43.18414" lon="6.49873">
        <ele>464.7</ele>
        <time>2024-05-26T10:23:56.000Z</time>
      </trkpt>
      <trkpt lat="43.18414" lon="6.49873">
        <ele>464.7</ele>
        <time>2024-05-26T10:23:57.000Z</time>
      </trkpt>
      <trkpt lat="43.18414" lon="6.49873">
        <ele>464.7</ele>
        <time>2024-05-26T10:23:58.000Z</time>
      </trkpt>
      <trkpt lat="43.18413" lon="6.49874">
        <ele>464.5</ele>
        <time>2024-05-26T10:24:04.000Z</time>
      </trkpt>
      <trkpt lat="43.18413" lon="6.49876">
        <ele>464.5</ele>
        <time>2024-05-26T10:24:05.000Z</time>
      </trkpt>
      <trkpt lat="43.18413" lon="6.49877">
        <ele>464.4</ele>
        <time>2024-05-26T10:24:09.000Z</time>
      </trkpt>
      <trkpt lat="43.18413" lon="6.49877">
        <ele>464.4</ele>
        <time>2024-05-26T10:24:10.000Z</time>
      </trkpt>
      <trkpt lat="43.18413" lon="6.49878">
        <ele>464.4</ele>
        <time>2024-05-26T10:24:11.000Z</time>
      </trkpt>
      <trkpt lat="43.18412" lon="6.49878">
        <ele>464.4</ele>
        <time>2024-05-26T10:24:12.000Z</time>
      </trkpt>
      <trkpt lat="43.18412" lon="6.49878">
        <ele>464.4</ele>
        <time>2024-05-26T10:24:13.000Z</time>
      </trkpt>
      <trkpt lat="43.18404" lon="6.49884">
        <ele>465.1</ele>
        <time>2024-05-26T10:24:33.000Z</time>
      </trkpt>
      <trkpt lat="43.18395" lon="6.49886">
        <ele>467.6</ele>
        <time>2024-05-26T10:24:55.000Z</time>
      </trkpt>
      <trkpt lat="43.18385" lon="6.49888">
        <ele>469.5</ele>
        <time>2024-05-26T10:25:11.000Z</time>
      </trkpt>
      <trkpt lat="43.18377" lon="6.49894">
        <ele>471.1</ele>
        <time>2024-05-26T10:25:30.000Z</time>
      </trkpt>
      <trkpt lat="43.18374" lon="6.49899">
        <ele>472.2</ele>
        <time>2024-05-26T10:25:44.000Z</time>
      </trkpt>
      <trkpt lat="43.18374" lon="6.49899">
        <ele>472.2</ele>
        <time>2024-05-26T10:25:45.000Z</time>
      </trkpt>
      <trkpt lat="43.18374" lon="6.49899">
        <ele>472.3</ele>
        <time>2024-05-26T10:25:46.000Z</time>
      </trkpt>
      <trkpt lat="43.18374" lon="6.49899">
        <ele>472.3</ele>
        <time>2024-05-26T10:25:47.000Z</time>
      </trkpt>
      <trkpt lat="43.18374" lon="6.49899">
        <ele>472.3</ele>
        <time>2024-05-26T10:25:48.000Z</time>
      </trkpt>
      <trkpt lat="43.18374" lon="6.49899">
        <ele>472.4</ele>
        <time>2024-05-26T10:25:49.000Z</time>
      </trkpt>
      <trkpt lat="43.18374" lon="6.49899">
        <ele>472.4</ele>
        <time>2024-05-26T10:25:50.000Z</time>
      </trkpt>
      <trkpt lat="43.18374" lon="6.49899">
        <ele>472.5</ele>
        <time>2024-05-26T10:25:51.000Z</time>
      </trkpt>
      <trkpt lat="43.18372" lon="6.49899">
        <ele>472.8</ele>
        <time>2024-05-26T10:26:10.000Z</time>
      </trkpt>
      <trkpt lat="43.18371" lon="6.49899">
        <ele>472.9</ele>
        <time>2024-05-26T10:26:11.000Z</time>
      </trkpt>
      <trkpt lat="43.18362" lon="6.49902">
        <ele>473.1</ele>
        <time>2024-05-26T10:26:23.000Z</time>
      </trkpt>
      <trkpt lat="43.18354" lon="6.4991">
        <ele>473.3</ele>
        <time>2024-05-26T10:26:35.000Z</time>
      </trkpt>
      <trkpt lat="43.18348" lon="6.49919">
        <ele>474.2</ele>
        <time>2024-05-26T10:26:48.000Z</time>
      </trkpt>
      <trkpt lat="43.18339" lon="6.49923">
        <ele>476.1</ele>
        <time>2024-05-26T10:27:07.000Z</time>
      </trkpt>
      <trkpt lat="43.18335" lon="6.49924">
        <ele>476.9</ele>
        <time>2024-05-26T10:27:17.000Z</time>
      </trkpt>
      <trkpt lat="43.18335" lon="6.49924">
        <ele>476.9</ele>
        <time>2024-05-26T10:27:18.000Z</time>
      </trkpt>
      <trkpt lat="43.18335" lon="6.49923">
        <ele>477.3</ele>
        <time>2024-05-26T10:27:32.000Z</time>
      </trkpt>
      <trkpt lat="43.18334" lon="6.49923">
        <ele>477.3</ele>
        <time>2024-05-26T10:27:33.000Z</time>
      </trkpt>
      <trkpt lat="43.18326" lon="6.49922">
        <ele>477.7</ele>
        <time>2024-05-26T10:27:49.000Z</time>
      </trkpt>
      <trkpt lat="43.18326" lon="6.49922">
        <ele>477.7</ele>
        <time>2024-05-26T10:27:50.000Z</time>
      </trkpt>
      <trkpt lat="43.18326" lon="6.49922">
        <ele>477.7</ele>
        <time>2024-05-26T10:27:51.000Z</time>
      </trkpt>
      <trkpt lat="43.18325" lon="6.49922">
        <ele>478.2</ele>
        <time>2024-05-26T10:28:14.000Z</time>
      </trkpt>
      <trkpt lat="43.18324" lon="6.49923">
        <ele>478.2</ele>
        <time>2024-05-26T10:28:15.000Z</time>
      </trkpt>
      <trkpt lat="43.18316" lon="6.49928">
        <ele>479</ele>
        <time>2024-05-26T10:28:30.000Z</time>
      </trkpt>
      <trkpt lat="43.18307" lon="6.4993">
        <ele>481.8</ele>
        <time>2024-05-26T10:28:46.000Z</time>
      </trkpt>
      <trkpt lat="43.18303" lon="6.4994">
        <ele>485</ele>
        <time>2024-05-26T10:29:10.000Z</time>
      </trkpt>
      <trkpt lat="43.18303" lon="6.4994">
        <ele>485</ele>
        <time>2024-05-26T10:29:11.000Z</time>
      </trkpt>
      <trkpt lat="43.18303" lon="6.49941">
        <ele>485.4</ele>
        <time>2024-05-26T10:29:24.000Z</time>
      </trkpt>
      <trkpt lat="43.18303" lon="6.49942">
        <ele>485.4</ele>
        <time>2024-05-26T10:29:25.000Z</time>
      </trkpt>
      <trkpt lat="43.18298" lon="6.49942">
        <ele>486.2</ele>
        <time>2024-05-26T10:29:40.000Z</time>
      </trkpt>
      <trkpt lat="43.18298" lon="6.49942">
        <ele>486.2</ele>
        <time>2024-05-26T10:29:41.000Z</time>
      </trkpt>
      <trkpt lat="43.18298" lon="6.49941">
        <ele>486.3</ele>
        <time>2024-05-26T10:29:42.000Z</time>
      </trkpt>
      <trkpt lat="43.18297" lon="6.49941">
        <ele>486.3</ele>
        <time>2024-05-26T10:29:43.000Z</time>
      </trkpt>
      <trkpt lat="43.18288" lon="6.49937">
        <ele>486.4</ele>
        <time>2024-05-26T10:29:54.000Z</time>
      </trkpt>
      <trkpt lat="43.18279" lon="6.49934">
        <ele>486.8</ele>
        <time>2024-05-26T10:30:06.000Z</time>
      </trkpt>
      <trkpt lat="43.1827" lon="6.49931">
        <ele>486.7</ele>
        <time>2024-05-26T10:30:18.000Z</time>
      </trkpt>
      <trkpt lat="43.1826" lon="6.4993">
        <ele>486.2</ele>
        <time>2024-05-26T10:30:29.000Z</time>
      </trkpt>
      <trkpt lat="43.18251" lon="6.49927">
        <ele>485.2</ele>
        <time>2024-05-26T10:30:40.000Z</time>
      </trkpt>
      <trkpt lat="43.18242" lon="6.49924">
        <ele>484.2</ele>
        <time>2024-05-26T10:30:49.000Z</time>
      </trkpt>
      <trkpt lat="43.18233" lon="6.49919">
        <ele>483.4</ele>
        <time>2024-05-26T10:31:03.000Z</time>
      </trkpt>
      <trkpt lat="43.1823" lon="6.49917">
        <ele>483.5</ele>
        <time>2024-05-26T10:31:12.000Z</time>
      </trkpt>
      <trkpt lat="43.18229" lon="6.49917">
        <ele>483.5</ele>
        <time>2024-05-26T10:31:13.000Z</time>
      </trkpt>
      <trkpt lat="43.18229" lon="6.49918">
        <ele>483.5</ele>
        <time>2024-05-26T10:31:14.000Z</time>
      </trkpt>
      <trkpt lat="43.18229" lon="6.49918">
        <ele>483.5</ele>
        <time>2024-05-26T10:31:15.000Z</time>
      </trkpt>
      <trkpt lat="43.18228" lon="6.49918">
        <ele>483.6</ele>
        <time>2024-05-26T10:31:16.000Z</time>
      </trkpt>
      <trkpt lat="43.18221" lon="6.49925">
        <ele>485.5</ele>
        <time>2024-05-26T10:31:43.000Z</time>
      </trkpt>
      <trkpt lat="43.18215" lon="6.49924">
        <ele>486.2</ele>
        <time>2024-05-26T10:31:56.000Z</time>
      </trkpt>
      <trkpt lat="43.18215" lon="6.49924">
        <ele>486.3</ele>
        <time>2024-05-26T10:31:57.000Z</time>
      </trkpt>
      <trkpt lat="43.18215" lon="6.49924">
        <ele>486.4</ele>
        <time>2024-05-26T10:31:58.000Z</time>
      </trkpt>
      <trkpt lat="43.18215" lon="6.49924">
        <ele>486.5</ele>
        <time>2024-05-26T10:32:01.000Z</time>
      </trkpt>
      <trkpt lat="43.18214" lon="6.49924">
        <ele>486.6</ele>
        <time>2024-05-26T10:32:02.000Z</time>
      </trkpt>
      <trkpt lat="43.18214" lon="6.49924">
        <ele>486.6</ele>
        <time>2024-05-26T10:32:03.000Z</time>
      </trkpt>
      <trkpt lat="43.18214" lon="6.49924">
        <ele>487</ele>
        <time>2024-05-26T10:32:09.000Z</time>
      </trkpt>
      <trkpt lat="43.18214" lon="6.49923">
        <ele>487</ele>
        <time>2024-05-26T10:32:10.000Z</time>
      </trkpt>
      <trkpt lat="43.18214" lon="6.49923">
        <ele>487.1</ele>
        <time>2024-05-26T10:32:11.000Z</time>
      </trkpt>
      <trkpt lat="43.18214" lon="6.49923">
        <ele>487.1</ele>
        <time>2024-05-26T10:32:12.000Z</time>
      </trkpt>
      <trkpt lat="43.18214" lon="6.49923">
        <ele>487.1</ele>
        <time>2024-05-26T10:32:13.000Z</time>
      </trkpt>
      <trkpt lat="43.18212" lon="6.49922">
        <ele>487.8</ele>
        <time>2024-05-26T10:32:24.000Z</time>
      </trkpt>
      <trkpt lat="43.18212" lon="6.49922">
        <ele>487.9</ele>
        <time>2024-05-26T10:32:25.000Z</time>
      </trkpt>
      <trkpt lat="43.18212" lon="6.49922">
        <ele>487.9</ele>
        <time>2024-05-26T10:32:26.000Z</time>
      </trkpt>
      <trkpt lat="43.18212" lon="6.49922">
        <ele>488</ele>
        <time>2024-05-26T10:32:27.000Z</time>
      </trkpt>
      <trkpt lat="43.18212" lon="6.49922">
        <ele>488</ele>
        <time>2024-05-26T10:32:28.000Z</time>
      </trkpt>
      <trkpt lat="43.18212" lon="6.49922">
        <ele>488.1</ele>
        <time>2024-05-26T10:32:29.000Z</time>
      </trkpt>
      <trkpt lat="43.18212" lon="6.49922">
        <ele>488.1</ele>
        <time>2024-05-26T10:32:30.000Z</time>
      </trkpt>
      <trkpt lat="43.18212" lon="6.49922">
        <ele>488.2</ele>
        <time>2024-05-26T10:32:34.000Z</time>
      </trkpt>
      <trkpt lat="43.18212" lon="6.49922">
        <ele>488.3</ele>
        <time>2024-05-26T10:32:35.000Z</time>
      </trkpt>
      <trkpt lat="43.18212" lon="6.49922">
        <ele>488.3</ele>
        <time>2024-05-26T10:32:36.000Z</time>
      </trkpt>
      <trkpt lat="43.18211" lon="6.49921">
        <ele>488.3</ele>
        <time>2024-05-26T10:32:41.000Z</time>
      </trkpt>
      <trkpt lat="43.18211" lon="6.49921">
        <ele>488.4</ele>
        <time>2024-05-26T10:32:42.000Z</time>
      </trkpt>
      <trkpt lat="43.18211" lon="6.49921">
        <ele>488.4</ele>
        <time>2024-05-26T10:32:43.000Z</time>
      </trkpt>
      <trkpt lat="43.18212" lon="6.49921">
        <ele>488.4</ele>
        <time>2024-05-26T10:32:54.000Z</time>
      </trkpt>
      <trkpt lat="43.18212" lon="6.49921">
        <ele>488.4</ele>
        <time>2024-05-26T10:32:55.000Z</time>
      </trkpt>
      <trkpt lat="43.18213" lon="6.4992">
        <ele>488.2</ele>
        <time>2024-05-26T10:33:12.000Z</time>
      </trkpt>
      <trkpt lat="43.18213" lon="6.4992">
        <ele>488.2</ele>
        <time>2024-05-26T10:33:13.000Z</time>
      </trkpt>
      <trkpt lat="43.18213" lon="6.4992">
        <ele>488.1</ele>
        <time>2024-05-26T10:33:14.000Z</time>
      </trkpt>
      <trkpt lat="43.18213" lon="6.4992">
        <ele>488.1</ele>
        <time>2024-05-26T10:33:15.000Z</time>
      </trkpt>
      <trkpt lat="43.18213" lon="6.4992">
        <ele>488.1</ele>
        <time>2024-05-26T10:33:16.000Z</time>
      </trkpt>
      <trkpt lat="43.18213" lon="6.4992">
        <ele>488.1</ele>
        <time>2024-05-26T10:33:17.000Z</time>
      </trkpt>
      <trkpt lat="43.18213" lon="6.4992">
        <ele>488</ele>
        <time>2024-05-26T10:33:18.000Z</time>
      </trkpt>
      <trkpt lat="43.18213" lon="6.4992">
        <ele>487.9</ele>
        <time>2024-05-26T10:33:34.000Z</time>
      </trkpt>
      <trkpt lat="43.18213" lon="6.4992">
        <ele>487.9</ele>
        <time>2024-05-26T10:33:35.000Z</time>
      </trkpt>
      <trkpt lat="43.18213" lon="6.4992">
        <ele>487.9</ele>
        <time>2024-05-26T10:33:39.000Z</time>
      </trkpt>
      <trkpt lat="43.18213" lon="6.4992">
        <ele>487.9</ele>
        <time>2024-05-26T10:33:40.000Z</time>
      </trkpt>
      <trkpt lat="43.18213" lon="6.4992">
        <ele>487.9</ele>
        <time>2024-05-26T10:33:41.000Z</time>
      </trkpt>
      <trkpt lat="43.18213" lon="6.4992">
        <ele>487.8</ele>
        <time>2024-05-26T10:33:46.000Z</time>
      </trkpt>
      <trkpt lat="43.18213" lon="6.4992">
        <ele>487.8</ele>
        <time>2024-05-26T10:33:47.000Z</time>
      </trkpt>
      <trkpt lat="43.18213" lon="6.4992">
        <ele>487.8</ele>
        <time>2024-05-26T10:33:48.000Z</time>
      </trkpt>
      <trkpt lat="43.18213" lon="6.4992">
        <ele>487.8</ele>
        <time>2024-05-26T10:33:49.000Z</time>
      </trkpt>
      <trkpt lat="43.18213" lon="6.4992">
        <ele>487.8</ele>
        <time>2024-05-26T10:33:50.000Z</time>
      </trkpt>
      <trkpt lat="43.18213" lon="6.4992">
        <ele>487.8</ele>
        <time>2024-05-26T10:33:51.000Z</time>
      </trkpt>
      <trkpt lat="43.18213" lon="6.4992">
        <ele>487.8</ele>
        <time>2024-05-26T10:33:52.000Z</time>
      </trkpt>
      <trkpt lat="43.18213" lon="6.4992">
        <ele>487.8</ele>
        <time>2024-05-26T10:33:53.000Z</time>
      </trkpt>
      <trkpt lat="43.18213" lon="6.4992">
        <ele>487.8</ele>
        <time>2024-05-26T10:33:54.000Z</time>
      </trkpt>
      <trkpt lat="43.18212" lon="6.4992">
        <ele>487.8</ele>
        <time>2024-05-26T10:34:06.000Z</time>
      </trkpt>
      <trkpt lat="43.18212" lon="6.4992">
        <ele>487.8</ele>
        <time>2024-05-26T10:34:07.000Z</time>
      </trkpt>
      <trkpt lat="43.18212" lon="6.4992">
        <ele>487.8</ele>
        <time>2024-05-26T10:34:08.000Z</time>
      </trkpt>
      <trkpt lat="43.18212" lon="6.4992">
        <ele>487.7</ele>
        <time>2024-05-26T10:34:17.000Z</time>
      </trkpt>
      <trkpt lat="43.18212" lon="6.4992">
        <ele>487.7</ele>
        <time>2024-05-26T10:34:18.000Z</time>
      </trkpt>
      <trkpt lat="43.18212" lon="6.4992">
        <ele>487.7</ele>
        <time>2024-05-26T10:34:19.000Z</time>
      </trkpt>
      <trkpt lat="43.18212" lon="6.4992">
        <ele>487.7</ele>
        <time>2024-05-26T10:34:20.000Z</time>
      </trkpt>
      <trkpt lat="43.18212" lon="6.4992">
        <ele>487.7</ele>
        <time>2024-05-26T10:34:21.000Z</time>
      </trkpt>
      <trkpt lat="43.18212" lon="6.49919">
        <ele>487.6</ele>
        <time>2024-05-26T10:35:09.000Z</time>
      </trkpt>
      <trkpt lat="43.18212" lon="6.49919">
        <ele>487.6</ele>
        <time>2024-05-26T10:35:10.000Z</time>
      </trkpt>
      <trkpt lat="43.18212" lon="6.49919">
        <ele>487.6</ele>
        <time>2024-05-26T10:35:11.000Z</time>
      </trkpt>
      <trkpt lat="43.18212" lon="6.49919">
        <ele>487.6</ele>
        <time>2024-05-26T10:35:12.000Z</time>
      </trkpt>
      <trkpt lat="43.18212" lon="6.49919">
        <ele>487.6</ele>
        <time>2024-05-26T10:35:13.000Z</time>
      </trkpt>
      <trkpt lat="43.18212" lon="6.49919">
        <ele>487.6</ele>
        <time>2024-05-26T10:36:09.000Z</time>
      </trkpt>
      <trkpt lat="43.18212" lon="6.49919">
        <ele>487.6</ele>
        <time>2024-05-26T10:36:10.000Z</time>
      </trkpt>
      <trkpt lat="43.18212" lon="6.49919">
        <ele>487.6</ele>
        <time>2024-05-26T10:36:11.000Z</time>
      </trkpt>
      <trkpt lat="43.18212" lon="6.49919">
        <ele>487.6</ele>
        <time>2024-05-26T10:36:12.000Z</time>
      </trkpt>
      <trkpt lat="43.18212" lon="6.49919">
        <ele>487.6</ele>
        <time>2024-05-26T10:36:13.000Z</time>
      </trkpt>
      <trkpt lat="43.18212" lon="6.49919">
        <ele>487.6</ele>
        <time>2024-05-26T10:36:20.000Z</time>
      </trkpt>
      <trkpt lat="43.18212" lon="6.49919">
        <ele>487.6</ele>
        <time>2024-05-26T10:36:21.000Z</time>
      </trkpt>
      <trkpt lat="43.18212" lon="6.49919">
        <ele>487.6</ele>
        <time>2024-05-26T10:36:24.000Z</time>
      </trkpt>
      <trkpt lat="43.18212" lon="6.49919">
        <ele>487.6</ele>
        <time>2024-05-26T10:36:25.000Z</time>
      </trkpt>
      <trkpt lat="43.18212" lon="6.49919">
        <ele>487.6</ele>
        <time>2024-05-26T10:36:26.000Z</time>
      </trkpt>
      <trkpt lat="43.18212" lon="6.49919">
        <ele>487.6</ele>
        <time>2024-05-26T10:37:24.000Z</time>
      </trkpt>
      <trkpt lat="43.18212" lon="6.49919">
        <ele>487.6</ele>
        <time>2024-05-26T10:37:25.000Z</time>
      </trkpt>
      <trkpt lat="43.18212" lon="6.49919">
        <ele>487.6</ele>
        <time>2024-05-26T10:37:26.000Z</time>
      </trkpt>
      <trkpt lat="43.18212" lon="6.49919">
        <ele>487.6</ele>
        <time>2024-05-26T10:37:27.000Z</time>
      </trkpt>
      <trkpt lat="43.18212" lon="6.49919">
        <ele>487.6</ele>
        <time>2024-05-26T10:37:28.000Z</time>
      </trkpt>
      <trkpt lat="43.18212" lon="6.49919">
        <ele>487.6</ele>
        <time>2024-05-26T10:40:27.000Z</time>
      </trkpt>
      <trkpt lat="43.18212" lon="6.49919">
        <ele>487.6</ele>
        <time>2024-05-26T10:40:28.000Z</time>
      </trkpt>
      <trkpt lat="43.18212" lon="6.49919">
        <ele>487.6</ele>
        <time>2024-05-26T10:40:29.000Z</time>
      </trkpt>
      <trkpt lat="43.18212" lon="6.49919">
        <ele>487.6</ele>
        <time>2024-05-26T10:40:30.000Z</time>
      </trkpt>
      <trkpt lat="43.18212" lon="6.49919">
        <ele>487.6</ele>
        <time>2024-05-26T10:40:31.000Z</time>
      </trkpt>
      <trkpt lat="43.18212" lon="6.49919">
        <ele>487.6</ele>
        <time>2024-05-26T10:41:56.000Z</time>
      </trkpt>
      <trkpt lat="43.18212" lon="6.49919">
        <ele>487.6</ele>
        <time>2024-05-26T10:41:57.000Z</time>
      </trkpt>
      <trkpt lat="43.18212" lon="6.49919">
        <ele>487.6</ele>
        <time>2024-05-26T10:41:58.000Z</time>
      </trkpt>
      <trkpt lat="43.18212" lon="6.49919">
        <ele>487.6</ele>
        <time>2024-05-26T10:41:59.000Z</time>
      </trkpt>
      <trkpt lat="43.18212" lon="6.49919">
        <ele>487.6</ele>
        <time>2024-05-26T10:42:00.000Z</time>
      </trkpt>
      <trkpt lat="43.18212" lon="6.49919">
        <ele>487.6</ele>
        <time>2024-05-26T10:42:01.000Z</time>
      </trkpt>
      <trkpt lat="43.18212" lon="6.49919">
        <ele>487.6</ele>
        <time>2024-05-26T10:42:06.000Z</time>
      </trkpt>
      <trkpt lat="43.18212" lon="6.49919">
        <ele>487.6</ele>
        <time>2024-05-26T10:42:07.000Z</time>
      </trkpt>
      <trkpt lat="43.18212" lon="6.49919">
        <ele>487.6</ele>
        <time>2024-05-26T10:42:08.000Z</time>
      </trkpt>
      <trkpt lat="43.18212" lon="6.49919">
        <ele>487.6</ele>
        <time>2024-05-26T10:42:09.000Z</time>
      </trkpt>
      <trkpt lat="43.18212" lon="6.49919">
        <ele>487.6</ele>
        <time>2024-05-26T10:42:10.000Z</time>
      </trkpt>
      <trkpt lat="43.18212" lon="6.49919">
        <ele>487.6</ele>
        <time>2024-05-26T10:42:11.000Z</time>
      </trkpt>
      <trkpt lat="43.18212" lon="6.49919">
        <ele>487.8</ele>
        <time>2024-05-26T10:42:56.000Z</time>
      </trkpt>
      <trkpt lat="43.18212" lon="6.49919">
        <ele>487.8</ele>
        <time>2024-05-26T10:42:57.000Z</time>
      </trkpt>
      <trkpt lat="43.18212" lon="6.49919">
        <ele>487.8</ele>
        <time>2024-05-26T10:42:58.000Z</time>
      </trkpt>
      <trkpt lat="43.18212" lon="6.49919">
        <ele>487.8</ele>
        <time>2024-05-26T10:42:59.000Z</time>
      </trkpt>
      <trkpt lat="43.18212" lon="6.49919">
        <ele>487.8</ele>
        <time>2024-05-26T10:43:00.000Z</time>
      </trkpt>
      <trkpt lat="43.18212" lon="6.49919">
        <ele>488</ele>
        <time>2024-05-26T10:46:19.000Z</time>
      </trkpt>
      <trkpt lat="43.18212" lon="6.49919">
        <ele>488</ele>
        <time>2024-05-26T10:46:20.000Z</time>
      </trkpt>
      <trkpt lat="43.18212" lon="6.49919">
        <ele>488</ele>
        <time>2024-05-26T10:46:21.000Z</time>
      </trkpt>
      <trkpt lat="43.18212" lon="6.49919">
        <ele>488</ele>
        <time>2024-05-26T10:46:22.000Z</time>
      </trkpt>
      <trkpt lat="43.18212" lon="6.49919">
        <ele>488</ele>
        <time>2024-05-26T10:46:23.000Z</time>
      </trkpt>
      <trkpt lat="43.18212" lon="6.49919">
        <ele>488</ele>
        <time>2024-05-26T10:47:14.000Z</time>
      </trkpt>
      <trkpt lat="43.18212" lon="6.49919">
        <ele>488</ele>
        <time>2024-05-26T10:47:15.000Z</time>
      </trkpt>
      <trkpt lat="43.18212" lon="6.49919">
        <ele>488</ele>
        <time>2024-05-26T10:47:16.000Z</time>
      </trkpt>
      <trkpt lat="43.18212" lon="6.49919">
        <ele>488</ele>
        <time>2024-05-26T10:47:17.000Z</time>
      </trkpt>
      <trkpt lat="43.18212" lon="6.49919">
        <ele>488</ele>
        <time>2024-05-26T10:47:18.000Z</time>
      </trkpt>
      <trkpt lat="43.18212" lon="6.49919">
        <ele>488</ele>
        <time>2024-05-26T10:47:19.000Z</time>
      </trkpt>
      <trkpt lat="43.18212" lon="6.49919">
        <ele>488</ele>
        <time>2024-05-26T10:47:24.000Z</time>
      </trkpt>
      <trkpt lat="43.18212" lon="6.49919">
        <ele>488</ele>
        <time>2024-05-26T10:47:25.000Z</time>
      </trkpt>
      <trkpt lat="43.18212" lon="6.49919">
        <ele>488</ele>
        <time>2024-05-26T10:47:26.000Z</time>
      </trkpt>
      <trkpt lat="43.18212" lon="6.49919">
        <ele>488</ele>
        <time>2024-05-26T10:47:27.000Z</time>
      </trkpt>
      <trkpt lat="43.18212" lon="6.49919">
        <ele>488</ele>
        <time>2024-05-26T10:47:28.000Z</time>
      </trkpt>
      <trkpt lat="43.18211" lon="6.49919">
        <ele>488.1</ele>
        <time>2024-05-26T10:49:54.000Z</time>
      </trkpt>
      <trkpt lat="43.18211" lon="6.49919">
        <ele>488.1</ele>
        <time>2024-05-26T10:49:55.000Z</time>
      </trkpt>
      <trkpt lat="43.18211" lon="6.49919">
        <ele>488.1</ele>
        <time>2024-05-26T10:49:56.000Z</time>
      </trkpt>
      <trkpt lat="43.18211" lon="6.49919">
        <ele>488.1</ele>
        <time>2024-05-26T10:49:57.000Z</time>
      </trkpt>
      <trkpt lat="43.18211" lon="6.49919">
        <ele>488.1</ele>
        <time>2024-05-26T10:49:58.000Z</time>
      </trkpt>
      <trkpt lat="43.18211" lon="6.49919">
        <ele>488.1</ele>
        <time>2024-05-26T10:50:01.000Z</time>
      </trkpt>
      <trkpt lat="43.18211" lon="6.49919">
        <ele>488.1</ele>
        <time>2024-05-26T10:50:02.000Z</time>
      </trkpt>
      <trkpt lat="43.18211" lon="6.49919">
        <ele>488.1</ele>
        <time>2024-05-26T10:50:03.000Z</time>
      </trkpt>
      <trkpt lat="43.18212" lon="6.49919">
        <ele>488.1</ele>
        <time>2024-05-26T10:50:11.000Z</time>
      </trkpt>
      <trkpt lat="43.18212" lon="6.49919">
        <ele>488.1</ele>
        <time>2024-05-26T10:50:12.000Z</time>
      </trkpt>
      <trkpt lat="43.18212" lon="6.49919">
        <ele>488.1</ele>
        <time>2024-05-26T10:50:13.000Z</time>
      </trkpt>
      <trkpt lat="43.18211" lon="6.4992">
        <ele>488.2</ele>
        <time>2024-05-26T10:50:22.000Z</time>
      </trkpt>
      <trkpt lat="43.18211" lon="6.4992">
        <ele>488.2</ele>
        <time>2024-05-26T10:50:23.000Z</time>
      </trkpt>
      <trkpt lat="43.18211" lon="6.49921">
        <ele>488.2</ele>
        <time>2024-05-26T10:50:24.000Z</time>
      </trkpt>
      <trkpt lat="43.18212" lon="6.49924">
        <ele>488.5</ele>
        <time>2024-05-26T10:50:37.000Z</time>
      </trkpt>
      <trkpt lat="43.18212" lon="6.49924">
        <ele>488.5</ele>
        <time>2024-05-26T10:50:38.000Z</time>
      </trkpt>
      <trkpt lat="43.18212" lon="6.49923">
        <ele>488.5</ele>
        <time>2024-05-26T10:50:39.000Z</time>
      </trkpt>
      <trkpt lat="43.18212" lon="6.49923">
        <ele>488.6</ele>
        <time>2024-05-26T10:50:40.000Z</time>
      </trkpt>
      <trkpt lat="43.18212" lon="6.49923">
        <ele>488.6</ele>
        <time>2024-05-26T10:50:41.000Z</time>
      </trkpt>
      <trkpt lat="43.18212" lon="6.49922">
        <ele>488.8</ele>
        <time>2024-05-26T10:50:46.000Z</time>
      </trkpt>
      <trkpt lat="43.18212" lon="6.49922">
        <ele>488.8</ele>
        <time>2024-05-26T10:50:47.000Z</time>
      </trkpt>
      <trkpt lat="43.18212" lon="6.49922">
        <ele>488.8</ele>
        <time>2024-05-26T10:50:48.000Z</time>
      </trkpt>
      <trkpt lat="43.18212" lon="6.49921">
        <ele>488.9</ele>
        <time>2024-05-26T10:50:49.000Z</time>
      </trkpt>
      <trkpt lat="43.18213" lon="6.49921">
        <ele>488.9</ele>
        <time>2024-05-26T10:50:50.000Z</time>
      </trkpt>
      <trkpt lat="43.18213" lon="6.4992">
        <ele>489.1</ele>
        <time>2024-05-26T10:51:01.000Z</time>
      </trkpt>
      <trkpt lat="43.18213" lon="6.4992">
        <ele>489.2</ele>
        <time>2024-05-26T10:51:02.000Z</time>
      </trkpt>
      <trkpt lat="43.18213" lon="6.4992">
        <ele>489.2</ele>
        <time>2024-05-26T10:51:03.000Z</time>
      </trkpt>
      <trkpt lat="43.18213" lon="6.4992">
        <ele>489.4</ele>
        <time>2024-05-26T10:51:11.000Z</time>
      </trkpt>
      <trkpt lat="43.18213" lon="6.4992">
        <ele>489.4</ele>
        <time>2024-05-26T10:51:12.000Z</time>
      </trkpt>
      <trkpt lat="43.18213" lon="6.4992">
        <ele>489.4</ele>
        <time>2024-05-26T10:51:13.000Z</time>
      </trkpt>
      <trkpt lat="43.18213" lon="6.49919">
        <ele>489.4</ele>
        <time>2024-05-26T10:51:21.000Z</time>
      </trkpt>
      <trkpt lat="43.18213" lon="6.49919">
        <ele>489.4</ele>
        <time>2024-05-26T10:51:22.000Z</time>
      </trkpt>
      <trkpt lat="43.18213" lon="6.49919">
        <ele>489.4</ele>
        <time>2024-05-26T10:51:23.000Z</time>
      </trkpt>
      <trkpt lat="43.18213" lon="6.49918">
        <ele>489.4</ele>
        <time>2024-05-26T10:51:24.000Z</time>
      </trkpt>
      <trkpt lat="43.18213" lon="6.49918">
        <ele>489.4</ele>
        <time>2024-05-26T10:51:25.000Z</time>
      </trkpt>
      <trkpt lat="43.18213" lon="6.49918">
        <ele>489.4</ele>
        <time>2024-05-26T10:51:26.000Z</time>
      </trkpt>
      <trkpt lat="43.18213" lon="6.49918">
        <ele>489.4</ele>
        <time>2024-05-26T10:51:27.000Z</time>
      </trkpt>
      <trkpt lat="43.18213" lon="6.49918">
        <ele>489.4</ele>
        <time>2024-05-26T10:51:28.000Z</time>
      </trkpt>
      <trkpt lat="43.18213" lon="6.49918">
        <ele>489.4</ele>
        <time>2024-05-26T10:51:31.000Z</time>
      </trkpt>
      <trkpt lat="43.18213" lon="6.49918">
        <ele>489.4</ele>
        <time>2024-05-26T10:51:32.000Z</time>
      </trkpt>
      <trkpt lat="43.18213" lon="6.49918">
        <ele>489.4</ele>
        <time>2024-05-26T10:51:33.000Z</time>
      </trkpt>
      <trkpt lat="43.18213" lon="6.49918">
        <ele>489.4</ele>
        <time>2024-05-26T10:51:37.000Z</time>
      </trkpt>
      <trkpt lat="43.18213" lon="6.49918">
        <ele>489.4</ele>
        <time>2024-05-26T10:51:38.000Z</time>
      </trkpt>
      <trkpt lat="43.18213" lon="6.49918">
        <ele>489.4</ele>
        <time>2024-05-26T10:51:39.000Z</time>
      </trkpt>
      <trkpt lat="43.18213" lon="6.49918">
        <ele>489.5</ele>
        <time>2024-05-26T10:51:42.000Z</time>
      </trkpt>
      <trkpt lat="43.18213" lon="6.49918">
        <ele>489.5</ele>
        <time>2024-05-26T10:51:43.000Z</time>
      </trkpt>
      <trkpt lat="43.18213" lon="6.49919">
        <ele>489.4</ele>
        <time>2024-05-26T10:51:51.000Z</time>
      </trkpt>
      <trkpt lat="43.18213" lon="6.49918">
        <ele>489.4</ele>
        <time>2024-05-26T10:51:52.000Z</time>
      </trkpt>
      <trkpt lat="43.18213" lon="6.49918">
        <ele>489.4</ele>
        <time>2024-05-26T10:51:53.000Z</time>
      </trkpt>
      <trkpt lat="43.18213" lon="6.49918">
        <ele>489.3</ele>
        <time>2024-05-26T10:51:54.000Z</time>
      </trkpt>
      <trkpt lat="43.18213" lon="6.49918">
        <ele>489.3</ele>
        <time>2024-05-26T10:51:55.000Z</time>
      </trkpt>
      <trkpt lat="43.18212" lon="6.49918">
        <ele>489.1</ele>
        <time>2024-05-26T10:52:11.000Z</time>
      </trkpt>
      <trkpt lat="43.18212" lon="6.49918">
        <ele>489</ele>
        <time>2024-05-26T10:52:12.000Z</time>
      </trkpt>
      <trkpt lat="43.18212" lon="6.49918">
        <ele>489</ele>
        <time>2024-05-26T10:52:13.000Z</time>
      </trkpt>
      <trkpt lat="43.18212" lon="6.49918">
        <ele>488.6</ele>
        <time>2024-05-26T10:53:17.000Z</time>
      </trkpt>
      <trkpt lat="43.18212" lon="6.49918">
        <ele>488.6</ele>
        <time>2024-05-26T10:53:18.000Z</time>
      </trkpt>
      <trkpt lat="43.18212" lon="6.49918">
        <ele>488.6</ele>
        <time>2024-05-26T10:53:19.000Z</time>
      </trkpt>
      <trkpt lat="43.18212" lon="6.49918">
        <ele>488.6</ele>
        <time>2024-05-26T10:53:24.000Z</time>
      </trkpt>
      <trkpt lat="43.18212" lon="6.49918">
        <ele>488.6</ele>
        <time>2024-05-26T10:53:25.000Z</time>
      </trkpt>
      <trkpt lat="43.18212" lon="6.49918">
        <ele>488.6</ele>
        <time>2024-05-26T10:53:26.000Z</time>
      </trkpt>
      <trkpt lat="43.18212" lon="6.49918">
        <ele>488.6</ele>
        <time>2024-05-26T10:53:27.000Z</time>
      </trkpt>
      <trkpt lat="43.18212" lon="6.49918">
        <ele>488.6</ele>
        <time>2024-05-26T10:53:28.000Z</time>
      </trkpt>
      <trkpt lat="43.18212" lon="6.49918">
        <ele>488.6</ele>
        <time>2024-05-26T10:53:29.000Z</time>
      </trkpt>
      <trkpt lat="43.18212" lon="6.49918">
        <ele>488.6</ele>
        <time>2024-05-26T10:53:30.000Z</time>
      </trkpt>
      <trkpt lat="43.18212" lon="6.49918">
        <ele>488.7</ele>
        <time>2024-05-26T10:56:57.000Z</time>
      </trkpt>
      <trkpt lat="43.18212" lon="6.49918">
        <ele>488.7</ele>
        <time>2024-05-26T10:56:58.000Z</time>
      </trkpt>
      <trkpt lat="43.18212" lon="6.49918">
        <ele>488.8</ele>
        <time>2024-05-26T10:56:59.000Z</time>
      </trkpt>
      <trkpt lat="43.18212" lon="6.49918">
        <ele>488.8</ele>
        <time>2024-05-26T10:57:00.000Z</time>
      </trkpt>
      <trkpt lat="43.18212" lon="6.49918">
        <ele>488.8</ele>
        <time>2024-05-26T10:57:04.000Z</time>
      </trkpt>
      <trkpt lat="43.18212" lon="6.49918">
        <ele>488.8</ele>
        <time>2024-05-26T10:57:05.000Z</time>
      </trkpt>
      <trkpt lat="43.18212" lon="6.49918">
        <ele>488.8</ele>
        <time>2024-05-26T10:57:06.000Z</time>
      </trkpt>
      <trkpt lat="43.18212" lon="6.49918">
        <ele>488.8</ele>
        <time>2024-05-26T10:57:07.000Z</time>
      </trkpt>
      <trkpt lat="43.18212" lon="6.49918">
        <ele>488.8</ele>
        <time>2024-05-26T10:57:08.000Z</time>
      </trkpt>
      <trkpt lat="43.18212" lon="6.49918">
        <ele>488.8</ele>
        <time>2024-05-26T10:57:24.000Z</time>
      </trkpt>
      <trkpt lat="43.18212" lon="6.49918">
        <ele>488.8</ele>
        <time>2024-05-26T10:57:25.000Z</time>
      </trkpt>
      <trkpt lat="43.18212" lon="6.49918">
        <ele>488.8</ele>
        <time>2024-05-26T10:57:26.000Z</time>
      </trkpt>
      <trkpt lat="43.18212" lon="6.49918">
        <ele>488.8</ele>
        <time>2024-05-26T10:57:27.000Z</time>
      </trkpt>
      <trkpt lat="43.18212" lon="6.49918">
        <ele>488.8</ele>
        <time>2024-05-26T10:57:28.000Z</time>
      </trkpt>
      <trkpt lat="43.18212" lon="6.49917">
        <ele>488.7</ele>
        <time>2024-05-26T10:59:22.000Z</time>
      </trkpt>
      <trkpt lat="43.18212" lon="6.49917">
        <ele>488.7</ele>
        <time>2024-05-26T10:59:23.000Z</time>
      </trkpt>
      <trkpt lat="43.18212" lon="6.49917">
        <ele>488.7</ele>
        <time>2024-05-26T10:59:24.000Z</time>
      </trkpt>
      <trkpt lat="43.18212" lon="6.49917">
        <ele>488.7</ele>
        <time>2024-05-26T10:59:25.000Z</time>
      </trkpt>
      <trkpt lat="43.18212" lon="6.49917">
        <ele>488.7</ele>
        <time>2024-05-26T10:59:26.000Z</time>
      </trkpt>
      <trkpt lat="43.18211" lon="6.49918">
        <ele>488.9</ele>
        <time>2024-05-26T11:03:15.000Z</time>
      </trkpt>
      <trkpt lat="43.1821" lon="6.49919">
        <ele>488.9</ele>
        <time>2024-05-26T11:03:16.000Z</time>
      </trkpt>
      <trkpt lat="43.18211" lon="6.49919">
        <ele>489.3</ele>
        <time>2024-05-26T11:03:24.000Z</time>
      </trkpt>
      <trkpt lat="43.18211" lon="6.49918">
        <ele>489.4</ele>
        <time>2024-05-26T11:04:16.000Z</time>
      </trkpt>
      <trkpt lat="43.18211" lon="6.49919">
        <ele>489.4</ele>
        <time>2024-05-26T11:04:17.000Z</time>
      </trkpt>
      <trkpt lat="43.1821" lon="6.49919">
        <ele>489.3</ele>
        <time>2024-05-26T11:04:18.000Z</time>
      </trkpt>
      <trkpt lat="43.18211" lon="6.49919">
        <ele>489.3</ele>
        <time>2024-05-26T11:04:19.000Z</time>
      </trkpt>
      <trkpt lat="43.1821" lon="6.49919">
        <ele>489.3</ele>
        <time>2024-05-26T11:04:20.000Z</time>
      </trkpt>
      <trkpt lat="43.1821" lon="6.49919">
        <ele>489.3</ele>
        <time>2024-05-26T11:04:21.000Z</time>
      </trkpt>
      <trkpt lat="43.1821" lon="6.49919">
        <ele>489.3</ele>
        <time>2024-05-26T11:04:22.000Z</time>
      </trkpt>
      <trkpt lat="43.1821" lon="6.49919">
        <ele>489.4</ele>
        <time>2024-05-26T11:04:23.000Z</time>
      </trkpt>
      <trkpt lat="43.1821" lon="6.49919">
        <ele>489.4</ele>
        <time>2024-05-26T11:04:24.000Z</time>
      </trkpt>
      <trkpt lat="43.1821" lon="6.49919">
        <ele>489.4</ele>
        <time>2024-05-26T11:04:25.000Z</time>
      </trkpt>
      <trkpt lat="43.18209" lon="6.49918">
        <ele>489.3</ele>
        <time>2024-05-26T11:05:07.000Z</time>
      </trkpt>
      <trkpt lat="43.18209" lon="6.49918">
        <ele>489.3</ele>
        <time>2024-05-26T11:05:08.000Z</time>
      </trkpt>
      <trkpt lat="43.18209" lon="6.49918">
        <ele>489.3</ele>
        <time>2024-05-26T11:05:11.000Z</time>
      </trkpt>
      <trkpt lat="43.18209" lon="6.49918">
        <ele>489.3</ele>
        <time>2024-05-26T11:05:12.000Z</time>
      </trkpt>
      <trkpt lat="43.18209" lon="6.49918">
        <ele>489.3</ele>
        <time>2024-05-26T11:05:13.000Z</time>
      </trkpt>
      <trkpt lat="43.18209" lon="6.49918">
        <ele>489.3</ele>
        <time>2024-05-26T11:05:19.000Z</time>
      </trkpt>
      <trkpt lat="43.18209" lon="6.49918">
        <ele>489.3</ele>
        <time>2024-05-26T11:05:20.000Z</time>
      </trkpt>
      <trkpt lat="43.18209" lon="6.49918">
        <ele>489.3</ele>
        <time>2024-05-26T11:05:21.000Z</time>
      </trkpt>
      <trkpt lat="43.18209" lon="6.49918">
        <ele>489.3</ele>
        <time>2024-05-26T11:05:22.000Z</time>
      </trkpt>
      <trkpt lat="43.18209" lon="6.49918">
        <ele>489.3</ele>
        <time>2024-05-26T11:05:23.000Z</time>
      </trkpt>
      <trkpt lat="43.18209" lon="6.49918">
        <ele>489.3</ele>
        <time>2024-05-26T11:05:29.000Z</time>
      </trkpt>
      <trkpt lat="43.18209" lon="6.49918">
        <ele>489.3</ele>
        <time>2024-05-26T11:05:30.000Z</time>
      </trkpt>
      <trkpt lat="43.18209" lon="6.49918">
        <ele>489.3</ele>
        <time>2024-05-26T11:05:31.000Z</time>
      </trkpt>
      <trkpt lat="43.18209" lon="6.49918">
        <ele>489.3</ele>
        <time>2024-05-26T11:05:32.000Z</time>
      </trkpt>
      <trkpt lat="43.18209" lon="6.49918">
        <ele>489.3</ele>
        <time>2024-05-26T11:05:33.000Z</time>
      </trkpt>
      <trkpt lat="43.1821" lon="6.49919">
        <ele>489.3</ele>
        <time>2024-05-26T11:06:14.000Z</time>
      </trkpt>
      <trkpt lat="43.1821" lon="6.49919">
        <ele>489.3</ele>
        <time>2024-05-26T11:06:15.000Z</time>
      </trkpt>
      <trkpt lat="43.1821" lon="6.49919">
        <ele>489.3</ele>
        <time>2024-05-26T11:06:16.000Z</time>
      </trkpt>
      <trkpt lat="43.1821" lon="6.49919">
        <ele>489.3</ele>
        <time>2024-05-26T11:06:20.000Z</time>
      </trkpt>
      <trkpt lat="43.1821" lon="6.49919">
        <ele>489.3</ele>
        <time>2024-05-26T11:06:21.000Z</time>
      </trkpt>
      <trkpt lat="43.1821" lon="6.49919">
        <ele>489.3</ele>
        <time>2024-05-26T11:06:27.000Z</time>
      </trkpt>
      <trkpt lat="43.1821" lon="6.49919">
        <ele>489.2</ele>
        <time>2024-05-26T11:06:28.000Z</time>
      </trkpt>
      <trkpt lat="43.1821" lon="6.49918">
        <ele>489.2</ele>
        <time>2024-05-26T11:06:34.000Z</time>
      </trkpt>
      <trkpt lat="43.1821" lon="6.49918">
        <ele>489.2</ele>
        <time>2024-05-26T11:06:35.000Z</time>
      </trkpt>
      <trkpt lat="43.1821" lon="6.49918">
        <ele>489.2</ele>
        <time>2024-05-26T11:06:36.000Z</time>
      </trkpt>
      <trkpt lat="43.1821" lon="6.49918">
        <ele>489.2</ele>
        <time>2024-05-26T11:06:37.000Z</time>
      </trkpt>
      <trkpt lat="43.1821" lon="6.49918">
        <ele>489.2</ele>
        <time>2024-05-26T11:06:38.000Z</time>
      </trkpt>
      <trkpt lat="43.1821" lon="6.49918">
        <ele>489.2</ele>
        <time>2024-05-26T11:06:39.000Z</time>
      </trkpt>
      <trkpt lat="43.1821" lon="6.49918">
        <ele>489.2</ele>
        <time>2024-05-26T11:06:40.000Z</time>
      </trkpt>
      <trkpt lat="43.1821" lon="6.49918">
        <ele>489.1</ele>
        <time>2024-05-26T11:07:11.000Z</time>
      </trkpt>
      <trkpt lat="43.1821" lon="6.49918">
        <ele>489.1</ele>
        <time>2024-05-26T11:07:12.000Z</time>
      </trkpt>
      <trkpt lat="43.1821" lon="6.49918">
        <ele>489.1</ele>
        <time>2024-05-26T11:07:13.000Z</time>
      </trkpt>
      <trkpt lat="43.1821" lon="6.49918">
        <ele>489.1</ele>
        <time>2024-05-26T11:07:14.000Z</time>
      </trkpt>
      <trkpt lat="43.1821" lon="6.49918">
        <ele>489.1</ele>
        <time>2024-05-26T11:07:15.000Z</time>
      </trkpt>
      <trkpt lat="43.1821" lon="6.49918">
        <ele>489.1</ele>
        <time>2024-05-26T11:07:16.000Z</time>
      </trkpt>
      <trkpt lat="43.1821" lon="6.49918">
        <ele>489.1</ele>
        <time>2024-05-26T11:07:17.000Z</time>
      </trkpt>
      <trkpt lat="43.1821" lon="6.49918">
        <ele>489.1</ele>
        <time>2024-05-26T11:07:18.000Z</time>
      </trkpt>
      <trkpt lat="43.1821" lon="6.49918">
        <ele>489.1</ele>
        <time>2024-05-26T11:07:19.000Z</time>
      </trkpt>
      <trkpt lat="43.1821" lon="6.49918">
        <ele>489.1</ele>
        <time>2024-05-26T11:07:20.000Z</time>
      </trkpt>
      <trkpt lat="43.1821" lon="6.49918">
        <ele>489.1</ele>
        <time>2024-05-26T11:07:21.000Z</time>
      </trkpt>
      <trkpt lat="43.1821" lon="6.49919">
        <ele>489.3</ele>
        <time>2024-05-26T11:08:04.000Z</time>
      </trkpt>
      <trkpt lat="43.1821" lon="6.49919">
        <ele>489.3</ele>
        <time>2024-05-26T11:08:05.000Z</time>
      </trkpt>
      <trkpt lat="43.18208" lon="6.4992">
        <ele>489.3</ele>
        <time>2024-05-26T11:08:09.000Z</time>
      </trkpt>
      <trkpt lat="43.18208" lon="6.49921">
        <ele>489.3</ele>
        <time>2024-05-26T11:08:10.000Z</time>
      </trkpt>
      <trkpt lat="43.18208" lon="6.49922">
        <ele>489.3</ele>
        <time>2024-05-26T11:08:17.000Z</time>
      </trkpt>
      <trkpt lat="43.18209" lon="6.49921">
        <ele>489.3</ele>
        <time>2024-05-26T11:08:18.000Z</time>
      </trkpt>
      <trkpt lat="43.18209" lon="6.49921">
        <ele>489.3</ele>
        <time>2024-05-26T11:08:19.000Z</time>
      </trkpt>
      <trkpt lat="43.18209" lon="6.49921">
        <ele>489.3</ele>
        <time>2024-05-26T11:08:20.000Z</time>
      </trkpt>
      <trkpt lat="43.18209" lon="6.49921">
        <ele>489.1</ele>
        <time>2024-05-26T11:10:34.000Z</time>
      </trkpt>
      <trkpt lat="43.18209" lon="6.49921">
        <ele>489.1</ele>
        <time>2024-05-26T11:10:35.000Z</time>
      </trkpt>
      <trkpt lat="43.18209" lon="6.49921">
        <ele>489.1</ele>
        <time>2024-05-26T11:10:36.000Z</time>
      </trkpt>
      <trkpt lat="43.18209" lon="6.49921">
        <ele>489.1</ele>
        <time>2024-05-26T11:10:37.000Z</time>
      </trkpt>
      <trkpt lat="43.18209" lon="6.49921">
        <ele>489.1</ele>
        <time>2024-05-26T11:10:38.000Z</time>
      </trkpt>
      <trkpt lat="43.1821" lon="6.49921">
        <ele>489.1</ele>
        <time>2024-05-26T11:11:36.000Z</time>
      </trkpt>
      <trkpt lat="43.1821" lon="6.49921">
        <ele>489.1</ele>
        <time>2024-05-26T11:11:37.000Z</time>
      </trkpt>
      <trkpt lat="43.1821" lon="6.4992">
        <ele>489.1</ele>
        <time>2024-05-26T11:11:38.000Z</time>
      </trkpt>
      <trkpt lat="43.1821" lon="6.4992">
        <ele>489.1</ele>
        <time>2024-05-26T11:11:39.000Z</time>
      </trkpt>
      <trkpt lat="43.1821" lon="6.4992">
        <ele>489.1</ele>
        <time>2024-05-26T11:11:40.000Z</time>
      </trkpt>
      <trkpt lat="43.1821" lon="6.4992">
        <ele>489</ele>
        <time>2024-05-26T11:11:44.000Z</time>
      </trkpt>
      <trkpt lat="43.1821" lon="6.4992">
        <ele>489</ele>
        <time>2024-05-26T11:11:45.000Z</time>
      </trkpt>
      <trkpt lat="43.1821" lon="6.4992">
        <ele>489</ele>
        <time>2024-05-26T11:11:46.000Z</time>
      </trkpt>
      <trkpt lat="43.1821" lon="6.4992">
        <ele>489</ele>
        <time>2024-05-26T11:11:47.000Z</time>
      </trkpt>
      <trkpt lat="43.1821" lon="6.4992">
        <ele>489</ele>
        <time>2024-05-26T11:11:48.000Z</time>
      </trkpt>
      <trkpt lat="43.1821" lon="6.49919">
        <ele>489</ele>
        <time>2024-05-26T11:11:49.000Z</time>
      </trkpt>
      <trkpt lat="43.18211" lon="6.49919">
        <ele>489.1</ele>
        <time>2024-05-26T11:11:50.000Z</time>
      </trkpt>
      <trkpt lat="43.18211" lon="6.4992">
        <ele>489.3</ele>
        <time>2024-05-26T11:11:53.000Z</time>
      </trkpt>
      <trkpt lat="43.18211" lon="6.4992">
        <ele>489.3</ele>
        <time>2024-05-26T11:11:54.000Z</time>
      </trkpt>
      <trkpt lat="43.18211" lon="6.49919">
        <ele>489.6</ele>
        <time>2024-05-26T11:12:32.000Z</time>
      </trkpt>
      <trkpt lat="43.18211" lon="6.49919">
        <ele>489.6</ele>
        <time>2024-05-26T11:12:34.000Z</time>
      </trkpt>
      <trkpt lat="43.18211" lon="6.49919">
        <ele>489.3</ele>
        <time>2024-05-26T11:14:20.000Z</time>
      </trkpt>
      <trkpt lat="43.18211" lon="6.49919">
        <ele>489.3</ele>
        <time>2024-05-26T11:14:21.000Z</time>
      </trkpt>
      <trkpt lat="43.18211" lon="6.49919">
        <ele>489.3</ele>
        <time>2024-05-26T11:14:22.000Z</time>
      </trkpt>
      <trkpt lat="43.18211" lon="6.49919">
        <ele>489.3</ele>
        <time>2024-05-26T11:14:23.000Z</time>
      </trkpt>
      <trkpt lat="43.18211" lon="6.49919">
        <ele>489.3</ele>
        <time>2024-05-26T11:14:24.000Z</time>
      </trkpt>
      <trkpt lat="43.18211" lon="6.49919">
        <ele>489.2</ele>
        <time>2024-05-26T11:14:57.000Z</time>
      </trkpt>
      <trkpt lat="43.18211" lon="6.49919">
        <ele>489.2</ele>
        <time>2024-05-26T11:14:58.000Z</time>
      </trkpt>
      <trkpt lat="43.18212" lon="6.4992">
        <ele>489.2</ele>
        <time>2024-05-26T11:15:05.000Z</time>
      </trkpt>
      <trkpt lat="43.18212" lon="6.4992">
        <ele>489.2</ele>
        <time>2024-05-26T11:15:06.000Z</time>
      </trkpt>
      <trkpt lat="43.18212" lon="6.4992">
        <ele>489.1</ele>
        <time>2024-05-26T11:15:19.000Z</time>
      </trkpt>
      <trkpt lat="43.18212" lon="6.4992">
        <ele>489.1</ele>
        <time>2024-05-26T11:15:20.000Z</time>
      </trkpt>
      <trkpt lat="43.18212" lon="6.4992">
        <ele>489.1</ele>
        <time>2024-05-26T11:15:21.000Z</time>
      </trkpt>
      <trkpt lat="43.18212" lon="6.4992">
        <ele>489.1</ele>
        <time>2024-05-26T11:15:22.000Z</time>
      </trkpt>
      <trkpt lat="43.18212" lon="6.4992">
        <ele>489.1</ele>
        <time>2024-05-26T11:15:23.000Z</time>
      </trkpt>
      <trkpt lat="43.18212" lon="6.4992">
        <ele>488.9</ele>
        <time>2024-05-26T11:17:00.000Z</time>
      </trkpt>
      <trkpt lat="43.18212" lon="6.4992">
        <ele>488.9</ele>
        <time>2024-05-26T11:17:01.000Z</time>
      </trkpt>
      <trkpt lat="43.18212" lon="6.4992">
        <ele>488.9</ele>
        <time>2024-05-26T11:17:02.000Z</time>
      </trkpt>
      <trkpt lat="43.18212" lon="6.4992">
        <ele>488.9</ele>
        <time>2024-05-26T11:17:03.000Z</time>
      </trkpt>
      <trkpt lat="43.18212" lon="6.4992">
        <ele>488.9</ele>
        <time>2024-05-26T11:17:26.000Z</time>
      </trkpt>
      <trkpt lat="43.18212" lon="6.4992">
        <ele>488.9</ele>
        <time>2024-05-26T11:17:27.000Z</time>
      </trkpt>
      <trkpt lat="43.18212" lon="6.4992">
        <ele>488.9</ele>
        <time>2024-05-26T11:17:28.000Z</time>
      </trkpt>
      <trkpt lat="43.18212" lon="6.49919">
        <ele>488.9</ele>
        <time>2024-05-26T11:17:29.000Z</time>
      </trkpt>
      <trkpt lat="43.18212" lon="6.49919">
        <ele>488.8</ele>
        <time>2024-05-26T11:17:30.000Z</time>
      </trkpt>
      <trkpt lat="43.18211" lon="6.49919">
        <ele>488.7</ele>
        <time>2024-05-26T11:17:31.000Z</time>
      </trkpt>
      <trkpt lat="43.18211" lon="6.49919">
        <ele>488.7</ele>
        <time>2024-05-26T11:17:32.000Z</time>
      </trkpt>
      <trkpt lat="43.18212" lon="6.49918">
        <ele>488.9</ele>
        <time>2024-05-26T11:17:33.000Z</time>
      </trkpt>
      <trkpt lat="43.18212" lon="6.49918">
        <ele>489.1</ele>
        <time>2024-05-26T11:17:36.000Z</time>
      </trkpt>
      <trkpt lat="43.18212" lon="6.49918">
        <ele>489.1</ele>
        <time>2024-05-26T11:17:37.000Z</time>
      </trkpt>
      <trkpt lat="43.18212" lon="6.49918">
        <ele>489.1</ele>
        <time>2024-05-26T11:17:38.000Z</time>
      </trkpt>
      <trkpt lat="43.18212" lon="6.49918">
        <ele>489</ele>
        <time>2024-05-26T11:17:47.000Z</time>
      </trkpt>
      <trkpt lat="43.18212" lon="6.49918">
        <ele>489</ele>
        <time>2024-05-26T11:17:48.000Z</time>
      </trkpt>
      <trkpt lat="43.18212" lon="6.49918">
        <ele>489</ele>
        <time>2024-05-26T11:17:49.000Z</time>
      </trkpt>
      <trkpt lat="43.18212" lon="6.49918">
        <ele>489.1</ele>
        <time>2024-05-26T11:17:55.000Z</time>
      </trkpt>
      <trkpt lat="43.18212" lon="6.49918">
        <ele>489.1</ele>
        <time>2024-05-26T11:17:56.000Z</time>
      </trkpt>
      <trkpt lat="43.18212" lon="6.49918">
        <ele>489.3</ele>
        <time>2024-05-26T11:18:02.000Z</time>
      </trkpt>
      <trkpt lat="43.18212" lon="6.49918">
        <ele>489.4</ele>
        <time>2024-05-26T11:18:03.000Z</time>
      </trkpt>
      <trkpt lat="43.18212" lon="6.49919">
        <ele>489.5</ele>
        <time>2024-05-26T11:18:04.000Z</time>
      </trkpt>
      <trkpt lat="43.18212" lon="6.49919">
        <ele>489.5</ele>
        <time>2024-05-26T11:18:05.000Z</time>
      </trkpt>
      <trkpt lat="43.18212" lon="6.49919">
        <ele>489.5</ele>
        <time>2024-05-26T11:18:06.000Z</time>
      </trkpt>
      <trkpt lat="43.18212" lon="6.49918">
        <ele>489.2</ele>
        <time>2024-05-26T11:20:04.000Z</time>
      </trkpt>
      <trkpt lat="43.18212" lon="6.49918">
        <ele>489.2</ele>
        <time>2024-05-26T11:20:05.000Z</time>
      </trkpt>
      <trkpt lat="43.18212" lon="6.49918">
        <ele>489.2</ele>
        <time>2024-05-26T11:20:06.000Z</time>
      </trkpt>
      <trkpt lat="43.18212" lon="6.49918">
        <ele>489.2</ele>
        <time>2024-05-26T11:20:07.000Z</time>
      </trkpt>
      <trkpt lat="43.18212" lon="6.49918">
        <ele>489.2</ele>
        <time>2024-05-26T11:20:08.000Z</time>
      </trkpt>
      <trkpt lat="43.18212" lon="6.49918">
        <ele>489.2</ele>
        <time>2024-05-26T11:20:15.000Z</time>
      </trkpt>
      <trkpt lat="43.18212" lon="6.49918">
        <ele>489.2</ele>
        <time>2024-05-26T11:20:16.000Z</time>
      </trkpt>
      <trkpt lat="43.18212" lon="6.49918">
        <ele>489.2</ele>
        <time>2024-05-26T11:20:17.000Z</time>
      </trkpt>
      <trkpt lat="43.18212" lon="6.49918">
        <ele>489.2</ele>
        <time>2024-05-26T11:20:18.000Z</time>
      </trkpt>
      <trkpt lat="43.18212" lon="6.49918">
        <ele>489.2</ele>
        <time>2024-05-26T11:20:19.000Z</time>
      </trkpt>
      <trkpt lat="43.18212" lon="6.49918">
        <ele>489.2</ele>
        <time>2024-05-26T11:20:29.000Z</time>
      </trkpt>
      <trkpt lat="43.18212" lon="6.49918">
        <ele>489.2</ele>
        <time>2024-05-26T11:20:30.000Z</time>
      </trkpt>
      <trkpt lat="43.18212" lon="6.49919">
        <ele>489.2</ele>
        <time>2024-05-26T11:20:31.000Z</time>
      </trkpt>
      <trkpt lat="43.18212" lon="6.49919">
        <ele>489.2</ele>
        <time>2024-05-26T11:20:36.000Z</time>
      </trkpt>
      <trkpt lat="43.18212" lon="6.49919">
        <ele>489.2</ele>
        <time>2024-05-26T11:20:37.000Z</time>
      </trkpt>
      <trkpt lat="43.18212" lon="6.49919">
        <ele>489.2</ele>
        <time>2024-05-26T11:20:38.000Z</time>
      </trkpt>
      <trkpt lat="43.1821" lon="6.4992">
        <ele>488.9</ele>
        <time>2024-05-26T11:21:14.000Z</time>
      </trkpt>
      <trkpt lat="43.1821" lon="6.4992">
        <ele>488.8</ele>
        <time>2024-05-26T11:21:15.000Z</time>
      </trkpt>
      <trkpt lat="43.18211" lon="6.49919">
        <ele>489</ele>
        <time>2024-05-26T11:21:41.000Z</time>
      </trkpt>
      <trkpt lat="43.18211" lon="6.49919">
        <ele>489</ele>
        <time>2024-05-26T11:21:42.000Z</time>
      </trkpt>
      <trkpt lat="43.18211" lon="6.49919">
        <ele>489</ele>
        <time>2024-05-26T11:21:43.000Z</time>
      </trkpt>
      <trkpt lat="43.18211" lon="6.49919">
        <ele>489</ele>
        <time>2024-05-26T11:21:44.000Z</time>
      </trkpt>
      <trkpt lat="43.18211" lon="6.49919">
        <ele>489</ele>
        <time>2024-05-26T11:21:45.000Z</time>
      </trkpt>
      <trkpt lat="43.18211" lon="6.49919">
        <ele>488.9</ele>
        <time>2024-05-26T11:21:46.000Z</time>
      </trkpt>
      <trkpt lat="43.18212" lon="6.49925">
        <ele>489.3</ele>
        <time>2024-05-26T11:22:06.000Z</time>
      </trkpt>
      <trkpt lat="43.18212" lon="6.49925">
        <ele>489.3</ele>
        <time>2024-05-26T11:22:07.000Z</time>
      </trkpt>
      <trkpt lat="43.18212" lon="6.49925">
        <ele>489.3</ele>
        <time>2024-05-26T11:22:08.000Z</time>
      </trkpt>
      <trkpt lat="43.18212" lon="6.49925">
        <ele>489.4</ele>
        <time>2024-05-26T11:22:12.000Z</time>
      </trkpt>
      <trkpt lat="43.18212" lon="6.49926">
        <ele>489.5</ele>
        <time>2024-05-26T11:22:13.000Z</time>
      </trkpt>
      <trkpt lat="43.18222" lon="6.49927">
        <ele>488.4</ele>
        <time>2024-05-26T11:22:34.000Z</time>
      </trkpt>
      <trkpt lat="43.18231" lon="6.49921">
        <ele>486.9</ele>
        <time>2024-05-26T11:22:57.000Z</time>
      </trkpt>
      <trkpt lat="43.18239" lon="6.49927">
        <ele>485.4</ele>
        <time>2024-05-26T11:23:09.000Z</time>
      </trkpt>
      <trkpt lat="43.18248" lon="6.49931">
        <ele>485.1</ele>
        <time>2024-05-26T11:23:18.000Z</time>
      </trkpt>
      <trkpt lat="43.18249" lon="6.49932">
        <ele>485.1</ele>
        <time>2024-05-26T11:23:24.000Z</time>
      </trkpt>
      <trkpt lat="43.18249" lon="6.49932">
        <ele>485.2</ele>
        <time>2024-05-26T11:23:25.000Z</time>
      </trkpt>
      <trkpt lat="43.18251" lon="6.49933">
        <ele>485.2</ele>
        <time>2024-05-26T11:23:26.000Z</time>
      </trkpt>
      <trkpt lat="43.18251" lon="6.49932">
        <ele>485.2</ele>
        <time>2024-05-26T11:23:27.000Z</time>
      </trkpt>
      <trkpt lat="43.18252" lon="6.49932">
        <ele>485.2</ele>
        <time>2024-05-26T11:23:28.000Z</time>
      </trkpt>
      <trkpt lat="43.18262" lon="6.49935">
        <ele>485.5</ele>
        <time>2024-05-26T11:23:37.000Z</time>
      </trkpt>
      <trkpt lat="43.18271" lon="6.49936">
        <ele>486.3</ele>
        <time>2024-05-26T11:23:46.000Z</time>
      </trkpt>
      <trkpt lat="43.18281" lon="6.49938">
        <ele>487.4</ele>
        <time>2024-05-26T11:23:56.000Z</time>
      </trkpt>
      <trkpt lat="43.18289" lon="6.4994">
        <ele>488.2</ele>
        <time>2024-05-26T11:24:06.000Z</time>
      </trkpt>
      <trkpt lat="43.18298" lon="6.49942">
        <ele>488.1</ele>
        <time>2024-05-26T11:24:15.000Z</time>
      </trkpt>
      <trkpt lat="43.18298" lon="6.49943">
        <ele>488.1</ele>
        <time>2024-05-26T11:24:17.000Z</time>
      </trkpt>
      <trkpt lat="43.18298" lon="6.49943">
        <ele>488.1</ele>
        <time>2024-05-26T11:24:18.000Z</time>
      </trkpt>
      <trkpt lat="43.18298" lon="6.49943">
        <ele>488</ele>
        <time>2024-05-26T11:24:21.000Z</time>
      </trkpt>
      <trkpt lat="43.18298" lon="6.49943">
        <ele>488</ele>
        <time>2024-05-26T11:24:22.000Z</time>
      </trkpt>
      <trkpt lat="43.18299" lon="6.49943">
        <ele>488</ele>
        <time>2024-05-26T11:24:23.000Z</time>
      </trkpt>
      <trkpt lat="43.18301" lon="6.49945">
        <ele>488</ele>
        <time>2024-05-26T11:24:30.000Z</time>
      </trkpt>
      <trkpt lat="43.18301" lon="6.49945">
        <ele>488.1</ele>
        <time>2024-05-26T11:24:31.000Z</time>
      </trkpt>
      <trkpt lat="43.18302" lon="6.49946">
        <ele>488.1</ele>
        <time>2024-05-26T11:24:36.000Z</time>
      </trkpt>
      <trkpt lat="43.18303" lon="6.49946">
        <ele>488.1</ele>
        <time>2024-05-26T11:24:37.000Z</time>
      </trkpt>
      <trkpt lat="43.18304" lon="6.49946">
        <ele>488.1</ele>
        <time>2024-05-26T11:24:38.000Z</time>
      </trkpt>
      <trkpt lat="43.18309" lon="6.49936">
        <ele>486.6</ele>
        <time>2024-05-26T11:24:58.000Z</time>
      </trkpt>
      <trkpt lat="43.18318" lon="6.49933">
        <ele>483.8</ele>
        <time>2024-05-26T11:25:13.000Z</time>
      </trkpt>
      <trkpt lat="43.18327" lon="6.49927">
        <ele>481.3</ele>
        <time>2024-05-26T11:25:28.000Z</time>
      </trkpt>
      <trkpt lat="43.18336" lon="6.49926">
        <ele>480.3</ele>
        <time>2024-05-26T11:25:37.000Z</time>
      </trkpt>
      <trkpt lat="43.18345" lon="6.49923">
        <ele>479.2</ele>
        <time>2024-05-26T11:25:47.000Z</time>
      </trkpt>
      <trkpt lat="43.18352" lon="6.49916">
        <ele>477.4</ele>
        <time>2024-05-26T11:26:02.000Z</time>
      </trkpt>
      <trkpt lat="43.18361" lon="6.49909">
        <ele>476.3</ele>
        <time>2024-05-26T11:26:12.000Z</time>
      </trkpt>
      <trkpt lat="43.18369" lon="6.49903">
        <ele>475.6</ele>
        <time>2024-05-26T11:26:24.000Z</time>
      </trkpt>
      <trkpt lat="43.18378" lon="6.49898">
        <ele>474.8</ele>
        <time>2024-05-26T11:26:32.000Z</time>
      </trkpt>
      <trkpt lat="43.18386" lon="6.49894">
        <ele>473.5</ele>
        <time>2024-05-26T11:26:41.000Z</time>
      </trkpt>
      <trkpt lat="43.18396" lon="6.4989">
        <ele>471.9</ele>
        <time>2024-05-26T11:26:54.000Z</time>
      </trkpt>
      <trkpt lat="43.18405" lon="6.4989">
        <ele>469.8</ele>
        <time>2024-05-26T11:27:07.000Z</time>
      </trkpt>
      <trkpt lat="43.18413" lon="6.49883">
        <ele>467.8</ele>
        <time>2024-05-26T11:27:26.000Z</time>
      </trkpt>
      <trkpt lat="43.18414" lon="6.4988">
        <ele>467</ele>
        <time>2024-05-26T11:27:39.000Z</time>
      </trkpt>
      <trkpt lat="43.18414" lon="6.4988">
        <ele>467</ele>
        <time>2024-05-26T11:27:40.000Z</time>
      </trkpt>
      <trkpt lat="43.18414" lon="6.4988">
        <ele>467</ele>
        <time>2024-05-26T11:27:41.000Z</time>
      </trkpt>
      <trkpt lat="43.18414" lon="6.4988">
        <ele>466.7</ele>
        <time>2024-05-26T11:27:51.000Z</time>
      </trkpt>
      <trkpt lat="43.18414" lon="6.4988">
        <ele>466.7</ele>
        <time>2024-05-26T11:27:52.000Z</time>
      </trkpt>
      <trkpt lat="43.18414" lon="6.4988">
        <ele>466.7</ele>
        <time>2024-05-26T11:27:53.000Z</time>
      </trkpt>
      <trkpt lat="43.18414" lon="6.4988">
        <ele>466.6</ele>
        <time>2024-05-26T11:27:56.000Z</time>
      </trkpt>
      <trkpt lat="43.18414" lon="6.49879">
        <ele>466.5</ele>
        <time>2024-05-26T11:27:57.000Z</time>
      </trkpt>
      <trkpt lat="43.18414" lon="6.49879">
        <ele>466.5</ele>
        <time>2024-05-26T11:27:58.000Z</time>
      </trkpt>
      <trkpt lat="43.18414" lon="6.49879">
        <ele>466.4</ele>
        <time>2024-05-26T11:28:04.000Z</time>
      </trkpt>
      <trkpt lat="43.18414" lon="6.49879">
        <ele>466.3</ele>
        <time>2024-05-26T11:28:05.000Z</time>
      </trkpt>
      <trkpt lat="43.18415" lon="6.49879">
        <ele>466.3</ele>
        <time>2024-05-26T11:28:06.000Z</time>
      </trkpt>
      <trkpt lat="43.18415" lon="6.49879">
        <ele>466.3</ele>
        <time>2024-05-26T11:28:07.000Z</time>
      </trkpt>
      <trkpt lat="43.18415" lon="6.49879">
        <ele>466.3</ele>
        <time>2024-05-26T11:28:08.000Z</time>
      </trkpt>
      <trkpt lat="43.18415" lon="6.49879">
        <ele>466.3</ele>
        <time>2024-05-26T11:28:09.000Z</time>
      </trkpt>
      <trkpt lat="43.18416" lon="6.49878">
        <ele>466.3</ele>
        <time>2024-05-26T11:28:10.000Z</time>
      </trkpt>
      <trkpt lat="43.18416" lon="6.49878">
        <ele>466.3</ele>
        <time>2024-05-26T11:28:11.000Z</time>
      </trkpt>
      <trkpt lat="43.18416" lon="6.49878">
        <ele>466.2</ele>
        <time>2024-05-26T11:28:14.000Z</time>
      </trkpt>
      <trkpt lat="43.18417" lon="6.49878">
        <ele>466.2</ele>
        <time>2024-05-26T11:28:15.000Z</time>
      </trkpt>
      <trkpt lat="43.18416" lon="6.49878">
        <ele>466.2</ele>
        <time>2024-05-26T11:28:16.000Z</time>
      </trkpt>
      <trkpt lat="43.18416" lon="6.49878">
        <ele>466.2</ele>
        <time>2024-05-26T11:28:17.000Z</time>
      </trkpt>
      <trkpt lat="43.18416" lon="6.49878">
        <ele>466.2</ele>
        <time>2024-05-26T11:28:18.000Z</time>
      </trkpt>
      <trkpt lat="43.18416" lon="6.49878">
        <ele>466.1</ele>
        <time>2024-05-26T11:28:19.000Z</time>
      </trkpt>
      <trkpt lat="43.18416" lon="6.49878">
        <ele>466.1</ele>
        <time>2024-05-26T11:28:20.000Z</time>
      </trkpt>
      <trkpt lat="43.18416" lon="6.49878">
        <ele>466.1</ele>
        <time>2024-05-26T11:28:21.000Z</time>
      </trkpt>
      <trkpt lat="43.18416" lon="6.49878">
        <ele>466.1</ele>
        <time>2024-05-26T11:28:25.000Z</time>
      </trkpt>
      <trkpt lat="43.18416" lon="6.49878">
        <ele>466</ele>
        <time>2024-05-26T11:28:26.000Z</time>
      </trkpt>
      <trkpt lat="43.18416" lon="6.49878">
        <ele>466</ele>
        <time>2024-05-26T11:28:27.000Z</time>
      </trkpt>
      <trkpt lat="43.18416" lon="6.49878">
        <ele>466</ele>
        <time>2024-05-26T11:28:28.000Z</time>
      </trkpt>
      <trkpt lat="43.18416" lon="6.49878">
        <ele>466</ele>
        <time>2024-05-26T11:28:29.000Z</time>
      </trkpt>
      <trkpt lat="43.18415" lon="6.49878">
        <ele>466</ele>
        <time>2024-05-26T11:28:30.000Z</time>
      </trkpt>
      <trkpt lat="43.18415" lon="6.49878">
        <ele>466</ele>
        <time>2024-05-26T11:28:31.000Z</time>
      </trkpt>
      <trkpt lat="43.18415" lon="6.49878">
        <ele>466</ele>
        <time>2024-05-26T11:28:32.000Z</time>
      </trkpt>
      <trkpt lat="43.18415" lon="6.49878">
        <ele>465.9</ele>
        <time>2024-05-26T11:28:33.000Z</time>
      </trkpt>
      <trkpt lat="43.18415" lon="6.49878">
        <ele>465.9</ele>
        <time>2024-05-26T11:28:34.000Z</time>
      </trkpt>
      <trkpt lat="43.18415" lon="6.49878">
        <ele>465.9</ele>
        <time>2024-05-26T11:28:39.000Z</time>
      </trkpt>
      <trkpt lat="43.18415" lon="6.49878">
        <ele>465.9</ele>
        <time>2024-05-26T11:28:40.000Z</time>
      </trkpt>
      <trkpt lat="43.18423" lon="6.49882">
        <ele>465.6</ele>
        <time>2024-05-26T11:28:57.000Z</time>
      </trkpt>
      <trkpt lat="43.18423" lon="6.49882">
        <ele>465.6</ele>
        <time>2024-05-26T11:28:58.000Z</time>
      </trkpt>
      <trkpt lat="43.18423" lon="6.49882">
        <ele>465.6</ele>
        <time>2024-05-26T11:28:59.000Z</time>
      </trkpt>
      <trkpt lat="43.18423" lon="6.49883">
        <ele>465.5</ele>
        <time>2024-05-26T11:29:06.000Z</time>
      </trkpt>
      <trkpt lat="43.18423" lon="6.49883">
        <ele>465.5</ele>
        <time>2024-05-26T11:29:07.000Z</time>
      </trkpt>
      <trkpt lat="43.18423" lon="6.49883">
        <ele>465.5</ele>
        <time>2024-05-26T11:29:08.000Z</time>
      </trkpt>
      <trkpt lat="43.18423" lon="6.49883">
        <ele>465.5</ele>
        <time>2024-05-26T11:29:09.000Z</time>
      </trkpt>
      <trkpt lat="43.18423" lon="6.49883">
        <ele>465.5</ele>
        <time>2024-05-26T11:29:10.000Z</time>
      </trkpt>
      <trkpt lat="43.18423" lon="6.49883">
        <ele>465.5</ele>
        <time>2024-05-26T11:29:11.000Z</time>
      </trkpt>
      <trkpt lat="43.18423" lon="6.49883">
        <ele>465.4</ele>
        <time>2024-05-26T11:29:19.000Z</time>
      </trkpt>
      <trkpt lat="43.18424" lon="6.49883">
        <ele>465.4</ele>
        <time>2024-05-26T11:29:20.000Z</time>
      </trkpt>
      <trkpt lat="43.18424" lon="6.49883">
        <ele>465.4</ele>
        <time>2024-05-26T11:29:21.000Z</time>
      </trkpt>
      <trkpt lat="43.18424" lon="6.49883">
        <ele>465.4</ele>
        <time>2024-05-26T11:29:22.000Z</time>
      </trkpt>
      <trkpt lat="43.18424" lon="6.49883">
        <ele>465.4</ele>
        <time>2024-05-26T11:29:23.000Z</time>
      </trkpt>
      <trkpt lat="43.18424" lon="6.49883">
        <ele>465.4</ele>
        <time>2024-05-26T11:29:24.000Z</time>
      </trkpt>
      <trkpt lat="43.18424" lon="6.49883">
        <ele>465.2</ele>
        <time>2024-05-26T11:29:34.000Z</time>
      </trkpt>
      <trkpt lat="43.18424" lon="6.49883">
        <ele>465.2</ele>
        <time>2024-05-26T11:29:35.000Z</time>
      </trkpt>
      <trkpt lat="43.18424" lon="6.49883">
        <ele>465.2</ele>
        <time>2024-05-26T11:29:36.000Z</time>
      </trkpt>
      <trkpt lat="43.18425" lon="6.49884">
        <ele>465.2</ele>
        <time>2024-05-26T11:29:42.000Z</time>
      </trkpt>
      <trkpt lat="43.18425" lon="6.49884">
        <ele>465.2</ele>
        <time>2024-05-26T11:29:43.000Z</time>
      </trkpt>
      <trkpt lat="43.18425" lon="6.49884">
        <ele>465.1</ele>
        <time>2024-05-26T11:29:56.000Z</time>
      </trkpt>
      <trkpt lat="43.18425" lon="6.49884">
        <ele>465.1</ele>
        <time>2024-05-26T11:29:57.000Z</time>
      </trkpt>
      <trkpt lat="43.18425" lon="6.49884">
        <ele>465</ele>
        <time>2024-05-26T11:29:58.000Z</time>
      </trkpt>
      <trkpt lat="43.1843" lon="6.49895">
        <ele>464.6</ele>
        <time>2024-05-26T11:30:12.000Z</time>
      </trkpt>
      <trkpt lat="43.18438" lon="6.49901">
        <ele>463.6</ele>
        <time>2024-05-26T11:30:24.000Z</time>
      </trkpt>
      <trkpt lat="43.18447" lon="6.49906">
        <ele>462.3</ele>
        <time>2024-05-26T11:30:34.000Z</time>
      </trkpt>
      <trkpt lat="43.18455" lon="6.49911">
        <ele>460.7</ele>
        <time>2024-05-26T11:30:44.000Z</time>
      </trkpt>
      <trkpt lat="43.18464" lon="6.49914">
        <ele>459.4</ele>
        <time>2024-05-26T11:30:56.000Z</time>
      </trkpt>
      <trkpt lat="43.18472" lon="6.49921">
        <ele>458</ele>
        <time>2024-05-26T11:31:07.000Z</time>
      </trkpt>
      <trkpt lat="43.18479" lon="6.4993">
        <ele>456.6</ele>
        <time>2024-05-26T11:31:19.000Z</time>
      </trkpt>
      <trkpt lat="43.18486" lon="6.49938">
        <ele>455.4</ele>
        <time>2024-05-26T11:31:30.000Z</time>
      </trkpt>
      <trkpt lat="43.18493" lon="6.49946">
        <ele>454.3</ele>
        <time>2024-05-26T11:31:40.000Z</time>
      </trkpt>
      <trkpt lat="43.185" lon="6.49955">
        <ele>453.2</ele>
        <time>2024-05-26T11:31:52.000Z</time>
      </trkpt>
      <trkpt lat="43.18507" lon="6.49961">
        <ele>452.4</ele>
        <time>2024-05-26T11:32:04.000Z</time>
      </trkpt>
      <trkpt lat="43.18507" lon="6.49961">
        <ele>452.3</ele>
        <time>2024-05-26T11:32:05.000Z</time>
      </trkpt>
      <trkpt lat="43.18508" lon="6.49962">
        <ele>452.3</ele>
        <time>2024-05-26T11:32:06.000Z</time>
      </trkpt>
      <trkpt lat="43.18508" lon="6.49962">
        <ele>452.2</ele>
        <time>2024-05-26T11:32:07.000Z</time>
      </trkpt>
      <trkpt lat="43.18509" lon="6.49964">
        <ele>452.2</ele>
        <time>2024-05-26T11:32:08.000Z</time>
      </trkpt>
      <trkpt lat="43.18514" lon="6.49971">
        <ele>451.9</ele>
        <time>2024-05-26T11:32:22.000Z</time>
      </trkpt>
      <trkpt lat="43.18514" lon="6.49971">
        <ele>451.9</ele>
        <time>2024-05-26T11:32:23.000Z</time>
      </trkpt>
      <trkpt lat="43.18513" lon="6.49971">
        <ele>451.9</ele>
        <time>2024-05-26T11:32:24.000Z</time>
      </trkpt>
      <trkpt lat="43.18513" lon="6.49972">
        <ele>451.9</ele>
        <time>2024-05-26T11:32:25.000Z</time>
      </trkpt>
      <trkpt lat="43.18513" lon="6.49975">
        <ele>451.5</ele>
        <time>2024-05-26T11:32:34.000Z</time>
      </trkpt>
      <trkpt lat="43.18513" lon="6.49975">
        <ele>451.5</ele>
        <time>2024-05-26T11:32:35.000Z</time>
      </trkpt>
      <trkpt lat="43.18513" lon="6.49975">
        <ele>451.4</ele>
        <time>2024-05-26T11:32:47.000Z</time>
      </trkpt>
      <trkpt lat="43.18513" lon="6.49975">
        <ele>451.4</ele>
        <time>2024-05-26T11:32:48.000Z</time>
      </trkpt>
      <trkpt lat="43.18519" lon="6.49986">
        <ele>451.3</ele>
        <time>2024-05-26T11:32:58.000Z</time>
      </trkpt>
      <trkpt lat="43.18523" lon="6.49997">
        <ele>451</ele>
        <time>2024-05-26T11:33:04.000Z</time>
      </trkpt>
      <trkpt lat="43.18528" lon="6.50008">
        <ele>450.6</ele>
        <time>2024-05-26T11:33:11.000Z</time>
      </trkpt>
      <trkpt lat="43.18535" lon="6.50018">
        <ele>449.8</ele>
        <time>2024-05-26T11:33:20.000Z</time>
      </trkpt>
      <trkpt lat="43.18542" lon="6.50028">
        <ele>449</ele>
        <time>2024-05-26T11:33:31.000Z</time>
      </trkpt>
      <trkpt lat="43.18546" lon="6.50039">
        <ele>448.2</ele>
        <time>2024-05-26T11:33:41.000Z</time>
      </trkpt>
      <trkpt lat="43.18553" lon="6.50048">
        <ele>447.4</ele>
        <time>2024-05-26T11:33:51.000Z</time>
      </trkpt>
      <trkpt lat="43.1856" lon="6.50055">
        <ele>446.9</ele>
        <time>2024-05-26T11:33:59.000Z</time>
      </trkpt>
      <trkpt lat="43.18569" lon="6.50061">
        <ele>446.5</ele>
        <time>2024-05-26T11:34:08.000Z</time>
      </trkpt>
      <trkpt lat="43.18576" lon="6.5007">
        <ele>446</ele>
        <time>2024-05-26T11:34:18.000Z</time>
      </trkpt>
      <trkpt lat="43.18583" lon="6.5008">
        <ele>445.5</ele>
        <time>2024-05-26T11:34:28.000Z</time>
      </trkpt>
      <trkpt lat="43.18587" lon="6.50092">
        <ele>445</ele>
        <time>2024-05-26T11:34:37.000Z</time>
      </trkpt>
      <trkpt lat="43.18588" lon="6.50105">
        <ele>444.1</ele>
        <time>2024-05-26T11:34:46.000Z</time>
      </trkpt>
      <trkpt lat="43.18589" lon="6.50117">
        <ele>443.1</ele>
        <time>2024-05-26T11:34:55.000Z</time>
      </trkpt>
      <trkpt lat="43.18594" lon="6.50129">
        <ele>441.8</ele>
        <time>2024-05-26T11:35:05.000Z</time>
      </trkpt>
      <trkpt lat="43.186" lon="6.50139">
        <ele>440.7</ele>
        <time>2024-05-26T11:35:15.000Z</time>
      </trkpt>
      <trkpt lat="43.18607" lon="6.50147">
        <ele>440</ele>
        <time>2024-05-26T11:35:24.000Z</time>
      </trkpt>
      <trkpt lat="43.18612" lon="6.50158">
        <ele>439.2</ele>
        <time>2024-05-26T11:35:35.000Z</time>
      </trkpt>
      <trkpt lat="43.18619" lon="6.50167">
        <ele>438.7</ele>
        <time>2024-05-26T11:35:43.000Z</time>
      </trkpt>
      <trkpt lat="43.18625" lon="6.50178">
        <ele>438.1</ele>
        <time>2024-05-26T11:35:52.000Z</time>
      </trkpt>
      <trkpt lat="43.18632" lon="6.50186">
        <ele>437.8</ele>
        <time>2024-05-26T11:36:00.000Z</time>
      </trkpt>
      <trkpt lat="43.18636" lon="6.50197">
        <ele>437.8</ele>
        <time>2024-05-26T11:36:08.000Z</time>
      </trkpt>
      <trkpt lat="43.18643" lon="6.50206">
        <ele>437.6</ele>
        <time>2024-05-26T11:36:17.000Z</time>
      </trkpt>
      <trkpt lat="43.18646" lon="6.50218">
        <ele>436</ele>
        <time>2024-05-26T11:36:30.000Z</time>
      </trkpt>
      <trkpt lat="43.18643" lon="6.50231">
        <ele>434.9</ele>
        <time>2024-05-26T11:36:39.000Z</time>
      </trkpt>
      <trkpt lat="43.1864" lon="6.50243">
        <ele>433.1</ele>
        <time>2024-05-26T11:36:51.000Z</time>
      </trkpt>
      <trkpt lat="43.18635" lon="6.50254">
        <ele>431.2</ele>
        <time>2024-05-26T11:37:01.000Z</time>
      </trkpt>
      <trkpt lat="43.18635" lon="6.50267">
        <ele>429.6</ele>
        <time>2024-05-26T11:37:13.000Z</time>
      </trkpt>
      <trkpt lat="43.18636" lon="6.50279">
        <ele>428.4</ele>
        <time>2024-05-26T11:37:24.000Z</time>
      </trkpt>
      <trkpt lat="43.18642" lon="6.5029">
        <ele>428.3</ele>
        <time>2024-05-26T11:37:32.000Z</time>
      </trkpt>
      <trkpt lat="43.18648" lon="6.50299">
        <ele>427.8</ele>
        <time>2024-05-26T11:37:41.000Z</time>
      </trkpt>
      <trkpt lat="43.18655" lon="6.50309">
        <ele>427.3</ele>
        <time>2024-05-26T11:37:51.000Z</time>
      </trkpt>
      <trkpt lat="43.18655" lon="6.50322">
        <ele>426.9</ele>
        <time>2024-05-26T11:38:01.000Z</time>
      </trkpt>
      <trkpt lat="43.18655" lon="6.50335">
        <ele>425.9</ele>
        <time>2024-05-26T11:38:12.000Z</time>
      </trkpt>
      <trkpt lat="43.18654" lon="6.50348">
        <ele>424.9</ele>
        <time>2024-05-26T11:38:23.000Z</time>
      </trkpt>
      <trkpt lat="43.18651" lon="6.5036">
        <ele>424</ele>
        <time>2024-05-26T11:38:34.000Z</time>
      </trkpt>
      <trkpt lat="43.18648" lon="6.50373">
        <ele>423.2</ele>
        <time>2024-05-26T11:38:44.000Z</time>
      </trkpt>
      <trkpt lat="43.18641" lon="6.50381">
        <ele>422.5</ele>
        <time>2024-05-26T11:38:53.000Z</time>
      </trkpt>
      <trkpt lat="43.18632" lon="6.50387">
        <ele>421.7</ele>
        <time>2024-05-26T11:39:04.000Z</time>
      </trkpt>
      <trkpt lat="43.18623" lon="6.50392">
        <ele>420.8</ele>
        <time>2024-05-26T11:39:12.000Z</time>
      </trkpt>
      <trkpt lat="43.18616" lon="6.50402">
        <ele>419.9</ele>
        <time>2024-05-26T11:39:21.000Z</time>
      </trkpt>
      <trkpt lat="43.18613" lon="6.50414">
        <ele>419.6</ele>
        <time>2024-05-26T11:39:30.000Z</time>
      </trkpt>
      <trkpt lat="43.18611" lon="6.50427">
        <ele>418.7</ele>
        <time>2024-05-26T11:39:39.000Z</time>
      </trkpt>
      <trkpt lat="43.18608" lon="6.5044">
        <ele>417.5</ele>
        <time>2024-05-26T11:39:48.000Z</time>
      </trkpt>
      <trkpt lat="43.18603" lon="6.50452">
        <ele>416.8</ele>
        <time>2024-05-26T11:39:57.000Z</time>
      </trkpt>
      <trkpt lat="43.18599" lon="6.50463">
        <ele>416.1</ele>
        <time>2024-05-26T11:40:07.000Z</time>
      </trkpt>
      <trkpt lat="43.18595" lon="6.50476">
        <ele>415.2</ele>
        <time>2024-05-26T11:40:16.000Z</time>
      </trkpt>
      <trkpt lat="43.1859" lon="6.50488">
        <ele>414.5</ele>
        <time>2024-05-26T11:40:26.000Z</time>
      </trkpt>
      <trkpt lat="43.18583" lon="6.50498">
        <ele>414</ele>
        <time>2024-05-26T11:40:36.000Z</time>
      </trkpt>
      <trkpt lat="43.18576" lon="6.50507">
        <ele>413.5</ele>
        <time>2024-05-26T11:40:45.000Z</time>
      </trkpt>
      <trkpt lat="43.18569" lon="6.50516">
        <ele>412.8</ele>
        <time>2024-05-26T11:40:55.000Z</time>
      </trkpt>
      <trkpt lat="43.18562" lon="6.50524">
        <ele>412.1</ele>
        <time>2024-05-26T11:41:04.000Z</time>
      </trkpt>
      <trkpt lat="43.18558" lon="6.50536">
        <ele>411.5</ele>
        <time>2024-05-26T11:41:13.000Z</time>
      </trkpt>
      <trkpt lat="43.18555" lon="6.50549">
        <ele>411.2</ele>
        <time>2024-05-26T11:41:23.000Z</time>
      </trkpt>
      <trkpt lat="43.18558" lon="6.50562">
        <ele>411.1</ele>
        <time>2024-05-26T11:41:33.000Z</time>
      </trkpt>
      <trkpt lat="43.18564" lon="6.50573">
        <ele>410.9</ele>
        <time>2024-05-26T11:41:42.000Z</time>
      </trkpt>
      <trkpt lat="43.18567" lon="6.50585">
        <ele>410.7</ele>
        <time>2024-05-26T11:41:50.000Z</time>
      </trkpt>
      <trkpt lat="43.18572" lon="6.50595">
        <ele>410</ele>
        <time>2024-05-26T11:41:59.000Z</time>
      </trkpt>
      <trkpt lat="43.18576" lon="6.50607">
        <ele>408.8</ele>
        <time>2024-05-26T11:42:08.000Z</time>
      </trkpt>
      <trkpt lat="43.1858" lon="6.50618">
        <ele>407.6</ele>
        <time>2024-05-26T11:42:17.000Z</time>
      </trkpt>
      <trkpt lat="43.18586" lon="6.50629">
        <ele>406.5</ele>
        <time>2024-05-26T11:42:28.000Z</time>
      </trkpt>
      <trkpt lat="43.18591" lon="6.5064">
        <ele>404.9</ele>
        <time>2024-05-26T11:42:37.000Z</time>
      </trkpt>
      <trkpt lat="43.18598" lon="6.50649">
        <ele>403.8</ele>
        <time>2024-05-26T11:42:45.000Z</time>
      </trkpt>
      <trkpt lat="43.18607" lon="6.50654">
        <ele>403</ele>
        <time>2024-05-26T11:42:53.000Z</time>
      </trkpt>
      <trkpt lat="43.18616" lon="6.50657">
        <ele>402</ele>
        <time>2024-05-26T11:43:02.000Z</time>
      </trkpt>
      <trkpt lat="43.18622" lon="6.50667">
        <ele>400.9</ele>
        <time>2024-05-26T11:43:11.000Z</time>
      </trkpt>
      <trkpt lat="43.18626" lon="6.50678">
        <ele>399.3</ele>
        <time>2024-05-26T11:43:24.000Z</time>
      </trkpt>
      <trkpt lat="43.1863" lon="6.50689">
        <ele>397.9</ele>
        <time>2024-05-26T11:43:35.000Z</time>
      </trkpt>
      <trkpt lat="43.18638" lon="6.50697">
        <ele>396.3</ele>
        <time>2024-05-26T11:43:48.000Z</time>
      </trkpt>
      <trkpt lat="43.1864" lon="6.50711">
        <ele>395.7</ele>
        <time>2024-05-26T11:43:55.000Z</time>
      </trkpt>
      <trkpt lat="43.18639" lon="6.50723">
        <ele>394.7</ele>
        <time>2024-05-26T11:44:04.000Z</time>
      </trkpt>
      <trkpt lat="43.18639" lon="6.50737">
        <ele>394</ele>
        <time>2024-05-26T11:44:13.000Z</time>
      </trkpt>
      <trkpt lat="43.18641" lon="6.5075">
        <ele>393.5</ele>
        <time>2024-05-26T11:44:21.000Z</time>
      </trkpt>
      <trkpt lat="43.18645" lon="6.50761">
        <ele>392.8</ele>
        <time>2024-05-26T11:44:30.000Z</time>
      </trkpt>
      <trkpt lat="43.18648" lon="6.50762">
        <ele>392.6</ele>
        <time>2024-05-26T11:44:37.000Z</time>
      </trkpt>
      <trkpt lat="43.18648" lon="6.50762">
        <ele>392.5</ele>
        <time>2024-05-26T11:44:38.000Z</time>
      </trkpt>
      <trkpt lat="43.18648" lon="6.50763">
        <ele>392.5</ele>
        <time>2024-05-26T11:44:45.000Z</time>
      </trkpt>
      <trkpt lat="43.18647" lon="6.50763">
        <ele>392.5</ele>
        <time>2024-05-26T11:44:46.000Z</time>
      </trkpt>
      <trkpt lat="43.18647" lon="6.50764">
        <ele>392.4</ele>
        <time>2024-05-26T11:44:49.000Z</time>
      </trkpt>
      <trkpt lat="43.18647" lon="6.50764">
        <ele>392.4</ele>
        <time>2024-05-26T11:44:50.000Z</time>
      </trkpt>
      <trkpt lat="43.18647" lon="6.50764">
        <ele>392.4</ele>
        <time>2024-05-26T11:44:51.000Z</time>
      </trkpt>
      <trkpt lat="43.18647" lon="6.50764">
        <ele>392.4</ele>
        <time>2024-05-26T11:44:52.000Z</time>
      </trkpt>
      <trkpt lat="43.18647" lon="6.50764">
        <ele>392.4</ele>
        <time>2024-05-26T11:44:53.000Z</time>
      </trkpt>
      <trkpt lat="43.18647" lon="6.50764">
        <ele>392.6</ele>
        <time>2024-05-26T11:44:59.000Z</time>
      </trkpt>
      <trkpt lat="43.18647" lon="6.50765">
        <ele>392.6</ele>
        <time>2024-05-26T11:45:00.000Z</time>
      </trkpt>
      <trkpt lat="43.18647" lon="6.50764">
        <ele>392.6</ele>
        <time>2024-05-26T11:45:01.000Z</time>
      </trkpt>
      <trkpt lat="43.18647" lon="6.50764">
        <ele>392.7</ele>
        <time>2024-05-26T11:45:02.000Z</time>
      </trkpt>
      <trkpt lat="43.18647" lon="6.50764">
        <ele>392.7</ele>
        <time>2024-05-26T11:45:03.000Z</time>
      </trkpt>
      <trkpt lat="43.18647" lon="6.50764">
        <ele>392.7</ele>
        <time>2024-05-26T11:45:04.000Z</time>
      </trkpt>
      <trkpt lat="43.18647" lon="6.50764">
        <ele>392.7</ele>
        <time>2024-05-26T11:45:05.000Z</time>
      </trkpt>
      <trkpt lat="43.18647" lon="6.50764">
        <ele>393.1</ele>
        <time>2024-05-26T11:45:49.000Z</time>
      </trkpt>
      <trkpt lat="43.18647" lon="6.50764">
        <ele>393.1</ele>
        <time>2024-05-26T11:45:50.000Z</time>
      </trkpt>
      <trkpt lat="43.18647" lon="6.50764">
        <ele>393.1</ele>
        <time>2024-05-26T11:45:51.000Z</time>
      </trkpt>
      <trkpt lat="43.18646" lon="6.50765">
        <ele>393.1</ele>
        <time>2024-05-26T11:46:05.000Z</time>
      </trkpt>
      <trkpt lat="43.18646" lon="6.50765">
        <ele>393.1</ele>
        <time>2024-05-26T11:46:06.000Z</time>
      </trkpt>
      <trkpt lat="43.18646" lon="6.50765">
        <ele>393.1</ele>
        <time>2024-05-26T11:46:07.000Z</time>
      </trkpt>
      <trkpt lat="43.18646" lon="6.50765">
        <ele>393.1</ele>
        <time>2024-05-26T11:46:08.000Z</time>
      </trkpt>
      <trkpt lat="43.18646" lon="6.50765">
        <ele>393.1</ele>
        <time>2024-05-26T11:46:09.000Z</time>
      </trkpt>
      <trkpt lat="43.18646" lon="6.50765">
        <ele>393.1</ele>
        <time>2024-05-26T11:46:10.000Z</time>
      </trkpt>
      <trkpt lat="43.18646" lon="6.50765">
        <ele>393.1</ele>
        <time>2024-05-26T11:46:11.000Z</time>
      </trkpt>
      <trkpt lat="43.18646" lon="6.50765">
        <ele>393.1</ele>
        <time>2024-05-26T11:46:54.000Z</time>
      </trkpt>
      <trkpt lat="43.18646" lon="6.50765">
        <ele>393.2</ele>
        <time>2024-05-26T11:46:55.000Z</time>
      </trkpt>
      <trkpt lat="43.18646" lon="6.50765">
        <ele>393.2</ele>
        <time>2024-05-26T11:46:56.000Z</time>
      </trkpt>
      <trkpt lat="43.18646" lon="6.50765">
        <ele>393.2</ele>
        <time>2024-05-26T11:46:57.000Z</time>
      </trkpt>
      <trkpt lat="43.18646" lon="6.50765">
        <ele>393.2</ele>
        <time>2024-05-26T11:46:58.000Z</time>
      </trkpt>
      <trkpt lat="43.18646" lon="6.50765">
        <ele>393.1</ele>
        <time>2024-05-26T11:47:14.000Z</time>
      </trkpt>
      <trkpt lat="43.18646" lon="6.50765">
        <ele>393.1</ele>
        <time>2024-05-26T11:47:15.000Z</time>
      </trkpt>
      <trkpt lat="43.18654" lon="6.50773">
        <ele>392.7</ele>
        <time>2024-05-26T11:47:31.000Z</time>
      </trkpt>
      <trkpt lat="43.18662" lon="6.50781">
        <ele>392.3</ele>
        <time>2024-05-26T11:47:40.000Z</time>
      </trkpt>
      <trkpt lat="43.1867" lon="6.50789">
        <ele>392.1</ele>
        <time>2024-05-26T11:47:49.000Z</time>
      </trkpt>
      <trkpt lat="43.18679" lon="6.50795">
        <ele>391.9</ele>
        <time>2024-05-26T11:47:58.000Z</time>
      </trkpt>
      <trkpt lat="43.18686" lon="6.50804">
        <ele>391.6</ele>
        <time>2024-05-26T11:48:08.000Z</time>
      </trkpt>
      <trkpt lat="43.18693" lon="6.50811">
        <ele>391</ele>
        <time>2024-05-26T11:48:16.000Z</time>
      </trkpt>
      <trkpt lat="43.187" lon="6.5082">
        <ele>390.5</ele>
        <time>2024-05-26T11:48:24.000Z</time>
      </trkpt>
      <trkpt lat="43.18708" lon="6.50828">
        <ele>389.7</ele>
        <time>2024-05-26T11:48:32.000Z</time>
      </trkpt>
      <trkpt lat="43.18713" lon="6.50839">
        <ele>388.8</ele>
        <time>2024-05-26T11:48:41.000Z</time>
      </trkpt>
      <trkpt lat="43.18721" lon="6.50848">
        <ele>388.4</ele>
        <time>2024-05-26T11:48:49.000Z</time>
      </trkpt>
      <trkpt lat="43.1873" lon="6.50854">
        <ele>387.9</ele>
        <time>2024-05-26T11:48:58.000Z</time>
      </trkpt>
      <trkpt lat="43.18738" lon="6.50861">
        <ele>387.2</ele>
        <time>2024-05-26T11:49:07.000Z</time>
      </trkpt>
      <trkpt lat="43.18744" lon="6.50871">
        <ele>386.4</ele>
        <time>2024-05-26T11:49:16.000Z</time>
      </trkpt>
      <trkpt lat="43.18752" lon="6.50878">
        <ele>385.9</ele>
        <time>2024-05-26T11:49:24.000Z</time>
      </trkpt>
      <trkpt lat="43.1876" lon="6.50885">
        <ele>385.2</ele>
        <time>2024-05-26T11:49:33.000Z</time>
      </trkpt>
      <trkpt lat="43.18768" lon="6.50891">
        <ele>384.6</ele>
        <time>2024-05-26T11:49:41.000Z</time>
      </trkpt>
      <trkpt lat="43.18774" lon="6.509">
        <ele>384.3</ele>
        <time>2024-05-26T11:49:49.000Z</time>
      </trkpt>
      <trkpt lat="43.18778" lon="6.50912">
        <ele>384.1</ele>
        <time>2024-05-26T11:49:59.000Z</time>
      </trkpt>
      <trkpt lat="43.18781" lon="6.50924">
        <ele>383.8</ele>
        <time>2024-05-26T11:50:07.000Z</time>
      </trkpt>
      <trkpt lat="43.18785" lon="6.50937">
        <ele>383.4</ele>
        <time>2024-05-26T11:50:16.000Z</time>
      </trkpt>
      <trkpt lat="43.18788" lon="6.50949">
        <ele>382.9</ele>
        <time>2024-05-26T11:50:24.000Z</time>
      </trkpt>
      <trkpt lat="43.18792" lon="6.50962">
        <ele>382.7</ele>
        <time>2024-05-26T11:50:32.000Z</time>
      </trkpt>
      <trkpt lat="43.18797" lon="6.50973">
        <ele>382.5</ele>
        <time>2024-05-26T11:50:40.000Z</time>
      </trkpt>
      <trkpt lat="43.18802" lon="6.50983">
        <ele>382.3</ele>
        <time>2024-05-26T11:50:48.000Z</time>
      </trkpt>
      <trkpt lat="43.1881" lon="6.5099">
        <ele>382.1</ele>
        <time>2024-05-26T11:50:59.000Z</time>
      </trkpt>
      <trkpt lat="43.18818" lon="6.50998">
        <ele>381.9</ele>
        <time>2024-05-26T11:51:06.000Z</time>
      </trkpt>
      <trkpt lat="43.18825" lon="6.51005">
        <ele>381.7</ele>
        <time>2024-05-26T11:51:13.000Z</time>
      </trkpt>
      <trkpt lat="43.18832" lon="6.51014">
        <ele>381.5</ele>
        <time>2024-05-26T11:51:20.000Z</time>
      </trkpt>
      <trkpt lat="43.18839" lon="6.51023">
        <ele>381.3</ele>
        <time>2024-05-26T11:51:29.000Z</time>
      </trkpt>
      <trkpt lat="43.18846" lon="6.51032">
        <ele>380.8</ele>
        <time>2024-05-26T11:51:40.000Z</time>
      </trkpt>
      <trkpt lat="43.18853" lon="6.51039">
        <ele>380.4</ele>
        <time>2024-05-26T11:51:49.000Z</time>
      </trkpt>
      <trkpt lat="43.18862" lon="6.51046">
        <ele>380.3</ele>
        <time>2024-05-26T11:51:56.000Z</time>
      </trkpt>
      <trkpt lat="43.18871" lon="6.5105">
        <ele>380.3</ele>
        <time>2024-05-26T11:52:03.000Z</time>
      </trkpt>
      <trkpt lat="43.18881" lon="6.51053">
        <ele>380.4</ele>
        <time>2024-05-26T11:52:11.000Z</time>
      </trkpt>
      <trkpt lat="43.1889" lon="6.51056">
        <ele>380.5</ele>
        <time>2024-05-26T11:52:19.000Z</time>
      </trkpt>
      <trkpt lat="43.18899" lon="6.51059">
        <ele>380.7</ele>
        <time>2024-05-26T11:52:27.000Z</time>
      </trkpt>
      <trkpt lat="43.18907" lon="6.51065">
        <ele>381</ele>
        <time>2024-05-26T11:52:36.000Z</time>
      </trkpt>
      <trkpt lat="43.18915" lon="6.51073">
        <ele>381.2</ele>
        <time>2024-05-26T11:52:45.000Z</time>
      </trkpt>
      <trkpt lat="43.18922" lon="6.51081">
        <ele>381.3</ele>
        <time>2024-05-26T11:52:53.000Z</time>
      </trkpt>
      <trkpt lat="43.1893" lon="6.51088">
        <ele>381.3</ele>
        <time>2024-05-26T11:53:01.000Z</time>
      </trkpt>
      <trkpt lat="43.18939" lon="6.51092">
        <ele>381.2</ele>
        <time>2024-05-26T11:53:10.000Z</time>
      </trkpt>
      <trkpt lat="43.18948" lon="6.51097">
        <ele>381.2</ele>
        <time>2024-05-26T11:53:19.000Z</time>
      </trkpt>
      <trkpt lat="43.18957" lon="6.51101">
        <ele>381.2</ele>
        <time>2024-05-26T11:53:27.000Z</time>
      </trkpt>
      <trkpt lat="43.18966" lon="6.51106">
        <ele>381.2</ele>
        <time>2024-05-26T11:53:36.000Z</time>
      </trkpt>
      <trkpt lat="43.18974" lon="6.51113">
        <ele>381.2</ele>
        <time>2024-05-26T11:53:44.000Z</time>
      </trkpt>
      <trkpt lat="43.18983" lon="6.5112">
        <ele>381.1</ele>
        <time>2024-05-26T11:53:53.000Z</time>
      </trkpt>
      <trkpt lat="43.1899" lon="6.51127">
        <ele>381</ele>
        <time>2024-05-26T11:54:04.000Z</time>
      </trkpt>
      <trkpt lat="43.19" lon="6.51132">
        <ele>380.7</ele>
        <time>2024-05-26T11:54:13.000Z</time>
      </trkpt>
      <trkpt lat="43.19008" lon="6.51138">
        <ele>380.2</ele>
        <time>2024-05-26T11:54:21.000Z</time>
      </trkpt>
      <trkpt lat="43.19016" lon="6.51145">
        <ele>379.6</ele>
        <time>2024-05-26T11:54:29.000Z</time>
      </trkpt>
      <trkpt lat="43.19023" lon="6.51153">
        <ele>378.9</ele>
        <time>2024-05-26T11:54:37.000Z</time>
      </trkpt>
      <trkpt lat="43.19028" lon="6.51164">
        <ele>378.4</ele>
        <time>2024-05-26T11:54:44.000Z</time>
      </trkpt>
      <trkpt lat="43.19037" lon="6.51169">
        <ele>377.8</ele>
        <time>2024-05-26T11:54:53.000Z</time>
      </trkpt>
      <trkpt lat="43.19046" lon="6.51171">
        <ele>377.5</ele>
        <time>2024-05-26T11:55:02.000Z</time>
      </trkpt>
      <trkpt lat="43.19055" lon="6.51176">
        <ele>376.9</ele>
        <time>2024-05-26T11:55:11.000Z</time>
      </trkpt>
      <trkpt lat="43.19064" lon="6.51177">
        <ele>376.2</ele>
        <time>2024-05-26T11:55:20.000Z</time>
      </trkpt>
      <trkpt lat="43.19074" lon="6.51174">
        <ele>375.4</ele>
        <time>2024-05-26T11:55:28.000Z</time>
      </trkpt>
      <trkpt lat="43.19083" lon="6.51171">
        <ele>374.8</ele>
        <time>2024-05-26T11:55:36.000Z</time>
      </trkpt>
      <trkpt lat="43.19092" lon="6.51168">
        <ele>374.5</ele>
        <time>2024-05-26T11:55:45.000Z</time>
      </trkpt>
      <trkpt lat="43.19102" lon="6.51165">
        <ele>374.5</ele>
        <time>2024-05-26T11:55:54.000Z</time>
      </trkpt>
      <trkpt lat="43.19112" lon="6.51163">
        <ele>374.4</ele>
        <time>2024-05-26T11:56:03.000Z</time>
      </trkpt>
      <trkpt lat="43.1912" lon="6.51156">
        <ele>374.5</ele>
        <time>2024-05-26T11:56:11.000Z</time>
      </trkpt>
      <trkpt lat="43.19128" lon="6.5115">
        <ele>374.7</ele>
        <time>2024-05-26T11:56:22.000Z</time>
      </trkpt>
      <trkpt lat="43.19137" lon="6.51146">
        <ele>374.8</ele>
        <time>2024-05-26T11:56:29.000Z</time>
      </trkpt>
      <trkpt lat="43.19146" lon="6.5114">
        <ele>374.9</ele>
        <time>2024-05-26T11:56:35.000Z</time>
      </trkpt>
      <trkpt lat="43.19154" lon="6.51135">
        <ele>375</ele>
        <time>2024-05-26T11:56:43.000Z</time>
      </trkpt>
      <trkpt lat="43.19163" lon="6.51132">
        <ele>374.9</ele>
        <time>2024-05-26T11:56:51.000Z</time>
      </trkpt>
      <trkpt lat="43.19173" lon="6.51128">
        <ele>374.8</ele>
        <time>2024-05-26T11:56:59.000Z</time>
      </trkpt>
      <trkpt lat="43.19182" lon="6.51129">
        <ele>374.7</ele>
        <time>2024-05-26T11:57:07.000Z</time>
      </trkpt>
      <trkpt lat="43.19192" lon="6.51132">
        <ele>374.4</ele>
        <time>2024-05-26T11:57:18.000Z</time>
      </trkpt>
      <trkpt lat="43.19201" lon="6.51136">
        <ele>374.2</ele>
        <time>2024-05-26T11:57:27.000Z</time>
      </trkpt>
      <trkpt lat="43.19211" lon="6.51135">
        <ele>373.4</ele>
        <time>2024-05-26T11:57:36.000Z</time>
      </trkpt>
      <trkpt lat="43.1922" lon="6.51137">
        <ele>371.9</ele>
        <time>2024-05-26T11:57:45.000Z</time>
      </trkpt>
      <trkpt lat="43.1923" lon="6.51138">
        <ele>371</ele>
        <time>2024-05-26T11:57:53.000Z</time>
      </trkpt>
      <trkpt lat="43.1924" lon="6.51137">
        <ele>370</ele>
        <time>2024-05-26T11:58:02.000Z</time>
      </trkpt>
      <trkpt lat="43.1925" lon="6.51137">
        <ele>369.2</ele>
        <time>2024-05-26T11:58:10.000Z</time>
      </trkpt>
      <trkpt lat="43.19259" lon="6.51136">
        <ele>368.5</ele>
        <time>2024-05-26T11:58:18.000Z</time>
      </trkpt>
      <trkpt lat="43.19268" lon="6.51134">
        <ele>368.1</ele>
        <time>2024-05-26T11:58:27.000Z</time>
      </trkpt>
      <trkpt lat="43.19277" lon="6.51132">
        <ele>367.7</ele>
        <time>2024-05-26T11:58:35.000Z</time>
      </trkpt>
      <trkpt lat="43.19286" lon="6.51131">
        <ele>367</ele>
        <time>2024-05-26T11:58:43.000Z</time>
      </trkpt>
      <trkpt lat="43.19295" lon="6.51129">
        <ele>366.7</ele>
        <time>2024-05-26T11:58:51.000Z</time>
      </trkpt>
      <trkpt lat="43.19305" lon="6.51129">
        <ele>366.2</ele>
        <time>2024-05-26T11:58:59.000Z</time>
      </trkpt>
      <trkpt lat="43.19314" lon="6.5113">
        <ele>365.7</ele>
        <time>2024-05-26T11:59:07.000Z</time>
      </trkpt>
      <trkpt lat="43.19324" lon="6.51133">
        <ele>365.3</ele>
        <time>2024-05-26T11:59:16.000Z</time>
      </trkpt>
      <trkpt lat="43.19333" lon="6.51139">
        <ele>364.8</ele>
        <time>2024-05-26T11:59:25.000Z</time>
      </trkpt>
      <trkpt lat="43.19341" lon="6.51147">
        <ele>364.2</ele>
        <time>2024-05-26T11:59:34.000Z</time>
      </trkpt>
      <trkpt lat="43.19349" lon="6.51153">
        <ele>363.3</ele>
        <time>2024-05-26T11:59:44.000Z</time>
      </trkpt>
      <trkpt lat="43.19359" lon="6.51155">
        <ele>362.4</ele>
        <time>2024-05-26T11:59:53.000Z</time>
      </trkpt>
      <trkpt lat="43.19368" lon="6.51154">
        <ele>361.8</ele>
        <time>2024-05-26T12:00:01.000Z</time>
      </trkpt>
      <trkpt lat="43.19377" lon="6.51149">
        <ele>361.2</ele>
        <time>2024-05-26T12:00:08.000Z</time>
      </trkpt>
      <trkpt lat="43.19386" lon="6.51149">
        <ele>360.8</ele>
        <time>2024-05-26T12:00:17.000Z</time>
      </trkpt>
      <trkpt lat="43.19396" lon="6.51148">
        <ele>360.7</ele>
        <time>2024-05-26T12:00:25.000Z</time>
      </trkpt>
      <trkpt lat="43.19405" lon="6.51148">
        <ele>360.6</ele>
        <time>2024-05-26T12:00:33.000Z</time>
      </trkpt>
      <trkpt lat="43.19414" lon="6.5115">
        <ele>360.4</ele>
        <time>2024-05-26T12:00:42.000Z</time>
      </trkpt>
      <trkpt lat="43.19423" lon="6.51152">
        <ele>360</ele>
        <time>2024-05-26T12:00:50.000Z</time>
      </trkpt>
      <trkpt lat="43.19433" lon="6.51155">
        <ele>359.5</ele>
        <time>2024-05-26T12:00:59.000Z</time>
      </trkpt>
      <trkpt lat="43.19442" lon="6.51159">
        <ele>358.4</ele>
        <time>2024-05-26T12:01:08.000Z</time>
      </trkpt>
      <trkpt lat="43.19452" lon="6.51161">
        <ele>357.5</ele>
        <time>2024-05-26T12:01:17.000Z</time>
      </trkpt>
      <trkpt lat="43.19461" lon="6.51163">
        <ele>356.7</ele>
        <time>2024-05-26T12:01:26.000Z</time>
      </trkpt>
      <trkpt lat="43.19469" lon="6.51168">
        <ele>355.8</ele>
        <time>2024-05-26T12:01:34.000Z</time>
      </trkpt>
      <trkpt lat="43.19477" lon="6.51175">
        <ele>355.3</ele>
        <time>2024-05-26T12:01:42.000Z</time>
      </trkpt>
      <trkpt lat="43.19485" lon="6.51183">
        <ele>354.6</ele>
        <time>2024-05-26T12:01:52.000Z</time>
      </trkpt>
      <trkpt lat="43.19494" lon="6.51186">
        <ele>353.8</ele>
        <time>2024-05-26T12:02:01.000Z</time>
      </trkpt>
      <trkpt lat="43.19504" lon="6.51187">
        <ele>352.7</ele>
        <time>2024-05-26T12:02:10.000Z</time>
      </trkpt>
      <trkpt lat="43.19513" lon="6.5119">
        <ele>351.6</ele>
        <time>2024-05-26T12:02:19.000Z</time>
      </trkpt>
      <trkpt lat="43.19523" lon="6.51191">
        <ele>350.6</ele>
        <time>2024-05-26T12:02:28.000Z</time>
      </trkpt>
      <trkpt lat="43.19533" lon="6.51192">
        <ele>349.3</ele>
        <time>2024-05-26T12:02:38.000Z</time>
      </trkpt>
      <trkpt lat="43.19542" lon="6.51193">
        <ele>348.6</ele>
        <time>2024-05-26T12:02:46.000Z</time>
      </trkpt>
      <trkpt lat="43.19551" lon="6.51192">
        <ele>348.2</ele>
        <time>2024-05-26T12:02:54.000Z</time>
      </trkpt>
      <trkpt lat="43.19561" lon="6.51193">
        <ele>348</ele>
        <time>2024-05-26T12:03:02.000Z</time>
      </trkpt>
      <trkpt lat="43.1957" lon="6.51193">
        <ele>347.7</ele>
        <time>2024-05-26T12:03:10.000Z</time>
      </trkpt>
      <trkpt lat="43.19579" lon="6.51196">
        <ele>347.5</ele>
        <time>2024-05-26T12:03:18.000Z</time>
      </trkpt>
      <trkpt lat="43.19589" lon="6.51196">
        <ele>347.5</ele>
        <time>2024-05-26T12:03:27.000Z</time>
      </trkpt>
      <trkpt lat="43.19599" lon="6.51195">
        <ele>347.4</ele>
        <time>2024-05-26T12:03:37.000Z</time>
      </trkpt>
      <trkpt lat="43.19608" lon="6.51194">
        <ele>347.3</ele>
        <time>2024-05-26T12:03:46.000Z</time>
      </trkpt>
      <trkpt lat="43.19618" lon="6.51191">
        <ele>347.1</ele>
        <time>2024-05-26T12:03:55.000Z</time>
      </trkpt>
      <trkpt lat="43.19627" lon="6.51192">
        <ele>346.7</ele>
        <time>2024-05-26T12:04:04.000Z</time>
      </trkpt>
      <trkpt lat="43.19637" lon="6.51193">
        <ele>346.3</ele>
        <time>2024-05-26T12:04:12.000Z</time>
      </trkpt>
      <trkpt lat="43.19646" lon="6.51195">
        <ele>345.8</ele>
        <time>2024-05-26T12:04:20.000Z</time>
      </trkpt>
      <trkpt lat="43.19655" lon="6.51195">
        <ele>345.7</ele>
        <time>2024-05-26T12:04:28.000Z</time>
      </trkpt>
      <trkpt lat="43.19664" lon="6.51194">
        <ele>345.4</ele>
        <time>2024-05-26T12:04:38.000Z</time>
      </trkpt>
      <trkpt lat="43.19667" lon="6.51191">
        <ele>345.3</ele>
        <time>2024-05-26T12:04:46.000Z</time>
      </trkpt>
      <trkpt lat="43.19667" lon="6.51191">
        <ele>345.3</ele>
        <time>2024-05-26T12:04:47.000Z</time>
      </trkpt>
      <trkpt lat="43.19667" lon="6.51191">
        <ele>345.3</ele>
        <time>2024-05-26T12:04:48.000Z</time>
      </trkpt>
      <trkpt lat="43.19667" lon="6.51191">
        <ele>345.1</ele>
        <time>2024-05-26T12:05:01.000Z</time>
      </trkpt>
      <trkpt lat="43.19667" lon="6.51191">
        <ele>345.1</ele>
        <time>2024-05-26T12:05:02.000Z</time>
      </trkpt>
      <trkpt lat="43.19667" lon="6.51191">
        <ele>345.1</ele>
        <time>2024-05-26T12:05:03.000Z</time>
      </trkpt>
      <trkpt lat="43.19667" lon="6.5119">
        <ele>345.1</ele>
        <time>2024-05-26T12:05:04.000Z</time>
      </trkpt>
      <trkpt lat="43.19667" lon="6.5119">
        <ele>345.1</ele>
        <time>2024-05-26T12:05:05.000Z</time>
      </trkpt>
      <trkpt lat="43.19667" lon="6.5119">
        <ele>345.1</ele>
        <time>2024-05-26T12:05:06.000Z</time>
      </trkpt>
      <trkpt lat="43.19667" lon="6.5119">
        <ele>345.1</ele>
        <time>2024-05-26T12:05:07.000Z</time>
      </trkpt>
      <trkpt lat="43.19667" lon="6.5119">
        <ele>345.1</ele>
        <time>2024-05-26T12:05:08.000Z</time>
      </trkpt>
      <trkpt lat="43.19667" lon="6.5119">
        <ele>345</ele>
        <time>2024-05-26T12:05:09.000Z</time>
      </trkpt>
      <trkpt lat="43.19667" lon="6.5119">
        <ele>345</ele>
        <time>2024-05-26T12:05:10.000Z</time>
      </trkpt>
      <trkpt lat="43.19668" lon="6.5119">
        <ele>344.9</ele>
        <time>2024-05-26T12:05:44.000Z</time>
      </trkpt>
      <trkpt lat="43.19668" lon="6.5119">
        <ele>344.9</ele>
        <time>2024-05-26T12:05:45.000Z</time>
      </trkpt>
      <trkpt lat="43.19668" lon="6.5119">
        <ele>345</ele>
        <time>2024-05-26T12:05:49.000Z</time>
      </trkpt>
      <trkpt lat="43.19668" lon="6.5119">
        <ele>345</ele>
        <time>2024-05-26T12:05:50.000Z</time>
      </trkpt>
      <trkpt lat="43.19668" lon="6.5119">
        <ele>345</ele>
        <time>2024-05-26T12:06:01.000Z</time>
      </trkpt>
      <trkpt lat="43.19668" lon="6.5119">
        <ele>345</ele>
        <time>2024-05-26T12:06:02.000Z</time>
      </trkpt>
      <trkpt lat="43.19668" lon="6.5119">
        <ele>345</ele>
        <time>2024-05-26T12:06:03.000Z</time>
      </trkpt>
      <trkpt lat="43.19668" lon="6.5119">
        <ele>345.1</ele>
        <time>2024-05-26T12:06:11.000Z</time>
      </trkpt>
      <trkpt lat="43.19668" lon="6.5119">
        <ele>345.4</ele>
        <time>2024-05-26T12:06:32.000Z</time>
      </trkpt>
      <trkpt lat="43.19668" lon="6.5119">
        <ele>345.4</ele>
        <time>2024-05-26T12:06:33.000Z</time>
      </trkpt>
      <trkpt lat="43.19668" lon="6.5119">
        <ele>345.4</ele>
        <time>2024-05-26T12:06:34.000Z</time>
      </trkpt>
      <trkpt lat="43.19668" lon="6.51189">
        <ele>345.4</ele>
        <time>2024-05-26T12:06:39.000Z</time>
      </trkpt>
      <trkpt lat="43.19668" lon="6.51189">
        <ele>345.4</ele>
        <time>2024-05-26T12:06:40.000Z</time>
      </trkpt>
      <trkpt lat="43.19668" lon="6.51189">
        <ele>345.4</ele>
        <time>2024-05-26T12:06:41.000Z</time>
      </trkpt>
      <trkpt lat="43.19668" lon="6.51189">
        <ele>345.3</ele>
        <time>2024-05-26T12:06:50.000Z</time>
      </trkpt>
      <trkpt lat="43.19668" lon="6.51189">
        <ele>345.3</ele>
        <time>2024-05-26T12:06:51.000Z</time>
      </trkpt>
      <trkpt lat="43.19668" lon="6.51189">
        <ele>345.3</ele>
        <time>2024-05-26T12:06:55.000Z</time>
      </trkpt>
      <trkpt lat="43.19668" lon="6.51189">
        <ele>345.3</ele>
        <time>2024-05-26T12:06:56.000Z</time>
      </trkpt>
      <trkpt lat="43.19668" lon="6.51189">
        <ele>345.3</ele>
        <time>2024-05-26T12:06:59.000Z</time>
      </trkpt>
      <trkpt lat="43.19668" lon="6.51189">
        <ele>345.3</ele>
        <time>2024-05-26T12:07:00.000Z</time>
      </trkpt>
      <trkpt lat="43.19669" lon="6.51189">
        <ele>345.3</ele>
        <time>2024-05-26T12:07:01.000Z</time>
      </trkpt>
      <trkpt lat="43.19669" lon="6.51189">
        <ele>345.3</ele>
        <time>2024-05-26T12:07:02.000Z</time>
      </trkpt>
      <trkpt lat="43.19669" lon="6.51189">
        <ele>345.3</ele>
        <time>2024-05-26T12:07:03.000Z</time>
      </trkpt>
      <trkpt lat="43.19669" lon="6.51189">
        <ele>345.4</ele>
        <time>2024-05-26T12:07:40.000Z</time>
      </trkpt>
      <trkpt lat="43.19669" lon="6.51189">
        <ele>345.4</ele>
        <time>2024-05-26T12:07:41.000Z</time>
      </trkpt>
      <trkpt lat="43.19669" lon="6.51189">
        <ele>345.4</ele>
        <time>2024-05-26T12:07:45.000Z</time>
      </trkpt>
      <trkpt lat="43.19669" lon="6.51189">
        <ele>345.4</ele>
        <time>2024-05-26T12:07:46.000Z</time>
      </trkpt>
      <trkpt lat="43.19669" lon="6.51189">
        <ele>345.4</ele>
        <time>2024-05-26T12:07:49.000Z</time>
      </trkpt>
      <trkpt lat="43.19669" lon="6.51189">
        <ele>345.4</ele>
        <time>2024-05-26T12:07:50.000Z</time>
      </trkpt>
      <trkpt lat="43.19669" lon="6.51189">
        <ele>345.4</ele>
        <time>2024-05-26T12:07:51.000Z</time>
      </trkpt>
      <trkpt lat="43.19669" lon="6.51189">
        <ele>345.4</ele>
        <time>2024-05-26T12:07:52.000Z</time>
      </trkpt>
      <trkpt lat="43.19669" lon="6.51189">
        <ele>345.4</ele>
        <time>2024-05-26T12:07:53.000Z</time>
      </trkpt>
      <trkpt lat="43.19669" lon="6.51189">
        <ele>345.4</ele>
        <time>2024-05-26T12:07:54.000Z</time>
      </trkpt>
      <trkpt lat="43.19669" lon="6.5119">
        <ele>345.4</ele>
        <time>2024-05-26T12:09:04.000Z</time>
      </trkpt>
      <trkpt lat="43.19669" lon="6.5119">
        <ele>345.4</ele>
        <time>2024-05-26T12:09:05.000Z</time>
      </trkpt>
      <trkpt lat="43.19669" lon="6.5119">
        <ele>345.4</ele>
        <time>2024-05-26T12:09:09.000Z</time>
      </trkpt>
      <trkpt lat="43.19669" lon="6.5119">
        <ele>345.4</ele>
        <time>2024-05-26T12:09:10.000Z</time>
      </trkpt>
      <trkpt lat="43.19669" lon="6.5119">
        <ele>345.3</ele>
        <time>2024-05-26T12:09:22.000Z</time>
      </trkpt>
      <trkpt lat="43.19669" lon="6.5119">
        <ele>345.3</ele>
        <time>2024-05-26T12:09:23.000Z</time>
      </trkpt>
      <trkpt lat="43.19669" lon="6.5119">
        <ele>345.3</ele>
        <time>2024-05-26T12:09:24.000Z</time>
      </trkpt>
      <trkpt lat="43.19669" lon="6.5119">
        <ele>345.3</ele>
        <time>2024-05-26T12:09:25.000Z</time>
      </trkpt>
      <trkpt lat="43.19669" lon="6.5119">
        <ele>345.2</ele>
        <time>2024-05-26T12:09:59.000Z</time>
      </trkpt>
      <trkpt lat="43.19669" lon="6.51189">
        <ele>345.2</ele>
        <time>2024-05-26T12:10:00.000Z</time>
      </trkpt>
      <trkpt lat="43.1967" lon="6.51187">
        <ele>345.2</ele>
        <time>2024-05-26T12:10:04.000Z</time>
      </trkpt>
      <trkpt lat="43.1967" lon="6.51187">
        <ele>345.2</ele>
        <time>2024-05-26T12:10:05.000Z</time>
      </trkpt>
      <trkpt lat="43.1967" lon="6.51187">
        <ele>345.2</ele>
        <time>2024-05-26T12:10:06.000Z</time>
      </trkpt>
      <trkpt lat="43.1967" lon="6.51187">
        <ele>345.2</ele>
        <time>2024-05-26T12:10:07.000Z</time>
      </trkpt>
      <trkpt lat="43.19669" lon="6.51187">
        <ele>345.2</ele>
        <time>2024-05-26T12:10:08.000Z</time>
      </trkpt>
      <trkpt lat="43.19672" lon="6.512">
        <ele>345.2</ele>
        <time>2024-05-26T12:10:19.000Z</time>
      </trkpt>
      <trkpt lat="43.19677" lon="6.5121">
        <ele>345.2</ele>
        <time>2024-05-26T12:10:29.000Z</time>
      </trkpt>
      <trkpt lat="43.19682" lon="6.51222">
        <ele>345.1</ele>
        <time>2024-05-26T12:10:37.000Z</time>
      </trkpt>
      <trkpt lat="43.19684" lon="6.51235">
        <ele>344.9</ele>
        <time>2024-05-26T12:10:44.000Z</time>
      </trkpt>
      <trkpt lat="43.19687" lon="6.51246">
        <ele>344</ele>
        <time>2024-05-26T12:10:52.000Z</time>
      </trkpt>
      <trkpt lat="43.1969" lon="6.51258">
        <ele>342.7</ele>
        <time>2024-05-26T12:10:59.000Z</time>
      </trkpt>
      <trkpt lat="43.19694" lon="6.5127">
        <ele>341.8</ele>
        <time>2024-05-26T12:11:07.000Z</time>
      </trkpt>
      <trkpt lat="43.19697" lon="6.51283">
        <ele>341</ele>
        <time>2024-05-26T12:11:17.000Z</time>
      </trkpt>
      <trkpt lat="43.197" lon="6.51295">
        <ele>340.6</ele>
        <time>2024-05-26T12:11:25.000Z</time>
      </trkpt>
      <trkpt lat="43.19703" lon="6.51307">
        <ele>340.2</ele>
        <time>2024-05-26T12:11:33.000Z</time>
      </trkpt>
      <trkpt lat="43.19707" lon="6.51319">
        <ele>339.9</ele>
        <time>2024-05-26T12:11:42.000Z</time>
      </trkpt>
      <trkpt lat="43.19711" lon="6.51331">
        <ele>339.7</ele>
        <time>2024-05-26T12:11:51.000Z</time>
      </trkpt>
      <trkpt lat="43.19711" lon="6.51343">
        <ele>339.3</ele>
        <time>2024-05-26T12:11:59.000Z</time>
      </trkpt>
      <trkpt lat="43.1971" lon="6.51355">
        <ele>338.1</ele>
        <time>2024-05-26T12:12:09.000Z</time>
      </trkpt>
      <trkpt lat="43.19709" lon="6.5137">
        <ele>337</ele>
        <time>2024-05-26T12:12:16.000Z</time>
      </trkpt>
      <trkpt lat="43.19709" lon="6.51383">
        <ele>336.4</ele>
        <time>2024-05-26T12:12:24.000Z</time>
      </trkpt>
      <trkpt lat="43.19711" lon="6.51396">
        <ele>335.9</ele>
        <time>2024-05-26T12:12:33.000Z</time>
      </trkpt>
      <trkpt lat="43.19712" lon="6.51409">
        <ele>335.3</ele>
        <time>2024-05-26T12:12:42.000Z</time>
      </trkpt>
      <trkpt lat="43.19713" lon="6.51422">
        <ele>334.6</ele>
        <time>2024-05-26T12:12:50.000Z</time>
      </trkpt>
      <trkpt lat="43.19716" lon="6.51435">
        <ele>333.8</ele>
        <time>2024-05-26T12:12:58.000Z</time>
      </trkpt>
      <trkpt lat="43.19719" lon="6.51447">
        <ele>333.4</ele>
        <time>2024-05-26T12:13:06.000Z</time>
      </trkpt>
      <trkpt lat="43.19724" lon="6.51458">
        <ele>333.3</ele>
        <time>2024-05-26T12:13:14.000Z</time>
      </trkpt>
      <trkpt lat="43.1973" lon="6.51469">
        <ele>333.2</ele>
        <time>2024-05-26T12:13:22.000Z</time>
      </trkpt>
      <trkpt lat="43.19737" lon="6.51478">
        <ele>333</ele>
        <time>2024-05-26T12:13:32.000Z</time>
      </trkpt>
      <trkpt lat="43.19746" lon="6.51483">
        <ele>332.9</ele>
        <time>2024-05-26T12:13:40.000Z</time>
      </trkpt>
      <trkpt lat="43.19755" lon="6.51489">
        <ele>332.6</ele>
        <time>2024-05-26T12:13:48.000Z</time>
      </trkpt>
      <trkpt lat="43.19763" lon="6.51495">
        <ele>332.2</ele>
        <time>2024-05-26T12:13:56.000Z</time>
      </trkpt>
      <trkpt lat="43.19772" lon="6.51502">
        <ele>331.7</ele>
        <time>2024-05-26T12:14:05.000Z</time>
      </trkpt>
      <trkpt lat="43.19779" lon="6.51509">
        <ele>331.5</ele>
        <time>2024-05-26T12:14:12.000Z</time>
      </trkpt>
      <trkpt lat="43.19786" lon="6.51517">
        <ele>331.2</ele>
        <time>2024-05-26T12:14:21.000Z</time>
      </trkpt>
      <trkpt lat="43.1979" lon="6.5153">
        <ele>331.1</ele>
        <time>2024-05-26T12:14:30.000Z</time>
      </trkpt>
      <trkpt lat="43.19795" lon="6.5154">
        <ele>330.8</ele>
        <time>2024-05-26T12:14:39.000Z</time>
      </trkpt>
      <trkpt lat="43.198" lon="6.51552">
        <ele>330.4</ele>
        <time>2024-05-26T12:14:48.000Z</time>
      </trkpt>
      <trkpt lat="43.19806" lon="6.51563">
        <ele>330.1</ele>
        <time>2024-05-26T12:14:57.000Z</time>
      </trkpt>
      <trkpt lat="43.19811" lon="6.51575">
        <ele>329.9</ele>
        <time>2024-05-26T12:15:05.000Z</time>
      </trkpt>
      <trkpt lat="43.19816" lon="6.51585">
        <ele>329.6</ele>
        <time>2024-05-26T12:15:12.000Z</time>
      </trkpt>
      <trkpt lat="43.19823" lon="6.51594">
        <ele>329.4</ele>
        <time>2024-05-26T12:15:20.000Z</time>
      </trkpt>
      <trkpt lat="43.19828" lon="6.51606">
        <ele>329.1</ele>
        <time>2024-05-26T12:15:28.000Z</time>
      </trkpt>
      <trkpt lat="43.19834" lon="6.51616">
        <ele>329</ele>
        <time>2024-05-26T12:15:37.000Z</time>
      </trkpt>
      <trkpt lat="43.19838" lon="6.51629">
        <ele>328.8</ele>
        <time>2024-05-26T12:15:46.000Z</time>
      </trkpt>
      <trkpt lat="43.19842" lon="6.51641">
        <ele>328.6</ele>
        <time>2024-05-26T12:15:54.000Z</time>
      </trkpt>
      <trkpt lat="43.19846" lon="6.51654">
        <ele>328.5</ele>
        <time>2024-05-26T12:16:01.000Z</time>
      </trkpt>
      <trkpt lat="43.19848" lon="6.51667">
        <ele>328.4</ele>
        <time>2024-05-26T12:16:09.000Z</time>
      </trkpt>
      <trkpt lat="43.19852" lon="6.51678">
        <ele>328.4</ele>
        <time>2024-05-26T12:16:18.000Z</time>
      </trkpt>
      <trkpt lat="43.19859" lon="6.51687">
        <ele>328.5</ele>
        <time>2024-05-26T12:16:26.000Z</time>
      </trkpt>
      <trkpt lat="43.19866" lon="6.51695">
        <ele>328.5</ele>
        <time>2024-05-26T12:16:34.000Z</time>
      </trkpt>
      <trkpt lat="43.19872" lon="6.51706">
        <ele>328.4</ele>
        <time>2024-05-26T12:16:41.000Z</time>
      </trkpt>
      <trkpt lat="43.19878" lon="6.51717">
        <ele>328</ele>
        <time>2024-05-26T12:16:50.000Z</time>
      </trkpt>
      <trkpt lat="43.19884" lon="6.51727">
        <ele>326.8</ele>
        <time>2024-05-26T12:16:59.000Z</time>
      </trkpt>
      <trkpt lat="43.19891" lon="6.51737">
        <ele>325.8</ele>
        <time>2024-05-26T12:17:07.000Z</time>
      </trkpt>
      <trkpt lat="43.19895" lon="6.51749">
        <ele>325.1</ele>
        <time>2024-05-26T12:17:16.000Z</time>
      </trkpt>
      <trkpt lat="43.19898" lon="6.51762">
        <ele>324.7</ele>
        <time>2024-05-26T12:17:23.000Z</time>
      </trkpt>
      <trkpt lat="43.19901" lon="6.51775">
        <ele>324.1</ele>
        <time>2024-05-26T12:17:32.000Z</time>
      </trkpt>
      <trkpt lat="43.19903" lon="6.51788">
        <ele>323.6</ele>
        <time>2024-05-26T12:17:42.000Z</time>
      </trkpt>
      <trkpt lat="43.19908" lon="6.51798">
        <ele>323.4</ele>
        <time>2024-05-26T12:17:50.000Z</time>
      </trkpt>
      <trkpt lat="43.19913" lon="6.5181">
        <ele>323.5</ele>
        <time>2024-05-26T12:17:58.000Z</time>
      </trkpt>
      <trkpt lat="43.1992" lon="6.51818">
        <ele>323.6</ele>
        <time>2024-05-26T12:18:06.000Z</time>
      </trkpt>
      <trkpt lat="43.19926" lon="6.51829">
        <ele>323.8</ele>
        <time>2024-05-26T12:18:15.000Z</time>
      </trkpt>
      <trkpt lat="43.1993" lon="6.51841">
        <ele>324.2</ele>
        <time>2024-05-26T12:18:23.000Z</time>
      </trkpt>
      <trkpt lat="43.19935" lon="6.51852">
        <ele>324.4</ele>
        <time>2024-05-26T12:18:31.000Z</time>
      </trkpt>
      <trkpt lat="43.19942" lon="6.51861">
        <ele>324.6</ele>
        <time>2024-05-26T12:18:38.000Z</time>
      </trkpt>
      <trkpt lat="43.1995" lon="6.51869">
        <ele>324.9</ele>
        <time>2024-05-26T12:18:46.000Z</time>
      </trkpt>
      <trkpt lat="43.19959" lon="6.51873">
        <ele>325.2</ele>
        <time>2024-05-26T12:18:54.000Z</time>
      </trkpt>
      <trkpt lat="43.19968" lon="6.51873">
        <ele>325.5</ele>
        <time>2024-05-26T12:19:02.000Z</time>
      </trkpt>
      <trkpt lat="43.19978" lon="6.51872">
        <ele>325.8</ele>
        <time>2024-05-26T12:19:10.000Z</time>
      </trkpt>
      <trkpt lat="43.19987" lon="6.51871">
        <ele>326.1</ele>
        <time>2024-05-26T12:19:18.000Z</time>
      </trkpt>
      <trkpt lat="43.19997" lon="6.51873">
        <ele>326.3</ele>
        <time>2024-05-26T12:19:26.000Z</time>
      </trkpt>
      <trkpt lat="43.20006" lon="6.51878">
        <ele>326.4</ele>
        <time>2024-05-26T12:19:35.000Z</time>
      </trkpt>
      <trkpt lat="43.20016" lon="6.5188">
        <ele>326.6</ele>
        <time>2024-05-26T12:19:43.000Z</time>
      </trkpt>
      <trkpt lat="43.20024" lon="6.51888">
        <ele>326.6</ele>
        <time>2024-05-26T12:19:51.000Z</time>
      </trkpt>
      <trkpt lat="43.20033" lon="6.51894">
        <ele>326.7</ele>
        <time>2024-05-26T12:19:59.000Z</time>
      </trkpt>
      <trkpt lat="43.20042" lon="6.51902">
        <ele>326.9</ele>
        <time>2024-05-26T12:20:08.000Z</time>
      </trkpt>
      <trkpt lat="43.2005" lon="6.51909">
        <ele>327</ele>
        <time>2024-05-26T12:20:15.000Z</time>
      </trkpt>
      <trkpt lat="43.20057" lon="6.51917">
        <ele>327.1</ele>
        <time>2024-05-26T12:20:23.000Z</time>
      </trkpt>
      <trkpt lat="43.20065" lon="6.51924">
        <ele>327.3</ele>
        <time>2024-05-26T12:20:31.000Z</time>
      </trkpt>
      <trkpt lat="43.20073" lon="6.5193">
        <ele>327.8</ele>
        <time>2024-05-26T12:20:39.000Z</time>
      </trkpt>
      <trkpt lat="43.20082" lon="6.51929">
        <ele>328.3</ele>
        <time>2024-05-26T12:20:48.000Z</time>
      </trkpt>
      <trkpt lat="43.20091" lon="6.51928">
        <ele>328.6</ele>
        <time>2024-05-26T12:20:55.000Z</time>
      </trkpt>
      <trkpt lat="43.20101" lon="6.51927">
        <ele>329</ele>
        <time>2024-05-26T12:21:02.000Z</time>
      </trkpt>
      <trkpt lat="43.2011" lon="6.51927">
        <ele>329.3</ele>
        <time>2024-05-26T12:21:09.000Z</time>
      </trkpt>
      <trkpt lat="43.2012" lon="6.51926">
        <ele>329.4</ele>
        <time>2024-05-26T12:21:17.000Z</time>
      </trkpt>
      <trkpt lat="43.20129" lon="6.51925">
        <ele>329.5</ele>
        <time>2024-05-26T12:21:25.000Z</time>
      </trkpt>
      <trkpt lat="43.20139" lon="6.51928">
        <ele>329.7</ele>
        <time>2024-05-26T12:21:34.000Z</time>
      </trkpt>
      <trkpt lat="43.20148" lon="6.51929">
        <ele>329.8</ele>
        <time>2024-05-26T12:21:41.000Z</time>
      </trkpt>
      <trkpt lat="43.20158" lon="6.51929">
        <ele>329.9</ele>
        <time>2024-05-26T12:21:49.000Z</time>
      </trkpt>
      <trkpt lat="43.20168" lon="6.51927">
        <ele>330.2</ele>
        <time>2024-05-26T12:21:58.000Z</time>
      </trkpt>
      <trkpt lat="43.20177" lon="6.51925">
        <ele>330.5</ele>
        <time>2024-05-26T12:22:05.000Z</time>
      </trkpt>
      <trkpt lat="43.20187" lon="6.5192">
        <ele>330.9</ele>
        <time>2024-05-26T12:22:13.000Z</time>
      </trkpt>
      <trkpt lat="43.20196" lon="6.51915">
        <ele>331.3</ele>
        <time>2024-05-26T12:22:21.000Z</time>
      </trkpt>
      <trkpt lat="43.20205" lon="6.51912">
        <ele>331.6</ele>
        <time>2024-05-26T12:22:29.000Z</time>
      </trkpt>
      <trkpt lat="43.20215" lon="6.5191">
        <ele>331.7</ele>
        <time>2024-05-26T12:22:37.000Z</time>
      </trkpt>
      <trkpt lat="43.20224" lon="6.5191">
        <ele>331.7</ele>
        <time>2024-05-26T12:22:45.000Z</time>
      </trkpt>
      <trkpt lat="43.20234" lon="6.51911">
        <ele>331.8</ele>
        <time>2024-05-26T12:22:53.000Z</time>
      </trkpt>
      <trkpt lat="43.20243" lon="6.51909">
        <ele>332</ele>
        <time>2024-05-26T12:23:00.000Z</time>
      </trkpt>
      <trkpt lat="43.20252" lon="6.5191">
        <ele>332.2</ele>
        <time>2024-05-26T12:23:09.000Z</time>
      </trkpt>
      <trkpt lat="43.20262" lon="6.51909">
        <ele>332.4</ele>
        <time>2024-05-26T12:23:18.000Z</time>
      </trkpt>
      <trkpt lat="43.20271" lon="6.51913">
        <ele>332.6</ele>
        <time>2024-05-26T12:23:25.000Z</time>
      </trkpt>
      <trkpt lat="43.2028" lon="6.51919">
        <ele>332.8</ele>
        <time>2024-05-26T12:23:33.000Z</time>
      </trkpt>
      <trkpt lat="43.20288" lon="6.51924">
        <ele>333.2</ele>
        <time>2024-05-26T12:23:43.000Z</time>
      </trkpt>
      <trkpt lat="43.20297" lon="6.51932">
        <ele>333.5</ele>
        <time>2024-05-26T12:23:50.000Z</time>
      </trkpt>
      <trkpt lat="43.20303" lon="6.51941">
        <ele>333.8</ele>
        <time>2024-05-26T12:23:57.000Z</time>
      </trkpt>
      <trkpt lat="43.20311" lon="6.5195">
        <ele>333.9</ele>
        <time>2024-05-26T12:24:05.000Z</time>
      </trkpt>
      <trkpt lat="43.20321" lon="6.51955">
        <ele>333.9</ele>
        <time>2024-05-26T12:24:13.000Z</time>
      </trkpt>
      <trkpt lat="43.2033" lon="6.51959">
        <ele>334.1</ele>
        <time>2024-05-26T12:24:21.000Z</time>
      </trkpt>
      <trkpt lat="43.2034" lon="6.5196">
        <ele>334.3</ele>
        <time>2024-05-26T12:24:30.000Z</time>
      </trkpt>
      <trkpt lat="43.2035" lon="6.51959">
        <ele>334.3</ele>
        <time>2024-05-26T12:24:38.000Z</time>
      </trkpt>
      <trkpt lat="43.2036" lon="6.51958">
        <ele>334.5</ele>
        <time>2024-05-26T12:24:46.000Z</time>
      </trkpt>
      <trkpt lat="43.20369" lon="6.51956">
        <ele>334.5</ele>
        <time>2024-05-26T12:24:54.000Z</time>
      </trkpt>
      <trkpt lat="43.20378" lon="6.51955">
        <ele>334.6</ele>
        <time>2024-05-26T12:25:01.000Z</time>
      </trkpt>
      <trkpt lat="43.20387" lon="6.51952">
        <ele>334.6</ele>
        <time>2024-05-26T12:25:09.000Z</time>
      </trkpt>
      <trkpt lat="43.20396" lon="6.51954">
        <ele>334.6</ele>
        <time>2024-05-26T12:25:17.000Z</time>
      </trkpt>
      <trkpt lat="43.20405" lon="6.51956">
        <ele>334.6</ele>
        <time>2024-05-26T12:25:25.000Z</time>
      </trkpt>
      <trkpt lat="43.20415" lon="6.51958">
        <ele>334.8</ele>
        <time>2024-05-26T12:25:34.000Z</time>
      </trkpt>
      <trkpt lat="43.20424" lon="6.51964">
        <ele>335.1</ele>
        <time>2024-05-26T12:25:43.000Z</time>
      </trkpt>
      <trkpt lat="43.20434" lon="6.51963">
        <ele>335.8</ele>
        <time>2024-05-26T12:25:51.000Z</time>
      </trkpt>
      <trkpt lat="43.20443" lon="6.51963">
        <ele>336.3</ele>
        <time>2024-05-26T12:25:59.000Z</time>
      </trkpt>
      <trkpt lat="43.20452" lon="6.51959">
        <ele>336.4</ele>
        <time>2024-05-26T12:26:06.000Z</time>
      </trkpt>
      <trkpt lat="43.20461" lon="6.5196">
        <ele>336.4</ele>
        <time>2024-05-26T12:26:14.000Z</time>
      </trkpt>
      <trkpt lat="43.2047" lon="6.51964">
        <ele>336.4</ele>
        <time>2024-05-26T12:26:23.000Z</time>
      </trkpt>
      <trkpt lat="43.20477" lon="6.51973">
        <ele>336.5</ele>
        <time>2024-05-26T12:26:31.000Z</time>
      </trkpt>
      <trkpt lat="43.20482" lon="6.51984">
        <ele>336.6</ele>
        <time>2024-05-26T12:26:39.000Z</time>
      </trkpt>
      <trkpt lat="43.2049" lon="6.51993">
        <ele>336.8</ele>
        <time>2024-05-26T12:26:47.000Z</time>
      </trkpt>
      <trkpt lat="43.20499" lon="6.51999">
        <ele>336.9</ele>
        <time>2024-05-26T12:26:55.000Z</time>
      </trkpt>
      <trkpt lat="43.20509" lon="6.52002">
        <ele>337</ele>
        <time>2024-05-26T12:27:04.000Z</time>
      </trkpt>
      <trkpt lat="43.20518" lon="6.52007">
        <ele>337.1</ele>
        <time>2024-05-26T12:27:12.000Z</time>
      </trkpt>
      <trkpt lat="43.20526" lon="6.52016">
        <ele>337.2</ele>
        <time>2024-05-26T12:27:20.000Z</time>
      </trkpt>
      <trkpt lat="43.20534" lon="6.52022">
        <ele>337.5</ele>
        <time>2024-05-26T12:27:28.000Z</time>
      </trkpt>
      <trkpt lat="43.20541" lon="6.52031">
        <ele>337.6</ele>
        <time>2024-05-26T12:27:36.000Z</time>
      </trkpt>
      <trkpt lat="43.20546" lon="6.52042">
        <ele>337.7</ele>
        <time>2024-05-26T12:27:43.000Z</time>
      </trkpt>
      <trkpt lat="43.20553" lon="6.52052">
        <ele>337.7</ele>
        <time>2024-05-26T12:27:52.000Z</time>
      </trkpt>
      <trkpt lat="43.20559" lon="6.52062">
        <ele>337.8</ele>
        <time>2024-05-26T12:28:00.000Z</time>
      </trkpt>
      <trkpt lat="43.20564" lon="6.52073">
        <ele>337.9</ele>
        <time>2024-05-26T12:28:08.000Z</time>
      </trkpt>
      <trkpt lat="43.20572" lon="6.52082">
        <ele>338.1</ele>
        <time>2024-05-26T12:28:16.000Z</time>
      </trkpt>
      <trkpt lat="43.2058" lon="6.52089">
        <ele>338.3</ele>
        <time>2024-05-26T12:28:24.000Z</time>
      </trkpt>
      <trkpt lat="43.20587" lon="6.52097">
        <ele>338.4</ele>
        <time>2024-05-26T12:28:31.000Z</time>
      </trkpt>
      <trkpt lat="43.20595" lon="6.52104">
        <ele>338.5</ele>
        <time>2024-05-26T12:28:39.000Z</time>
      </trkpt>
      <trkpt lat="43.20604" lon="6.52112">
        <ele>338.5</ele>
        <time>2024-05-26T12:28:47.000Z</time>
      </trkpt>
      <trkpt lat="43.20612" lon="6.52118">
        <ele>338.5</ele>
        <time>2024-05-26T12:28:54.000Z</time>
      </trkpt>
      <trkpt lat="43.20619" lon="6.52126">
        <ele>338.5</ele>
        <time>2024-05-26T12:29:01.000Z</time>
      </trkpt>
      <trkpt lat="43.20626" lon="6.52134">
        <ele>338.4</ele>
        <time>2024-05-26T12:29:09.000Z</time>
      </trkpt>
      <trkpt lat="43.20633" lon="6.52143">
        <ele>338.2</ele>
        <time>2024-05-26T12:29:17.000Z</time>
      </trkpt>
      <trkpt lat="43.20637" lon="6.52155">
        <ele>337.9</ele>
        <time>2024-05-26T12:29:24.000Z</time>
      </trkpt>
      <trkpt lat="43.20641" lon="6.52167">
        <ele>337.7</ele>
        <time>2024-05-26T12:29:31.000Z</time>
      </trkpt>
      <trkpt lat="43.20646" lon="6.52179">
        <ele>337.4</ele>
        <time>2024-05-26T12:29:40.000Z</time>
      </trkpt>
      <trkpt lat="43.2065" lon="6.5219">
        <ele>337.2</ele>
        <time>2024-05-26T12:29:48.000Z</time>
      </trkpt>
      <trkpt lat="43.20654" lon="6.52202">
        <ele>336.8</ele>
        <time>2024-05-26T12:29:56.000Z</time>
      </trkpt>
      <trkpt lat="43.2066" lon="6.52212">
        <ele>336.3</ele>
        <time>2024-05-26T12:30:03.000Z</time>
      </trkpt>
      <trkpt lat="43.20666" lon="6.52223">
        <ele>335.7</ele>
        <time>2024-05-26T12:30:12.000Z</time>
      </trkpt>
      <trkpt lat="43.2067" lon="6.52234">
        <ele>334.9</ele>
        <time>2024-05-26T12:30:21.000Z</time>
      </trkpt>
      <trkpt lat="43.2067" lon="6.52235">
        <ele>334.7</ele>
        <time>2024-05-26T12:30:30.000Z</time>
      </trkpt>
      <trkpt lat="43.2067" lon="6.52235">
        <ele>334.7</ele>
        <time>2024-05-26T12:30:31.000Z</time>
      </trkpt>
      <trkpt lat="43.2067" lon="6.52235">
        <ele>334.7</ele>
        <time>2024-05-26T12:30:32.000Z</time>
      </trkpt>
      <trkpt lat="43.2067" lon="6.52234">
        <ele>334.7</ele>
        <time>2024-05-26T12:30:33.000Z</time>
      </trkpt>
      <trkpt lat="43.20671" lon="6.52234">
        <ele>334.7</ele>
        <time>2024-05-26T12:30:34.000Z</time>
      </trkpt>
      <trkpt lat="43.20671" lon="6.52234">
        <ele>334.7</ele>
        <time>2024-05-26T12:30:35.000Z</time>
      </trkpt>
      <trkpt lat="43.20671" lon="6.52233">
        <ele>334.7</ele>
        <time>2024-05-26T12:30:36.000Z</time>
      </trkpt>
      <trkpt lat="43.20671" lon="6.52233">
        <ele>334.7</ele>
        <time>2024-05-26T12:30:37.000Z</time>
      </trkpt>
      <trkpt lat="43.20672" lon="6.52233">
        <ele>334.7</ele>
        <time>2024-05-26T12:30:38.000Z</time>
      </trkpt>
      <trkpt lat="43.20673" lon="6.52233">
        <ele>334.7</ele>
        <time>2024-05-26T12:30:41.000Z</time>
      </trkpt>
      <trkpt lat="43.20673" lon="6.52233">
        <ele>334.7</ele>
        <time>2024-05-26T12:30:42.000Z</time>
      </trkpt>
      <trkpt lat="43.20673" lon="6.52233">
        <ele>334.7</ele>
        <time>2024-05-26T12:30:43.000Z</time>
      </trkpt>
      <trkpt lat="43.20672" lon="6.52233">
        <ele>334.8</ele>
        <time>2024-05-26T12:31:06.000Z</time>
      </trkpt>
      <trkpt lat="43.20673" lon="6.52232">
        <ele>334.8</ele>
        <time>2024-05-26T12:31:07.000Z</time>
      </trkpt>
      <trkpt lat="43.20672" lon="6.52232">
        <ele>334.8</ele>
        <time>2024-05-26T12:31:08.000Z</time>
      </trkpt>
      <trkpt lat="43.20673" lon="6.52232">
        <ele>334.8</ele>
        <time>2024-05-26T12:31:09.000Z</time>
      </trkpt>
      <trkpt lat="43.20673" lon="6.52232">
        <ele>334.8</ele>
        <time>2024-05-26T12:31:10.000Z</time>
      </trkpt>
      <trkpt lat="43.20673" lon="6.52232">
        <ele>334.8</ele>
        <time>2024-05-26T12:31:22.000Z</time>
      </trkpt>
      <trkpt lat="43.20673" lon="6.52232">
        <ele>334.8</ele>
        <time>2024-05-26T12:31:23.000Z</time>
      </trkpt>
      <trkpt lat="43.20672" lon="6.52231">
        <ele>334.8</ele>
        <time>2024-05-26T12:31:24.000Z</time>
      </trkpt>
      <trkpt lat="43.20671" lon="6.52231">
        <ele>335.5</ele>
        <time>2024-05-26T12:31:46.000Z</time>
      </trkpt>
      <trkpt lat="43.20671" lon="6.52231">
        <ele>335.5</ele>
        <time>2024-05-26T12:31:47.000Z</time>
      </trkpt>
      <trkpt lat="43.20671" lon="6.52231">
        <ele>335.5</ele>
        <time>2024-05-26T12:31:48.000Z</time>
      </trkpt>
      <trkpt lat="43.20671" lon="6.52231">
        <ele>335.6</ele>
        <time>2024-05-26T12:31:49.000Z</time>
      </trkpt>
      <trkpt lat="43.20671" lon="6.52231">
        <ele>335.6</ele>
        <time>2024-05-26T12:31:50.000Z</time>
      </trkpt>
      <trkpt lat="43.20671" lon="6.52231">
        <ele>335.6</ele>
        <time>2024-05-26T12:31:51.000Z</time>
      </trkpt>
      <trkpt lat="43.20671" lon="6.52231">
        <ele>335.6</ele>
        <time>2024-05-26T12:31:52.000Z</time>
      </trkpt>
      <trkpt lat="43.20671" lon="6.52231">
        <ele>335.6</ele>
        <time>2024-05-26T12:31:53.000Z</time>
      </trkpt>
      <trkpt lat="43.20671" lon="6.52232">
        <ele>335.5</ele>
        <time>2024-05-26T12:31:59.000Z</time>
      </trkpt>
      <trkpt lat="43.20671" lon="6.52231">
        <ele>335.4</ele>
        <time>2024-05-26T12:32:00.000Z</time>
      </trkpt>
      <trkpt lat="43.2067" lon="6.52231">
        <ele>335</ele>
        <time>2024-05-26T12:32:19.000Z</time>
      </trkpt>
      <trkpt lat="43.2067" lon="6.52231">
        <ele>335</ele>
        <time>2024-05-26T12:32:20.000Z</time>
      </trkpt>
      <trkpt lat="43.2067" lon="6.52231">
        <ele>335</ele>
        <time>2024-05-26T12:32:24.000Z</time>
      </trkpt>
      <trkpt lat="43.2067" lon="6.52231">
        <ele>335</ele>
        <time>2024-05-26T12:32:25.000Z</time>
      </trkpt>
      <trkpt lat="43.2067" lon="6.52231">
        <ele>335</ele>
        <time>2024-05-26T12:32:26.000Z</time>
      </trkpt>
      <trkpt lat="43.2067" lon="6.52232">
        <ele>335</ele>
        <time>2024-05-26T12:32:27.000Z</time>
      </trkpt>
      <trkpt lat="43.2067" lon="6.52231">
        <ele>335</ele>
        <time>2024-05-26T12:32:28.000Z</time>
      </trkpt>
      <trkpt lat="43.2067" lon="6.52231">
        <ele>335</ele>
        <time>2024-05-26T12:32:29.000Z</time>
      </trkpt>
      <trkpt lat="43.20671" lon="6.52231">
        <ele>335</ele>
        <time>2024-05-26T12:32:30.000Z</time>
      </trkpt>
      <trkpt lat="43.20674" lon="6.52232">
        <ele>334.9</ele>
        <time>2024-05-26T12:32:49.000Z</time>
      </trkpt>
      <trkpt lat="43.20674" lon="6.52232">
        <ele>334.9</ele>
        <time>2024-05-26T12:32:50.000Z</time>
      </trkpt>
      <trkpt lat="43.20674" lon="6.52232">
        <ele>335</ele>
        <time>2024-05-26T12:32:54.000Z</time>
      </trkpt>
      <trkpt lat="43.20674" lon="6.52232">
        <ele>335</ele>
        <time>2024-05-26T12:32:55.000Z</time>
      </trkpt>
      <trkpt lat="43.20674" lon="6.52232">
        <ele>335</ele>
        <time>2024-05-26T12:33:12.000Z</time>
      </trkpt>
      <trkpt lat="43.20674" lon="6.52232">
        <ele>335</ele>
        <time>2024-05-26T12:33:13.000Z</time>
      </trkpt>
      <trkpt lat="43.20674" lon="6.52232">
        <ele>335</ele>
        <time>2024-05-26T12:33:14.000Z</time>
      </trkpt>
      <trkpt lat="43.20674" lon="6.52232">
        <ele>335</ele>
        <time>2024-05-26T12:33:15.000Z</time>
      </trkpt>
      <trkpt lat="43.20674" lon="6.52232">
        <ele>335.1</ele>
        <time>2024-05-26T12:33:31.000Z</time>
      </trkpt>
      <trkpt lat="43.20674" lon="6.52232">
        <ele>335.1</ele>
        <time>2024-05-26T12:33:32.000Z</time>
      </trkpt>
      <trkpt lat="43.20674" lon="6.52232">
        <ele>335.1</ele>
        <time>2024-05-26T12:33:33.000Z</time>
      </trkpt>
      <trkpt lat="43.20674" lon="6.52232">
        <ele>335.1</ele>
        <time>2024-05-26T12:33:34.000Z</time>
      </trkpt>
      <trkpt lat="43.20674" lon="6.52232">
        <ele>335.1</ele>
        <time>2024-05-26T12:33:35.000Z</time>
      </trkpt>
      <trkpt lat="43.20674" lon="6.52232">
        <ele>335.1</ele>
        <time>2024-05-26T12:33:36.000Z</time>
      </trkpt>
      <trkpt lat="43.20674" lon="6.52231">
        <ele>335.1</ele>
        <time>2024-05-26T12:33:40.000Z</time>
      </trkpt>
      <trkpt lat="43.20674" lon="6.52231">
        <ele>335.1</ele>
        <time>2024-05-26T12:33:41.000Z</time>
      </trkpt>
      <trkpt lat="43.20674" lon="6.52231">
        <ele>335.1</ele>
        <time>2024-05-26T12:33:42.000Z</time>
      </trkpt>
      <trkpt lat="43.20674" lon="6.52231">
        <ele>335.1</ele>
        <time>2024-05-26T12:33:43.000Z</time>
      </trkpt>
      <trkpt lat="43.20674" lon="6.5223">
        <ele>335.1</ele>
        <time>2024-05-26T12:34:02.000Z</time>
      </trkpt>
      <trkpt lat="43.20674" lon="6.5223">
        <ele>335.1</ele>
        <time>2024-05-26T12:34:03.000Z</time>
      </trkpt>
      <trkpt lat="43.20675" lon="6.52232">
        <ele>335</ele>
        <time>2024-05-26T12:34:11.000Z</time>
      </trkpt>
      <trkpt lat="43.20675" lon="6.52232">
        <ele>335</ele>
        <time>2024-05-26T12:34:12.000Z</time>
      </trkpt>
      <trkpt lat="43.20675" lon="6.52232">
        <ele>335</ele>
        <time>2024-05-26T12:34:13.000Z</time>
      </trkpt>
      <trkpt lat="43.20675" lon="6.52233">
        <ele>335</ele>
        <time>2024-05-26T12:34:22.000Z</time>
      </trkpt>
      <trkpt lat="43.20675" lon="6.52233">
        <ele>335</ele>
        <time>2024-05-26T12:34:23.000Z</time>
      </trkpt>
      <trkpt lat="43.20675" lon="6.52233">
        <ele>335</ele>
        <time>2024-05-26T12:34:24.000Z</time>
      </trkpt>
      <trkpt lat="43.20675" lon="6.52233">
        <ele>335</ele>
        <time>2024-05-26T12:34:25.000Z</time>
      </trkpt>
      <trkpt lat="43.20675" lon="6.52233">
        <ele>335</ele>
        <time>2024-05-26T12:34:26.000Z</time>
      </trkpt>
      <trkpt lat="43.20675" lon="6.52232">
        <ele>335</ele>
        <time>2024-05-26T12:34:35.000Z</time>
      </trkpt>
      <trkpt lat="43.20675" lon="6.52232">
        <ele>335</ele>
        <time>2024-05-26T12:34:36.000Z</time>
      </trkpt>
      <trkpt lat="43.20675" lon="6.52232">
        <ele>335</ele>
        <time>2024-05-26T12:34:37.000Z</time>
      </trkpt>
      <trkpt lat="43.20675" lon="6.52232">
        <ele>335</ele>
        <time>2024-05-26T12:34:38.000Z</time>
      </trkpt>
      <trkpt lat="43.20675" lon="6.52232">
        <ele>335</ele>
        <time>2024-05-26T12:35:19.000Z</time>
      </trkpt>
      <trkpt lat="43.20675" lon="6.52232">
        <ele>335</ele>
        <time>2024-05-26T12:35:20.000Z</time>
      </trkpt>
      <trkpt lat="43.20669" lon="6.52231">
        <ele>335.1</ele>
        <time>2024-05-26T12:35:30.000Z</time>
      </trkpt>
      <trkpt lat="43.20669" lon="6.52231">
        <ele>335.1</ele>
        <time>2024-05-26T12:35:31.000Z</time>
      </trkpt>
      <trkpt lat="43.20669" lon="6.5223">
        <ele>335.1</ele>
        <time>2024-05-26T12:35:32.000Z</time>
      </trkpt>
      <trkpt lat="43.20669" lon="6.5223">
        <ele>335.1</ele>
        <time>2024-05-26T12:35:33.000Z</time>
      </trkpt>
      <trkpt lat="43.20669" lon="6.5223">
        <ele>335.1</ele>
        <time>2024-05-26T12:35:34.000Z</time>
      </trkpt>
      <trkpt lat="43.20669" lon="6.5223">
        <ele>335.1</ele>
        <time>2024-05-26T12:35:35.000Z</time>
      </trkpt>
      <trkpt lat="43.20669" lon="6.5223">
        <ele>335.1</ele>
        <time>2024-05-26T12:35:36.000Z</time>
      </trkpt>
      <trkpt lat="43.20669" lon="6.5223">
        <ele>335.1</ele>
        <time>2024-05-26T12:35:37.000Z</time>
      </trkpt>
      <trkpt lat="43.20669" lon="6.5223">
        <ele>335.1</ele>
        <time>2024-05-26T12:35:38.000Z</time>
      </trkpt>
      <trkpt lat="43.20669" lon="6.5223">
        <ele>335.2</ele>
        <time>2024-05-26T12:35:42.000Z</time>
      </trkpt>
      <trkpt lat="43.20669" lon="6.5223">
        <ele>335.2</ele>
        <time>2024-05-26T12:35:43.000Z</time>
      </trkpt>
      <trkpt lat="43.20669" lon="6.5223">
        <ele>335.2</ele>
        <time>2024-05-26T12:35:44.000Z</time>
      </trkpt>
      <trkpt lat="43.20669" lon="6.5223">
        <ele>335.2</ele>
        <time>2024-05-26T12:35:45.000Z</time>
      </trkpt>
      <trkpt lat="43.20671" lon="6.5223">
        <ele>335.2</ele>
        <time>2024-05-26T12:35:46.000Z</time>
      </trkpt>
      <trkpt lat="43.20675" lon="6.52241">
        <ele>335.3</ele>
        <time>2024-05-26T12:35:54.000Z</time>
      </trkpt>
      <trkpt lat="43.20677" lon="6.52255">
        <ele>335.1</ele>
        <time>2024-05-26T12:36:01.000Z</time>
      </trkpt>
      <trkpt lat="43.20678" lon="6.52267">
        <ele>335</ele>
        <time>2024-05-26T12:36:09.000Z</time>
      </trkpt>
      <trkpt lat="43.20679" lon="6.5228">
        <ele>334.6</ele>
        <time>2024-05-26T12:36:18.000Z</time>
      </trkpt>
      <trkpt lat="43.20679" lon="6.52293">
        <ele>333.6</ele>
        <time>2024-05-26T12:36:27.000Z</time>
      </trkpt>
      <trkpt lat="43.20679" lon="6.52306">
        <ele>332.2</ele>
        <time>2024-05-26T12:36:35.000Z</time>
      </trkpt>
      <trkpt lat="43.20678" lon="6.52319">
        <ele>330.1</ele>
        <time>2024-05-26T12:36:45.000Z</time>
      </trkpt>
      <trkpt lat="43.20677" lon="6.52332">
        <ele>328.4</ele>
        <time>2024-05-26T12:36:54.000Z</time>
      </trkpt>
      <trkpt lat="43.20674" lon="6.52345">
        <ele>326.5</ele>
        <time>2024-05-26T12:37:04.000Z</time>
      </trkpt>
      <trkpt lat="43.2067" lon="6.52356">
        <ele>325.8</ele>
        <time>2024-05-26T12:37:12.000Z</time>
      </trkpt>
      <trkpt lat="43.20663" lon="6.52364">
        <ele>324.1</ele>
        <time>2024-05-26T12:37:25.000Z</time>
      </trkpt>
      <trkpt lat="43.20656" lon="6.52372">
        <ele>320.2</ele>
        <time>2024-05-26T12:37:40.000Z</time>
      </trkpt>
      <trkpt lat="43.20653" lon="6.52384">
        <ele>317.8</ele>
        <time>2024-05-26T12:37:53.000Z</time>
      </trkpt>
      <trkpt lat="43.20651" lon="6.52397">
        <ele>315.4</ele>
        <time>2024-05-26T12:38:08.000Z</time>
      </trkpt>
      <trkpt lat="43.20647" lon="6.5241">
        <ele>313.9</ele>
        <time>2024-05-26T12:38:18.000Z</time>
      </trkpt>
      <trkpt lat="43.20647" lon="6.52423">
        <ele>312.4</ele>
        <time>2024-05-26T12:38:29.000Z</time>
      </trkpt>
      <trkpt lat="43.20647" lon="6.52436">
        <ele>311.3</ele>
        <time>2024-05-26T12:38:37.000Z</time>
      </trkpt>
      <trkpt lat="43.20646" lon="6.52449">
        <ele>310.1</ele>
        <time>2024-05-26T12:38:46.000Z</time>
      </trkpt>
      <trkpt lat="43.20646" lon="6.52462">
        <ele>309.4</ele>
        <time>2024-05-26T12:38:55.000Z</time>
      </trkpt>
      <trkpt lat="43.20647" lon="6.52475">
        <ele>308.5</ele>
        <time>2024-05-26T12:39:03.000Z</time>
      </trkpt>
      <trkpt lat="43.20647" lon="6.52489">
        <ele>307.5</ele>
        <time>2024-05-26T12:39:11.000Z</time>
      </trkpt>
      <trkpt lat="43.20648" lon="6.52502">
        <ele>306.6</ele>
        <time>2024-05-26T12:39:20.000Z</time>
      </trkpt>
      <trkpt lat="43.20648" lon="6.52515">
        <ele>305.9</ele>
        <time>2024-05-26T12:39:27.000Z</time>
      </trkpt>
      <trkpt lat="43.20649" lon="6.52529">
        <ele>305.2</ele>
        <time>2024-05-26T12:39:36.000Z</time>
      </trkpt>
      <trkpt lat="43.2065" lon="6.52542">
        <ele>304.6</ele>
        <time>2024-05-26T12:39:44.000Z</time>
      </trkpt>
      <trkpt lat="43.20647" lon="6.52555">
        <ele>304.1</ele>
        <time>2024-05-26T12:39:54.000Z</time>
      </trkpt>
      <trkpt lat="43.20646" lon="6.52568">
        <ele>303.7</ele>
        <time>2024-05-26T12:40:02.000Z</time>
      </trkpt>
      <trkpt lat="43.20645" lon="6.52581">
        <ele>303.1</ele>
        <time>2024-05-26T12:40:11.000Z</time>
      </trkpt>
      <trkpt lat="43.20643" lon="6.52593">
        <ele>302.5</ele>
        <time>2024-05-26T12:40:19.000Z</time>
      </trkpt>
      <trkpt lat="43.20639" lon="6.52605">
        <ele>301.8</ele>
        <time>2024-05-26T12:40:28.000Z</time>
      </trkpt>
      <trkpt lat="43.20632" lon="6.52614">
        <ele>300.7</ele>
        <time>2024-05-26T12:40:38.000Z</time>
      </trkpt>
      <trkpt lat="43.20631" lon="6.52617">
        <ele>300.2</ele>
        <time>2024-05-26T12:40:44.000Z</time>
      </trkpt>
      <trkpt lat="43.20631" lon="6.52617">
        <ele>300.2</ele>
        <time>2024-05-26T12:40:45.000Z</time>
      </trkpt>
      <trkpt lat="43.20631" lon="6.52618">
        <ele>300.1</ele>
        <time>2024-05-26T12:40:46.000Z</time>
      </trkpt>
      <trkpt lat="43.20632" lon="6.52618">
        <ele>300.1</ele>
        <time>2024-05-26T12:40:47.000Z</time>
      </trkpt>
      <trkpt lat="43.20632" lon="6.52618">
        <ele>300.1</ele>
        <time>2024-05-26T12:40:48.000Z</time>
      </trkpt>
      <trkpt lat="43.20632" lon="6.52618">
        <ele>300</ele>
        <time>2024-05-26T12:40:51.000Z</time>
      </trkpt>
      <trkpt lat="43.20632" lon="6.52618">
        <ele>300</ele>
        <time>2024-05-26T12:40:52.000Z</time>
      </trkpt>
      <trkpt lat="43.20632" lon="6.52618">
        <ele>300</ele>
        <time>2024-05-26T12:40:53.000Z</time>
      </trkpt>
      <trkpt lat="43.20632" lon="6.52618">
        <ele>300</ele>
        <time>2024-05-26T12:40:54.000Z</time>
      </trkpt>
      <trkpt lat="43.20632" lon="6.52618">
        <ele>300</ele>
        <time>2024-05-26T12:40:55.000Z</time>
      </trkpt>
      <trkpt lat="43.20632" lon="6.52618">
        <ele>300</ele>
        <time>2024-05-26T12:40:56.000Z</time>
      </trkpt>
      <trkpt lat="43.20632" lon="6.52618">
        <ele>300</ele>
        <time>2024-05-26T12:40:57.000Z</time>
      </trkpt>
      <trkpt lat="43.20632" lon="6.52618">
        <ele>300</ele>
        <time>2024-05-26T12:40:58.000Z</time>
      </trkpt>
      <trkpt lat="43.20632" lon="6.5262">
        <ele>299.7</ele>
        <time>2024-05-26T12:41:31.000Z</time>
      </trkpt>
      <trkpt lat="43.20632" lon="6.5262">
        <ele>299.7</ele>
        <time>2024-05-26T12:41:32.000Z</time>
      </trkpt>
      <trkpt lat="43.20632" lon="6.5262">
        <ele>299.7</ele>
        <time>2024-05-26T12:41:33.000Z</time>
      </trkpt>
      <trkpt lat="43.20632" lon="6.5262">
        <ele>299.6</ele>
        <time>2024-05-26T12:41:39.000Z</time>
      </trkpt>
      <trkpt lat="43.20632" lon="6.5262">
        <ele>299.6</ele>
        <time>2024-05-26T12:41:40.000Z</time>
      </trkpt>
      <trkpt lat="43.20632" lon="6.5262">
        <ele>299.6</ele>
        <time>2024-05-26T12:41:41.000Z</time>
      </trkpt>
      <trkpt lat="43.20631" lon="6.52621">
        <ele>299.6</ele>
        <time>2024-05-26T12:41:50.000Z</time>
      </trkpt>
      <trkpt lat="43.20631" lon="6.52621">
        <ele>299.6</ele>
        <time>2024-05-26T12:41:51.000Z</time>
      </trkpt>
      <trkpt lat="43.2063" lon="6.52622">
        <ele>299.6</ele>
        <time>2024-05-26T12:41:59.000Z</time>
      </trkpt>
      <trkpt lat="43.2063" lon="6.52622">
        <ele>299.6</ele>
        <time>2024-05-26T12:42:00.000Z</time>
      </trkpt>
      <trkpt lat="43.2063" lon="6.52624">
        <ele>299.7</ele>
        <time>2024-05-26T12:42:11.000Z</time>
      </trkpt>
      <trkpt lat="43.2063" lon="6.52625">
        <ele>299.7</ele>
        <time>2024-05-26T12:42:12.000Z</time>
      </trkpt>
      <trkpt lat="43.2063" lon="6.52626">
        <ele>299.7</ele>
        <time>2024-05-26T12:42:13.000Z</time>
      </trkpt>
      <trkpt lat="43.20626" lon="6.52638">
        <ele>299.6</ele>
        <time>2024-05-26T12:42:25.000Z</time>
      </trkpt>
      <trkpt lat="43.2062" lon="6.52649">
        <ele>299.5</ele>
        <time>2024-05-26T12:42:34.000Z</time>
      </trkpt>
      <trkpt lat="43.20618" lon="6.52661">
        <ele>299.1</ele>
        <time>2024-05-26T12:42:46.000Z</time>
      </trkpt>
      <trkpt lat="43.20618" lon="6.52662">
        <ele>299.2</ele>
        <time>2024-05-26T12:42:56.000Z</time>
      </trkpt>
      <trkpt lat="43.20618" lon="6.52662">
        <ele>299.2</ele>
        <time>2024-05-26T12:42:57.000Z</time>
      </trkpt>
      <trkpt lat="43.20618" lon="6.52662">
        <ele>299.2</ele>
        <time>2024-05-26T12:42:58.000Z</time>
      </trkpt>
      <trkpt lat="43.20618" lon="6.52665">
        <ele>299.2</ele>
        <time>2024-05-26T12:43:09.000Z</time>
      </trkpt>
      <trkpt lat="43.20618" lon="6.52667">
        <ele>299.1</ele>
        <time>2024-05-26T12:43:10.000Z</time>
      </trkpt>
      <trkpt lat="43.20613" lon="6.52678">
        <ele>298.8</ele>
        <time>2024-05-26T12:43:18.000Z</time>
      </trkpt>
      <trkpt lat="43.20605" lon="6.52687">
        <ele>298</ele>
        <time>2024-05-26T12:43:28.000Z</time>
      </trkpt>
      <trkpt lat="43.20599" lon="6.52697">
        <ele>297.5</ele>
        <time>2024-05-26T12:43:37.000Z</time>
      </trkpt>
      <trkpt lat="43.20593" lon="6.52707">
        <ele>297.3</ele>
        <time>2024-05-26T12:43:45.000Z</time>
      </trkpt>
      <trkpt lat="43.20588" lon="6.52719">
        <ele>297.2</ele>
        <time>2024-05-26T12:43:52.000Z</time>
      </trkpt>
      <trkpt lat="43.20581" lon="6.52727">
        <ele>297.2</ele>
        <time>2024-05-26T12:44:00.000Z</time>
      </trkpt>
      <trkpt lat="43.20574" lon="6.52735">
        <ele>297.2</ele>
        <time>2024-05-26T12:44:08.000Z</time>
      </trkpt>
      <trkpt lat="43.20565" lon="6.52742">
        <ele>297.3</ele>
        <time>2024-05-26T12:44:15.000Z</time>
      </trkpt>
      <trkpt lat="43.20562" lon="6.52754">
        <ele>297.3</ele>
        <time>2024-05-26T12:44:22.000Z</time>
      </trkpt>
      <trkpt lat="43.20556" lon="6.52764">
        <ele>297.3</ele>
        <time>2024-05-26T12:44:30.000Z</time>
      </trkpt>
      <trkpt lat="43.2055" lon="6.52774">
        <ele>297.2</ele>
        <time>2024-05-26T12:44:38.000Z</time>
      </trkpt>
      <trkpt lat="43.20545" lon="6.52784">
        <ele>297.1</ele>
        <time>2024-05-26T12:44:45.000Z</time>
      </trkpt>
      <trkpt lat="43.20542" lon="6.52797">
        <ele>296.9</ele>
        <time>2024-05-26T12:44:53.000Z</time>
      </trkpt>
      <trkpt lat="43.20534" lon="6.52806">
        <ele>296.4</ele>
        <time>2024-05-26T12:45:01.000Z</time>
      </trkpt>
      <trkpt lat="43.20529" lon="6.52816">
        <ele>295.9</ele>
        <time>2024-05-26T12:45:08.000Z</time>
      </trkpt>
      <trkpt lat="43.20524" lon="6.52828">
        <ele>295.3</ele>
        <time>2024-05-26T12:45:16.000Z</time>
      </trkpt>
      <trkpt lat="43.20517" lon="6.52837">
        <ele>295.1</ele>
        <time>2024-05-26T12:45:24.000Z</time>
      </trkpt>
      <trkpt lat="43.20512" lon="6.52849">
        <ele>295.1</ele>
        <time>2024-05-26T12:45:32.000Z</time>
      </trkpt>
      <trkpt lat="43.20507" lon="6.5286">
        <ele>295.3</ele>
        <time>2024-05-26T12:45:40.000Z</time>
      </trkpt>
      <trkpt lat="43.20507" lon="6.52873">
        <ele>295.6</ele>
        <time>2024-05-26T12:45:49.000Z</time>
      </trkpt>
      <trkpt lat="43.20509" lon="6.52887">
        <ele>296.9</ele>
        <time>2024-05-26T12:45:59.000Z</time>
      </trkpt>
      <trkpt lat="43.20511" lon="6.529">
        <ele>297.8</ele>
        <time>2024-05-26T12:46:07.000Z</time>
      </trkpt>
      <trkpt lat="43.20513" lon="6.52913">
        <ele>298.4</ele>
        <time>2024-05-26T12:46:16.000Z</time>
      </trkpt>
      <trkpt lat="43.20514" lon="6.52926">
        <ele>298.4</ele>
        <time>2024-05-26T12:46:26.000Z</time>
      </trkpt>
      <trkpt lat="43.20514" lon="6.52938">
        <ele>298.2</ele>
        <time>2024-05-26T12:46:34.000Z</time>
      </trkpt>
      <trkpt lat="43.20514" lon="6.52951">
        <ele>297.1</ele>
        <time>2024-05-26T12:46:44.000Z</time>
      </trkpt>
      <trkpt lat="43.20514" lon="6.52965">
        <ele>295.3</ele>
        <time>2024-05-26T12:46:55.000Z</time>
      </trkpt>
      <trkpt lat="43.20518" lon="6.52978">
        <ele>293.5</ele>
        <time>2024-05-26T12:47:06.000Z</time>
      </trkpt>
      <trkpt lat="43.20524" lon="6.52988">
        <ele>292.8</ele>
        <time>2024-05-26T12:47:12.000Z</time>
      </trkpt>
      <trkpt lat="43.2053" lon="6.52999">
        <ele>291.7</ele>
        <time>2024-05-26T12:47:22.000Z</time>
      </trkpt>
      <trkpt lat="43.20536" lon="6.53009">
        <ele>290.6</ele>
        <time>2024-05-26T12:47:30.000Z</time>
      </trkpt>
      <trkpt lat="43.20541" lon="6.5302">
        <ele>289.7</ele>
        <time>2024-05-26T12:47:37.000Z</time>
      </trkpt>
      <trkpt lat="43.20547" lon="6.5303">
        <ele>289.1</ele>
        <time>2024-05-26T12:47:47.000Z</time>
      </trkpt>
      <trkpt lat="43.20553" lon="6.53041">
        <ele>288.4</ele>
        <time>2024-05-26T12:47:58.000Z</time>
      </trkpt>
      <trkpt lat="43.20559" lon="6.5305">
        <ele>287.5</ele>
        <time>2024-05-26T12:48:08.000Z</time>
      </trkpt>
      <trkpt lat="43.20567" lon="6.53057">
        <ele>285.8</ele>
        <time>2024-05-26T12:48:18.000Z</time>
      </trkpt>
      <trkpt lat="43.20573" lon="6.53067">
        <ele>283.5</ele>
        <time>2024-05-26T12:48:31.000Z</time>
      </trkpt>
      <trkpt lat="43.20578" lon="6.53078">
        <ele>281.7</ele>
        <time>2024-05-26T12:48:42.000Z</time>
      </trkpt>
      <trkpt lat="43.2058" lon="6.53091">
        <ele>280.2</ele>
        <time>2024-05-26T12:48:51.000Z</time>
      </trkpt>
      <trkpt lat="43.20584" lon="6.53103">
        <ele>279.5</ele>
        <time>2024-05-26T12:49:01.000Z</time>
      </trkpt>
      <trkpt lat="43.20585" lon="6.53115">
        <ele>279.3</ele>
        <time>2024-05-26T12:49:10.000Z</time>
      </trkpt>
      <trkpt lat="43.20583" lon="6.53128">
        <ele>279.2</ele>
        <time>2024-05-26T12:49:19.000Z</time>
      </trkpt>
      <trkpt lat="43.20584" lon="6.5314">
        <ele>279.1</ele>
        <time>2024-05-26T12:49:27.000Z</time>
      </trkpt>
      <trkpt lat="43.20585" lon="6.53152">
        <ele>279.2</ele>
        <time>2024-05-26T12:49:36.000Z</time>
      </trkpt>
      <trkpt lat="43.20588" lon="6.53165">
        <ele>279.8</ele>
        <time>2024-05-26T12:49:46.000Z</time>
      </trkpt>
      <trkpt lat="43.20591" lon="6.53178">
        <ele>281.1</ele>
        <time>2024-05-26T12:49:57.000Z</time>
      </trkpt>
      <trkpt lat="43.20595" lon="6.53189">
        <ele>282.8</ele>
        <time>2024-05-26T12:50:10.000Z</time>
      </trkpt>
      <trkpt lat="43.20598" lon="6.53193">
        <ele>284.6</ele>
        <time>2024-05-26T12:50:24.000Z</time>
      </trkpt>
      <trkpt lat="43.20598" lon="6.53193">
        <ele>284.6</ele>
        <time>2024-05-26T12:50:25.000Z</time>
      </trkpt>
      <trkpt lat="43.20599" lon="6.53194">
        <ele>284.7</ele>
        <time>2024-05-26T12:50:26.000Z</time>
      </trkpt>
      <trkpt lat="43.206" lon="6.53195">
        <ele>284.7</ele>
        <time>2024-05-26T12:50:27.000Z</time>
      </trkpt>
      <trkpt lat="43.206" lon="6.53196">
        <ele>284.7</ele>
        <time>2024-05-26T12:50:28.000Z</time>
      </trkpt>
      <trkpt lat="43.20606" lon="6.53207">
        <ele>285.3</ele>
        <time>2024-05-26T12:50:38.000Z</time>
      </trkpt>
      <trkpt lat="43.20612" lon="6.53217">
        <ele>286.8</ele>
        <time>2024-05-26T12:50:49.000Z</time>
      </trkpt>
      <trkpt lat="43.20619" lon="6.53224">
        <ele>288.4</ele>
        <time>2024-05-26T12:51:00.000Z</time>
      </trkpt>
      <trkpt lat="43.20627" lon="6.53231">
        <ele>289.5</ele>
        <time>2024-05-26T12:51:09.000Z</time>
      </trkpt>
      <trkpt lat="43.20636" lon="6.53237">
        <ele>290.4</ele>
        <time>2024-05-26T12:51:18.000Z</time>
      </trkpt>
      <trkpt lat="43.20645" lon="6.53239">
        <ele>291</ele>
        <time>2024-05-26T12:51:26.000Z</time>
      </trkpt>
      <trkpt lat="43.2065" lon="6.5325">
        <ele>291.4</ele>
        <time>2024-05-26T12:51:36.000Z</time>
      </trkpt>
      <trkpt lat="43.20648" lon="6.53262">
        <ele>291.6</ele>
        <time>2024-05-26T12:51:46.000Z</time>
      </trkpt>
      <trkpt lat="43.20641" lon="6.53273">
        <ele>291.8</ele>
        <time>2024-05-26T12:51:54.000Z</time>
      </trkpt>
      <trkpt lat="43.20637" lon="6.53285">
        <ele>292</ele>
        <time>2024-05-26T12:52:01.000Z</time>
      </trkpt>
      <trkpt lat="43.20638" lon="6.53297">
        <ele>292.1</ele>
        <time>2024-05-26T12:52:09.000Z</time>
      </trkpt>
      <trkpt lat="43.20636" lon="6.53311">
        <ele>292.4</ele>
        <time>2024-05-26T12:52:18.000Z</time>
      </trkpt>
      <trkpt lat="43.20636" lon="6.53325">
        <ele>292.7</ele>
        <time>2024-05-26T12:52:26.000Z</time>
      </trkpt>
      <trkpt lat="43.20639" lon="6.53338">
        <ele>293.4</ele>
        <time>2024-05-26T12:52:36.000Z</time>
      </trkpt>
      <trkpt lat="43.20643" lon="6.5335">
        <ele>294.3</ele>
        <time>2024-05-26T12:52:46.000Z</time>
      </trkpt>
      <trkpt lat="43.20645" lon="6.53364">
        <ele>295.1</ele>
        <time>2024-05-26T12:52:55.000Z</time>
      </trkpt>
      <trkpt lat="43.20651" lon="6.53374">
        <ele>296.2</ele>
        <time>2024-05-26T12:53:03.000Z</time>
      </trkpt>
      <trkpt lat="43.20656" lon="6.53385">
        <ele>297.5</ele>
        <time>2024-05-26T12:53:13.000Z</time>
      </trkpt>
      <trkpt lat="43.20661" lon="6.53396">
        <ele>298.7</ele>
        <time>2024-05-26T12:53:22.000Z</time>
      </trkpt>
      <trkpt lat="43.20666" lon="6.53408">
        <ele>299.9</ele>
        <time>2024-05-26T12:53:32.000Z</time>
      </trkpt>
      <trkpt lat="43.20671" lon="6.53419">
        <ele>301.2</ele>
        <time>2024-05-26T12:53:42.000Z</time>
      </trkpt>
      <trkpt lat="43.20675" lon="6.53431">
        <ele>302.7</ele>
        <time>2024-05-26T12:53:53.000Z</time>
      </trkpt>
      <trkpt lat="43.20679" lon="6.53443">
        <ele>303.3</ele>
        <time>2024-05-26T12:54:02.000Z</time>
      </trkpt>
      <trkpt lat="43.20686" lon="6.53452">
        <ele>303.8</ele>
        <time>2024-05-26T12:54:11.000Z</time>
      </trkpt>
      <trkpt lat="43.2069" lon="6.53463">
        <ele>304.4</ele>
        <time>2024-05-26T12:54:19.000Z</time>
      </trkpt>
      <trkpt lat="43.20697" lon="6.53472">
        <ele>305</ele>
        <time>2024-05-26T12:54:28.000Z</time>
      </trkpt>
      <trkpt lat="43.20705" lon="6.5348">
        <ele>305.3</ele>
        <time>2024-05-26T12:54:36.000Z</time>
      </trkpt>
      <trkpt lat="43.20711" lon="6.5349">
        <ele>305.4</ele>
        <time>2024-05-26T12:54:44.000Z</time>
      </trkpt>
      <trkpt lat="43.20712" lon="6.53503">
        <ele>305.6</ele>
        <time>2024-05-26T12:54:54.000Z</time>
      </trkpt>
      <trkpt lat="43.2071" lon="6.53516">
        <ele>305.9</ele>
        <time>2024-05-26T12:55:02.000Z</time>
      </trkpt>
      <trkpt lat="43.20708" lon="6.53529">
        <ele>306.8</ele>
        <time>2024-05-26T12:55:14.000Z</time>
      </trkpt>
      <trkpt lat="43.2071" lon="6.53543">
        <ele>307.9</ele>
        <time>2024-05-26T12:55:24.000Z</time>
      </trkpt>
      <trkpt lat="43.20712" lon="6.53555">
        <ele>308.7</ele>
        <time>2024-05-26T12:55:33.000Z</time>
      </trkpt>
      <trkpt lat="43.20716" lon="6.53566">
        <ele>309.6</ele>
        <time>2024-05-26T12:55:43.000Z</time>
      </trkpt>
      <trkpt lat="43.20721" lon="6.53577">
        <ele>310.9</ele>
        <time>2024-05-26T12:55:52.000Z</time>
      </trkpt>
      <trkpt lat="43.20724" lon="6.5359">
        <ele>312.4</ele>
        <time>2024-05-26T12:56:04.000Z</time>
      </trkpt>
      <trkpt lat="43.20729" lon="6.53601">
        <ele>313.5</ele>
        <time>2024-05-26T12:56:14.000Z</time>
      </trkpt>
      <trkpt lat="43.20735" lon="6.53612">
        <ele>314.5</ele>
        <time>2024-05-26T12:56:23.000Z</time>
      </trkpt>
      <trkpt lat="43.20742" lon="6.53621">
        <ele>315.2</ele>
        <time>2024-05-26T12:56:32.000Z</time>
      </trkpt>
      <trkpt lat="43.20749" lon="6.53631">
        <ele>316.2</ele>
        <time>2024-05-26T12:56:43.000Z</time>
      </trkpt>
      <trkpt lat="43.20757" lon="6.53639">
        <ele>317</ele>
        <time>2024-05-26T12:56:52.000Z</time>
      </trkpt>
      <trkpt lat="43.20764" lon="6.53647">
        <ele>317.9</ele>
        <time>2024-05-26T12:57:02.000Z</time>
      </trkpt>
      <trkpt lat="43.20772" lon="6.53652">
        <ele>318.5</ele>
        <time>2024-05-26T12:57:11.000Z</time>
      </trkpt>
      <trkpt lat="43.20781" lon="6.53654">
        <ele>319.2</ele>
        <time>2024-05-26T12:57:21.000Z</time>
      </trkpt>
      <trkpt lat="43.2079" lon="6.5366">
        <ele>319.8</ele>
        <time>2024-05-26T12:57:29.000Z</time>
      </trkpt>
      <trkpt lat="43.208" lon="6.53659">
        <ele>320.2</ele>
        <time>2024-05-26T12:57:38.000Z</time>
      </trkpt>
      <trkpt lat="43.20809" lon="6.53659">
        <ele>320.5</ele>
        <time>2024-05-26T12:57:46.000Z</time>
      </trkpt>
      <trkpt lat="43.2081" lon="6.53658">
        <ele>320.8</ele>
        <time>2024-05-26T12:57:54.000Z</time>
      </trkpt>
      <trkpt lat="43.2081" lon="6.53658">
        <ele>320.8</ele>
        <time>2024-05-26T12:57:55.000Z</time>
      </trkpt>
      <trkpt lat="43.2081" lon="6.53658">
        <ele>320.8</ele>
        <time>2024-05-26T12:57:56.000Z</time>
      </trkpt>
      <trkpt lat="43.2081" lon="6.53658">
        <ele>320.8</ele>
        <time>2024-05-26T12:57:57.000Z</time>
      </trkpt>
      <trkpt lat="43.2081" lon="6.53658">
        <ele>320.9</ele>
        <time>2024-05-26T12:57:58.000Z</time>
      </trkpt>
      <trkpt lat="43.20809" lon="6.53658">
        <ele>321.2</ele>
        <time>2024-05-26T12:58:04.000Z</time>
      </trkpt>
      <trkpt lat="43.20809" lon="6.53658">
        <ele>321.3</ele>
        <time>2024-05-26T12:58:05.000Z</time>
      </trkpt>
      <trkpt lat="43.20809" lon="6.53658">
        <ele>321.4</ele>
        <time>2024-05-26T12:58:06.000Z</time>
      </trkpt>
      <trkpt lat="43.20809" lon="6.53657">
        <ele>321.6</ele>
        <time>2024-05-26T12:58:09.000Z</time>
      </trkpt>
      <trkpt lat="43.20809" lon="6.53657">
        <ele>321.6</ele>
        <time>2024-05-26T12:58:10.000Z</time>
      </trkpt>
      <trkpt lat="43.20809" lon="6.53657">
        <ele>321.7</ele>
        <time>2024-05-26T12:58:11.000Z</time>
      </trkpt>
      <trkpt lat="43.20809" lon="6.53657">
        <ele>321.8</ele>
        <time>2024-05-26T12:58:14.000Z</time>
      </trkpt>
      <trkpt lat="43.20809" lon="6.53657">
        <ele>321.8</ele>
        <time>2024-05-26T12:58:15.000Z</time>
      </trkpt>
      <trkpt lat="43.20809" lon="6.53657">
        <ele>321.8</ele>
        <time>2024-05-26T12:58:16.000Z</time>
      </trkpt>
      <trkpt lat="43.20809" lon="6.53657">
        <ele>321.9</ele>
        <time>2024-05-26T12:58:42.000Z</time>
      </trkpt>
      <trkpt lat="43.20809" lon="6.53657">
        <ele>321.9</ele>
        <time>2024-05-26T12:58:43.000Z</time>
      </trkpt>
      <trkpt lat="43.20809" lon="6.53657">
        <ele>321.9</ele>
        <time>2024-05-26T12:58:44.000Z</time>
      </trkpt>
      <trkpt lat="43.20809" lon="6.53657">
        <ele>321.9</ele>
        <time>2024-05-26T12:58:45.000Z</time>
      </trkpt>
      <trkpt lat="43.20809" lon="6.53657">
        <ele>321.9</ele>
        <time>2024-05-26T12:58:46.000Z</time>
      </trkpt>
      <trkpt lat="43.20809" lon="6.53657">
        <ele>322</ele>
        <time>2024-05-26T12:59:51.000Z</time>
      </trkpt>
      <trkpt lat="43.20809" lon="6.53657">
        <ele>322</ele>
        <time>2024-05-26T12:59:52.000Z</time>
      </trkpt>
      <trkpt lat="43.20809" lon="6.53657">
        <ele>321.9</ele>
        <time>2024-05-26T12:59:53.000Z</time>
      </trkpt>
      <trkpt lat="43.20808" lon="6.53656">
        <ele>321.9</ele>
        <time>2024-05-26T12:59:59.000Z</time>
      </trkpt>
      <trkpt lat="43.20808" lon="6.53656">
        <ele>321.9</ele>
        <time>2024-05-26T13:00:00.000Z</time>
      </trkpt>
      <trkpt lat="43.20808" lon="6.53656">
        <ele>321.6</ele>
        <time>2024-05-26T13:00:26.000Z</time>
      </trkpt>
      <trkpt lat="43.20809" lon="6.53657">
        <ele>321.6</ele>
        <time>2024-05-26T13:00:27.000Z</time>
      </trkpt>
      <trkpt lat="43.20809" lon="6.53657">
        <ele>321.6</ele>
        <time>2024-05-26T13:00:28.000Z</time>
      </trkpt>
      <trkpt lat="43.2081" lon="6.53659">
        <ele>321.6</ele>
        <time>2024-05-26T13:00:34.000Z</time>
      </trkpt>
      <trkpt lat="43.2081" lon="6.53659">
        <ele>321.6</ele>
        <time>2024-05-26T13:00:35.000Z</time>
      </trkpt>
      <trkpt lat="43.2081" lon="6.53659">
        <ele>321.5</ele>
        <time>2024-05-26T13:00:36.000Z</time>
      </trkpt>
      <trkpt lat="43.2081" lon="6.53659">
        <ele>321.5</ele>
        <time>2024-05-26T13:00:37.000Z</time>
      </trkpt>
      <trkpt lat="43.2081" lon="6.53659">
        <ele>321.5</ele>
        <time>2024-05-26T13:00:38.000Z</time>
      </trkpt>
      <trkpt lat="43.2081" lon="6.53659">
        <ele>321.5</ele>
        <time>2024-05-26T13:00:39.000Z</time>
      </trkpt>
      <trkpt lat="43.2081" lon="6.53658">
        <ele>321.5</ele>
        <time>2024-05-26T13:00:44.000Z</time>
      </trkpt>
      <trkpt lat="43.2081" lon="6.53659">
        <ele>321.5</ele>
        <time>2024-05-26T13:00:45.000Z</time>
      </trkpt>
      <trkpt lat="43.20811" lon="6.5366">
        <ele>321.5</ele>
        <time>2024-05-26T13:00:46.000Z</time>
      </trkpt>
      <trkpt lat="43.20812" lon="6.53661">
        <ele>321.5</ele>
        <time>2024-05-26T13:00:47.000Z</time>
      </trkpt>
      <trkpt lat="43.20813" lon="6.53662">
        <ele>321.4</ele>
        <time>2024-05-26T13:00:48.000Z</time>
      </trkpt>
      <trkpt lat="43.20822" lon="6.53667">
        <ele>321.3</ele>
        <time>2024-05-26T13:00:57.000Z</time>
      </trkpt>
      <trkpt lat="43.20831" lon="6.53672">
        <ele>321.2</ele>
        <time>2024-05-26T13:01:04.000Z</time>
      </trkpt>
      <trkpt lat="43.20839" lon="6.53681">
        <ele>321</ele>
        <time>2024-05-26T13:01:12.000Z</time>
      </trkpt>
      <trkpt lat="43.20846" lon="6.53689">
        <ele>320.7</ele>
        <time>2024-05-26T13:01:19.000Z</time>
      </trkpt>
      <trkpt lat="43.20853" lon="6.53698">
        <ele>320.3</ele>
        <time>2024-05-26T13:01:28.000Z</time>
      </trkpt>
      <trkpt lat="43.2086" lon="6.53706">
        <ele>320</ele>
        <time>2024-05-26T13:01:36.000Z</time>
      </trkpt>
      <trkpt lat="43.20868" lon="6.53713">
        <ele>319.1</ele>
        <time>2024-05-26T13:01:50.000Z</time>
      </trkpt>
      <trkpt lat="43.20876" lon="6.5372">
        <ele>317.7</ele>
        <time>2024-05-26T13:01:59.000Z</time>
      </trkpt>
      <trkpt lat="43.20885" lon="6.53726">
        <ele>316.8</ele>
        <time>2024-05-26T13:02:08.000Z</time>
      </trkpt>
      <trkpt lat="43.20893" lon="6.53733">
        <ele>316.5</ele>
        <time>2024-05-26T13:02:16.000Z</time>
      </trkpt>
      <trkpt lat="43.20901" lon="6.53738">
        <ele>316</ele>
        <time>2024-05-26T13:02:24.000Z</time>
      </trkpt>
      <trkpt lat="43.20907" lon="6.53748">
        <ele>315.8</ele>
        <time>2024-05-26T13:02:32.000Z</time>
      </trkpt>
      <trkpt lat="43.20914" lon="6.53757">
        <ele>315.8</ele>
        <time>2024-05-26T13:02:42.000Z</time>
      </trkpt>
      <trkpt lat="43.20921" lon="6.53761">
        <ele>315.8</ele>
        <time>2024-05-26T13:03:04.000Z</time>
      </trkpt>
      <trkpt lat="43.20921" lon="6.53761">
        <ele>315.9</ele>
        <time>2024-05-26T13:03:05.000Z</time>
      </trkpt>
      <trkpt lat="43.20921" lon="6.53761">
        <ele>315.9</ele>
        <time>2024-05-26T13:03:06.000Z</time>
      </trkpt>
      <trkpt lat="43.20921" lon="6.53761">
        <ele>315.9</ele>
        <time>2024-05-26T13:03:07.000Z</time>
      </trkpt>
      <trkpt lat="43.20921" lon="6.53761">
        <ele>315.9</ele>
        <time>2024-05-26T13:03:08.000Z</time>
      </trkpt>
      <trkpt lat="43.20924" lon="6.53767">
        <ele>316</ele>
        <time>2024-05-26T13:03:29.000Z</time>
      </trkpt>
      <trkpt lat="43.20924" lon="6.53768">
        <ele>316</ele>
        <time>2024-05-26T13:03:30.000Z</time>
      </trkpt>
      <trkpt lat="43.20925" lon="6.53769">
        <ele>316</ele>
        <time>2024-05-26T13:03:31.000Z</time>
      </trkpt>
      <trkpt lat="43.20926" lon="6.53769">
        <ele>316</ele>
        <time>2024-05-26T13:03:32.000Z</time>
      </trkpt>
      <trkpt lat="43.20927" lon="6.5377">
        <ele>316</ele>
        <time>2024-05-26T13:03:33.000Z</time>
      </trkpt>
      <trkpt lat="43.20928" lon="6.53771">
        <ele>316</ele>
        <time>2024-05-26T13:03:34.000Z</time>
      </trkpt>
      <trkpt lat="43.20936" lon="6.5378">
        <ele>316</ele>
        <time>2024-05-26T13:03:43.000Z</time>
      </trkpt>
      <trkpt lat="43.20944" lon="6.53787">
        <ele>316</ele>
        <time>2024-05-26T13:03:53.000Z</time>
      </trkpt>
      <trkpt lat="43.20953" lon="6.53793">
        <ele>316.1</ele>
        <time>2024-05-26T13:04:02.000Z</time>
      </trkpt>
      <trkpt lat="43.20962" lon="6.53797">
        <ele>316.3</ele>
        <time>2024-05-26T13:04:11.000Z</time>
      </trkpt>
      <trkpt lat="43.20971" lon="6.53798">
        <ele>316.6</ele>
        <time>2024-05-26T13:04:20.000Z</time>
      </trkpt>
      <trkpt lat="43.20981" lon="6.53802">
        <ele>316.7</ele>
        <time>2024-05-26T13:04:31.000Z</time>
      </trkpt>
      <trkpt lat="43.2099" lon="6.53807">
        <ele>316.8</ele>
        <time>2024-05-26T13:04:43.000Z</time>
      </trkpt>
      <trkpt lat="43.20998" lon="6.53814">
        <ele>318</ele>
        <time>2024-05-26T13:05:02.000Z</time>
      </trkpt>
      <trkpt lat="43.21007" lon="6.53821">
        <ele>319.9</ele>
        <time>2024-05-26T13:05:14.000Z</time>
      </trkpt>
      <trkpt lat="43.21015" lon="6.53828">
        <ele>321.1</ele>
        <time>2024-05-26T13:05:24.000Z</time>
      </trkpt>
      <trkpt lat="43.21023" lon="6.53836">
        <ele>322.1</ele>
        <time>2024-05-26T13:05:35.000Z</time>
      </trkpt>
      <trkpt lat="43.21032" lon="6.53836">
        <ele>322.6</ele>
        <time>2024-05-26T13:05:49.000Z</time>
      </trkpt>
      <trkpt lat="43.2104" lon="6.5383">
        <ele>322.6</ele>
        <time>2024-05-26T13:05:58.000Z</time>
      </trkpt>
      <trkpt lat="43.21048" lon="6.53824">
        <ele>322.4</ele>
        <time>2024-05-26T13:06:07.000Z</time>
      </trkpt>
      <trkpt lat="43.21057" lon="6.53821">
        <ele>322</ele>
        <time>2024-05-26T13:06:17.000Z</time>
      </trkpt>
      <trkpt lat="43.21067" lon="6.53819">
        <ele>321.7</ele>
        <time>2024-05-26T13:06:29.000Z</time>
      </trkpt>
      <trkpt lat="43.21076" lon="6.53825">
        <ele>321.6</ele>
        <time>2024-05-26T13:06:38.000Z</time>
      </trkpt>
      <trkpt lat="43.2108" lon="6.53836">
        <ele>321.7</ele>
        <time>2024-05-26T13:06:47.000Z</time>
      </trkpt>
      <trkpt lat="43.21087" lon="6.53845">
        <ele>322</ele>
        <time>2024-05-26T13:06:56.000Z</time>
      </trkpt>
      <trkpt lat="43.21095" lon="6.53852">
        <ele>322.4</ele>
        <time>2024-05-26T13:07:05.000Z</time>
      </trkpt>
      <trkpt lat="43.21101" lon="6.53861">
        <ele>322.7</ele>
        <time>2024-05-26T13:07:13.000Z</time>
      </trkpt>
      <trkpt lat="43.21108" lon="6.53871">
        <ele>323</ele>
        <time>2024-05-26T13:07:23.000Z</time>
      </trkpt>
      <trkpt lat="43.21113" lon="6.53881">
        <ele>323.3</ele>
        <time>2024-05-26T13:07:33.000Z</time>
      </trkpt>
      <trkpt lat="43.2112" lon="6.5389">
        <ele>323.6</ele>
        <time>2024-05-26T13:07:45.000Z</time>
      </trkpt>
      <trkpt lat="43.21127" lon="6.53899">
        <ele>323.6</ele>
        <time>2024-05-26T13:07:54.000Z</time>
      </trkpt>
      <trkpt lat="43.21133" lon="6.53909">
        <ele>323.2</ele>
        <time>2024-05-26T13:08:04.000Z</time>
      </trkpt>
      <trkpt lat="43.21136" lon="6.53921">
        <ele>322.5</ele>
        <time>2024-05-26T13:08:13.000Z</time>
      </trkpt>
      <trkpt lat="43.21135" lon="6.53934">
        <ele>321.8</ele>
        <time>2024-05-26T13:08:22.000Z</time>
      </trkpt>
      <trkpt lat="43.21134" lon="6.53948">
        <ele>321</ele>
        <time>2024-05-26T13:08:32.000Z</time>
      </trkpt>
      <trkpt lat="43.21133" lon="6.5396">
        <ele>319.9</ele>
        <time>2024-05-26T13:08:42.000Z</time>
      </trkpt>
      <trkpt lat="43.21133" lon="6.53973">
        <ele>319</ele>
        <time>2024-05-26T13:08:52.000Z</time>
      </trkpt>
      <trkpt lat="43.21131" lon="6.53986">
        <ele>316.7</ele>
        <time>2024-05-26T13:09:08.000Z</time>
      </trkpt>
      <trkpt lat="43.21131" lon="6.53999">
        <ele>314.4</ele>
        <time>2024-05-26T13:09:20.000Z</time>
      </trkpt>
      <trkpt lat="43.21129" lon="6.54012">
        <ele>312.6</ele>
        <time>2024-05-26T13:09:31.000Z</time>
      </trkpt>
      <trkpt lat="43.21129" lon="6.54025">
        <ele>311.1</ele>
        <time>2024-05-26T13:09:40.000Z</time>
      </trkpt>
      <trkpt lat="43.2113" lon="6.54037">
        <ele>310.3</ele>
        <time>2024-05-26T13:09:46.000Z</time>
      </trkpt>
      <trkpt lat="43.2113" lon="6.5405">
        <ele>309.7</ele>
        <time>2024-05-26T13:09:53.000Z</time>
      </trkpt>
      <trkpt lat="43.21132" lon="6.54063">
        <ele>309.3</ele>
        <time>2024-05-26T13:10:00.000Z</time>
      </trkpt>
      <trkpt lat="43.21135" lon="6.54075">
        <ele>309</ele>
        <time>2024-05-26T13:10:09.000Z</time>
      </trkpt>
      <trkpt lat="43.21139" lon="6.54086">
        <ele>308.5</ele>
        <time>2024-05-26T13:10:18.000Z</time>
      </trkpt>
      <trkpt lat="43.21144" lon="6.54096">
        <ele>307.8</ele>
        <time>2024-05-26T13:10:26.000Z</time>
      </trkpt>
      <trkpt lat="43.21149" lon="6.54109">
        <ele>307.1</ele>
        <time>2024-05-26T13:10:34.000Z</time>
      </trkpt>
      <trkpt lat="43.21154" lon="6.5412">
        <ele>306.9</ele>
        <time>2024-05-26T13:10:42.000Z</time>
      </trkpt>
      <trkpt lat="43.21157" lon="6.54123">
        <ele>306.9</ele>
        <time>2024-05-26T13:10:52.000Z</time>
      </trkpt>
      <trkpt lat="43.21157" lon="6.54123">
        <ele>306.9</ele>
        <time>2024-05-26T13:10:53.000Z</time>
      </trkpt>
      <trkpt lat="43.21157" lon="6.54124">
        <ele>306.9</ele>
        <time>2024-05-26T13:10:54.000Z</time>
      </trkpt>
      <trkpt lat="43.21157" lon="6.54125">
        <ele>306.9</ele>
        <time>2024-05-26T13:10:55.000Z</time>
      </trkpt>
      <trkpt lat="43.21158" lon="6.54126">
        <ele>306.8</ele>
        <time>2024-05-26T13:10:56.000Z</time>
      </trkpt>
      <trkpt lat="43.21163" lon="6.54136">
        <ele>306.7</ele>
        <time>2024-05-26T13:11:05.000Z</time>
      </trkpt>
      <trkpt lat="43.2117" lon="6.54146">
        <ele>306.4</ele>
        <time>2024-05-26T13:11:14.000Z</time>
      </trkpt>
      <trkpt lat="43.21176" lon="6.54156">
        <ele>306.1</ele>
        <time>2024-05-26T13:11:22.000Z</time>
      </trkpt>
      <trkpt lat="43.21182" lon="6.54165">
        <ele>305.9</ele>
        <time>2024-05-26T13:11:30.000Z</time>
      </trkpt>
      <trkpt lat="43.21189" lon="6.54174">
        <ele>305.7</ele>
        <time>2024-05-26T13:11:38.000Z</time>
      </trkpt>
      <trkpt lat="43.21197" lon="6.54182">
        <ele>305.5</ele>
        <time>2024-05-26T13:11:46.000Z</time>
      </trkpt>
      <trkpt lat="43.21203" lon="6.5419">
        <ele>305.4</ele>
        <time>2024-05-26T13:11:54.000Z</time>
      </trkpt>
      <trkpt lat="43.21211" lon="6.54197">
        <ele>305.5</ele>
        <time>2024-05-26T13:12:02.000Z</time>
      </trkpt>
      <trkpt lat="43.21216" lon="6.54209">
        <ele>305.6</ele>
        <time>2024-05-26T13:12:11.000Z</time>
      </trkpt>
      <trkpt lat="43.2122" lon="6.54222">
        <ele>305.6</ele>
        <time>2024-05-26T13:12:20.000Z</time>
      </trkpt>
      <trkpt lat="43.21225" lon="6.54233">
        <ele>305.5</ele>
        <time>2024-05-26T13:12:26.000Z</time>
      </trkpt>
      <trkpt lat="43.21232" lon="6.54241">
        <ele>304.9</ele>
        <time>2024-05-26T13:12:34.000Z</time>
      </trkpt>
      <trkpt lat="43.21239" lon="6.54249">
        <ele>304</ele>
        <time>2024-05-26T13:12:43.000Z</time>
      </trkpt>
      <trkpt lat="43.21247" lon="6.54256">
        <ele>303.5</ele>
        <time>2024-05-26T13:12:50.000Z</time>
      </trkpt>
      <trkpt lat="43.21255" lon="6.54264">
        <ele>303.2</ele>
        <time>2024-05-26T13:12:57.000Z</time>
      </trkpt>
      <trkpt lat="43.21262" lon="6.54272">
        <ele>303.1</ele>
        <time>2024-05-26T13:13:05.000Z</time>
      </trkpt>
      <trkpt lat="43.2127" lon="6.5428">
        <ele>302.7</ele>
        <time>2024-05-26T13:13:13.000Z</time>
      </trkpt>
      <trkpt lat="43.21279" lon="6.54285">
        <ele>301.6</ele>
        <time>2024-05-26T13:13:22.000Z</time>
      </trkpt>
      <trkpt lat="43.21289" lon="6.54288">
        <ele>301.1</ele>
        <time>2024-05-26T13:13:30.000Z</time>
      </trkpt>
      <trkpt lat="43.21297" lon="6.54291">
        <ele>300.9</ele>
        <time>2024-05-26T13:13:38.000Z</time>
      </trkpt>
      <trkpt lat="43.21306" lon="6.54296">
        <ele>301</ele>
        <time>2024-05-26T13:13:46.000Z</time>
      </trkpt>
      <trkpt lat="43.21315" lon="6.54301">
        <ele>301.1</ele>
        <time>2024-05-26T13:13:55.000Z</time>
      </trkpt>
      <trkpt lat="43.21324" lon="6.54309">
        <ele>301</ele>
        <time>2024-05-26T13:14:04.000Z</time>
      </trkpt>
      <trkpt lat="43.21332" lon="6.54315">
        <ele>300.8</ele>
        <time>2024-05-26T13:14:12.000Z</time>
      </trkpt>
      <trkpt lat="43.2134" lon="6.54321">
        <ele>300.6</ele>
        <time>2024-05-26T13:14:19.000Z</time>
      </trkpt>
      <trkpt lat="43.21349" lon="6.54326">
        <ele>300.4</ele>
        <time>2024-05-26T13:14:26.000Z</time>
      </trkpt>
      <trkpt lat="43.21358" lon="6.54329">
        <ele>300.4</ele>
        <time>2024-05-26T13:14:34.000Z</time>
      </trkpt>
      <trkpt lat="43.21367" lon="6.54331">
        <ele>300.5</ele>
        <time>2024-05-26T13:14:43.000Z</time>
      </trkpt>
      <trkpt lat="43.21376" lon="6.54338">
        <ele>300.9</ele>
        <time>2024-05-26T13:14:51.000Z</time>
      </trkpt>
      <trkpt lat="43.21383" lon="6.54346">
        <ele>301.1</ele>
        <time>2024-05-26T13:14:58.000Z</time>
      </trkpt>
      <trkpt lat="43.21391" lon="6.54354">
        <ele>301</ele>
        <time>2024-05-26T13:15:06.000Z</time>
      </trkpt>
      <trkpt lat="43.21398" lon="6.54362">
        <ele>300.8</ele>
        <time>2024-05-26T13:15:14.000Z</time>
      </trkpt>
      <trkpt lat="43.21405" lon="6.5437">
        <ele>300.7</ele>
        <time>2024-05-26T13:15:23.000Z</time>
      </trkpt>
      <trkpt lat="43.21411" lon="6.54381">
        <ele>300.4</ele>
        <time>2024-05-26T13:15:32.000Z</time>
      </trkpt>
      <trkpt lat="43.21409" lon="6.54394">
        <ele>300.1</ele>
        <time>2024-05-26T13:15:41.000Z</time>
      </trkpt>
      <trkpt lat="43.21401" lon="6.54402">
        <ele>300.1</ele>
        <time>2024-05-26T13:15:49.000Z</time>
      </trkpt>
      <trkpt lat="43.21394" lon="6.54412">
        <ele>300.1</ele>
        <time>2024-05-26T13:15:59.000Z</time>
      </trkpt>
      <trkpt lat="43.21387" lon="6.54421">
        <ele>300.2</ele>
        <time>2024-05-26T13:16:08.000Z</time>
      </trkpt>
      <trkpt lat="43.21382" lon="6.54432">
        <ele>300.2</ele>
        <time>2024-05-26T13:16:17.000Z</time>
      </trkpt>
      <trkpt lat="43.21377" lon="6.54442">
        <ele>300.2</ele>
        <time>2024-05-26T13:16:25.000Z</time>
      </trkpt>
      <trkpt lat="43.21374" lon="6.54455">
        <ele>300.2</ele>
        <time>2024-05-26T13:16:35.000Z</time>
      </trkpt>
      <trkpt lat="43.21371" lon="6.54468">
        <ele>300</ele>
        <time>2024-05-26T13:16:43.000Z</time>
      </trkpt>
      <trkpt lat="43.2137" lon="6.5448">
        <ele>299.8</ele>
        <time>2024-05-26T13:16:52.000Z</time>
      </trkpt>
      <trkpt lat="43.21365" lon="6.54493">
        <ele>299.2</ele>
        <time>2024-05-26T13:17:01.000Z</time>
      </trkpt>
      <trkpt lat="43.2136" lon="6.54504">
        <ele>298.4</ele>
        <time>2024-05-26T13:17:10.000Z</time>
      </trkpt>
      <trkpt lat="43.21356" lon="6.54516">
        <ele>297.8</ele>
        <time>2024-05-26T13:17:19.000Z</time>
      </trkpt>
      <trkpt lat="43.21353" lon="6.54523">
        <ele>296.8</ele>
        <time>2024-05-26T13:17:34.000Z</time>
      </trkpt>
      <trkpt lat="43.21353" lon="6.54523">
        <ele>296.8</ele>
        <time>2024-05-26T13:17:35.000Z</time>
      </trkpt>
      <trkpt lat="43.21353" lon="6.54523">
        <ele>296.8</ele>
        <time>2024-05-26T13:17:36.000Z</time>
      </trkpt>
      <trkpt lat="43.21353" lon="6.54523">
        <ele>296.7</ele>
        <time>2024-05-26T13:17:37.000Z</time>
      </trkpt>
      <trkpt lat="43.21353" lon="6.54523">
        <ele>296.7</ele>
        <time>2024-05-26T13:17:38.000Z</time>
      </trkpt>
      <trkpt lat="43.21353" lon="6.54523">
        <ele>296.6</ele>
        <time>2024-05-26T13:17:39.000Z</time>
      </trkpt>
      <trkpt lat="43.21353" lon="6.54523">
        <ele>296.6</ele>
        <time>2024-05-26T13:17:40.000Z</time>
      </trkpt>
      <trkpt lat="43.21353" lon="6.54523">
        <ele>296.5</ele>
        <time>2024-05-26T13:18:05.000Z</time>
      </trkpt>
      <trkpt lat="43.21353" lon="6.54523">
        <ele>296.5</ele>
        <time>2024-05-26T13:18:06.000Z</time>
      </trkpt>
      <trkpt lat="43.21353" lon="6.54523">
        <ele>296.5</ele>
        <time>2024-05-26T13:18:09.000Z</time>
      </trkpt>
      <trkpt lat="43.21353" lon="6.54523">
        <ele>296.5</ele>
        <time>2024-05-26T13:18:10.000Z</time>
      </trkpt>
      <trkpt lat="43.21353" lon="6.54523">
        <ele>296.5</ele>
        <time>2024-05-26T13:18:11.000Z</time>
      </trkpt>
      <trkpt lat="43.21353" lon="6.54523">
        <ele>296.5</ele>
        <time>2024-05-26T13:18:12.000Z</time>
      </trkpt>
      <trkpt lat="43.21353" lon="6.54523">
        <ele>296.5</ele>
        <time>2024-05-26T13:18:13.000Z</time>
      </trkpt>
      <trkpt lat="43.21353" lon="6.54523">
        <ele>296.5</ele>
        <time>2024-05-26T13:18:14.000Z</time>
      </trkpt>
      <trkpt lat="43.21353" lon="6.54523">
        <ele>296.5</ele>
        <time>2024-05-26T13:18:15.000Z</time>
      </trkpt>
      <trkpt lat="43.21354" lon="6.54523">
        <ele>296.5</ele>
        <time>2024-05-26T13:18:16.000Z</time>
      </trkpt>
      <trkpt lat="43.21354" lon="6.54524">
        <ele>296.5</ele>
        <time>2024-05-26T13:18:17.000Z</time>
      </trkpt>
      <trkpt lat="43.21354" lon="6.54523">
        <ele>296.5</ele>
        <time>2024-05-26T13:18:18.000Z</time>
      </trkpt>
      <trkpt lat="43.2135" lon="6.54535">
        <ele>296.4</ele>
        <time>2024-05-26T13:18:27.000Z</time>
      </trkpt>
      <trkpt lat="43.21343" lon="6.54544">
        <ele>296.3</ele>
        <time>2024-05-26T13:18:34.000Z</time>
      </trkpt>
      <trkpt lat="43.21337" lon="6.54553">
        <ele>296</ele>
        <time>2024-05-26T13:18:42.000Z</time>
      </trkpt>
      <trkpt lat="43.21334" lon="6.54566">
        <ele>295.7</ele>
        <time>2024-05-26T13:18:49.000Z</time>
      </trkpt>
      <trkpt lat="43.21332" lon="6.54577">
        <ele>295.2</ele>
        <time>2024-05-26T13:18:56.000Z</time>
      </trkpt>
      <trkpt lat="43.21328" lon="6.54589">
        <ele>294.6</ele>
        <time>2024-05-26T13:19:03.000Z</time>
      </trkpt>
      <trkpt lat="43.21323" lon="6.546">
        <ele>293.8</ele>
        <time>2024-05-26T13:19:10.000Z</time>
      </trkpt>
      <trkpt lat="43.21317" lon="6.5461">
        <ele>293.1</ele>
        <time>2024-05-26T13:19:19.000Z</time>
      </trkpt>
      <trkpt lat="43.21316" lon="6.54613">
        <ele>292.7</ele>
        <time>2024-05-26T13:19:24.000Z</time>
      </trkpt>
      <trkpt lat="43.21316" lon="6.54613">
        <ele>292.6</ele>
        <time>2024-05-26T13:19:25.000Z</time>
      </trkpt>
      <trkpt lat="43.21316" lon="6.54613">
        <ele>292.5</ele>
        <time>2024-05-26T13:19:26.000Z</time>
      </trkpt>
      <trkpt lat="43.21315" lon="6.54614">
        <ele>291.7</ele>
        <time>2024-05-26T13:19:36.000Z</time>
      </trkpt>
      <trkpt lat="43.21315" lon="6.54615">
        <ele>291.6</ele>
        <time>2024-05-26T13:19:37.000Z</time>
      </trkpt>
      <trkpt lat="43.21315" lon="6.54616">
        <ele>291.5</ele>
        <time>2024-05-26T13:19:38.000Z</time>
      </trkpt>
      <trkpt lat="43.2131" lon="6.54628">
        <ele>289.9</ele>
        <time>2024-05-26T13:19:49.000Z</time>
      </trkpt>
      <trkpt lat="43.21305" lon="6.54638">
        <ele>287.4</ele>
        <time>2024-05-26T13:19:57.000Z</time>
      </trkpt>
      <trkpt lat="43.21298" lon="6.54647">
        <ele>285.6</ele>
        <time>2024-05-26T13:20:04.000Z</time>
      </trkpt>
      <trkpt lat="43.21291" lon="6.54656">
        <ele>284</ele>
        <time>2024-05-26T13:20:12.000Z</time>
      </trkpt>
      <trkpt lat="43.21285" lon="6.54666">
        <ele>281.1</ele>
        <time>2024-05-26T13:20:21.000Z</time>
      </trkpt>
      <trkpt lat="43.2128" lon="6.54678">
        <ele>278.3</ele>
        <time>2024-05-26T13:20:30.000Z</time>
      </trkpt>
      <trkpt lat="43.21273" lon="6.54688">
        <ele>275.9</ele>
        <time>2024-05-26T13:20:38.000Z</time>
      </trkpt>
      <trkpt lat="43.21266" lon="6.54698">
        <ele>273.4</ele>
        <time>2024-05-26T13:20:45.000Z</time>
      </trkpt>
      <trkpt lat="43.21258" lon="6.54705">
        <ele>272.3</ele>
        <time>2024-05-26T13:20:52.000Z</time>
      </trkpt>
      <trkpt lat="43.21254" lon="6.54718">
        <ele>270.8</ele>
        <time>2024-05-26T13:20:59.000Z</time>
      </trkpt>
      <trkpt lat="43.21251" lon="6.5473">
        <ele>269.8</ele>
        <time>2024-05-26T13:21:05.000Z</time>
      </trkpt>
      <trkpt lat="43.21248" lon="6.54742">
        <ele>268.5</ele>
        <time>2024-05-26T13:21:13.000Z</time>
      </trkpt>
      <trkpt lat="43.2124" lon="6.54751">
        <ele>267.5</ele>
        <time>2024-05-26T13:21:21.000Z</time>
      </trkpt>
      <trkpt lat="43.21236" lon="6.54764">
        <ele>266.4</ele>
        <time>2024-05-26T13:21:30.000Z</time>
      </trkpt>
      <trkpt lat="43.21232" lon="6.54776">
        <ele>265.9</ele>
        <time>2024-05-26T13:21:38.000Z</time>
      </trkpt>
      <trkpt lat="43.21227" lon="6.54788">
        <ele>264.8</ele>
        <time>2024-05-26T13:21:45.000Z</time>
      </trkpt>
      <trkpt lat="43.21222" lon="6.54799">
        <ele>262.8</ele>
        <time>2024-05-26T13:21:52.000Z</time>
      </trkpt>
      <trkpt lat="43.21216" lon="6.54809">
        <ele>261.2</ele>
        <time>2024-05-26T13:21:59.000Z</time>
      </trkpt>
      <trkpt lat="43.2121" lon="6.54819">
        <ele>260.2</ele>
        <time>2024-05-26T13:22:07.000Z</time>
      </trkpt>
      <trkpt lat="43.21205" lon="6.5483">
        <ele>259.6</ele>
        <time>2024-05-26T13:22:15.000Z</time>
      </trkpt>
      <trkpt lat="43.21198" lon="6.54841">
        <ele>259.2</ele>
        <time>2024-05-26T13:22:23.000Z</time>
      </trkpt>
      <trkpt lat="43.21192" lon="6.54849">
        <ele>258.9</ele>
        <time>2024-05-26T13:22:30.000Z</time>
      </trkpt>
      <trkpt lat="43.21185" lon="6.54858">
        <ele>258.7</ele>
        <time>2024-05-26T13:22:38.000Z</time>
      </trkpt>
      <trkpt lat="43.21181" lon="6.54871">
        <ele>258.7</ele>
        <time>2024-05-26T13:22:46.000Z</time>
      </trkpt>
      <trkpt lat="43.21175" lon="6.54882">
        <ele>258.8</ele>
        <time>2024-05-26T13:22:53.000Z</time>
      </trkpt>
      <trkpt lat="43.21167" lon="6.54888">
        <ele>259</ele>
        <time>2024-05-26T13:23:02.000Z</time>
      </trkpt>
      <trkpt lat="43.21159" lon="6.54895">
        <ele>259.1</ele>
        <time>2024-05-26T13:23:11.000Z</time>
      </trkpt>
      <trkpt lat="43.2115" lon="6.54899">
        <ele>259</ele>
        <time>2024-05-26T13:23:18.000Z</time>
      </trkpt>
      <trkpt lat="43.21142" lon="6.54908">
        <ele>258.5</ele>
        <time>2024-05-26T13:23:29.000Z</time>
      </trkpt>
      <trkpt lat="43.21134" lon="6.54914">
        <ele>258</ele>
        <time>2024-05-26T13:23:37.000Z</time>
      </trkpt>
      <trkpt lat="43.21126" lon="6.5492">
        <ele>257.3</ele>
        <time>2024-05-26T13:23:45.000Z</time>
      </trkpt>
      <trkpt lat="43.21117" lon="6.54926">
        <ele>256.5</ele>
        <time>2024-05-26T13:23:53.000Z</time>
      </trkpt>
      <trkpt lat="43.21108" lon="6.54932">
        <ele>255.9</ele>
        <time>2024-05-26T13:24:01.000Z</time>
      </trkpt>
      <trkpt lat="43.21101" lon="6.54939">
        <ele>255.5</ele>
        <time>2024-05-26T13:24:09.000Z</time>
      </trkpt>
      <trkpt lat="43.21094" lon="6.54949">
        <ele>255.2</ele>
        <time>2024-05-26T13:24:18.000Z</time>
      </trkpt>
      <trkpt lat="43.21087" lon="6.54958">
        <ele>254.4</ele>
        <time>2024-05-26T13:24:28.000Z</time>
      </trkpt>
      <trkpt lat="43.21079" lon="6.54963">
        <ele>253.6</ele>
        <time>2024-05-26T13:24:37.000Z</time>
      </trkpt>
      <trkpt lat="43.21069" lon="6.54964">
        <ele>253</ele>
        <time>2024-05-26T13:24:47.000Z</time>
      </trkpt>
      <trkpt lat="43.2106" lon="6.54964">
        <ele>252.4</ele>
        <time>2024-05-26T13:24:58.000Z</time>
      </trkpt>
      <trkpt lat="43.21051" lon="6.54966">
        <ele>250.7</ele>
        <time>2024-05-26T13:25:09.000Z</time>
      </trkpt>
      <trkpt lat="43.21048" lon="6.54965">
        <ele>249.7</ele>
        <time>2024-05-26T13:25:17.000Z</time>
      </trkpt>
      <trkpt lat="43.21048" lon="6.54965">
        <ele>249.6</ele>
        <time>2024-05-26T13:25:18.000Z</time>
      </trkpt>
      <trkpt lat="43.21047" lon="6.54965">
        <ele>249.2</ele>
        <time>2024-05-26T13:25:24.000Z</time>
      </trkpt>
      <trkpt lat="43.21046" lon="6.54965">
        <ele>249.2</ele>
        <time>2024-05-26T13:25:25.000Z</time>
      </trkpt>
      <trkpt lat="43.21037" lon="6.54962">
        <ele>247.8</ele>
        <time>2024-05-26T13:25:36.000Z</time>
      </trkpt>
      <trkpt lat="43.21029" lon="6.54956">
        <ele>246.1</ele>
        <time>2024-05-26T13:25:47.000Z</time>
      </trkpt>
      <trkpt lat="43.21027" lon="6.54955">
        <ele>245.7</ele>
        <time>2024-05-26T13:25:54.000Z</time>
      </trkpt>
      <trkpt lat="43.21027" lon="6.54955">
        <ele>245.6</ele>
        <time>2024-05-26T13:25:55.000Z</time>
      </trkpt>
      <trkpt lat="43.21027" lon="6.54955">
        <ele>245.6</ele>
        <time>2024-05-26T13:25:56.000Z</time>
      </trkpt>
      <trkpt lat="43.21027" lon="6.54956">
        <ele>245.2</ele>
        <time>2024-05-26T13:26:12.000Z</time>
      </trkpt>
      <trkpt lat="43.21026" lon="6.54956">
        <ele>245.2</ele>
        <time>2024-05-26T13:26:13.000Z</time>
      </trkpt>
      <trkpt lat="43.21017" lon="6.54962">
        <ele>244.6</ele>
        <time>2024-05-26T13:26:22.000Z</time>
      </trkpt>
      <trkpt lat="43.21009" lon="6.54967">
        <ele>242.8</ele>
        <time>2024-05-26T13:26:36.000Z</time>
      </trkpt>
      <trkpt lat="43.21" lon="6.54964">
        <ele>240.4</ele>
        <time>2024-05-26T13:26:51.000Z</time>
      </trkpt>
      <trkpt lat="43.20992" lon="6.54957">
        <ele>236.9</ele>
        <time>2024-05-26T13:27:05.000Z</time>
      </trkpt>
      <trkpt lat="43.20991" lon="6.54957">
        <ele>235.8</ele>
        <time>2024-05-26T13:27:12.000Z</time>
      </trkpt>
      <trkpt lat="43.20991" lon="6.54957">
        <ele>235.7</ele>
        <time>2024-05-26T13:27:13.000Z</time>
      </trkpt>
      <trkpt lat="43.20991" lon="6.54957">
        <ele>235.2</ele>
        <time>2024-05-26T13:27:21.000Z</time>
      </trkpt>
      <trkpt lat="43.20991" lon="6.54957">
        <ele>235.2</ele>
        <time>2024-05-26T13:27:22.000Z</time>
      </trkpt>
      <trkpt lat="43.20991" lon="6.54957">
        <ele>235.1</ele>
        <time>2024-05-26T13:27:23.000Z</time>
      </trkpt>
      <trkpt lat="43.20984" lon="6.54949">
        <ele>234.6</ele>
        <time>2024-05-26T13:27:37.000Z</time>
      </trkpt>
      <trkpt lat="43.20975" lon="6.54945">
        <ele>233.4</ele>
        <time>2024-05-26T13:27:47.000Z</time>
      </trkpt>
      <trkpt lat="43.20965" lon="6.54943">
        <ele>230.5</ele>
        <time>2024-05-26T13:27:58.000Z</time>
      </trkpt>
      <trkpt lat="43.20956" lon="6.54941">
        <ele>227.6</ele>
        <time>2024-05-26T13:28:12.000Z</time>
      </trkpt>
      <trkpt lat="43.20956" lon="6.54941">
        <ele>227</ele>
        <time>2024-05-26T13:28:16.000Z</time>
      </trkpt>
      <trkpt lat="43.20956" lon="6.54941">
        <ele>227</ele>
        <time>2024-05-26T13:28:17.000Z</time>
      </trkpt>
      <trkpt lat="43.20956" lon="6.54941">
        <ele>226.9</ele>
        <time>2024-05-26T13:28:18.000Z</time>
      </trkpt>
      <trkpt lat="43.20956" lon="6.54942">
        <ele>225.8</ele>
        <time>2024-05-26T13:28:37.000Z</time>
      </trkpt>
      <trkpt lat="43.20956" lon="6.54942">
        <ele>225.7</ele>
        <time>2024-05-26T13:28:38.000Z</time>
      </trkpt>
      <trkpt lat="43.20949" lon="6.54939">
        <ele>224.4</ele>
        <time>2024-05-26T13:28:54.000Z</time>
      </trkpt>
      <trkpt lat="43.20949" lon="6.54939">
        <ele>224.3</ele>
        <time>2024-05-26T13:28:55.000Z</time>
      </trkpt>
      <trkpt lat="43.20948" lon="6.54939">
        <ele>224.2</ele>
        <time>2024-05-26T13:28:56.000Z</time>
      </trkpt>
      <trkpt lat="43.20947" lon="6.54938">
        <ele>224.1</ele>
        <time>2024-05-26T13:28:57.000Z</time>
      </trkpt>
      <trkpt lat="43.20946" lon="6.54937">
        <ele>224</ele>
        <time>2024-05-26T13:28:58.000Z</time>
      </trkpt>
      <trkpt lat="43.20943" lon="6.54926">
        <ele>222.8</ele>
        <time>2024-05-26T13:29:07.000Z</time>
      </trkpt>
      <trkpt lat="43.20943" lon="6.54913">
        <ele>221</ele>
        <time>2024-05-26T13:29:18.000Z</time>
      </trkpt>
      <trkpt lat="43.20946" lon="6.54902">
        <ele>219.8</ele>
        <time>2024-05-26T13:29:26.000Z</time>
      </trkpt>
      <trkpt lat="43.20952" lon="6.54891">
        <ele>219.2</ele>
        <time>2024-05-26T13:29:34.000Z</time>
      </trkpt>
      <trkpt lat="43.20959" lon="6.54882">
        <ele>218.6</ele>
        <time>2024-05-26T13:29:43.000Z</time>
      </trkpt>
      <trkpt lat="43.20967" lon="6.54875">
        <ele>218.1</ele>
        <time>2024-05-26T13:29:53.000Z</time>
      </trkpt>
      <trkpt lat="43.2097" lon="6.54862">
        <ele>217.7</ele>
        <time>2024-05-26T13:30:04.000Z</time>
      </trkpt>
      <trkpt lat="43.20969" lon="6.54859">
        <ele>217.5</ele>
        <time>2024-05-26T13:30:17.000Z</time>
      </trkpt>
      <trkpt lat="43.20969" lon="6.54859">
        <ele>217.5</ele>
        <time>2024-05-26T13:30:18.000Z</time>
      </trkpt>
      <trkpt lat="43.20969" lon="6.54859">
        <ele>217.6</ele>
        <time>2024-05-26T13:30:21.000Z</time>
      </trkpt>
      <trkpt lat="43.20969" lon="6.5486">
        <ele>217.6</ele>
        <time>2024-05-26T13:30:22.000Z</time>
      </trkpt>
      <trkpt lat="43.20969" lon="6.5486">
        <ele>217.7</ele>
        <time>2024-05-26T13:30:23.000Z</time>
      </trkpt>
      <trkpt lat="43.20969" lon="6.5486">
        <ele>217.7</ele>
        <time>2024-05-26T13:30:32.000Z</time>
      </trkpt>
      <trkpt lat="43.20969" lon="6.5486">
        <ele>217.7</ele>
        <time>2024-05-26T13:30:33.000Z</time>
      </trkpt>
      <trkpt lat="43.20969" lon="6.5486">
        <ele>217.7</ele>
        <time>2024-05-26T13:30:34.000Z</time>
      </trkpt>
      <trkpt lat="43.20969" lon="6.5486">
        <ele>217.7</ele>
        <time>2024-05-26T13:30:34.000Z</time>
      </trkpt>
      <trkpt lat="43.20969" lon="6.5486">
        <ele>217.7</ele>
        <time>2024-05-26T13:30:34.000Z</time>
      </trkpt>
      <trkpt lat="43.20969" lon="6.5486">
        <ele>217.7</ele>
        <time>2024-05-26T13:30:34.000Z</time>
      </trkpt>
    </trkseg>
  </trk>
</gpx>